<?xml version='1.0' encoding='UTF-8'?><gpx version="1.1" creator="JPX - https://github.com/jenetics/jpx" xmlns="http://www.topografix.com/GPX/1/1"><trk><trkseg><trkpt lat="41.1802567" lon="15.1104333"><ele>574.0</ele><time>2026-04-12T08:37:24.936Z</time></trkpt><trkpt lat="41.1803233" lon="15.1104017"><ele>574.0</ele><time>2026-04-12T08:37:40.936Z</time></trkpt><trkpt lat="41.1804567" lon="15.1103533"><ele>574.0</ele><time>2026-04-12T08:39:35.934Z</time></trkpt><trkpt lat="41.1805667" lon="15.1103233"><ele>574.0</ele><time>2026-04-12T08:39:37.935Z</time></trkpt><trkpt lat="41.1806383" lon="15.110305"><ele>574.0</ele><time>2026-04-12T08:39:38.935Z</time></trkpt><trkpt lat="41.18071" lon="15.1102833"><ele>573.4</ele><time>2026-04-12T08:39:39.934Z</time></trkpt><trkpt lat="41.18079" lon="15.1102617"><ele>572.8</ele><time>2026-04-12T08:39:40.935Z</time></trkpt><trkpt lat="41.18087" lon="15.11024"><ele>572.2</ele><time>2026-04-12T08:39:41.935Z</time></trkpt><trkpt lat="41.1809517" lon="15.1102217"><ele>571.6</ele><time>2026-04-12T08:39:42.935Z</time></trkpt><trkpt lat="41.1810333" lon="15.1102017"><ele>571.0</ele><time>2026-04-12T08:39:43.935Z</time></trkpt><trkpt lat="41.1811567" lon="15.11018"><ele>571.0</ele><time>2026-04-12T08:39:45.935Z</time></trkpt><trkpt lat="41.1812317" lon="15.1101783"><ele>571.0</ele><time>2026-04-12T08:39:46.934Z</time></trkpt><trkpt lat="41.1813083" lon="15.110185"><ele>571.0</ele><time>2026-04-12T08:39:47.935Z</time></trkpt><trkpt lat="41.1813983" lon="15.1101967"><ele>571.0</ele><time>2026-04-12T08:39:48.934Z</time></trkpt><trkpt lat="41.1814833" lon="15.110205"><ele>571.0</ele><time>2026-04-12T08:39:49.934Z</time></trkpt><trkpt lat="41.1815633" lon="15.11022"><ele>571.0</ele><time>2026-04-12T08:39:50.934Z</time></trkpt><trkpt lat="41.1816367" lon="15.1102383"><ele>570.0</ele><time>2026-04-12T08:39:51.935Z</time></trkpt><trkpt lat="41.181705" lon="15.1102617"><ele>569.0</ele><time>2026-04-12T08:39:52.935Z</time></trkpt><trkpt lat="41.18177" lon="15.1102867"><ele>568.0</ele><time>2026-04-12T08:39:53.935Z</time></trkpt><trkpt lat="41.1818417" lon="15.1103133"><ele>567.0</ele><time>2026-04-12T08:39:54.935Z</time></trkpt><trkpt lat="41.1819133" lon="15.11035"><ele>566.0</ele><time>2026-04-12T08:39:55.935Z</time></trkpt><trkpt lat="41.1819917" lon="15.1103867"><ele>565.0</ele><time>2026-04-12T08:39:56.935Z</time></trkpt><trkpt lat="41.1820733" lon="15.1104233"><ele>565.0</ele><time>2026-04-12T08:39:57.935Z</time></trkpt><trkpt lat="41.18215" lon="15.1104533"><ele>565.0</ele><time>2026-04-12T08:39:58.935Z</time></trkpt><trkpt lat="41.18223" lon="15.11048"><ele>565.0</ele><time>2026-04-12T08:39:59.935Z</time></trkpt><trkpt lat="41.1823117" lon="15.1104917"><ele>565.0</ele><time>2026-04-12T08:40:00.934Z</time></trkpt><trkpt lat="41.18239" lon="15.1104983"><ele>565.0</ele><time>2026-04-12T08:40:01.935Z</time></trkpt><trkpt lat="41.1824683" lon="15.1105117"><ele>565.0</ele><time>2026-04-12T08:40:02.935Z</time></trkpt><trkpt lat="41.18255" lon="15.110515"><ele>562.6666666666667</ele><time>2026-04-12T08:40:03.934Z</time></trkpt><trkpt lat="41.1826333" lon="15.11054"><ele>560.3333333333334</ele><time>2026-04-12T08:40:04.934Z</time></trkpt><trkpt lat="41.1827167" lon="15.1105617"><ele>558.0</ele><time>2026-04-12T08:40:05.935Z</time></trkpt><trkpt lat="41.1828033" lon="15.11059"><ele>555.6666666666666</ele><time>2026-04-12T08:40:06.935Z</time></trkpt><trkpt lat="41.1828817" lon="15.1106183"><ele>553.3333333333333</ele><time>2026-04-12T08:40:07.935Z</time></trkpt><trkpt lat="41.1829667" lon="15.1106483"><ele>551.0</ele><time>2026-04-12T08:40:08.935Z</time></trkpt><trkpt lat="41.1830517" lon="15.1106733"><ele>551.0</ele><time>2026-04-12T08:40:09.934Z</time></trkpt><trkpt lat="41.1831333" lon="15.1107083"><ele>551.0</ele><time>2026-04-12T08:40:10.935Z</time></trkpt><trkpt lat="41.1832167" lon="15.110735"><ele>551.0</ele><time>2026-04-12T08:40:11.934Z</time></trkpt><trkpt lat="41.183295" lon="15.1107733"><ele>551.0</ele><time>2026-04-12T08:40:12.934Z</time></trkpt><trkpt lat="41.1833767" lon="15.1108117"><ele>551.0</ele><time>2026-04-12T08:40:13.934Z</time></trkpt><trkpt lat="41.183465" lon="15.1108517"><ele>551.0</ele><time>2026-04-12T08:40:14.935Z</time></trkpt><trkpt lat="41.18355" lon="15.11089"><ele>551.1666666666666</ele><time>2026-04-12T08:40:15.935Z</time></trkpt><trkpt lat="41.1836333" lon="15.1109283"><ele>551.3333333333333</ele><time>2026-04-12T08:40:16.935Z</time></trkpt><trkpt lat="41.1837167" lon="15.1109617"><ele>551.5</ele><time>2026-04-12T08:40:17.934Z</time></trkpt><trkpt lat="41.1838033" lon="15.1109967"><ele>551.6666666666666</ele><time>2026-04-12T08:40:18.935Z</time></trkpt><trkpt lat="41.1838883" lon="15.111035"><ele>551.8333333333334</ele><time>2026-04-12T08:40:19.935Z</time></trkpt><trkpt lat="41.1839683" lon="15.1110583"><ele>552.0</ele><time>2026-04-12T08:40:20.935Z</time></trkpt><trkpt lat="41.1840467" lon="15.1110767"><ele>552.0</ele><time>2026-04-12T08:40:21.935Z</time></trkpt><trkpt lat="41.184125" lon="15.111085"><ele>552.0</ele><time>2026-04-12T08:40:22.935Z</time></trkpt><trkpt lat="41.184205" lon="15.1110933"><ele>552.0</ele><time>2026-04-12T08:40:23.935Z</time></trkpt><trkpt lat="41.1842833" lon="15.1110967"><ele>552.0</ele><time>2026-04-12T08:40:24.935Z</time></trkpt><trkpt lat="41.1843667" lon="15.11109"><ele>552.0</ele><time>2026-04-12T08:40:25.935Z</time></trkpt><trkpt lat="41.18445" lon="15.1110783"><ele>552.0</ele><time>2026-04-12T08:40:26.934Z</time></trkpt><trkpt lat="41.1845283" lon="15.1110617"><ele>552.0</ele><time>2026-04-12T08:40:27.934Z</time></trkpt><trkpt lat="41.1846" lon="15.11105"><ele>552.0</ele><time>2026-04-12T08:40:28.934Z</time></trkpt><trkpt lat="41.1846667" lon="15.11104"><ele>552.0</ele><time>2026-04-12T08:40:29.934Z</time></trkpt><trkpt lat="41.1847833" lon="15.1110383"><ele>552.0</ele><time>2026-04-12T08:40:31.935Z</time></trkpt><trkpt lat="41.1849017" lon="15.1110467"><ele>552.0</ele><time>2026-04-12T08:40:33.934Z</time></trkpt><trkpt lat="41.1849683" lon="15.11104"><ele>552.0</ele><time>2026-04-12T08:40:34.935Z</time></trkpt><trkpt lat="41.1850317" lon="15.1110333"><ele>551.0</ele><time>2026-04-12T08:40:35.935Z</time></trkpt><trkpt lat="41.1850967" lon="15.1110233"><ele>550.0</ele><time>2026-04-12T08:40:36.934Z</time></trkpt><trkpt lat="41.185165" lon="15.1109983"><ele>549.0</ele><time>2026-04-12T08:40:37.934Z</time></trkpt><trkpt lat="41.1852317" lon="15.1109717"><ele>548.0</ele><time>2026-04-12T08:40:38.935Z</time></trkpt><trkpt lat="41.1852983" lon="15.1109483"><ele>547.0</ele><time>2026-04-12T08:40:39.935Z</time></trkpt><trkpt lat="41.18537" lon="15.110915"><ele>546.0</ele><time>2026-04-12T08:40:40.934Z</time></trkpt><trkpt lat="41.1854367" lon="15.1108983"><ele>545.0</ele><time>2026-04-12T08:40:41.935Z</time></trkpt><trkpt lat="41.185505" lon="15.1108767"><ele>545.0</ele><time>2026-04-12T08:40:42.934Z</time></trkpt><trkpt lat="41.1855733" lon="15.1108567"><ele>545.0</ele><time>2026-04-12T08:40:43.935Z</time></trkpt><trkpt lat="41.1856383" lon="15.1108367"><ele>545.0</ele><time>2026-04-12T08:40:44.935Z</time></trkpt><trkpt lat="41.1857067" lon="15.110815"><ele>545.0</ele><time>2026-04-12T08:40:45.935Z</time></trkpt><trkpt lat="41.1857783" lon="15.1107967"><ele>545.0</ele><time>2026-04-12T08:40:46.935Z</time></trkpt><trkpt lat="41.18585" lon="15.110775"><ele>545.0</ele><time>2026-04-12T08:40:47.935Z</time></trkpt><trkpt lat="41.185915" lon="15.1107583"><ele>545.0</ele><time>2026-04-12T08:40:48.935Z</time></trkpt><trkpt lat="41.185985" lon="15.1107333"><ele>539.5</ele><time>2026-04-12T08:40:49.935Z</time></trkpt><trkpt lat="41.1860533" lon="15.1107017"><ele>534.0</ele><time>2026-04-12T08:40:50.934Z</time></trkpt><trkpt lat="41.1861217" lon="15.1106633"><ele>528.5</ele><time>2026-04-12T08:40:51.935Z</time></trkpt><trkpt lat="41.1861867" lon="15.110625"><ele>523.0</ele><time>2026-04-12T08:40:52.935Z</time></trkpt><trkpt lat="41.18626" lon="15.1105867"><ele>517.5</ele><time>2026-04-12T08:40:53.934Z</time></trkpt><trkpt lat="41.1863333" lon="15.1105533"><ele>512.0</ele><time>2026-04-12T08:40:54.934Z</time></trkpt><trkpt lat="41.18641" lon="15.1105133"><ele>512.0</ele><time>2026-04-12T08:40:55.935Z</time></trkpt><trkpt lat="41.1864833" lon="15.1104767"><ele>512.0</ele><time>2026-04-12T08:40:56.935Z</time></trkpt><trkpt lat="41.1865533" lon="15.11044"><ele>512.0</ele><time>2026-04-12T08:40:57.935Z</time></trkpt><trkpt lat="41.1866133" lon="15.110405"><ele>512.0</ele><time>2026-04-12T08:40:58.935Z</time></trkpt><trkpt lat="41.1867283" lon="15.1103533"><ele>512.0</ele><time>2026-04-12T08:41:00.935Z</time></trkpt><trkpt lat="41.1868433" lon="15.1103683"><ele>511.3333333333333</ele><time>2026-04-12T08:41:02.935Z</time></trkpt><trkpt lat="41.1869133" lon="15.1103983"><ele>510.66666666666663</ele><time>2026-04-12T08:41:03.934Z</time></trkpt><trkpt lat="41.18698" lon="15.1104367"><ele>510.0</ele><time>2026-04-12T08:41:04.934Z</time></trkpt><trkpt lat="41.1870433" lon="15.1104733"><ele>509.33333333333337</ele><time>2026-04-12T08:41:05.934Z</time></trkpt><trkpt lat="41.187155" lon="15.110545"><ele>508.6666666666667</ele><time>2026-04-12T08:41:07.935Z</time></trkpt><trkpt lat="41.187215" lon="15.11058"><ele>508.0</ele><time>2026-04-12T08:41:08.935Z</time></trkpt><trkpt lat="41.1873283" lon="15.11061"><ele>504.83333333333337</ele><time>2026-04-12T08:41:10.934Z</time></trkpt><trkpt lat="41.18745" lon="15.1105967"><ele>501.6666666666667</ele><time>2026-04-12T08:41:12.935Z</time></trkpt><trkpt lat="41.1875167" lon="15.1105867"><ele>498.5</ele><time>2026-04-12T08:41:13.935Z</time></trkpt><trkpt lat="41.187585" lon="15.1105667"><ele>495.33333333333337</ele><time>2026-04-12T08:41:14.935Z</time></trkpt><trkpt lat="41.1876583" lon="15.1105383"><ele>492.1666666666667</ele><time>2026-04-12T08:41:15.934Z</time></trkpt><trkpt lat="41.1877333" lon="15.1105083"><ele>489.0</ele><time>2026-04-12T08:41:16.935Z</time></trkpt><trkpt lat="41.1878117" lon="15.1104717"><ele>489.0</ele><time>2026-04-12T08:41:17.934Z</time></trkpt><trkpt lat="41.1878917" lon="15.110435"><ele>489.0</ele><time>2026-04-12T08:41:18.935Z</time></trkpt><trkpt lat="41.1879767" lon="15.1104083"><ele>489.0</ele><time>2026-04-12T08:41:19.934Z</time></trkpt><trkpt lat="41.1880667" lon="15.1103883"><ele>489.0</ele><time>2026-04-12T08:41:20.934Z</time></trkpt><trkpt lat="41.1881483" lon="15.1103683"><ele>489.0</ele><time>2026-04-12T08:41:21.935Z</time></trkpt><trkpt lat="41.18823" lon="15.110345"><ele>489.0</ele><time>2026-04-12T08:41:22.935Z</time></trkpt><trkpt lat="41.1883117" lon="15.11033"><ele>485.3333333333333</ele><time>2026-04-12T08:41:23.935Z</time></trkpt><trkpt lat="41.1883933" lon="15.1103083"><ele>481.66666666666663</ele><time>2026-04-12T08:41:24.934Z</time></trkpt><trkpt lat="41.1884733" lon="15.1102883"><ele>478.0</ele><time>2026-04-12T08:41:25.934Z</time></trkpt><trkpt lat="41.18855" lon="15.110265"><ele>474.3333333333333</ele><time>2026-04-12T08:41:26.935Z</time></trkpt><trkpt lat="41.1886267" lon="15.1102467"><ele>470.66666666666663</ele><time>2026-04-12T08:41:27.934Z</time></trkpt><trkpt lat="41.1886933" lon="15.1102117"><ele>467.0</ele><time>2026-04-12T08:41:28.935Z</time></trkpt><trkpt lat="41.188755" lon="15.11017"><ele>466.99999999999994</ele><time>2026-04-12T08:41:29.934Z</time></trkpt><trkpt lat="41.1888283" lon="15.1101267"><ele>467.0</ele><time>2026-04-12T08:41:30.934Z</time></trkpt><trkpt lat="41.1889083" lon="15.1100817"><ele>467.0</ele><time>2026-04-12T08:41:31.934Z</time></trkpt><trkpt lat="41.188985" lon="15.11004"><ele>467.0</ele><time>2026-04-12T08:41:32.934Z</time></trkpt><trkpt lat="41.1890567" lon="15.109995"><ele>466.99999999999994</ele><time>2026-04-12T08:41:33.935Z</time></trkpt><trkpt lat="41.18912" lon="15.1099517"><ele>467.0</ele><time>2026-04-12T08:41:34.934Z</time></trkpt><trkpt lat="41.1891783" lon="15.1099083"><ele>464.99999999999994</ele><time>2026-04-12T08:41:35.935Z</time></trkpt><trkpt lat="41.1892367" lon="15.109855"><ele>463.0</ele><time>2026-04-12T08:41:36.934Z</time></trkpt><trkpt lat="41.18929" lon="15.1097867"><ele>461.0</ele><time>2026-04-12T08:41:37.935Z</time></trkpt><trkpt lat="41.1893417" lon="15.109705"><ele>459.0</ele><time>2026-04-12T08:41:38.935Z</time></trkpt><trkpt lat="41.1893867" lon="15.109625"><ele>456.99999999999994</ele><time>2026-04-12T08:41:39.935Z</time></trkpt><trkpt lat="41.1894267" lon="15.1095567"><ele>455.0</ele><time>2026-04-12T08:41:40.935Z</time></trkpt><trkpt lat="41.1894933" lon="15.109465"><ele>455.0</ele><time>2026-04-12T08:41:42.935Z</time></trkpt><trkpt lat="41.1895567" lon="15.10944"><ele>455.0</ele><time>2026-04-12T08:41:44.935Z</time></trkpt><trkpt lat="41.189665" lon="15.1094833"><ele>455.0</ele><time>2026-04-12T08:41:46.935Z</time></trkpt><trkpt lat="41.1897517" lon="15.1095317"><ele>455.0</ele><time>2026-04-12T08:41:47.935Z</time></trkpt><trkpt lat="41.1898633" lon="15.1096017"><ele>455.0</ele><time>2026-04-12T08:41:48.934Z</time></trkpt><trkpt lat="41.1899717" lon="15.1096733"><ele>454.4</ele><time>2026-04-12T08:41:49.934Z</time></trkpt><trkpt lat="41.1900717" lon="15.10973"><ele>453.8</ele><time>2026-04-12T08:41:50.934Z</time></trkpt><trkpt lat="41.19017" lon="15.1097783"><ele>453.20000000000005</ele><time>2026-04-12T08:41:51.934Z</time></trkpt><trkpt lat="41.1902717" lon="15.1098283"><ele>452.6</ele><time>2026-04-12T08:41:52.935Z</time></trkpt><trkpt lat="41.1903717" lon="15.1098783"><ele>452.0</ele><time>2026-04-12T08:41:53.935Z</time></trkpt><trkpt lat="41.1904617" lon="15.1099283"><ele>452.0</ele><time>2026-04-12T08:41:54.935Z</time></trkpt><trkpt lat="41.1905417" lon="15.109995"><ele>452.00000000000006</ele><time>2026-04-12T08:41:55.935Z</time></trkpt><trkpt lat="41.1906183" lon="15.1100733"><ele>452.00000000000006</ele><time>2026-04-12T08:41:56.934Z</time></trkpt><trkpt lat="41.190695" lon="15.1101483"><ele>452.0</ele><time>2026-04-12T08:41:57.935Z</time></trkpt><trkpt lat="41.19077" lon="15.1102217"><ele>452.0</ele><time>2026-04-12T08:41:58.935Z</time></trkpt><trkpt lat="41.190845" lon="15.11028"><ele>451.6</ele><time>2026-04-12T08:41:59.934Z</time></trkpt><trkpt lat="41.1909267" lon="15.11032"><ele>451.20000000000005</ele><time>2026-04-12T08:42:00.934Z</time></trkpt><trkpt lat="41.1910167" lon="15.110345"><ele>450.8</ele><time>2026-04-12T08:42:01.935Z</time></trkpt><trkpt lat="41.1911033" lon="15.1103483"><ele>450.4</ele><time>2026-04-12T08:42:02.935Z</time></trkpt><trkpt lat="41.19119" lon="15.1103217"><ele>450.0</ele><time>2026-04-12T08:42:03.935Z</time></trkpt><trkpt lat="41.1913033" lon="15.1103183"><ele>450.0</ele><time>2026-04-12T08:42:05.935Z</time></trkpt><trkpt lat="41.1913917" lon="15.1103633"><ele>450.0</ele><time>2026-04-12T08:42:08.934Z</time></trkpt><trkpt lat="41.191445" lon="15.110415"><ele>450.0</ele><time>2026-04-12T08:42:10.935Z</time></trkpt><trkpt lat="41.19151" lon="15.11051"><ele>450.0</ele><time>2026-04-12T08:42:12.934Z</time></trkpt><trkpt lat="41.1915917" lon="15.11053"><ele>450.0</ele><time>2026-04-12T08:42:13.934Z</time></trkpt><trkpt lat="41.1917233" lon="15.1105517"><ele>449.8</ele><time>2026-04-12T08:42:14.935Z</time></trkpt><trkpt lat="41.1918433" lon="15.1105617"><ele>449.6</ele><time>2026-04-12T08:42:15.935Z</time></trkpt><trkpt lat="41.1919517" lon="15.1105767"><ele>449.4</ele><time>2026-04-12T08:42:16.935Z</time></trkpt><trkpt lat="41.1920383" lon="15.11061"><ele>449.2</ele><time>2026-04-12T08:42:17.935Z</time></trkpt><trkpt lat="41.1921083" lon="15.1106383"><ele>449.0</ele><time>2026-04-12T08:42:18.934Z</time></trkpt><trkpt lat="41.1921683" lon="15.110665"><ele>448.99999999999994</ele><time>2026-04-12T08:42:19.934Z</time></trkpt><trkpt lat="41.1922317" lon="15.1107117"><ele>449.0</ele><time>2026-04-12T08:42:21.935Z</time></trkpt><trkpt lat="41.1923183" lon="15.1107417"><ele>449.0</ele><time>2026-04-12T08:42:23.935Z</time></trkpt><trkpt lat="41.1923817" lon="15.11074"><ele>449.0</ele><time>2026-04-12T08:42:24.935Z</time></trkpt><trkpt lat="41.1924567" lon="15.1107183"><ele>448.99999999999994</ele><time>2026-04-12T08:42:25.935Z</time></trkpt><trkpt lat="41.1925317" lon="15.1106933"><ele>449.0</ele><time>2026-04-12T08:42:26.935Z</time></trkpt><trkpt lat="41.1926067" lon="15.1106667"><ele>449.2</ele><time>2026-04-12T08:42:27.935Z</time></trkpt><trkpt lat="41.1926733" lon="15.1106533"><ele>449.4</ele><time>2026-04-12T08:42:28.934Z</time></trkpt><trkpt lat="41.1928117" lon="15.1107017"><ele>449.6</ele><time>2026-04-12T08:42:30.934Z</time></trkpt><trkpt lat="41.192905" lon="15.1107633"><ele>449.8</ele><time>2026-04-12T08:42:31.934Z</time></trkpt><trkpt lat="41.1929967" lon="15.1108533"><ele>450.0</ele><time>2026-04-12T08:42:32.934Z</time></trkpt><trkpt lat="41.1930833" lon="15.11094"><ele>450.4</ele><time>2026-04-12T08:42:33.935Z</time></trkpt><trkpt lat="41.193165" lon="15.1110317"><ele>450.8</ele><time>2026-04-12T08:42:34.935Z</time></trkpt><trkpt lat="41.19325" lon="15.11112"><ele>451.20000000000005</ele><time>2026-04-12T08:42:35.935Z</time></trkpt><trkpt lat="41.1933333" lon="15.1111917"><ele>451.6</ele><time>2026-04-12T08:42:36.935Z</time></trkpt><trkpt lat="41.1934183" lon="15.1112517"><ele>452.0</ele><time>2026-04-12T08:42:37.934Z</time></trkpt><trkpt lat="41.1935" lon="15.1112983"><ele>452.0</ele><time>2026-04-12T08:42:38.935Z</time></trkpt><trkpt lat="41.193585" lon="15.1113267"><ele>452.00000000000006</ele><time>2026-04-12T08:42:39.934Z</time></trkpt><trkpt lat="41.1936783" lon="15.1113333"><ele>452.00000000000006</ele><time>2026-04-12T08:42:40.934Z</time></trkpt><trkpt lat="41.193785" lon="15.111295"><ele>452.0</ele><time>2026-04-12T08:42:41.935Z</time></trkpt><trkpt lat="41.19389" lon="15.1112483"><ele>452.0</ele><time>2026-04-12T08:42:42.934Z</time></trkpt><trkpt lat="41.1939933" lon="15.1111967"><ele>452.20000000000005</ele><time>2026-04-12T08:42:43.935Z</time></trkpt><trkpt lat="41.194085" lon="15.1111383"><ele>452.40000000000003</ele><time>2026-04-12T08:42:44.935Z</time></trkpt><trkpt lat="41.1941633" lon="15.1110633"><ele>452.59999999999997</ele><time>2026-04-12T08:42:45.935Z</time></trkpt><trkpt lat="41.1942417" lon="15.1109633"><ele>452.79999999999995</ele><time>2026-04-12T08:42:46.935Z</time></trkpt><trkpt lat="41.1943233" lon="15.110845"><ele>453.0</ele><time>2026-04-12T08:42:47.934Z</time></trkpt><trkpt lat="41.1944033" lon="15.1107033"><ele>452.0</ele><time>2026-04-12T08:42:48.935Z</time></trkpt><trkpt lat="41.1944817" lon="15.1105483"><ele>451.0</ele><time>2026-04-12T08:42:49.935Z</time></trkpt><trkpt lat="41.1945617" lon="15.110395"><ele>450.0</ele><time>2026-04-12T08:42:50.935Z</time></trkpt><trkpt lat="41.19464" lon="15.11025"><ele>449.0</ele><time>2026-04-12T08:42:51.935Z</time></trkpt><trkpt lat="41.1947217" lon="15.1101167"><ele>449.0</ele><time>2026-04-12T08:42:52.935Z</time></trkpt><trkpt lat="41.194815" lon="15.110005"><ele>449.0</ele><time>2026-04-12T08:42:53.935Z</time></trkpt><trkpt lat="41.1949067" lon="15.1099233"><ele>449.0</ele><time>2026-04-12T08:42:54.935Z</time></trkpt><trkpt lat="41.1950133" lon="15.10986"><ele>449.0</ele><time>2026-04-12T08:42:55.934Z</time></trkpt><trkpt lat="41.19512" lon="15.109815"><ele>449.5</ele><time>2026-04-12T08:42:56.935Z</time></trkpt><trkpt lat="41.1952283" lon="15.1097883"><ele>450.0</ele><time>2026-04-12T08:42:57.935Z</time></trkpt><trkpt lat="41.19534" lon="15.1097817"><ele>450.5</ele><time>2026-04-12T08:42:58.934Z</time></trkpt><trkpt lat="41.1954667" lon="15.109805"><ele>451.0</ele><time>2026-04-12T08:42:59.934Z</time></trkpt><trkpt lat="41.195585" lon="15.1098417"><ele>452.0</ele><time>2026-04-12T08:43:00.935Z</time></trkpt><trkpt lat="41.1956983" lon="15.1098917"><ele>453.0</ele><time>2026-04-12T08:43:01.934Z</time></trkpt><trkpt lat="41.1957983" lon="15.109945"><ele>454.0</ele><time>2026-04-12T08:43:02.934Z</time></trkpt><trkpt lat="41.1958983" lon="15.1100233"><ele>455.0</ele><time>2026-04-12T08:43:03.935Z</time></trkpt><trkpt lat="41.1959933" lon="15.110105"><ele>458.0</ele><time>2026-04-12T08:43:04.935Z</time></trkpt><trkpt lat="41.19607" lon="15.11019"><ele>461.0</ele><time>2026-04-12T08:43:05.934Z</time></trkpt><trkpt lat="41.19613" lon="15.11027"><ele>464.0</ele><time>2026-04-12T08:43:06.935Z</time></trkpt><trkpt lat="41.1961633" lon="15.1103517"><ele>467.0</ele><time>2026-04-12T08:43:07.934Z</time></trkpt><trkpt lat="41.1961583" lon="15.1105217"><ele>470.0</ele><time>2026-04-12T08:43:09.935Z</time></trkpt><trkpt lat="41.19611" lon="15.1106217"><ele>470.0</ele><time>2026-04-12T08:43:10.935Z</time></trkpt><trkpt lat="41.1960217" lon="15.1107317"><ele>470.0</ele><time>2026-04-12T08:43:11.935Z</time></trkpt><trkpt lat="41.1959133" lon="15.110825"><ele>470.0</ele><time>2026-04-12T08:43:12.935Z</time></trkpt><trkpt lat="41.19583" lon="15.1109067"><ele>470.0</ele><time>2026-04-12T08:43:13.935Z</time></trkpt><trkpt lat="41.19577" lon="15.1110067"><ele>470.75</ele><time>2026-04-12T08:43:14.934Z</time></trkpt><trkpt lat="41.195725" lon="15.1111283"><ele>471.5</ele><time>2026-04-12T08:43:15.934Z</time></trkpt><trkpt lat="41.1956867" lon="15.1112767"><ele>472.25</ele><time>2026-04-12T08:43:16.934Z</time></trkpt><trkpt lat="41.1956483" lon="15.1114383"><ele>473.0</ele><time>2026-04-12T08:43:17.935Z</time></trkpt><trkpt lat="41.1956033" lon="15.1116317"><ele>474.66666666666663</ele><time>2026-04-12T08:43:18.935Z</time></trkpt><trkpt lat="41.1955533" lon="15.1118417"><ele>476.33333333333337</ele><time>2026-04-12T08:43:19.935Z</time></trkpt><trkpt lat="41.1955067" lon="15.112055"><ele>478.0</ele><time>2026-04-12T08:43:20.935Z</time></trkpt><trkpt lat="41.1954717" lon="15.1122417"><ele>478.0</ele><time>2026-04-12T08:43:21.935Z</time></trkpt><trkpt lat="41.1954433" lon="15.1123967"><ele>478.0</ele><time>2026-04-12T08:43:22.934Z</time></trkpt><trkpt lat="41.1954267" lon="15.1124917"><ele>478.0</ele><time>2026-04-12T08:43:23.935Z</time></trkpt><trkpt lat="41.1954567" lon="15.1126317"><ele>478.0</ele><time>2026-04-12T08:43:25.934Z</time></trkpt><trkpt lat="41.1956083" lon="15.1126483"><ele>484.25</ele><time>2026-04-12T08:43:27.935Z</time></trkpt><trkpt lat="41.1957133" lon="15.112615"><ele>490.5</ele><time>2026-04-12T08:43:28.935Z</time></trkpt><trkpt lat="41.1958533" lon="15.11255"><ele>496.75</ele><time>2026-04-12T08:43:29.934Z</time></trkpt><trkpt lat="41.1960117" lon="15.1124667"><ele>503.0</ele><time>2026-04-12T08:43:30.935Z</time></trkpt><trkpt lat="41.1961617" lon="15.11239"><ele>502.99999999999994</ele><time>2026-04-12T08:43:31.934Z</time></trkpt><trkpt lat="41.1962767" lon="15.112335"><ele>503.0</ele><time>2026-04-12T08:43:32.934Z</time></trkpt><trkpt lat="41.1963667" lon="15.1123033"><ele>503.0</ele><time>2026-04-12T08:43:33.935Z</time></trkpt><trkpt lat="41.19644" lon="15.1123"><ele>503.0</ele><time>2026-04-12T08:43:34.934Z</time></trkpt><trkpt lat="41.1965017" lon="15.1123183"><ele>502.99999999999994</ele><time>2026-04-12T08:43:35.934Z</time></trkpt><trkpt lat="41.1965467" lon="15.112385"><ele>503.0</ele><time>2026-04-12T08:43:36.934Z</time></trkpt><trkpt lat="41.1965933" lon="15.1124767"><ele>508.25</ele><time>2026-04-12T08:43:37.934Z</time></trkpt><trkpt lat="41.1966433" lon="15.112595"><ele>513.5</ele><time>2026-04-12T08:43:38.935Z</time></trkpt><trkpt lat="41.1967" lon="15.1127367"><ele>518.75</ele><time>2026-04-12T08:43:39.935Z</time></trkpt><trkpt lat="41.1967583" lon="15.1128833"><ele>524.0</ele><time>2026-04-12T08:43:40.935Z</time></trkpt><trkpt lat="41.1968233" lon="15.1130183"><ele>524.0</ele><time>2026-04-12T08:43:41.934Z</time></trkpt><trkpt lat="41.196885" lon="15.113165"><ele>524.0</ele><time>2026-04-12T08:43:42.934Z</time></trkpt><trkpt lat="41.196955" lon="15.1133083"><ele>524.0</ele><time>2026-04-12T08:43:43.934Z</time></trkpt><trkpt lat="41.1970333" lon="15.1134467"><ele>524.0</ele><time>2026-04-12T08:43:44.935Z</time></trkpt><trkpt lat="41.197115" lon="15.1135933"><ele>528.25</ele><time>2026-04-12T08:43:45.935Z</time></trkpt><trkpt lat="41.1972067" lon="15.1137433"><ele>532.5</ele><time>2026-04-12T08:43:46.935Z</time></trkpt><trkpt lat="41.1972917" lon="15.1138883"><ele>536.75</ele><time>2026-04-12T08:43:47.935Z</time></trkpt><trkpt lat="41.1973617" lon="15.11403"><ele>541.0</ele><time>2026-04-12T08:43:48.935Z</time></trkpt><trkpt lat="41.19742" lon="15.1141633"><ele>544.2</ele><time>2026-04-12T08:43:49.935Z</time></trkpt><trkpt lat="41.1974933" lon="15.11429"><ele>547.4000000000001</ele><time>2026-04-12T08:43:50.934Z</time></trkpt><trkpt lat="41.197565" lon="15.1143933"><ele>550.6</ele><time>2026-04-12T08:43:51.934Z</time></trkpt><trkpt lat="41.1976367" lon="15.11448"><ele>553.8000000000001</ele><time>2026-04-12T08:43:52.935Z</time></trkpt><trkpt lat="41.19771" lon="15.1145583"><ele>557.0</ele><time>2026-04-12T08:43:53.935Z</time></trkpt><trkpt lat="41.19779" lon="15.114625"><ele>557.0</ele><time>2026-04-12T08:43:54.935Z</time></trkpt><trkpt lat="41.1978667" lon="15.1146983"><ele>557.0</ele><time>2026-04-12T08:43:55.934Z</time></trkpt><trkpt lat="41.197935" lon="15.11477"><ele>557.0</ele><time>2026-04-12T08:43:56.934Z</time></trkpt><trkpt lat="41.198015" lon="15.1148483"><ele>557.0</ele><time>2026-04-12T08:43:57.935Z</time></trkpt><trkpt lat="41.198095" lon="15.1149267"><ele>557.0</ele><time>2026-04-12T08:43:58.935Z</time></trkpt><trkpt lat="41.1981817" lon="15.1150083"><ele>559.25</ele><time>2026-04-12T08:43:59.935Z</time></trkpt><trkpt lat="41.1982667" lon="15.1150983"><ele>561.5</ele><time>2026-04-12T08:44:00.934Z</time></trkpt><trkpt lat="41.1983567" lon="15.1151933"><ele>563.75</ele><time>2026-04-12T08:44:01.934Z</time></trkpt><trkpt lat="41.1984483" lon="15.1152917"><ele>566.0</ele><time>2026-04-12T08:44:02.934Z</time></trkpt><trkpt lat="41.1985383" lon="15.115395"><ele>566.0</ele><time>2026-04-12T08:44:03.935Z</time></trkpt><trkpt lat="41.1986317" lon="15.1155"><ele>566.0</ele><time>2026-04-12T08:44:04.934Z</time></trkpt><trkpt lat="41.1987267" lon="15.1156"><ele>566.0</ele><time>2026-04-12T08:44:05.935Z</time></trkpt><trkpt lat="41.1988233" lon="15.1157017"><ele>566.0</ele><time>2026-04-12T08:44:06.934Z</time></trkpt><trkpt lat="41.1989283" lon="15.1158"><ele>567.0</ele><time>2026-04-12T08:44:07.935Z</time></trkpt><trkpt lat="41.199035" lon="15.1159067"><ele>568.0</ele><time>2026-04-12T08:44:08.935Z</time></trkpt><trkpt lat="41.199145" lon="15.1160117"><ele>569.0</ele><time>2026-04-12T08:44:09.935Z</time></trkpt><trkpt lat="41.1992483" lon="15.1161067"><ele>570.0</ele><time>2026-04-12T08:44:10.934Z</time></trkpt><trkpt lat="41.199345" lon="15.1162133"><ele>570.0</ele><time>2026-04-12T08:44:11.935Z</time></trkpt><trkpt lat="41.1994433" lon="15.1163167"><ele>570.0</ele><time>2026-04-12T08:44:12.935Z</time></trkpt><trkpt lat="41.1995417" lon="15.1164183"><ele>570.0</ele><time>2026-04-12T08:44:13.935Z</time></trkpt><trkpt lat="41.1996217" lon="15.1165067"><ele>570.0</ele><time>2026-04-12T08:44:14.934Z</time></trkpt><trkpt lat="41.1996817" lon="15.116575"><ele>570.0</ele><time>2026-04-12T08:44:15.934Z</time></trkpt><trkpt lat="41.1997533" lon="15.1166567"><ele>570.6</ele><time>2026-04-12T08:44:16.935Z</time></trkpt><trkpt lat="41.1998267" lon="15.1167283"><ele>571.2</ele><time>2026-04-12T08:44:17.935Z</time></trkpt><trkpt lat="41.1999017" lon="15.116785"><ele>571.8</ele><time>2026-04-12T08:44:18.935Z</time></trkpt><trkpt lat="41.1999817" lon="15.1168467"><ele>572.4</ele><time>2026-04-12T08:44:19.934Z</time></trkpt><trkpt lat="41.2000667" lon="15.11691"><ele>573.0</ele><time>2026-04-12T08:44:20.934Z</time></trkpt><trkpt lat="41.2001483" lon="15.11697"><ele>573.1999999999999</ele><time>2026-04-12T08:44:21.934Z</time></trkpt><trkpt lat="41.2002333" lon="15.1170283"><ele>573.4</ele><time>2026-04-12T08:44:22.934Z</time></trkpt><trkpt lat="41.2003117" lon="15.117085"><ele>573.5999999999999</ele><time>2026-04-12T08:44:23.935Z</time></trkpt><trkpt lat="41.20039" lon="15.1171417"><ele>573.8</ele><time>2026-04-12T08:44:24.935Z</time></trkpt><trkpt lat="41.2004717" lon="15.1171967"><ele>574.0</ele><time>2026-04-12T08:44:25.934Z</time></trkpt><trkpt lat="41.2005583" lon="15.11725"><ele>574.0</ele><time>2026-04-12T08:44:26.934Z</time></trkpt><trkpt lat="41.20065" lon="15.1173083"><ele>574.0</ele><time>2026-04-12T08:44:27.935Z</time></trkpt><trkpt lat="41.2007433" lon="15.1173633"><ele>574.0</ele><time>2026-04-12T08:44:28.935Z</time></trkpt><trkpt lat="41.20084" lon="15.11742"><ele>574.0</ele><time>2026-04-12T08:44:29.934Z</time></trkpt><trkpt lat="41.2009217" lon="15.1174767"><ele>574.0</ele><time>2026-04-12T08:44:30.934Z</time></trkpt><trkpt lat="41.2010033" lon="15.11754"><ele>575.6666666666667</ele><time>2026-04-12T08:44:31.934Z</time></trkpt><trkpt lat="41.2010833" lon="15.1176"><ele>577.3333333333334</ele><time>2026-04-12T08:44:32.935Z</time></trkpt><trkpt lat="41.2011567" lon="15.1176667"><ele>579.0</ele><time>2026-04-12T08:44:33.934Z</time></trkpt><trkpt lat="41.2012233" lon="15.117735"><ele>580.6666666666666</ele><time>2026-04-12T08:44:34.934Z</time></trkpt><trkpt lat="41.20129" lon="15.1178017"><ele>582.3333333333333</ele><time>2026-04-12T08:44:35.935Z</time></trkpt><trkpt lat="41.20136" lon="15.117865"><ele>584.0</ele><time>2026-04-12T08:44:36.935Z</time></trkpt><trkpt lat="41.20143" lon="15.1179217"><ele>584.1666666666666</ele><time>2026-04-12T08:44:37.935Z</time></trkpt><trkpt lat="41.2015067" lon="15.1179817"><ele>584.3333333333333</ele><time>2026-04-12T08:44:38.935Z</time></trkpt><trkpt lat="41.20158" lon="15.11804"><ele>584.5</ele><time>2026-04-12T08:44:39.934Z</time></trkpt><trkpt lat="41.2016567" lon="15.118095"><ele>584.6666666666666</ele><time>2026-04-12T08:44:40.934Z</time></trkpt><trkpt lat="41.2017317" lon="15.1181533"><ele>584.8333333333334</ele><time>2026-04-12T08:44:41.935Z</time></trkpt><trkpt lat="41.2018167" lon="15.1182083"><ele>585.0</ele><time>2026-04-12T08:44:42.935Z</time></trkpt><trkpt lat="41.2019067" lon="15.1182633"><ele>586.6</ele><time>2026-04-12T08:44:43.935Z</time></trkpt><trkpt lat="41.2020017" lon="15.118325"><ele>588.2</ele><time>2026-04-12T08:44:44.935Z</time></trkpt><trkpt lat="41.2020967" lon="15.118385"><ele>589.8</ele><time>2026-04-12T08:44:45.935Z</time></trkpt><trkpt lat="41.2021917" lon="15.1184417"><ele>591.4</ele><time>2026-04-12T08:44:46.934Z</time></trkpt><trkpt lat="41.2022817" lon="15.1185017"><ele>593.0</ele><time>2026-04-12T08:44:47.934Z</time></trkpt><trkpt lat="41.202375" lon="15.1185533"><ele>593.4</ele><time>2026-04-12T08:44:48.935Z</time></trkpt><trkpt lat="41.2024633" lon="15.11861"><ele>593.8</ele><time>2026-04-12T08:44:49.935Z</time></trkpt><trkpt lat="41.202555" lon="15.118675"><ele>594.2</ele><time>2026-04-12T08:44:50.934Z</time></trkpt><trkpt lat="41.2026467" lon="15.1187383"><ele>594.6</ele><time>2026-04-12T08:44:51.934Z</time></trkpt><trkpt lat="41.2027283" lon="15.118795"><ele>595.0</ele><time>2026-04-12T08:44:52.934Z</time></trkpt><trkpt lat="41.202805" lon="15.11885"><ele>595.0</ele><time>2026-04-12T08:44:53.935Z</time></trkpt><trkpt lat="41.2028833" lon="15.1189067"><ele>595.0</ele><time>2026-04-12T08:44:54.935Z</time></trkpt><trkpt lat="41.20298" lon="15.1189633"><ele>595.0</ele><time>2026-04-12T08:44:55.935Z</time></trkpt><trkpt lat="41.203075" lon="15.1190183"><ele>595.0</ele><time>2026-04-12T08:44:56.935Z</time></trkpt><trkpt lat="41.20316" lon="15.1190633"><ele>595.0</ele><time>2026-04-12T08:44:57.935Z</time></trkpt><trkpt lat="41.2032283" lon="15.119105"><ele>595.8333333333334</ele><time>2026-04-12T08:44:58.934Z</time></trkpt><trkpt lat="41.203295" lon="15.1191517"><ele>596.6666666666667</ele><time>2026-04-12T08:44:59.934Z</time></trkpt><trkpt lat="41.2034017" lon="15.1192217"><ele>597.5</ele><time>2026-04-12T08:45:01.935Z</time></trkpt><trkpt lat="41.203485" lon="15.119255"><ele>598.3333333333334</ele><time>2026-04-12T08:45:03.935Z</time></trkpt><trkpt lat="41.2035667" lon="15.119275"><ele>599.1666666666666</ele><time>2026-04-12T08:45:05.935Z</time></trkpt><trkpt lat="41.2036383" lon="15.1193033"><ele>600.0</ele><time>2026-04-12T08:45:07.934Z</time></trkpt><trkpt lat="41.203745" lon="15.11933"><ele>600.0</ele><time>2026-04-12T08:50:06.934Z</time></trkpt><trkpt lat="41.203805" lon="15.1193583"><ele>600.0</ele><time>2026-04-12T08:50:07.934Z</time></trkpt><trkpt lat="41.2039167" lon="15.1194167"><ele>600.0</ele><time>2026-04-12T08:50:09.934Z</time></trkpt><trkpt lat="41.2040217" lon="15.1194667"><ele>600.0</ele><time>2026-04-12T08:50:11.933Z</time></trkpt><trkpt lat="41.204135" lon="15.1195183"><ele>600.0</ele><time>2026-04-12T08:50:13.934Z</time></trkpt><trkpt lat="41.204195" lon="15.1195483"><ele>599.5714285714286</ele><time>2026-04-12T08:50:14.934Z</time></trkpt><trkpt lat="41.204255" lon="15.1195817"><ele>599.1428571428571</ele><time>2026-04-12T08:50:15.934Z</time></trkpt><trkpt lat="41.2043183" lon="15.11962"><ele>598.7142857142858</ele><time>2026-04-12T08:50:16.934Z</time></trkpt><trkpt lat="41.2043833" lon="15.1196617"><ele>598.2857142857142</ele><time>2026-04-12T08:50:17.933Z</time></trkpt><trkpt lat="41.204445" lon="15.119695"><ele>597.8571428571429</ele><time>2026-04-12T08:50:18.933Z</time></trkpt><trkpt lat="41.2045033" lon="15.1197283"><ele>597.4285714285714</ele><time>2026-04-12T08:50:19.934Z</time></trkpt><trkpt lat="41.2045667" lon="15.1197667"><ele>597.0</ele><time>2026-04-12T08:50:20.934Z</time></trkpt><trkpt lat="41.2046333" lon="15.1198033"><ele>597.0</ele><time>2026-04-12T08:50:21.933Z</time></trkpt><trkpt lat="41.2047017" lon="15.119845"><ele>597.0</ele><time>2026-04-12T08:50:22.934Z</time></trkpt><trkpt lat="41.2047733" lon="15.1198883"><ele>597.0</ele><time>2026-04-12T08:50:23.934Z</time></trkpt><trkpt lat="41.2048467" lon="15.1199317"><ele>597.0</ele><time>2026-04-12T08:50:24.934Z</time></trkpt><trkpt lat="41.2049217" lon="15.1199767"><ele>597.0</ele><time>2026-04-12T08:50:25.933Z</time></trkpt><trkpt lat="41.205" lon="15.1200217"><ele>597.0</ele><time>2026-04-12T08:50:26.934Z</time></trkpt><trkpt lat="41.205075" lon="15.1200617"><ele>596.2857142857143</ele><time>2026-04-12T08:50:27.934Z</time></trkpt><trkpt lat="41.2051467" lon="15.1201067"><ele>595.5714285714286</ele><time>2026-04-12T08:50:28.933Z</time></trkpt><trkpt lat="41.2052233" lon="15.12015"><ele>594.8571428571429</ele><time>2026-04-12T08:50:29.934Z</time></trkpt><trkpt lat="41.2052917" lon="15.12019"><ele>594.1428571428571</ele><time>2026-04-12T08:50:30.934Z</time></trkpt><trkpt lat="41.2053567" lon="15.1202283"><ele>593.4285714285714</ele><time>2026-04-12T08:50:31.934Z</time></trkpt><trkpt lat="41.2054167" lon="15.1202733"><ele>592.7142857142858</ele><time>2026-04-12T08:50:32.933Z</time></trkpt><trkpt lat="41.20547" lon="15.12032"><ele>592.0</ele><time>2026-04-12T08:50:33.934Z</time></trkpt><trkpt lat="41.2055583" lon="15.1204417"><ele>592.0</ele><time>2026-04-12T08:50:35.934Z</time></trkpt><trkpt lat="41.2055967" lon="15.12052"><ele>592.0</ele><time>2026-04-12T08:50:36.934Z</time></trkpt><trkpt lat="41.2056333" lon="15.1206017"><ele>592.0</ele><time>2026-04-12T08:50:37.934Z</time></trkpt><trkpt lat="41.2056683" lon="15.1206933"><ele>592.0</ele><time>2026-04-12T08:50:38.933Z</time></trkpt><trkpt lat="41.2057" lon="15.1207917"><ele>592.0</ele><time>2026-04-12T08:50:39.933Z</time></trkpt><trkpt lat="41.20573" lon="15.120895"><ele>592.0</ele><time>2026-04-12T08:50:40.933Z</time></trkpt><trkpt lat="41.2057433" lon="15.1209983"><ele>592.5</ele><time>2026-04-12T08:50:41.933Z</time></trkpt><trkpt lat="41.205765" lon="15.1211"><ele>593.0</ele><time>2026-04-12T08:50:42.934Z</time></trkpt><trkpt lat="41.20579" lon="15.121205"><ele>593.5</ele><time>2026-04-12T08:50:43.934Z</time></trkpt><trkpt lat="41.2058217" lon="15.1213083"><ele>594.0</ele><time>2026-04-12T08:50:44.933Z</time></trkpt><trkpt lat="41.2058517" lon="15.1214133"><ele>594.5</ele><time>2026-04-12T08:50:45.934Z</time></trkpt><trkpt lat="41.2058817" lon="15.12151"><ele>595.0</ele><time>2026-04-12T08:50:46.933Z</time></trkpt><trkpt lat="41.20591" lon="15.121595"><ele>595.0</ele><time>2026-04-12T08:50:47.934Z</time></trkpt><trkpt lat="41.2059417" lon="15.12169"><ele>595.0</ele><time>2026-04-12T08:50:48.933Z</time></trkpt><trkpt lat="41.20597" lon="15.12179"><ele>595.0</ele><time>2026-04-12T08:50:49.933Z</time></trkpt><trkpt lat="41.206" lon="15.1218933"><ele>595.0</ele><time>2026-04-12T08:50:50.934Z</time></trkpt><trkpt lat="41.2060333" lon="15.1219933"><ele>595.0</ele><time>2026-04-12T08:50:51.934Z</time></trkpt><trkpt lat="41.2060633" lon="15.1220783"><ele>595.0</ele><time>2026-04-12T08:50:52.933Z</time></trkpt><trkpt lat="41.2060917" lon="15.1221633"><ele>595.0</ele><time>2026-04-12T08:50:53.934Z</time></trkpt><trkpt lat="41.2061183" lon="15.1222433"><ele>595.0</ele><time>2026-04-12T08:50:54.934Z</time></trkpt><trkpt lat="41.20615" lon="15.1223267"><ele>595.0</ele><time>2026-04-12T08:50:55.934Z</time></trkpt><trkpt lat="41.2061883" lon="15.1223983"><ele>595.0</ele><time>2026-04-12T08:50:56.934Z</time></trkpt><trkpt lat="41.206235" lon="15.1224783"><ele>595.0</ele><time>2026-04-12T08:50:57.934Z</time></trkpt><trkpt lat="41.2062817" lon="15.1225567"><ele>595.0</ele><time>2026-04-12T08:50:58.934Z</time></trkpt><trkpt lat="41.2063317" lon="15.1226367"><ele>595.0</ele><time>2026-04-12T08:50:59.934Z</time></trkpt><trkpt lat="41.20637" lon="15.1227183"><ele>594.8571428571429</ele><time>2026-04-12T08:51:00.933Z</time></trkpt><trkpt lat="41.2064167" lon="15.1227883"><ele>594.7142857142858</ele><time>2026-04-12T08:51:01.934Z</time></trkpt><trkpt lat="41.2064583" lon="15.12286"><ele>594.5714285714286</ele><time>2026-04-12T08:51:02.934Z</time></trkpt><trkpt lat="41.2065033" lon="15.1229333"><ele>594.4285714285714</ele><time>2026-04-12T08:51:03.934Z</time></trkpt><trkpt lat="41.2065467" lon="15.12301"><ele>594.2857142857143</ele><time>2026-04-12T08:51:04.933Z</time></trkpt><trkpt lat="41.2065917" lon="15.1230867"><ele>594.1428571428571</ele><time>2026-04-12T08:51:05.934Z</time></trkpt><trkpt lat="41.2066333" lon="15.1231617"><ele>594.0</ele><time>2026-04-12T08:51:06.933Z</time></trkpt><trkpt lat="41.206675" lon="15.123235"><ele>593.6</ele><time>2026-04-12T08:51:07.934Z</time></trkpt><trkpt lat="41.20675" lon="15.1233517"><ele>593.2</ele><time>2026-04-12T08:51:09.934Z</time></trkpt><trkpt lat="41.2068167" lon="15.1234733"><ele>592.8000000000001</ele><time>2026-04-12T08:51:11.934Z</time></trkpt><trkpt lat="41.20689" lon="15.1236167"><ele>592.4</ele><time>2026-04-12T08:51:13.933Z</time></trkpt><trkpt lat="41.2069233" lon="15.1236917"><ele>592.0</ele><time>2026-04-12T08:51:14.934Z</time></trkpt><trkpt lat="41.2069567" lon="15.1237683"><ele>592.0</ele><time>2026-04-12T08:51:15.934Z</time></trkpt><trkpt lat="41.2069867" lon="15.1238483"><ele>592.0</ele><time>2026-04-12T08:51:16.934Z</time></trkpt><trkpt lat="41.20704" lon="15.1239983"><ele>592.0</ele><time>2026-04-12T08:51:18.934Z</time></trkpt><trkpt lat="41.2070717" lon="15.1240717"><ele>592.0</ele><time>2026-04-12T08:51:19.934Z</time></trkpt><trkpt lat="41.2071033" lon="15.124145"><ele>592.0</ele><time>2026-04-12T08:51:20.934Z</time></trkpt><trkpt lat="41.2071383" lon="15.1242183"><ele>592.0</ele><time>2026-04-12T08:51:21.934Z</time></trkpt><trkpt lat="41.2071717" lon="15.12429"><ele>592.0</ele><time>2026-04-12T08:51:22.934Z</time></trkpt><trkpt lat="41.2072283" lon="15.124415"><ele>592.25</ele><time>2026-04-12T08:51:24.933Z</time></trkpt><trkpt lat="41.2072867" lon="15.1245417"><ele>592.5</ele><time>2026-04-12T08:51:26.933Z</time></trkpt><trkpt lat="41.2073383" lon="15.124675"><ele>592.75</ele><time>2026-04-12T08:51:28.934Z</time></trkpt><trkpt lat="41.20738" lon="15.1248117"><ele>593.0</ele><time>2026-04-12T08:51:30.933Z</time></trkpt><trkpt lat="41.2074167" lon="15.1249617"><ele>591.1999999999999</ele><time>2026-04-12T08:51:32.934Z</time></trkpt><trkpt lat="41.207455" lon="15.1251083"><ele>589.4</ele><time>2026-04-12T08:51:34.933Z</time></trkpt><trkpt lat="41.20749" lon="15.1252667"><ele>587.5999999999999</ele><time>2026-04-12T08:51:36.934Z</time></trkpt><trkpt lat="41.20753" lon="15.1254233"><ele>585.8</ele><time>2026-04-12T08:51:38.934Z</time></trkpt><trkpt lat="41.2075517" lon="15.1255033"><ele>584.0</ele><time>2026-04-12T08:51:39.933Z</time></trkpt><trkpt lat="41.2075717" lon="15.12559"><ele>584.0</ele><time>2026-04-12T08:51:40.934Z</time></trkpt><trkpt lat="41.2075933" lon="15.1256833"><ele>584.0</ele><time>2026-04-12T08:51:41.933Z</time></trkpt><trkpt lat="41.2076167" lon="15.125775"><ele>584.0</ele><time>2026-04-12T08:51:42.933Z</time></trkpt><trkpt lat="41.20764" lon="15.1258633"><ele>584.0</ele><time>2026-04-12T08:51:43.934Z</time></trkpt><trkpt lat="41.207665" lon="15.12596"><ele>584.0</ele><time>2026-04-12T08:51:44.934Z</time></trkpt><trkpt lat="41.207695" lon="15.12606"><ele>584.0</ele><time>2026-04-12T08:51:45.934Z</time></trkpt><trkpt lat="41.2077317" lon="15.12616"><ele>583.1666666666666</ele><time>2026-04-12T08:51:46.933Z</time></trkpt><trkpt lat="41.20777" lon="15.126255"><ele>582.3333333333333</ele><time>2026-04-12T08:51:47.933Z</time></trkpt><trkpt lat="41.2078083" lon="15.1263583"><ele>581.5</ele><time>2026-04-12T08:51:48.934Z</time></trkpt><trkpt lat="41.2078467" lon="15.1264583"><ele>580.6666666666666</ele><time>2026-04-12T08:51:49.933Z</time></trkpt><trkpt lat="41.20789" lon="15.1265617"><ele>579.8333333333334</ele><time>2026-04-12T08:51:50.934Z</time></trkpt><trkpt lat="41.2079317" lon="15.1266617"><ele>579.0</ele><time>2026-04-12T08:51:51.933Z</time></trkpt><trkpt lat="41.2079683" lon="15.1267567"><ele>580.6666666666666</ele><time>2026-04-12T08:51:52.934Z</time></trkpt><trkpt lat="41.208" lon="15.1268617"><ele>582.3333333333334</ele><time>2026-04-12T08:51:53.934Z</time></trkpt><trkpt lat="41.2080333" lon="15.126975"><ele>584.0</ele><time>2026-04-12T08:51:54.933Z</time></trkpt><trkpt lat="41.208055" lon="15.1270883"><ele>585.6666666666667</ele><time>2026-04-12T08:51:55.934Z</time></trkpt><trkpt lat="41.2080717" lon="15.1272083"><ele>587.3333333333334</ele><time>2026-04-12T08:51:56.934Z</time></trkpt><trkpt lat="41.2080883" lon="15.1273267"><ele>589.0</ele><time>2026-04-12T08:51:57.934Z</time></trkpt><trkpt lat="41.2081083" lon="15.1274467"><ele>589.4</ele><time>2026-04-12T08:51:58.934Z</time></trkpt><trkpt lat="41.2081233" lon="15.1275583"><ele>589.8</ele><time>2026-04-12T08:51:59.933Z</time></trkpt><trkpt lat="41.2081383" lon="15.1276667"><ele>590.2</ele><time>2026-04-12T08:52:00.934Z</time></trkpt><trkpt lat="41.208165" lon="15.12779"><ele>590.6</ele><time>2026-04-12T08:52:01.934Z</time></trkpt><trkpt lat="41.2082017" lon="15.127925"><ele>591.0</ele><time>2026-04-12T08:52:02.934Z</time></trkpt><trkpt lat="41.20824" lon="15.1280517"><ele>591.0</ele><time>2026-04-12T08:52:03.934Z</time></trkpt><trkpt lat="41.208275" lon="15.1281717"><ele>591.0</ele><time>2026-04-12T08:52:04.934Z</time></trkpt><trkpt lat="41.208305" lon="15.1282933"><ele>591.0</ele><time>2026-04-12T08:52:05.934Z</time></trkpt><trkpt lat="41.2083317" lon="15.1284167"><ele>591.0</ele><time>2026-04-12T08:52:06.934Z</time></trkpt><trkpt lat="41.2083633" lon="15.12854"><ele>591.0</ele><time>2026-04-12T08:52:07.934Z</time></trkpt><trkpt lat="41.2083933" lon="15.12867"><ele>591.8</ele><time>2026-04-12T08:52:08.933Z</time></trkpt><trkpt lat="41.2084267" lon="15.1287983"><ele>592.6</ele><time>2026-04-12T08:52:09.934Z</time></trkpt><trkpt lat="41.2084567" lon="15.1289283"><ele>593.4</ele><time>2026-04-12T08:52:10.934Z</time></trkpt><trkpt lat="41.20849" lon="15.1290583"><ele>594.2</ele><time>2026-04-12T08:52:11.934Z</time></trkpt><trkpt lat="41.2085233" lon="15.1291867"><ele>595.0</ele><time>2026-04-12T08:52:12.933Z</time></trkpt><trkpt lat="41.2085533" lon="15.12931"><ele>595.8</ele><time>2026-04-12T08:52:13.934Z</time></trkpt><trkpt lat="41.2085867" lon="15.1294317"><ele>596.6</ele><time>2026-04-12T08:52:14.934Z</time></trkpt><trkpt lat="41.208615" lon="15.1295533"><ele>597.4</ele><time>2026-04-12T08:52:15.934Z</time></trkpt><trkpt lat="41.2086417" lon="15.1296667"><ele>598.2</ele><time>2026-04-12T08:52:16.934Z</time></trkpt><trkpt lat="41.2086583" lon="15.1297817"><ele>599.0</ele><time>2026-04-12T08:52:17.933Z</time></trkpt><trkpt lat="41.2086667" lon="15.129895"><ele>599.3333333333333</ele><time>2026-04-12T08:52:18.934Z</time></trkpt><trkpt lat="41.20868" lon="15.1300167"><ele>599.6666666666666</ele><time>2026-04-12T08:52:19.934Z</time></trkpt><trkpt lat="41.2086883" lon="15.1301383"><ele>600.0</ele><time>2026-04-12T08:52:20.934Z</time></trkpt><trkpt lat="41.2086967" lon="15.130255"><ele>600.3333333333334</ele><time>2026-04-12T08:52:21.934Z</time></trkpt><trkpt lat="41.2087183" lon="15.130365"><ele>600.6666666666667</ele><time>2026-04-12T08:52:22.933Z</time></trkpt><trkpt lat="41.208745" lon="15.1304683"><ele>601.0</ele><time>2026-04-12T08:52:23.933Z</time></trkpt><trkpt lat="41.2087883" lon="15.1305733"><ele>601.0</ele><time>2026-04-12T08:52:24.934Z</time></trkpt><trkpt lat="41.2088367" lon="15.130685"><ele>601.0</ele><time>2026-04-12T08:52:25.933Z</time></trkpt><trkpt lat="41.20889" lon="15.1308017"><ele>601.0</ele><time>2026-04-12T08:52:26.934Z</time></trkpt><trkpt lat="41.20894" lon="15.13093"><ele>601.0</ele><time>2026-04-12T08:52:27.934Z</time></trkpt><trkpt lat="41.2089883" lon="15.131055"><ele>601.0</ele><time>2026-04-12T08:52:28.933Z</time></trkpt><trkpt lat="41.2090367" lon="15.1311783"><ele>601.0</ele><time>2026-04-12T08:52:29.934Z</time></trkpt><trkpt lat="41.209085" lon="15.131305"><ele>601.0</ele><time>2026-04-12T08:52:30.934Z</time></trkpt><trkpt lat="41.2091233" lon="15.13143"><ele>601.0</ele><time>2026-04-12T08:52:31.933Z</time></trkpt><trkpt lat="41.209165" lon="15.1315517"><ele>601.0</ele><time>2026-04-12T08:52:32.934Z</time></trkpt><trkpt lat="41.2092017" lon="15.1316567"><ele>601.0</ele><time>2026-04-12T08:52:33.933Z</time></trkpt><trkpt lat="41.2092383" lon="15.1317483"><ele>601.1666666666667</ele><time>2026-04-12T08:52:34.933Z</time></trkpt><trkpt lat="41.2092683" lon="15.13184"><ele>601.3333333333334</ele><time>2026-04-12T08:52:35.934Z</time></trkpt><trkpt lat="41.2092983" lon="15.1319267"><ele>601.5</ele><time>2026-04-12T08:52:36.934Z</time></trkpt><trkpt lat="41.2093317" lon="15.1320133"><ele>601.6666666666666</ele><time>2026-04-12T08:52:37.933Z</time></trkpt><trkpt lat="41.2093567" lon="15.132095"><ele>601.8333333333333</ele><time>2026-04-12T08:52:38.933Z</time></trkpt><trkpt lat="41.2093883" lon="15.1322267"><ele>602.0</ele><time>2026-04-12T08:52:40.934Z</time></trkpt><trkpt lat="41.209445" lon="15.1323033"><ele>602.0</ele><time>2026-04-12T08:52:42.933Z</time></trkpt><trkpt lat="41.2095167" lon="15.1323433"><ele>602.0</ele><time>2026-04-12T08:52:44.934Z</time></trkpt><trkpt lat="41.209645" lon="15.1322633"><ele>602.0</ele><time>2026-04-12T08:52:46.934Z</time></trkpt><trkpt lat="41.209735" lon="15.1321883"><ele>602.0</ele><time>2026-04-12T08:52:47.933Z</time></trkpt><trkpt lat="41.20984" lon="15.1321117"><ele>602.0</ele><time>2026-04-12T08:52:48.933Z</time></trkpt><trkpt lat="41.2099683" lon="15.132025"><ele>602.25</ele><time>2026-04-12T08:52:49.933Z</time></trkpt><trkpt lat="41.2101033" lon="15.1319367"><ele>602.5</ele><time>2026-04-12T08:52:50.933Z</time></trkpt><trkpt lat="41.2102367" lon="15.1318483"><ele>602.75</ele><time>2026-04-12T08:52:51.933Z</time></trkpt><trkpt lat="41.21037" lon="15.13176"><ele>603.0</ele><time>2026-04-12T08:52:52.934Z</time></trkpt><trkpt lat="41.210505" lon="15.131665"><ele>603.0</ele><time>2026-04-12T08:52:53.934Z</time></trkpt><trkpt lat="41.2106417" lon="15.1315733"><ele>603.0</ele><time>2026-04-12T08:52:54.933Z</time></trkpt><trkpt lat="41.2107817" lon="15.131485"><ele>603.0</ele><time>2026-04-12T08:52:55.934Z</time></trkpt><trkpt lat="41.2109183" lon="15.131405"><ele>603.3333333333334</ele><time>2026-04-12T08:52:56.934Z</time></trkpt><trkpt lat="41.2110567" lon="15.1313217"><ele>603.6666666666667</ele><time>2026-04-12T08:52:57.933Z</time></trkpt><trkpt lat="41.2111917" lon="15.1312417"><ele>604.0</ele><time>2026-04-12T08:52:58.934Z</time></trkpt><trkpt lat="41.211335" lon="15.1311567"><ele>604.0</ele><time>2026-04-12T08:52:59.934Z</time></trkpt><trkpt lat="41.2114783" lon="15.1310717"><ele>604.0</ele><time>2026-04-12T08:53:00.933Z</time></trkpt><trkpt lat="41.2116283" lon="15.130985"><ele>604.0</ele><time>2026-04-12T08:53:01.934Z</time></trkpt><trkpt lat="41.2117967" lon="15.1308883"><ele>603.6666666666667</ele><time>2026-04-12T08:53:02.933Z</time></trkpt><trkpt lat="41.2119817" lon="15.1307817"><ele>603.3333333333334</ele><time>2026-04-12T08:53:03.934Z</time></trkpt><trkpt lat="41.2121767" lon="15.1306683"><ele>603.0</ele><time>2026-04-12T08:53:04.933Z</time></trkpt><trkpt lat="41.2123967" lon="15.13054"><ele>602.5</ele><time>2026-04-12T08:53:05.933Z</time></trkpt><trkpt lat="41.2126133" lon="15.1304233"><ele>602.0</ele><time>2026-04-12T08:53:06.934Z</time></trkpt><trkpt lat="41.212825" lon="15.130315"><ele>602.0</ele><time>2026-04-12T08:53:07.933Z</time></trkpt><trkpt lat="41.2130333" lon="15.1302133"><ele>602.0</ele><time>2026-04-12T08:53:08.934Z</time></trkpt><trkpt lat="41.2132367" lon="15.1301183"><ele>602.0</ele><time>2026-04-12T08:53:09.934Z</time></trkpt><trkpt lat="41.2134483" lon="15.1300333"><ele>602.0</ele><time>2026-04-12T08:53:10.934Z</time></trkpt><trkpt lat="41.2136617" lon="15.1299567"><ele>602.0</ele><time>2026-04-12T08:53:11.933Z</time></trkpt><trkpt lat="41.2138767" lon="15.1298883"><ele>602.0</ele><time>2026-04-12T08:53:12.934Z</time></trkpt><trkpt lat="41.2140967" lon="15.12983"><ele>601.3333333333333</ele><time>2026-04-12T08:53:13.934Z</time></trkpt><trkpt lat="41.214315" lon="15.1297783"><ele>600.6666666666666</ele><time>2026-04-12T08:53:14.933Z</time></trkpt><trkpt lat="41.2145383" lon="15.1297283"><ele>600.0</ele><time>2026-04-12T08:53:15.934Z</time></trkpt><trkpt lat="41.2147583" lon="15.1296767"><ele>600.3333333333334</ele><time>2026-04-12T08:53:16.933Z</time></trkpt><trkpt lat="41.214975" lon="15.1296283"><ele>600.6666666666667</ele><time>2026-04-12T08:53:17.933Z</time></trkpt><trkpt lat="41.2151883" lon="15.1295817"><ele>601.0</ele><time>2026-04-12T08:53:18.934Z</time></trkpt><trkpt lat="41.2153933" lon="15.1295383"><ele>601.0</ele><time>2026-04-12T08:53:19.934Z</time></trkpt><trkpt lat="41.2155933" lon="15.1294983"><ele>601.0</ele><time>2026-04-12T08:53:20.933Z</time></trkpt><trkpt lat="41.2158" lon="15.1294583"><ele>601.0</ele><time>2026-04-12T08:53:21.934Z</time></trkpt><trkpt lat="41.216" lon="15.1294267"><ele>601.0</ele><time>2026-04-12T08:53:22.933Z</time></trkpt><trkpt lat="41.216195" lon="15.1294"><ele>601.0</ele><time>2026-04-12T08:53:23.934Z</time></trkpt><trkpt lat="41.2163967" lon="15.129375"><ele>601.0</ele><time>2026-04-12T08:53:24.933Z</time></trkpt><trkpt lat="41.2166" lon="15.1293417"><ele>599.6666666666667</ele><time>2026-04-12T08:53:25.933Z</time></trkpt><trkpt lat="41.2168017" lon="15.1293033"><ele>598.3333333333334</ele><time>2026-04-12T08:53:26.934Z</time></trkpt><trkpt lat="41.2170133" lon="15.129265"><ele>597.0</ele><time>2026-04-12T08:53:27.934Z</time></trkpt><trkpt lat="41.2172383" lon="15.129225"><ele>596.0</ele><time>2026-04-12T08:53:28.933Z</time></trkpt><trkpt lat="41.21749" lon="15.1291783"><ele>595.0</ele><time>2026-04-12T08:53:29.934Z</time></trkpt><trkpt lat="41.21776" lon="15.129125"><ele>595.0</ele><time>2026-04-12T08:53:30.934Z</time></trkpt><trkpt lat="41.218055" lon="15.129065"><ele>595.0</ele><time>2026-04-12T08:53:31.934Z</time></trkpt><trkpt lat="41.218365" lon="15.1289967"><ele>595.0</ele><time>2026-04-12T08:53:32.934Z</time></trkpt><trkpt lat="41.2186967" lon="15.1289233"><ele>595.0</ele><time>2026-04-12T08:53:33.934Z</time></trkpt><trkpt lat="41.2190433" lon="15.12884"><ele>595.0</ele><time>2026-04-12T08:53:34.934Z</time></trkpt><trkpt lat="41.2193717" lon="15.1287567"><ele>595.0</ele><time>2026-04-12T08:53:35.934Z</time></trkpt><trkpt lat="41.2196783" lon="15.1286783"><ele>593.5</ele><time>2026-04-12T08:53:36.933Z</time></trkpt><trkpt lat="41.2199583" lon="15.1285983"><ele>592.0</ele><time>2026-04-12T08:53:37.933Z</time></trkpt><trkpt lat="41.22022" lon="15.1285217"><ele>592.0</ele><time>2026-04-12T08:53:38.934Z</time></trkpt><trkpt lat="41.2204633" lon="15.128445"><ele>592.0</ele><time>2026-04-12T08:53:39.934Z</time></trkpt><trkpt lat="41.2206867" lon="15.1283767"><ele>592.3333333333334</ele><time>2026-04-12T08:53:40.934Z</time></trkpt><trkpt lat="41.2209" lon="15.128315"><ele>592.6666666666666</ele><time>2026-04-12T08:53:41.934Z</time></trkpt><trkpt lat="41.2211033" lon="15.1282533"><ele>593.0</ele><time>2026-04-12T08:53:42.934Z</time></trkpt><trkpt lat="41.221305" lon="15.12819"><ele>594.6666666666666</ele><time>2026-04-12T08:53:43.934Z</time></trkpt><trkpt lat="41.2214933" lon="15.1281233"><ele>596.3333333333334</ele><time>2026-04-12T08:53:44.933Z</time></trkpt><trkpt lat="41.2216717" lon="15.1280617"><ele>598.0</ele><time>2026-04-12T08:53:45.934Z</time></trkpt><trkpt lat="41.2218367" lon="15.1280083"><ele>598.0</ele><time>2026-04-12T08:53:46.933Z</time></trkpt><trkpt lat="41.2219967" lon="15.127955"><ele>598.0</ele><time>2026-04-12T08:53:47.933Z</time></trkpt><trkpt lat="41.2221417" lon="15.1279067"><ele>598.0</ele><time>2026-04-12T08:53:48.934Z</time></trkpt><trkpt lat="41.2222733" lon="15.1278767"><ele>598.0</ele><time>2026-04-12T08:53:49.934Z</time></trkpt><trkpt lat="41.22238" lon="15.1278467"><ele>598.1999999999999</ele><time>2026-04-12T08:53:50.933Z</time></trkpt><trkpt lat="41.2224683" lon="15.12782"><ele>598.4</ele><time>2026-04-12T08:53:51.934Z</time></trkpt><trkpt lat="41.2225383" lon="15.1277933"><ele>598.5999999999999</ele><time>2026-04-12T08:53:52.934Z</time></trkpt><trkpt lat="41.2226417" lon="15.1277467"><ele>598.8</ele><time>2026-04-12T08:53:54.934Z</time></trkpt><trkpt lat="41.222755" lon="15.1277183"><ele>599.0</ele><time>2026-04-12T08:53:56.934Z</time></trkpt><trkpt lat="41.2228267" lon="15.1277333"><ele>599.0</ele><time>2026-04-12T08:53:57.934Z</time></trkpt><trkpt lat="41.222915" lon="15.1277633"><ele>599.0</ele><time>2026-04-12T08:53:58.934Z</time></trkpt><trkpt lat="41.2229933" lon="15.1277883"><ele>599.0</ele><time>2026-04-12T08:53:59.934Z</time></trkpt><trkpt lat="41.2230783" lon="15.1278083"><ele>599.0</ele><time>2026-04-12T08:54:00.933Z</time></trkpt><trkpt lat="41.22316" lon="15.1278217"><ele>599.0</ele><time>2026-04-12T08:54:01.934Z</time></trkpt><trkpt lat="41.2232367" lon="15.1278183"><ele>599.0</ele><time>2026-04-12T08:54:02.933Z</time></trkpt><trkpt lat="41.22331" lon="15.1278083"><ele>599.3333333333333</ele><time>2026-04-12T08:54:03.934Z</time></trkpt><trkpt lat="41.223375" lon="15.127785"><ele>599.6666666666666</ele><time>2026-04-12T08:54:04.934Z</time></trkpt><trkpt lat="41.2234383" lon="15.1277667"><ele>600.0</ele><time>2026-04-12T08:54:05.933Z</time></trkpt><trkpt lat="41.2235433" lon="15.1277467"><ele>600.3333333333334</ele><time>2026-04-12T08:54:07.933Z</time></trkpt><trkpt lat="41.223615" lon="15.12774"><ele>600.6666666666667</ele><time>2026-04-12T08:54:09.934Z</time></trkpt><trkpt lat="41.2236933" lon="15.1277317"><ele>601.0</ele><time>2026-04-12T08:54:47.934Z</time></trkpt><trkpt lat="41.2238033" lon="15.1277333"><ele>601.0</ele><time>2026-04-12T08:54:49.934Z</time></trkpt><trkpt lat="41.2239017" lon="15.1277383"><ele>601.0</ele><time>2026-04-12T08:54:51.933Z</time></trkpt><trkpt lat="41.22402" lon="15.1277383"><ele>601.0</ele><time>2026-04-12T08:54:53.934Z</time></trkpt><trkpt lat="41.2240883" lon="15.1277433"><ele>601.0</ele><time>2026-04-12T08:54:54.933Z</time></trkpt><trkpt lat="41.2241617" lon="15.1277417"><ele>601.0</ele><time>2026-04-12T08:54:55.934Z</time></trkpt><trkpt lat="41.2242383" lon="15.12774"><ele>601.0</ele><time>2026-04-12T08:54:56.933Z</time></trkpt><trkpt lat="41.2243083" lon="15.1277433"><ele>601.1666666666667</ele><time>2026-04-12T08:54:57.934Z</time></trkpt><trkpt lat="41.2243867" lon="15.127745"><ele>601.3333333333334</ele><time>2026-04-12T08:54:58.933Z</time></trkpt><trkpt lat="41.2244683" lon="15.1277517"><ele>601.5</ele><time>2026-04-12T08:54:59.934Z</time></trkpt><trkpt lat="41.2245433" lon="15.127765"><ele>601.6666666666666</ele><time>2026-04-12T08:55:00.934Z</time></trkpt><trkpt lat="41.2246683" lon="15.1277933"><ele>601.8333333333333</ele><time>2026-04-12T08:55:02.933Z</time></trkpt><trkpt lat="41.22474" lon="15.1278083"><ele>602.0</ele><time>2026-04-12T08:55:03.934Z</time></trkpt><trkpt lat="41.2248233" lon="15.12783"><ele>602.1666666666666</ele><time>2026-04-12T08:55:04.933Z</time></trkpt><trkpt lat="41.22491" lon="15.127855"><ele>602.3333333333333</ele><time>2026-04-12T08:55:05.933Z</time></trkpt><trkpt lat="41.2249983" lon="15.1278817"><ele>602.5</ele><time>2026-04-12T08:55:06.934Z</time></trkpt><trkpt lat="41.2250817" lon="15.127905"><ele>602.6666666666666</ele><time>2026-04-12T08:55:07.933Z</time></trkpt><trkpt lat="41.2251667" lon="15.1279283"><ele>602.8333333333334</ele><time>2026-04-12T08:55:08.934Z</time></trkpt><trkpt lat="41.2252483" lon="15.1279467"><ele>603.0</ele><time>2026-04-12T08:55:09.934Z</time></trkpt><trkpt lat="41.2253267" lon="15.127965"><ele>603.0</ele><time>2026-04-12T08:55:10.934Z</time></trkpt><trkpt lat="41.225405" lon="15.12799"><ele>603.0</ele><time>2026-04-12T08:55:11.933Z</time></trkpt><trkpt lat="41.2254867" lon="15.1280117"><ele>603.0</ele><time>2026-04-12T08:55:12.933Z</time></trkpt><trkpt lat="41.22556" lon="15.1280267"><ele>603.0</ele><time>2026-04-12T08:55:13.934Z</time></trkpt><trkpt lat="41.2256367" lon="15.1280433"><ele>603.0</ele><time>2026-04-12T08:55:14.933Z</time></trkpt><trkpt lat="41.2257117" lon="15.1280583"><ele>603.0</ele><time>2026-04-12T08:55:15.934Z</time></trkpt><trkpt lat="41.225785" lon="15.128075"><ele>603.1666666666666</ele><time>2026-04-12T08:55:16.934Z</time></trkpt><trkpt lat="41.2258567" lon="15.1280917"><ele>603.3333333333334</ele><time>2026-04-12T08:55:17.933Z</time></trkpt><trkpt lat="41.2259367" lon="15.1281167"><ele>603.5</ele><time>2026-04-12T08:55:18.934Z</time></trkpt><trkpt lat="41.22602" lon="15.1281483"><ele>603.6666666666667</ele><time>2026-04-12T08:55:19.933Z</time></trkpt><trkpt lat="41.2261033" lon="15.1281833"><ele>603.8333333333334</ele><time>2026-04-12T08:55:20.934Z</time></trkpt><trkpt lat="41.2261883" lon="15.1282167"><ele>604.0</ele><time>2026-04-12T08:55:21.934Z</time></trkpt><trkpt lat="41.2262767" lon="15.1282533"><ele>604.0</ele><time>2026-04-12T08:55:22.934Z</time></trkpt><trkpt lat="41.226365" lon="15.128285"><ele>604.0</ele><time>2026-04-12T08:55:23.933Z</time></trkpt><trkpt lat="41.22645" lon="15.128315"><ele>604.0</ele><time>2026-04-12T08:55:24.934Z</time></trkpt><trkpt lat="41.22653" lon="15.1283467"><ele>604.0</ele><time>2026-04-12T08:55:25.934Z</time></trkpt><trkpt lat="41.2266117" lon="15.12838"><ele>604.0</ele><time>2026-04-12T08:55:26.933Z</time></trkpt><trkpt lat="41.2266983" lon="15.1284083"><ele>604.0</ele><time>2026-04-12T08:55:27.933Z</time></trkpt><trkpt lat="41.2267883" lon="15.1284433"><ele>604.1666666666667</ele><time>2026-04-12T08:55:28.934Z</time></trkpt><trkpt lat="41.226875" lon="15.12847"><ele>604.3333333333334</ele><time>2026-04-12T08:55:29.934Z</time></trkpt><trkpt lat="41.2269533" lon="15.1284983"><ele>604.5</ele><time>2026-04-12T08:55:30.934Z</time></trkpt><trkpt lat="41.2270333" lon="15.1285217"><ele>604.6666666666666</ele><time>2026-04-12T08:55:31.934Z</time></trkpt><trkpt lat="41.2270983" lon="15.1285417"><ele>604.8333333333333</ele><time>2026-04-12T08:55:32.933Z</time></trkpt><trkpt lat="41.2272067" lon="15.1285783"><ele>605.0</ele><time>2026-04-12T08:55:34.934Z</time></trkpt><trkpt lat="41.227325" lon="15.12862"><ele>605.3333333333333</ele><time>2026-04-12T08:55:36.934Z</time></trkpt><trkpt lat="41.2274033" lon="15.1286417"><ele>605.6666666666666</ele><time>2026-04-12T08:55:37.933Z</time></trkpt><trkpt lat="41.227485" lon="15.12867"><ele>606.0</ele><time>2026-04-12T08:55:38.933Z</time></trkpt><trkpt lat="41.2275667" lon="15.1287"><ele>606.3333333333334</ele><time>2026-04-12T08:55:39.933Z</time></trkpt><trkpt lat="41.2276533" lon="15.12874"><ele>606.6666666666667</ele><time>2026-04-12T08:55:40.932Z</time></trkpt><trkpt lat="41.2277433" lon="15.1287767"><ele>607.0</ele><time>2026-04-12T08:55:41.933Z</time></trkpt><trkpt lat="41.22783" lon="15.1288167"><ele>607.0</ele><time>2026-04-12T08:55:42.932Z</time></trkpt><trkpt lat="41.2279183" lon="15.12885"><ele>607.0</ele><time>2026-04-12T08:55:43.933Z</time></trkpt><trkpt lat="41.2280033" lon="15.1288867"><ele>607.0</ele><time>2026-04-12T08:55:44.933Z</time></trkpt><trkpt lat="41.2280917" lon="15.128925"><ele>607.0</ele><time>2026-04-12T08:55:45.933Z</time></trkpt><trkpt lat="41.2281867" lon="15.1289583"><ele>607.0</ele><time>2026-04-12T08:55:46.933Z</time></trkpt><trkpt lat="41.2282867" lon="15.128995"><ele>607.4</ele><time>2026-04-12T08:55:47.933Z</time></trkpt><trkpt lat="41.2283883" lon="15.1290283"><ele>607.8000000000001</ele><time>2026-04-12T08:55:48.933Z</time></trkpt><trkpt lat="41.2284883" lon="15.1290683"><ele>608.2</ele><time>2026-04-12T08:55:49.932Z</time></trkpt><trkpt lat="41.2285867" lon="15.1291117"><ele>608.6</ele><time>2026-04-12T08:55:50.932Z</time></trkpt><trkpt lat="41.2286817" lon="15.12915"><ele>609.0</ele><time>2026-04-12T08:55:51.933Z</time></trkpt><trkpt lat="41.228775" lon="15.129185"><ele>609.0</ele><time>2026-04-12T08:55:52.933Z</time></trkpt><trkpt lat="41.22885" lon="15.129215"><ele>609.0</ele><time>2026-04-12T08:55:53.933Z</time></trkpt><trkpt lat="41.228915" lon="15.1292383"><ele>609.0</ele><time>2026-04-12T08:55:54.933Z</time></trkpt><trkpt lat="41.2289867" lon="15.129265"><ele>609.0</ele><time>2026-04-12T08:55:55.932Z</time></trkpt><trkpt lat="41.22908" lon="15.1293033"><ele>609.0</ele><time>2026-04-12T08:55:56.932Z</time></trkpt><trkpt lat="41.2291767" lon="15.1293367"><ele>609.0</ele><time>2026-04-12T08:55:57.933Z</time></trkpt><trkpt lat="41.229275" lon="15.1293667"><ele>608.6</ele><time>2026-04-12T08:55:58.933Z</time></trkpt><trkpt lat="41.2293717" lon="15.1294"><ele>608.2</ele><time>2026-04-12T08:55:59.932Z</time></trkpt><trkpt lat="41.229475" lon="15.1294317"><ele>607.8000000000001</ele><time>2026-04-12T08:56:00.933Z</time></trkpt><trkpt lat="41.2295783" lon="15.1294667"><ele>607.4</ele><time>2026-04-12T08:56:01.933Z</time></trkpt><trkpt lat="41.2296783" lon="15.129505"><ele>607.0</ele><time>2026-04-12T08:56:02.932Z</time></trkpt><trkpt lat="41.2297767" lon="15.1295417"><ele>606.4</ele><time>2026-04-12T08:56:03.933Z</time></trkpt><trkpt lat="41.2298717" lon="15.1295833"><ele>605.8000000000001</ele><time>2026-04-12T08:56:04.932Z</time></trkpt><trkpt lat="41.2299733" lon="15.1296217"><ele>605.2</ele><time>2026-04-12T08:56:05.933Z</time></trkpt><trkpt lat="41.2300733" lon="15.1296617"><ele>604.6</ele><time>2026-04-12T08:56:06.933Z</time></trkpt><trkpt lat="41.230175" lon="15.1297033"><ele>604.0</ele><time>2026-04-12T08:56:07.932Z</time></trkpt><trkpt lat="41.2302783" lon="15.129745"><ele>604.0</ele><time>2026-04-12T08:56:08.933Z</time></trkpt><trkpt lat="41.2303817" lon="15.1297833"><ele>604.0</ele><time>2026-04-12T08:56:09.933Z</time></trkpt><trkpt lat="41.230465" lon="15.1298183"><ele>604.0</ele><time>2026-04-12T08:56:10.933Z</time></trkpt><trkpt lat="41.230555" lon="15.1298483"><ele>604.0</ele><time>2026-04-12T08:56:11.933Z</time></trkpt><trkpt lat="41.2306467" lon="15.12988"><ele>604.0</ele><time>2026-04-12T08:56:12.932Z</time></trkpt><trkpt lat="41.2307317" lon="15.1299167"><ele>603.5</ele><time>2026-04-12T08:56:13.932Z</time></trkpt><trkpt lat="41.2308067" lon="15.1299467"><ele>603.0</ele><time>2026-04-12T08:56:14.933Z</time></trkpt><trkpt lat="41.230885" lon="15.1299733"><ele>602.5</ele><time>2026-04-12T08:56:15.932Z</time></trkpt><trkpt lat="41.2309617" lon="15.1300017"><ele>602.0</ele><time>2026-04-12T08:56:16.933Z</time></trkpt><trkpt lat="41.2310433" lon="15.1300317"><ele>601.5</ele><time>2026-04-12T08:56:17.932Z</time></trkpt><trkpt lat="41.2311317" lon="15.1300717"><ele>601.0</ele><time>2026-04-12T08:56:18.932Z</time></trkpt><trkpt lat="41.2312233" lon="15.1301117"><ele>601.0</ele><time>2026-04-12T08:56:19.933Z</time></trkpt><trkpt lat="41.2313133" lon="15.1301617"><ele>601.0</ele><time>2026-04-12T08:56:20.933Z</time></trkpt><trkpt lat="41.2314033" lon="15.1302067"><ele>601.0</ele><time>2026-04-12T08:56:21.933Z</time></trkpt><trkpt lat="41.2314967" lon="15.1302483"><ele>601.0</ele><time>2026-04-12T08:56:22.933Z</time></trkpt><trkpt lat="41.2315933" lon="15.130285"><ele>601.0</ele><time>2026-04-12T08:56:23.933Z</time></trkpt><trkpt lat="41.231685" lon="15.1303233"><ele>600.1666666666667</ele><time>2026-04-12T08:56:24.932Z</time></trkpt><trkpt lat="41.2317667" lon="15.130355"><ele>599.3333333333334</ele><time>2026-04-12T08:56:25.932Z</time></trkpt><trkpt lat="41.2318533" lon="15.1303817"><ele>598.5</ele><time>2026-04-12T08:56:26.933Z</time></trkpt><trkpt lat="41.2319383" lon="15.1304167"><ele>597.6666666666666</ele><time>2026-04-12T08:56:27.932Z</time></trkpt><trkpt lat="41.2320083" lon="15.1304483"><ele>596.8333333333333</ele><time>2026-04-12T08:56:28.933Z</time></trkpt><trkpt lat="41.2320733" lon="15.130485"><ele>596.0</ele><time>2026-04-12T08:56:29.933Z</time></trkpt><trkpt lat="41.23213" lon="15.1305283"><ele>596.0</ele><time>2026-04-12T08:56:30.933Z</time></trkpt><trkpt lat="41.232185" lon="15.13057"><ele>596.0</ele><time>2026-04-12T08:56:31.933Z</time></trkpt><trkpt lat="41.2322767" lon="15.1306567"><ele>596.0</ele><time>2026-04-12T08:56:33.933Z</time></trkpt><trkpt lat="41.2323767" lon="15.130735"><ele>596.0</ele><time>2026-04-12T08:56:35.933Z</time></trkpt><trkpt lat="41.232475" lon="15.1308033"><ele>596.0</ele><time>2026-04-12T08:56:37.933Z</time></trkpt><trkpt lat="41.232565" lon="15.13088"><ele>595.0</ele><time>2026-04-12T08:56:39.932Z</time></trkpt><trkpt lat="41.2326533" lon="15.1309833"><ele>594.0</ele><time>2026-04-12T08:56:41.933Z</time></trkpt><trkpt lat="41.2327483" lon="15.1311133"><ele>593.0</ele><time>2026-04-12T08:56:43.933Z</time></trkpt><trkpt lat="41.2328083" lon="15.1311867"><ele>592.0</ele><time>2026-04-12T08:56:44.933Z</time></trkpt><trkpt lat="41.2328783" lon="15.131265"><ele>591.0</ele><time>2026-04-12T08:56:45.933Z</time></trkpt><trkpt lat="41.2329567" lon="15.1313367"><ele>591.0</ele><time>2026-04-12T08:56:46.932Z</time></trkpt><trkpt lat="41.23304" lon="15.1314017"><ele>591.0</ele><time>2026-04-12T08:56:47.932Z</time></trkpt><trkpt lat="41.2331217" lon="15.1314717"><ele>591.0</ele><time>2026-04-12T08:56:48.933Z</time></trkpt><trkpt lat="41.2332017" lon="15.13155"><ele>591.0</ele><time>2026-04-12T08:56:49.932Z</time></trkpt><trkpt lat="41.23328" lon="15.1316383"><ele>591.0</ele><time>2026-04-12T08:56:50.932Z</time></trkpt><trkpt lat="41.2333583" lon="15.131725"><ele>589.5</ele><time>2026-04-12T08:56:51.933Z</time></trkpt><trkpt lat="41.23344" lon="15.1318183"><ele>588.0</ele><time>2026-04-12T08:56:52.933Z</time></trkpt><trkpt lat="41.2335283" lon="15.1319183"><ele>586.5</ele><time>2026-04-12T08:56:53.932Z</time></trkpt><trkpt lat="41.2336233" lon="15.1320133"><ele>585.0</ele><time>2026-04-12T08:56:54.933Z</time></trkpt><trkpt lat="41.2337233" lon="15.1320967"><ele>585.0</ele><time>2026-04-12T08:56:55.933Z</time></trkpt><trkpt lat="41.2338283" lon="15.1321633"><ele>585.0</ele><time>2026-04-12T08:56:56.932Z</time></trkpt><trkpt lat="41.2339367" lon="15.1322183"><ele>585.0</ele><time>2026-04-12T08:56:57.933Z</time></trkpt><trkpt lat="41.2340483" lon="15.1322717"><ele>585.0</ele><time>2026-04-12T08:56:58.933Z</time></trkpt><trkpt lat="41.23415" lon="15.13232"><ele>586.4</ele><time>2026-04-12T08:56:59.932Z</time></trkpt><trkpt lat="41.23425" lon="15.1323667"><ele>587.8</ele><time>2026-04-12T08:57:00.933Z</time></trkpt><trkpt lat="41.2343517" lon="15.1324167"><ele>589.2</ele><time>2026-04-12T08:57:01.933Z</time></trkpt><trkpt lat="41.23446" lon="15.1324683"><ele>590.6</ele><time>2026-04-12T08:57:02.933Z</time></trkpt><trkpt lat="41.23456" lon="15.1325133"><ele>592.0</ele><time>2026-04-12T08:57:03.933Z</time></trkpt><trkpt lat="41.2346533" lon="15.132555"><ele>592.6</ele><time>2026-04-12T08:57:04.933Z</time></trkpt><trkpt lat="41.2347333" lon="15.1325967"><ele>593.2</ele><time>2026-04-12T08:57:05.933Z</time></trkpt><trkpt lat="41.234815" lon="15.1326433"><ele>593.8</ele><time>2026-04-12T08:57:06.933Z</time></trkpt><trkpt lat="41.2348933" lon="15.1327117"><ele>594.4</ele><time>2026-04-12T08:57:07.933Z</time></trkpt><trkpt lat="41.2349717" lon="15.1327967"><ele>595.0</ele><time>2026-04-12T08:57:08.932Z</time></trkpt><trkpt lat="41.23505" lon="15.132895"><ele>596.0</ele><time>2026-04-12T08:57:09.932Z</time></trkpt><trkpt lat="41.23513" lon="15.1329917"><ele>597.0</ele><time>2026-04-12T08:57:10.933Z</time></trkpt><trkpt lat="41.23521" lon="15.1330767"><ele>598.0</ele><time>2026-04-12T08:57:11.932Z</time></trkpt><trkpt lat="41.2352883" lon="15.1331567"><ele>599.0</ele><time>2026-04-12T08:57:12.933Z</time></trkpt><trkpt lat="41.235365" lon="15.1332267"><ele>600.0</ele><time>2026-04-12T08:57:13.932Z</time></trkpt><trkpt lat="41.2354517" lon="15.1332883"><ele>601.6</ele><time>2026-04-12T08:57:14.933Z</time></trkpt><trkpt lat="41.2355433" lon="15.1333383"><ele>603.2</ele><time>2026-04-12T08:57:15.933Z</time></trkpt><trkpt lat="41.235635" lon="15.1333833"><ele>604.8</ele><time>2026-04-12T08:57:16.933Z</time></trkpt><trkpt lat="41.2357267" lon="15.1334233"><ele>606.4</ele><time>2026-04-12T08:57:17.933Z</time></trkpt><trkpt lat="41.235815" lon="15.13347"><ele>608.0</ele><time>2026-04-12T08:57:18.933Z</time></trkpt><trkpt lat="41.235905" lon="15.1335267"><ele>608.8</ele><time>2026-04-12T08:57:19.933Z</time></trkpt><trkpt lat="41.2359933" lon="15.1335983"><ele>609.5999999999999</ele><time>2026-04-12T08:57:20.933Z</time></trkpt><trkpt lat="41.2360867" lon="15.1336783"><ele>610.4000000000001</ele><time>2026-04-12T08:57:21.932Z</time></trkpt><trkpt lat="41.2361817" lon="15.1337583"><ele>611.2</ele><time>2026-04-12T08:57:22.933Z</time></trkpt><trkpt lat="41.23628" lon="15.1338417"><ele>612.0</ele><time>2026-04-12T08:57:23.932Z</time></trkpt><trkpt lat="41.2363767" lon="15.1339267"><ele>612.25</ele><time>2026-04-12T08:57:24.932Z</time></trkpt><trkpt lat="41.23647" lon="15.1340083"><ele>612.5</ele><time>2026-04-12T08:57:25.933Z</time></trkpt><trkpt lat="41.23657" lon="15.134095"><ele>612.75</ele><time>2026-04-12T08:57:26.933Z</time></trkpt><trkpt lat="41.2366683" lon="15.1341867"><ele>613.0</ele><time>2026-04-12T08:57:27.933Z</time></trkpt><trkpt lat="41.236765" lon="15.1342767"><ele>614.25</ele><time>2026-04-12T08:57:28.932Z</time></trkpt><trkpt lat="41.2368633" lon="15.1343667"><ele>615.5</ele><time>2026-04-12T08:57:29.933Z</time></trkpt><trkpt lat="41.2369633" lon="15.13446"><ele>616.75</ele><time>2026-04-12T08:57:30.933Z</time></trkpt><trkpt lat="41.23706" lon="15.1345483"><ele>618.0</ele><time>2026-04-12T08:57:31.933Z</time></trkpt><trkpt lat="41.2371567" lon="15.134635"><ele>618.0</ele><time>2026-04-12T08:57:32.933Z</time></trkpt><trkpt lat="41.2372517" lon="15.1347167"><ele>618.0</ele><time>2026-04-12T08:57:33.932Z</time></trkpt><trkpt lat="41.2373417" lon="15.1347967"><ele>618.0</ele><time>2026-04-12T08:57:34.932Z</time></trkpt><trkpt lat="41.2374283" lon="15.134865"><ele>618.0</ele><time>2026-04-12T08:57:35.933Z</time></trkpt><trkpt lat="41.2375133" lon="15.1349333"><ele>618.0</ele><time>2026-04-12T08:57:36.933Z</time></trkpt><trkpt lat="41.237595" lon="15.135"><ele>619.6</ele><time>2026-04-12T08:57:37.932Z</time></trkpt><trkpt lat="41.2376667" lon="15.135065"><ele>621.1999999999999</ele><time>2026-04-12T08:57:38.933Z</time></trkpt><trkpt lat="41.2377467" lon="15.1351333"><ele>622.8</ele><time>2026-04-12T08:57:39.932Z</time></trkpt><trkpt lat="41.2378267" lon="15.1352117"><ele>624.4</ele><time>2026-04-12T08:57:40.933Z</time></trkpt><trkpt lat="41.2379167" lon="15.135295"><ele>626.0</ele><time>2026-04-12T08:57:41.933Z</time></trkpt><trkpt lat="41.2380117" lon="15.1353717"><ele>626.0</ele><time>2026-04-12T08:57:42.932Z</time></trkpt><trkpt lat="41.2381017" lon="15.1354467"><ele>626.0</ele><time>2026-04-12T08:57:43.933Z</time></trkpt><trkpt lat="41.23819" lon="15.1355267"><ele>626.0</ele><time>2026-04-12T08:57:44.933Z</time></trkpt><trkpt lat="41.23828" lon="15.13561"><ele>626.0</ele><time>2026-04-12T08:57:45.933Z</time></trkpt><trkpt lat="41.2383767" lon="15.1356933"><ele>626.0</ele><time>2026-04-12T08:57:46.932Z</time></trkpt><trkpt lat="41.2384683" lon="15.1357717"><ele>627.6</ele><time>2026-04-12T08:57:47.933Z</time></trkpt><trkpt lat="41.2385533" lon="15.1358467"><ele>629.2</ele><time>2026-04-12T08:57:48.933Z</time></trkpt><trkpt lat="41.2386433" lon="15.13592"><ele>630.8</ele><time>2026-04-12T08:57:49.932Z</time></trkpt><trkpt lat="41.23873" lon="15.13599"><ele>632.4</ele><time>2026-04-12T08:57:50.932Z</time></trkpt><trkpt lat="41.23882" lon="15.13606"><ele>634.0</ele><time>2026-04-12T08:57:51.933Z</time></trkpt><trkpt lat="41.2389" lon="15.136135"><ele>634.6</ele><time>2026-04-12T08:57:52.932Z</time></trkpt><trkpt lat="41.23898" lon="15.1362067"><ele>635.2</ele><time>2026-04-12T08:57:53.932Z</time></trkpt><trkpt lat="41.2390667" lon="15.13628"><ele>635.8000000000001</ele><time>2026-04-12T08:57:54.932Z</time></trkpt><trkpt lat="41.239155" lon="15.1363417"><ele>636.4</ele><time>2026-04-12T08:57:55.933Z</time></trkpt><trkpt lat="41.2392467" lon="15.1364"><ele>637.0</ele><time>2026-04-12T08:57:56.932Z</time></trkpt><trkpt lat="41.2393367" lon="15.1364617"><ele>637.0</ele><time>2026-04-12T08:57:57.933Z</time></trkpt><trkpt lat="41.239435" lon="15.136535"><ele>637.0</ele><time>2026-04-12T08:57:58.932Z</time></trkpt><trkpt lat="41.23953" lon="15.1365917"><ele>637.0</ele><time>2026-04-12T08:57:59.933Z</time></trkpt><trkpt lat="41.2396283" lon="15.1366483"><ele>637.0</ele><time>2026-04-12T08:58:00.932Z</time></trkpt><trkpt lat="41.2397267" lon="15.136705"><ele>637.0</ele><time>2026-04-12T08:58:01.933Z</time></trkpt><trkpt lat="41.2398233" lon="15.136755"><ele>639.0</ele><time>2026-04-12T08:58:02.933Z</time></trkpt><trkpt lat="41.2399183" lon="15.1368083"><ele>641.0</ele><time>2026-04-12T08:58:03.932Z</time></trkpt><trkpt lat="41.2400067" lon="15.1368583"><ele>643.0</ele><time>2026-04-12T08:58:04.933Z</time></trkpt><trkpt lat="41.2400933" lon="15.1369117"><ele>645.0</ele><time>2026-04-12T08:58:05.932Z</time></trkpt><trkpt lat="41.240175" lon="15.13697"><ele>647.0</ele><time>2026-04-12T08:58:06.933Z</time></trkpt><trkpt lat="41.2402583" lon="15.1370283"><ele>647.0</ele><time>2026-04-12T08:58:07.932Z</time></trkpt><trkpt lat="41.2403367" lon="15.13708"><ele>647.0</ele><time>2026-04-12T08:58:08.933Z</time></trkpt><trkpt lat="41.2404217" lon="15.1371333"><ele>647.0</ele><time>2026-04-12T08:58:09.932Z</time></trkpt><trkpt lat="41.240515" lon="15.1371817"><ele>647.0</ele><time>2026-04-12T08:58:10.932Z</time></trkpt><trkpt lat="41.2406133" lon="15.1372217"><ele>647.0</ele><time>2026-04-12T08:58:11.933Z</time></trkpt><trkpt lat="41.2407133" lon="15.1372583"><ele>648.2</ele><time>2026-04-12T08:58:12.933Z</time></trkpt><trkpt lat="41.2408167" lon="15.1372983"><ele>649.4000000000001</ele><time>2026-04-12T08:58:13.932Z</time></trkpt><trkpt lat="41.2409183" lon="15.1373417"><ele>650.5999999999999</ele><time>2026-04-12T08:58:14.933Z</time></trkpt><trkpt lat="41.241025" lon="15.1373783"><ele>651.8</ele><time>2026-04-12T08:58:15.932Z</time></trkpt><trkpt lat="41.2411317" lon="15.1374183"><ele>653.0</ele><time>2026-04-12T08:58:16.933Z</time></trkpt><trkpt lat="41.2412367" lon="15.137465"><ele>653.75</ele><time>2026-04-12T08:58:17.932Z</time></trkpt><trkpt lat="41.2413467" lon="15.13752"><ele>654.5</ele><time>2026-04-12T08:58:18.932Z</time></trkpt><trkpt lat="41.241465" lon="15.13758"><ele>655.25</ele><time>2026-04-12T08:58:19.933Z</time></trkpt><trkpt lat="41.2415817" lon="15.1376367"><ele>656.0</ele><time>2026-04-12T08:58:20.933Z</time></trkpt><trkpt lat="41.2417033" lon="15.13769"><ele>657.5</ele><time>2026-04-12T08:58:21.933Z</time></trkpt><trkpt lat="41.2418267" lon="15.1377483"><ele>659.0</ele><time>2026-04-12T08:58:22.933Z</time></trkpt><trkpt lat="41.2419517" lon="15.1378117"><ele>660.5</ele><time>2026-04-12T08:58:23.933Z</time></trkpt><trkpt lat="41.2420783" lon="15.1378783"><ele>662.0</ele><time>2026-04-12T08:58:24.933Z</time></trkpt><trkpt lat="41.2422" lon="15.1379483"><ele>662.8</ele><time>2026-04-12T08:58:25.933Z</time></trkpt><trkpt lat="41.242315" lon="15.138005"><ele>663.6</ele><time>2026-04-12T08:58:26.933Z</time></trkpt><trkpt lat="41.2424133" lon="15.1380617"><ele>664.4</ele><time>2026-04-12T08:58:27.932Z</time></trkpt><trkpt lat="41.2425067" lon="15.138115"><ele>665.1999999999999</ele><time>2026-04-12T08:58:28.932Z</time></trkpt><trkpt lat="41.2425967" lon="15.1381633"><ele>666.0</ele><time>2026-04-12T08:58:29.933Z</time></trkpt><trkpt lat="41.2426883" lon="15.1382117"><ele>667.1999999999999</ele><time>2026-04-12T08:58:30.933Z</time></trkpt><trkpt lat="41.242785" lon="15.1382633"><ele>668.4</ele><time>2026-04-12T08:58:31.932Z</time></trkpt><trkpt lat="41.2428767" lon="15.1383117"><ele>669.6</ele><time>2026-04-12T08:58:32.932Z</time></trkpt><trkpt lat="41.24296" lon="15.13836"><ele>670.8</ele><time>2026-04-12T08:58:33.933Z</time></trkpt><trkpt lat="41.2430333" lon="15.1384083"><ele>672.0</ele><time>2026-04-12T08:58:34.932Z</time></trkpt><trkpt lat="41.2431083" lon="15.1384483"><ele>673.0</ele><time>2026-04-12T08:58:35.932Z</time></trkpt><trkpt lat="41.2431933" lon="15.138475"><ele>674.0</ele><time>2026-04-12T08:58:36.933Z</time></trkpt><trkpt lat="41.2432867" lon="15.1384867"><ele>675.0</ele><time>2026-04-12T08:58:37.933Z</time></trkpt><trkpt lat="41.243395" lon="15.13848"><ele>676.0</ele><time>2026-04-12T08:58:38.933Z</time></trkpt><trkpt lat="41.2435117" lon="15.1384567"><ele>677.0</ele><time>2026-04-12T08:58:39.933Z</time></trkpt><trkpt lat="41.2436233" lon="15.1384233"><ele>677.0</ele><time>2026-04-12T08:58:40.932Z</time></trkpt><trkpt lat="41.243725" lon="15.1383933"><ele>677.0</ele><time>2026-04-12T08:58:41.933Z</time></trkpt><trkpt lat="41.2438167" lon="15.1383667"><ele>677.0</ele><time>2026-04-12T08:58:42.933Z</time></trkpt><trkpt lat="41.2439117" lon="15.1383467"><ele>677.0</ele><time>2026-04-12T08:58:43.933Z</time></trkpt><trkpt lat="41.24401" lon="15.1383317"><ele>677.0</ele><time>2026-04-12T08:58:44.933Z</time></trkpt><trkpt lat="41.2441033" lon="15.138325"><ele>678.1666666666666</ele><time>2026-04-12T08:58:45.933Z</time></trkpt><trkpt lat="41.244195" lon="15.1383183"><ele>679.3333333333333</ele><time>2026-04-12T08:58:46.932Z</time></trkpt><trkpt lat="41.2442833" lon="15.13831"><ele>680.5</ele><time>2026-04-12T08:58:47.933Z</time></trkpt><trkpt lat="41.24437" lon="15.1382983"><ele>681.6666666666666</ele><time>2026-04-12T08:58:48.933Z</time></trkpt><trkpt lat="41.2444533" lon="15.1382867"><ele>682.8333333333334</ele><time>2026-04-12T08:58:49.933Z</time></trkpt><trkpt lat="41.2445383" lon="15.13828"><ele>684.0</ele><time>2026-04-12T08:58:50.933Z</time></trkpt><trkpt lat="41.24462" lon="15.13826"><ele>684.0</ele><time>2026-04-12T08:58:51.933Z</time></trkpt><trkpt lat="41.2447017" lon="15.1382267"><ele>684.0</ele><time>2026-04-12T08:58:52.932Z</time></trkpt><trkpt lat="41.244785" lon="15.1381767"><ele>684.0</ele><time>2026-04-12T08:58:53.933Z</time></trkpt><trkpt lat="41.2448733" lon="15.1381083"><ele>684.0</ele><time>2026-04-12T08:58:54.933Z</time></trkpt><trkpt lat="41.2449683" lon="15.1380433"><ele>684.0</ele><time>2026-04-12T08:58:55.933Z</time></trkpt><trkpt lat="41.245061" lon="15.1379844"><ele>685.6</ele><time>2026-04-12T08:58:56.933Z</time></trkpt><trkpt lat="41.2451504" lon="15.1379334"><ele>687.2</ele><time>2026-04-12T08:58:57.932Z</time></trkpt><trkpt lat="41.2452425" lon="15.1378884"><ele>688.8000000000001</ele><time>2026-04-12T08:58:58.933Z</time></trkpt><trkpt lat="41.2453364" lon="15.1378459"><ele>690.4000000000001</ele><time>2026-04-12T08:58:59.933Z</time></trkpt><trkpt lat="41.2454328" lon="15.1378103"><ele>692.0</ele><time>2026-04-12T08:59:00.933Z</time></trkpt><trkpt lat="41.2455327" lon="15.1377785"><ele>692.0</ele><time>2026-04-12T08:59:01.932Z</time></trkpt><trkpt lat="41.2456361" lon="15.1377485"><ele>692.0</ele><time>2026-04-12T08:59:02.933Z</time></trkpt><trkpt lat="41.2457365" lon="15.1377121"><ele>692.0</ele><time>2026-04-12T08:59:03.933Z</time></trkpt><trkpt lat="41.2458372" lon="15.137669"><ele>692.0</ele><time>2026-04-12T08:59:04.932Z</time></trkpt><trkpt lat="41.2459386" lon="15.1376299"><ele>692.0</ele><time>2026-04-12T08:59:05.933Z</time></trkpt><trkpt lat="41.246034" lon="15.1375994"><ele>692.0</ele><time>2026-04-12T08:59:06.933Z</time></trkpt><trkpt lat="41.246116" lon="15.1375813"><ele>692.0</ele><time>2026-04-12T08:59:07.932Z</time></trkpt><trkpt lat="41.2461923" lon="15.1375749"><ele>692.0</ele><time>2026-04-12T08:59:08.932Z</time></trkpt><trkpt lat="41.24627" lon="15.1375768"><ele>692.0</ele><time>2026-04-12T08:59:09.933Z</time></trkpt><trkpt lat="41.2463519" lon="15.1375831"><ele>692.0</ele><time>2026-04-12T08:59:10.932Z</time></trkpt><trkpt lat="41.2464362" lon="15.1375969"><ele>692.0</ele><time>2026-04-12T08:59:11.933Z</time></trkpt><trkpt lat="41.2465213" lon="15.1376105"><ele>692.0</ele><time>2026-04-12T08:59:12.932Z</time></trkpt><trkpt lat="41.2466088" lon="15.1376134"><ele>692.0</ele><time>2026-04-12T08:59:13.932Z</time></trkpt><trkpt lat="41.2466983" lon="15.137614"><ele>692.0</ele><time>2026-04-12T08:59:14.932Z</time></trkpt><trkpt lat="41.2467958" lon="15.1376114"><ele>692.0</ele><time>2026-04-12T08:59:15.933Z</time></trkpt><trkpt lat="41.2468987" lon="15.1376202"><ele>692.0</ele><time>2026-04-12T08:59:16.933Z</time></trkpt><trkpt lat="41.2469989" lon="15.1376434"><ele>692.0</ele><time>2026-04-12T08:59:17.933Z</time></trkpt><trkpt lat="41.2470949" lon="15.1376739"><ele>692.0</ele><time>2026-04-12T08:59:18.933Z</time></trkpt><trkpt lat="41.2471887" lon="15.1377147"><ele>692.0</ele><time>2026-04-12T08:59:19.933Z</time></trkpt><trkpt lat="41.2472836" lon="15.1377662"><ele>692.0</ele><time>2026-04-12T08:59:20.932Z</time></trkpt><trkpt lat="41.2473795" lon="15.1378174"><ele>692.0</ele><time>2026-04-12T08:59:21.933Z</time></trkpt><trkpt lat="41.2474778" lon="15.1378677"><ele>691.2</ele><time>2026-04-12T08:59:22.933Z</time></trkpt><trkpt lat="41.2475745" lon="15.1379129"><ele>690.4000000000001</ele><time>2026-04-12T08:59:23.932Z</time></trkpt><trkpt lat="41.2476696" lon="15.1379515"><ele>689.5999999999999</ele><time>2026-04-12T08:59:24.933Z</time></trkpt><trkpt lat="41.2477633" lon="15.1379881"><ele>688.8</ele><time>2026-04-12T08:59:25.933Z</time></trkpt><trkpt lat="41.2478545" lon="15.1380269"><ele>688.0</ele><time>2026-04-12T08:59:26.933Z</time></trkpt><trkpt lat="41.2479474" lon="15.1380657"><ele>688.0</ele><time>2026-04-12T08:59:27.932Z</time></trkpt><trkpt lat="41.2480325" lon="15.138098"><ele>688.0</ele><time>2026-04-12T08:59:28.933Z</time></trkpt><trkpt lat="41.24811" lon="15.1381383"><ele>688.0</ele><time>2026-04-12T08:59:29.933Z</time></trkpt><trkpt lat="41.2481883" lon="15.1381883"><ele>688.0</ele><time>2026-04-12T08:59:30.933Z</time></trkpt><trkpt lat="41.24827" lon="15.1382383"><ele>688.0</ele><time>2026-04-12T08:59:31.933Z</time></trkpt><trkpt lat="41.24835" lon="15.1383067"><ele>688.0</ele><time>2026-04-12T08:59:32.933Z</time></trkpt><trkpt lat="41.2484283" lon="15.1383667"><ele>688.5</ele><time>2026-04-12T08:59:33.933Z</time></trkpt><trkpt lat="41.248505" lon="15.13842"><ele>689.0</ele><time>2026-04-12T08:59:34.932Z</time></trkpt><trkpt lat="41.2485833" lon="15.1384633"><ele>689.5</ele><time>2026-04-12T08:59:35.933Z</time></trkpt><trkpt lat="41.248665" lon="15.1384917"><ele>690.0</ele><time>2026-04-12T08:59:36.932Z</time></trkpt><trkpt lat="41.24875" lon="15.1384983"><ele>690.5</ele><time>2026-04-12T08:59:37.933Z</time></trkpt><trkpt lat="41.24884" lon="15.1384933"><ele>691.0</ele><time>2026-04-12T08:59:38.933Z</time></trkpt><trkpt lat="41.2489383" lon="15.138485"><ele>690.8</ele><time>2026-04-12T08:59:39.932Z</time></trkpt><trkpt lat="41.2490367" lon="15.13848"><ele>690.5999999999999</ele><time>2026-04-12T08:59:40.933Z</time></trkpt><trkpt lat="41.2491283" lon="15.1384767"><ele>690.4</ele><time>2026-04-12T08:59:41.933Z</time></trkpt><trkpt lat="41.24921" lon="15.13848"><ele>690.2</ele><time>2026-04-12T08:59:42.932Z</time></trkpt><trkpt lat="41.2493033" lon="15.13849"><ele>690.0</ele><time>2026-04-12T08:59:43.933Z</time></trkpt><trkpt lat="41.24941" lon="15.13851"><ele>690.0</ele><time>2026-04-12T08:59:44.933Z</time></trkpt><trkpt lat="41.24952" lon="15.1385283"><ele>690.0</ele><time>2026-04-12T08:59:45.932Z</time></trkpt><trkpt lat="41.2496133" lon="15.1385483"><ele>690.0</ele><time>2026-04-12T08:59:46.933Z</time></trkpt><trkpt lat="41.2497" lon="15.13857"><ele>690.0</ele><time>2026-04-12T08:59:47.933Z</time></trkpt><trkpt lat="41.2497917" lon="15.1385933"><ele>690.0</ele><time>2026-04-12T08:59:48.933Z</time></trkpt><trkpt lat="41.2498867" lon="15.1386233"><ele>689.2</ele><time>2026-04-12T08:59:49.932Z</time></trkpt><trkpt lat="41.24998" lon="15.1386567"><ele>688.4</ele><time>2026-04-12T08:59:50.933Z</time></trkpt><trkpt lat="41.25007" lon="15.1386917"><ele>687.5999999999999</ele><time>2026-04-12T08:59:51.933Z</time></trkpt><trkpt lat="41.2501617" lon="15.1387317"><ele>686.8</ele><time>2026-04-12T08:59:52.933Z</time></trkpt><trkpt lat="41.2502533" lon="15.1387767"><ele>686.0</ele><time>2026-04-12T08:59:53.933Z</time></trkpt><trkpt lat="41.250345" lon="15.1388167"><ele>686.0</ele><time>2026-04-12T08:59:54.933Z</time></trkpt><trkpt lat="41.25044" lon="15.1388633"><ele>686.0</ele><time>2026-04-12T08:59:55.933Z</time></trkpt><trkpt lat="41.250535" lon="15.138905"><ele>686.0</ele><time>2026-04-12T08:59:56.933Z</time></trkpt><trkpt lat="41.25062" lon="15.13895"><ele>686.0</ele><time>2026-04-12T08:59:57.933Z</time></trkpt><trkpt lat="41.25071" lon="15.138985"><ele>686.0</ele><time>2026-04-12T08:59:58.932Z</time></trkpt><trkpt lat="41.250805" lon="15.13901"><ele>685.0</ele><time>2026-04-12T08:59:59.932Z</time></trkpt><trkpt lat="41.250905" lon="15.13902"><ele>684.0</ele><time>2026-04-12T09:00:00.933Z</time></trkpt><trkpt lat="41.2510033" lon="15.1390217"><ele>683.0</ele><time>2026-04-12T09:00:01.933Z</time></trkpt><trkpt lat="41.2511" lon="15.13902"><ele>682.0</ele><time>2026-04-12T09:00:02.933Z</time></trkpt><trkpt lat="41.2511917" lon="15.1390167"><ele>681.0</ele><time>2026-04-12T09:00:03.933Z</time></trkpt><trkpt lat="41.2512883" lon="15.1390083"><ele>681.0</ele><time>2026-04-12T09:00:04.933Z</time></trkpt><trkpt lat="41.251385" lon="15.1390033"><ele>681.0</ele><time>2026-04-12T09:00:05.933Z</time></trkpt><trkpt lat="41.251485" lon="15.1389983"><ele>681.0</ele><time>2026-04-12T09:00:06.932Z</time></trkpt><trkpt lat="41.2515867" lon="15.138995"><ele>681.0</ele><time>2026-04-12T09:00:07.933Z</time></trkpt><trkpt lat="41.2516883" lon="15.1389917"><ele>681.0</ele><time>2026-04-12T09:00:08.933Z</time></trkpt><trkpt lat="41.251795" lon="15.138985"><ele>680.5999999999999</ele><time>2026-04-12T09:00:09.932Z</time></trkpt><trkpt lat="41.2519" lon="15.1389817"><ele>680.2</ele><time>2026-04-12T09:00:10.932Z</time></trkpt><trkpt lat="41.2519983" lon="15.1389767"><ele>679.8</ele><time>2026-04-12T09:00:11.932Z</time></trkpt><trkpt lat="41.2520883" lon="15.1389717"><ele>679.4000000000001</ele><time>2026-04-12T09:00:12.933Z</time></trkpt><trkpt lat="41.2521767" lon="15.13897"><ele>679.0</ele><time>2026-04-12T09:00:13.933Z</time></trkpt><trkpt lat="41.2522667" lon="15.1389817"><ele>678.4000000000001</ele><time>2026-04-12T09:00:14.933Z</time></trkpt><trkpt lat="41.25236" lon="15.1389933"><ele>677.8</ele><time>2026-04-12T09:00:15.933Z</time></trkpt><trkpt lat="41.2524583" lon="15.139015"><ele>677.2</ele><time>2026-04-12T09:00:16.933Z</time></trkpt><trkpt lat="41.2525583" lon="15.1390517"><ele>676.5999999999999</ele><time>2026-04-12T09:00:17.933Z</time></trkpt><trkpt lat="41.252665" lon="15.139085"><ele>676.0</ele><time>2026-04-12T09:00:18.933Z</time></trkpt><trkpt lat="41.252765" lon="15.1391117"><ele>676.5999999999999</ele><time>2026-04-12T09:00:19.933Z</time></trkpt><trkpt lat="41.2528567" lon="15.13914"><ele>677.2</ele><time>2026-04-12T09:00:20.933Z</time></trkpt><trkpt lat="41.2529433" lon="15.1391783"><ele>677.8</ele><time>2026-04-12T09:00:21.933Z</time></trkpt><trkpt lat="41.2530283" lon="15.139225"><ele>678.4000000000001</ele><time>2026-04-12T09:00:22.933Z</time></trkpt><trkpt lat="41.2531217" lon="15.13928"><ele>679.0</ele><time>2026-04-12T09:00:23.932Z</time></trkpt><trkpt lat="41.2532183" lon="15.1393467"><ele>679.0</ele><time>2026-04-12T09:00:24.933Z</time></trkpt><trkpt lat="41.25331" lon="15.1394017"><ele>679.0</ele><time>2026-04-12T09:00:25.933Z</time></trkpt><trkpt lat="41.2534" lon="15.13945"><ele>679.0</ele><time>2026-04-12T09:00:26.932Z</time></trkpt><trkpt lat="41.2534967" lon="15.1394717"><ele>679.0</ele><time>2026-04-12T09:00:27.933Z</time></trkpt><trkpt lat="41.2535967" lon="15.1394633"><ele>679.0</ele><time>2026-04-12T09:00:28.932Z</time></trkpt><trkpt lat="41.2537" lon="15.1394317"><ele>679.0</ele><time>2026-04-12T09:00:29.932Z</time></trkpt><trkpt lat="41.253795" lon="15.139385"><ele>679.0</ele><time>2026-04-12T09:00:30.933Z</time></trkpt><trkpt lat="41.253885" lon="15.1393433"><ele>679.0</ele><time>2026-04-12T09:00:31.933Z</time></trkpt><trkpt lat="41.25398" lon="15.1393167"><ele>679.0</ele><time>2026-04-12T09:00:32.933Z</time></trkpt><trkpt lat="41.254075" lon="15.1393067"><ele>679.0</ele><time>2026-04-12T09:00:33.933Z</time></trkpt><trkpt lat="41.2541783" lon="15.1393033"><ele>678.75</ele><time>2026-04-12T09:00:34.932Z</time></trkpt><trkpt lat="41.254285" lon="15.139315"><ele>678.5</ele><time>2026-04-12T09:00:35.933Z</time></trkpt><trkpt lat="41.2543967" lon="15.13933"><ele>678.25</ele><time>2026-04-12T09:00:36.933Z</time></trkpt><trkpt lat="41.2545183" lon="15.13934"><ele>678.0</ele><time>2026-04-12T09:00:37.932Z</time></trkpt><trkpt lat="41.2546383" lon="15.1393333"><ele>678.0</ele><time>2026-04-12T09:00:38.933Z</time></trkpt><trkpt lat="41.25476" lon="15.1393217"><ele>678.0</ele><time>2026-04-12T09:00:39.933Z</time></trkpt><trkpt lat="41.2548817" lon="15.139315"><ele>678.0</ele><time>2026-04-12T09:00:40.933Z</time></trkpt><trkpt lat="41.2550017" lon="15.1393167"><ele>678.0</ele><time>2026-04-12T09:00:41.933Z</time></trkpt><trkpt lat="41.2551233" lon="15.1393217"><ele>677.75</ele><time>2026-04-12T09:00:42.933Z</time></trkpt><trkpt lat="41.2552383" lon="15.1393367"><ele>677.5</ele><time>2026-04-12T09:00:43.933Z</time></trkpt><trkpt lat="41.2553533" lon="15.13935"><ele>677.25</ele><time>2026-04-12T09:00:44.933Z</time></trkpt><trkpt lat="41.2554717" lon="15.1393667"><ele>677.0</ele><time>2026-04-12T09:00:45.933Z</time></trkpt><trkpt lat="41.255585" lon="15.1393767"><ele>676.8</ele><time>2026-04-12T09:00:46.932Z</time></trkpt><trkpt lat="41.2557" lon="15.13938"><ele>676.6</ele><time>2026-04-12T09:00:47.933Z</time></trkpt><trkpt lat="41.2558033" lon="15.13938"><ele>676.4</ele><time>2026-04-12T09:00:48.932Z</time></trkpt><trkpt lat="41.2559083" lon="15.1393717"><ele>676.1999999999999</ele><time>2026-04-12T09:00:49.933Z</time></trkpt><trkpt lat="41.2560133" lon="15.139355"><ele>676.0</ele><time>2026-04-12T09:00:50.932Z</time></trkpt><trkpt lat="41.256125" lon="15.1393183"><ele>676.0</ele><time>2026-04-12T09:00:51.932Z</time></trkpt><trkpt lat="41.256235" lon="15.1392933"><ele>676.0</ele><time>2026-04-12T09:00:52.933Z</time></trkpt><trkpt lat="41.2563467" lon="15.1392783"><ele>676.0</ele><time>2026-04-12T09:00:53.933Z</time></trkpt><trkpt lat="41.256455" lon="15.1392567"><ele>676.0</ele><time>2026-04-12T09:00:54.933Z</time></trkpt><trkpt lat="41.25656" lon="15.1392267"><ele>676.0</ele><time>2026-04-12T09:00:55.933Z</time></trkpt><trkpt lat="41.25667" lon="15.1392017"><ele>676.0</ele><time>2026-04-12T09:00:56.933Z</time></trkpt><trkpt lat="41.2567783" lon="15.139165"><ele>676.0</ele><time>2026-04-12T09:00:57.932Z</time></trkpt><trkpt lat="41.2568867" lon="15.139125"><ele>676.0</ele><time>2026-04-12T09:00:58.932Z</time></trkpt><trkpt lat="41.256995" lon="15.13909"><ele>676.0</ele><time>2026-04-12T09:00:59.933Z</time></trkpt><trkpt lat="41.2571" lon="15.1390533"><ele>676.0</ele><time>2026-04-12T09:01:00.932Z</time></trkpt><trkpt lat="41.2572" lon="15.1390117"><ele>676.4</ele><time>2026-04-12T09:01:01.932Z</time></trkpt><trkpt lat="41.2572967" lon="15.138965"><ele>676.8</ele><time>2026-04-12T09:01:02.933Z</time></trkpt><trkpt lat="41.2573883" lon="15.1389133"><ele>677.1999999999999</ele><time>2026-04-12T09:01:03.932Z</time></trkpt><trkpt lat="41.25748" lon="15.1388567"><ele>677.5999999999999</ele><time>2026-04-12T09:01:04.933Z</time></trkpt><trkpt lat="41.2575683" lon="15.1388017"><ele>678.0</ele><time>2026-04-12T09:01:05.933Z</time></trkpt><trkpt lat="41.2576483" lon="15.1387483"><ele>678.0</ele><time>2026-04-12T09:01:06.932Z</time></trkpt><trkpt lat="41.25773" lon="15.1386917"><ele>678.0</ele><time>2026-04-12T09:01:07.933Z</time></trkpt><trkpt lat="41.2578067" lon="15.1386317"><ele>678.0</ele><time>2026-04-12T09:01:08.933Z</time></trkpt><trkpt lat="41.2578883" lon="15.138575"><ele>678.0</ele><time>2026-04-12T09:01:09.932Z</time></trkpt><trkpt lat="41.2579633" lon="15.13852"><ele>678.0</ele><time>2026-04-12T09:01:10.932Z</time></trkpt><trkpt lat="41.25804" lon="15.1384667"><ele>678.0</ele><time>2026-04-12T09:01:11.933Z</time></trkpt><trkpt lat="41.2581167" lon="15.13841"><ele>678.6666666666666</ele><time>2026-04-12T09:01:12.933Z</time></trkpt><trkpt lat="41.2581917" lon="15.1383483"><ele>679.3333333333334</ele><time>2026-04-12T09:01:13.933Z</time></trkpt><trkpt lat="41.25827" lon="15.138295"><ele>680.0</ele><time>2026-04-12T09:01:14.933Z</time></trkpt><trkpt lat="41.25835" lon="15.1382483"><ele>680.6666666666667</ele><time>2026-04-12T09:01:15.932Z</time></trkpt><trkpt lat="41.2584317" lon="15.1382083"><ele>681.3333333333334</ele><time>2026-04-12T09:01:16.933Z</time></trkpt><trkpt lat="41.2585167" lon="15.138165"><ele>682.0</ele><time>2026-04-12T09:01:17.932Z</time></trkpt><trkpt lat="41.2586033" lon="15.138125"><ele>682.2</ele><time>2026-04-12T09:01:18.933Z</time></trkpt><trkpt lat="41.2586967" lon="15.1380933"><ele>682.4000000000001</ele><time>2026-04-12T09:01:19.933Z</time></trkpt><trkpt lat="41.25879" lon="15.138065"><ele>682.5999999999999</ele><time>2026-04-12T09:01:20.933Z</time></trkpt><trkpt lat="41.2588833" lon="15.1380467"><ele>682.8</ele><time>2026-04-12T09:01:21.933Z</time></trkpt><trkpt lat="41.2589667" lon="15.1380267"><ele>683.0</ele><time>2026-04-12T09:01:22.932Z</time></trkpt><trkpt lat="41.2590517" lon="15.138005"><ele>684.0</ele><time>2026-04-12T09:01:23.933Z</time></trkpt><trkpt lat="41.25914" lon="15.137985"><ele>685.0</ele><time>2026-04-12T09:01:24.933Z</time></trkpt><trkpt lat="41.2592283" lon="15.1379683"><ele>686.0</ele><time>2026-04-12T09:01:25.933Z</time></trkpt><trkpt lat="41.2593183" lon="15.1379517"><ele>687.0</ele><time>2026-04-12T09:01:26.933Z</time></trkpt><trkpt lat="41.2594" lon="15.1379383"><ele>688.0</ele><time>2026-04-12T09:01:27.932Z</time></trkpt><trkpt lat="41.2594867" lon="15.1379317"><ele>689.0</ele><time>2026-04-12T09:01:28.933Z</time></trkpt><trkpt lat="41.25957" lon="15.1379217"><ele>689.0</ele><time>2026-04-12T09:01:29.933Z</time></trkpt><trkpt lat="41.25966" lon="15.137905"><ele>689.0</ele><time>2026-04-12T09:01:30.933Z</time></trkpt><trkpt lat="41.25975" lon="15.13788"><ele>689.0</ele><time>2026-04-12T09:01:31.933Z</time></trkpt><trkpt lat="41.25984" lon="15.137855"><ele>689.0</ele><time>2026-04-12T09:01:32.932Z</time></trkpt><trkpt lat="41.2599317" lon="15.1378267"><ele>689.0</ele><time>2026-04-12T09:01:33.933Z</time></trkpt><trkpt lat="41.2600283" lon="15.13779"><ele>689.8000000000001</ele><time>2026-04-12T09:01:34.933Z</time></trkpt><trkpt lat="41.26012" lon="15.13774"><ele>690.6</ele><time>2026-04-12T09:01:35.933Z</time></trkpt><trkpt lat="41.2602" lon="15.1376933"><ele>691.4</ele><time>2026-04-12T09:01:36.932Z</time></trkpt><trkpt lat="41.2602733" lon="15.1376383"><ele>692.2</ele><time>2026-04-12T09:01:37.933Z</time></trkpt><trkpt lat="41.260345" lon="15.13757"><ele>693.0</ele><time>2026-04-12T09:01:38.933Z</time></trkpt><trkpt lat="41.2604133" lon="15.1374783"><ele>692.5</ele><time>2026-04-12T09:01:39.933Z</time></trkpt><trkpt lat="41.26048" lon="15.137365"><ele>692.0</ele><time>2026-04-12T09:01:40.933Z</time></trkpt><trkpt lat="41.260545" lon="15.1372267"><ele>691.5</ele><time>2026-04-12T09:01:41.933Z</time></trkpt><trkpt lat="41.2606083" lon="15.1370833"><ele>691.0</ele><time>2026-04-12T09:01:42.933Z</time></trkpt><trkpt lat="41.2606683" lon="15.136955"><ele>691.0</ele><time>2026-04-12T09:01:43.932Z</time></trkpt><trkpt lat="41.26073" lon="15.13684"><ele>691.0</ele><time>2026-04-12T09:01:44.933Z</time></trkpt><trkpt lat="41.2608033" lon="15.1367267"><ele>691.0</ele><time>2026-04-12T09:01:45.933Z</time></trkpt><trkpt lat="41.2608783" lon="15.136625"><ele>691.0</ele><time>2026-04-12T09:01:46.933Z</time></trkpt><trkpt lat="41.2609567" lon="15.1365283"><ele>691.0</ele><time>2026-04-12T09:01:47.933Z</time></trkpt><trkpt lat="41.2610283" lon="15.136445"><ele>691.0</ele><time>2026-04-12T09:01:48.932Z</time></trkpt><trkpt lat="41.2611033" lon="15.1363683"><ele>691.0</ele><time>2026-04-12T09:01:49.932Z</time></trkpt><trkpt lat="41.261175" lon="15.1363167"><ele>691.0</ele><time>2026-04-12T09:01:50.933Z</time></trkpt><trkpt lat="41.2612517" lon="15.136285"><ele>691.0</ele><time>2026-04-12T09:01:51.933Z</time></trkpt><trkpt lat="41.26133" lon="15.1362767"><ele>691.0</ele><time>2026-04-12T09:01:52.933Z</time></trkpt><trkpt lat="41.2614133" lon="15.1362767"><ele>691.0</ele><time>2026-04-12T09:01:53.933Z</time></trkpt><trkpt lat="41.2615067" lon="15.1362967"><ele>691.8</ele><time>2026-04-12T09:01:54.933Z</time></trkpt><trkpt lat="41.261605" lon="15.1363333"><ele>692.5999999999999</ele><time>2026-04-12T09:01:55.933Z</time></trkpt><trkpt lat="41.2617" lon="15.1363683"><ele>693.4</ele><time>2026-04-12T09:01:56.933Z</time></trkpt><trkpt lat="41.2617867" lon="15.1364"><ele>694.2</ele><time>2026-04-12T09:01:57.933Z</time></trkpt><trkpt lat="41.2618667" lon="15.1364467"><ele>695.0</ele><time>2026-04-12T09:01:58.933Z</time></trkpt><trkpt lat="41.26194" lon="15.1365083"><ele>696.8</ele><time>2026-04-12T09:01:59.933Z</time></trkpt><trkpt lat="41.26201" lon="15.13659"><ele>698.6</ele><time>2026-04-12T09:02:00.933Z</time></trkpt><trkpt lat="41.2620733" lon="15.1366933"><ele>700.4000000000001</ele><time>2026-04-12T09:02:01.932Z</time></trkpt><trkpt lat="41.26213" lon="15.13682"><ele>702.2</ele><time>2026-04-12T09:02:02.933Z</time></trkpt><trkpt lat="41.2621883" lon="15.1369617"><ele>704.0</ele><time>2026-04-12T09:02:03.933Z</time></trkpt><trkpt lat="41.2622417" lon="15.1370967"><ele>704.5</ele><time>2026-04-12T09:02:04.932Z</time></trkpt><trkpt lat="41.2622967" lon="15.1372317"><ele>705.0</ele><time>2026-04-12T09:02:05.933Z</time></trkpt><trkpt lat="41.2623517" lon="15.1373733"><ele>705.5</ele><time>2026-04-12T09:02:06.933Z</time></trkpt><trkpt lat="41.2624083" lon="15.1375233"><ele>706.0</ele><time>2026-04-12T09:02:07.933Z</time></trkpt><trkpt lat="41.2624683" lon="15.137675"><ele>706.0</ele><time>2026-04-12T09:02:08.933Z</time></trkpt><trkpt lat="41.2625283" lon="15.137805"><ele>706.0</ele><time>2026-04-12T09:02:09.932Z</time></trkpt><trkpt lat="41.2625733" lon="15.1379283"><ele>706.0</ele><time>2026-04-12T09:02:10.933Z</time></trkpt><trkpt lat="41.2626267" lon="15.13804"><ele>706.0</ele><time>2026-04-12T09:02:11.933Z</time></trkpt><trkpt lat="41.2626817" lon="15.1381383"><ele>706.0</ele><time>2026-04-12T09:02:12.932Z</time></trkpt><trkpt lat="41.2627367" lon="15.1382333"><ele>706.1999999999999</ele><time>2026-04-12T09:02:13.933Z</time></trkpt><trkpt lat="41.2628017" lon="15.1383167"><ele>706.4</ele><time>2026-04-12T09:02:14.933Z</time></trkpt><trkpt lat="41.2628783" lon="15.13839"><ele>706.6</ele><time>2026-04-12T09:02:15.933Z</time></trkpt><trkpt lat="41.2629667" lon="15.1384567"><ele>706.8</ele><time>2026-04-12T09:02:16.933Z</time></trkpt><trkpt lat="41.2630567" lon="15.1385133"><ele>707.0</ele><time>2026-04-12T09:02:17.932Z</time></trkpt><trkpt lat="41.2631417" lon="15.1385533"><ele>707.8</ele><time>2026-04-12T09:02:18.933Z</time></trkpt><trkpt lat="41.26323" lon="15.1385883"><ele>708.6</ele><time>2026-04-12T09:02:19.933Z</time></trkpt><trkpt lat="41.2633267" lon="15.13862"><ele>709.4</ele><time>2026-04-12T09:02:20.933Z</time></trkpt><trkpt lat="41.2634267" lon="15.1386333"><ele>710.1999999999999</ele><time>2026-04-12T09:02:21.933Z</time></trkpt><trkpt lat="41.2635267" lon="15.1386317"><ele>711.0</ele><time>2026-04-12T09:02:22.933Z</time></trkpt><trkpt lat="41.263625" lon="15.1386217"><ele>711.0</ele><time>2026-04-12T09:02:23.932Z</time></trkpt><trkpt lat="41.26372" lon="15.1386183"><ele>711.0</ele><time>2026-04-12T09:02:24.933Z</time></trkpt><trkpt lat="41.2638033" lon="15.1386183"><ele>711.0</ele><time>2026-04-12T09:02:25.932Z</time></trkpt><trkpt lat="41.2638717" lon="15.1386233"><ele>711.0</ele><time>2026-04-12T09:02:26.933Z</time></trkpt><trkpt lat="41.2639383" lon="15.138635"><ele>711.0</ele><time>2026-04-12T09:02:27.933Z</time></trkpt><trkpt lat="41.2640117" lon="15.138645"><ele>711.0</ele><time>2026-04-12T09:02:28.933Z</time></trkpt><trkpt lat="41.264095" lon="15.138655"><ele>711.3333333333334</ele><time>2026-04-12T09:02:29.933Z</time></trkpt><trkpt lat="41.264175" lon="15.1386717"><ele>711.6666666666666</ele><time>2026-04-12T09:02:30.933Z</time></trkpt><trkpt lat="41.2642383" lon="15.1386883"><ele>712.0</ele><time>2026-04-12T09:02:31.933Z</time></trkpt><trkpt lat="41.26435" lon="15.1387183"><ele>712.3333333333333</ele><time>2026-04-12T09:02:33.932Z</time></trkpt><trkpt lat="41.2644167" lon="15.1387383"><ele>712.6666666666666</ele><time>2026-04-12T09:02:34.933Z</time></trkpt><trkpt lat="41.2644933" lon="15.13876"><ele>713.0</ele><time>2026-04-12T09:02:35.932Z</time></trkpt><trkpt lat="41.2645733" lon="15.1387833"><ele>713.0</ele><time>2026-04-12T09:02:36.933Z</time></trkpt><trkpt lat="41.2646567" lon="15.1388033"><ele>713.0</ele><time>2026-04-12T09:02:37.933Z</time></trkpt><trkpt lat="41.2647467" lon="15.1388317"><ele>713.0</ele><time>2026-04-12T09:02:38.933Z</time></trkpt><trkpt lat="41.264835" lon="15.13886"><ele>713.0</ele><time>2026-04-12T09:02:39.932Z</time></trkpt><trkpt lat="41.2649267" lon="15.1388933"><ele>713.0</ele><time>2026-04-12T09:02:40.933Z</time></trkpt><trkpt lat="41.2650167" lon="15.1389217"><ele>713.6666666666666</ele><time>2026-04-12T09:02:41.932Z</time></trkpt><trkpt lat="41.2651033" lon="15.13895"><ele>714.3333333333333</ele><time>2026-04-12T09:02:42.933Z</time></trkpt><trkpt lat="41.2651783" lon="15.13897"><ele>715.0</ele><time>2026-04-12T09:02:43.933Z</time></trkpt><trkpt lat="41.2652417" lon="15.138985"><ele>715.6666666666666</ele><time>2026-04-12T09:02:44.932Z</time></trkpt><trkpt lat="41.2653117" lon="15.138995"><ele>716.3333333333334</ele><time>2026-04-12T09:02:45.933Z</time></trkpt><trkpt lat="41.2653833" lon="15.139005"><ele>717.0</ele><time>2026-04-12T09:02:46.933Z</time></trkpt><trkpt lat="41.2654617" lon="15.1390183"><ele>717.0</ele><time>2026-04-12T09:02:47.932Z</time></trkpt><trkpt lat="41.265555" lon="15.139025"><ele>717.0</ele><time>2026-04-12T09:02:48.932Z</time></trkpt><trkpt lat="41.2656683" lon="15.13904"><ele>717.0</ele><time>2026-04-12T09:02:49.932Z</time></trkpt><trkpt lat="41.26579" lon="15.1390517"><ele>717.0</ele><time>2026-04-12T09:02:50.933Z</time></trkpt><trkpt lat="41.2659167" lon="15.1390517"><ele>718.6666666666666</ele><time>2026-04-12T09:02:51.933Z</time></trkpt><trkpt lat="41.2660617" lon="15.139055"><ele>720.3333333333333</ele><time>2026-04-12T09:02:52.933Z</time></trkpt><trkpt lat="41.26623" lon="15.13906"><ele>722.0</ele><time>2026-04-12T09:02:53.933Z</time></trkpt><trkpt lat="41.2663833" lon="15.1390617"><ele>722.5</ele><time>2026-04-12T09:02:54.933Z</time></trkpt><trkpt lat="41.26652" lon="15.1390583"><ele>723.0</ele><time>2026-04-12T09:02:55.933Z</time></trkpt><trkpt lat="41.2666517" lon="15.1390383"><ele>723.5</ele><time>2026-04-12T09:02:56.933Z</time></trkpt><trkpt lat="41.266795" lon="15.1389967"><ele>724.0</ele><time>2026-04-12T09:02:57.933Z</time></trkpt><trkpt lat="41.2669467" lon="15.13894"><ele>724.0</ele><time>2026-04-12T09:02:58.933Z</time></trkpt><trkpt lat="41.267115" lon="15.13886"><ele>724.0</ele><time>2026-04-12T09:02:59.932Z</time></trkpt><trkpt lat="41.2672883" lon="15.1387717"><ele>724.0</ele><time>2026-04-12T09:03:00.933Z</time></trkpt><trkpt lat="41.267445" lon="15.1386917"><ele>725.25</ele><time>2026-04-12T09:03:01.933Z</time></trkpt><trkpt lat="41.2675717" lon="15.1386217"><ele>726.5</ele><time>2026-04-12T09:03:02.932Z</time></trkpt><trkpt lat="41.2676783" lon="15.1385583"><ele>727.75</ele><time>2026-04-12T09:03:03.932Z</time></trkpt><trkpt lat="41.2677783" lon="15.138495"><ele>729.0</ele><time>2026-04-12T09:03:04.933Z</time></trkpt><trkpt lat="41.267875" lon="15.1384417"><ele>729.0</ele><time>2026-04-12T09:03:05.932Z</time></trkpt><trkpt lat="41.267965" lon="15.1384"><ele>729.0</ele><time>2026-04-12T09:03:06.933Z</time></trkpt><trkpt lat="41.26805" lon="15.1383617"><ele>729.0</ele><time>2026-04-12T09:03:07.933Z</time></trkpt><trkpt lat="41.2681367" lon="15.138335"><ele>729.0</ele><time>2026-04-12T09:03:08.933Z</time></trkpt><trkpt lat="41.2682217" lon="15.13832"><ele>729.0</ele><time>2026-04-12T09:03:09.933Z</time></trkpt><trkpt lat="41.2683117" lon="15.1383183"><ele>729.6</ele><time>2026-04-12T09:03:10.933Z</time></trkpt><trkpt lat="41.2684017" lon="15.1383267"><ele>730.2</ele><time>2026-04-12T09:03:11.933Z</time></trkpt><trkpt lat="41.2684917" lon="15.1383383"><ele>730.8000000000001</ele><time>2026-04-12T09:03:12.933Z</time></trkpt><trkpt lat="41.26858" lon="15.1383567"><ele>731.4000000000001</ele><time>2026-04-12T09:03:13.932Z</time></trkpt><trkpt lat="41.26867" lon="15.138385"><ele>732.0</ele><time>2026-04-12T09:03:14.933Z</time></trkpt><trkpt lat="41.2687567" lon="15.1384217"><ele>732.0</ele><time>2026-04-12T09:03:15.933Z</time></trkpt><trkpt lat="41.2688383" lon="15.1384717"><ele>732.0</ele><time>2026-04-12T09:03:16.932Z</time></trkpt><trkpt lat="41.268915" lon="15.1385233"><ele>732.0</ele><time>2026-04-12T09:03:17.932Z</time></trkpt><trkpt lat="41.2689833" lon="15.13858"><ele>732.0</ele><time>2026-04-12T09:03:18.932Z</time></trkpt><trkpt lat="41.2690517" lon="15.1386583"><ele>732.0</ele><time>2026-04-12T09:03:19.932Z</time></trkpt><trkpt lat="41.2691133" lon="15.1387483"><ele>732.0</ele><time>2026-04-12T09:03:20.933Z</time></trkpt><trkpt lat="41.2691667" lon="15.1388517"><ele>731.6</ele><time>2026-04-12T09:03:21.933Z</time></trkpt><trkpt lat="41.269215" lon="15.138965"><ele>731.2</ele><time>2026-04-12T09:03:22.932Z</time></trkpt><trkpt lat="41.2692533" lon="15.1390833"><ele>730.8</ele><time>2026-04-12T09:03:23.933Z</time></trkpt><trkpt lat="41.269285" lon="15.1392067"><ele>730.4</ele><time>2026-04-12T09:03:24.933Z</time></trkpt><trkpt lat="41.26931" lon="15.1393333"><ele>730.0</ele><time>2026-04-12T09:03:25.932Z</time></trkpt><trkpt lat="41.26932" lon="15.13947"><ele>730.8</ele><time>2026-04-12T09:03:26.932Z</time></trkpt><trkpt lat="41.269315" lon="15.1396067"><ele>731.6</ele><time>2026-04-12T09:03:27.932Z</time></trkpt><trkpt lat="41.2692967" lon="15.1397467"><ele>732.4000000000001</ele><time>2026-04-12T09:03:28.933Z</time></trkpt><trkpt lat="41.2692667" lon="15.139885"><ele>733.2</ele><time>2026-04-12T09:03:29.933Z</time></trkpt><trkpt lat="41.2692233" lon="15.1400183"><ele>734.0</ele><time>2026-04-12T09:03:30.933Z</time></trkpt><trkpt lat="41.269165" lon="15.1401517"><ele>735.75</ele><time>2026-04-12T09:03:31.932Z</time></trkpt><trkpt lat="41.269095" lon="15.1402833"><ele>737.5</ele><time>2026-04-12T09:03:32.933Z</time></trkpt><trkpt lat="41.2690167" lon="15.1404133"><ele>739.25</ele><time>2026-04-12T09:03:33.933Z</time></trkpt><trkpt lat="41.2689417" lon="15.14054"><ele>741.0</ele><time>2026-04-12T09:03:34.933Z</time></trkpt><trkpt lat="41.2688683" lon="15.1406633"><ele>742.75</ele><time>2026-04-12T09:03:35.932Z</time></trkpt><trkpt lat="41.2687967" lon="15.14078"><ele>744.5</ele><time>2026-04-12T09:03:36.933Z</time></trkpt><trkpt lat="41.2687133" lon="15.1409017"><ele>746.25</ele><time>2026-04-12T09:03:37.932Z</time></trkpt><trkpt lat="41.26862" lon="15.1410267"><ele>748.0</ele><time>2026-04-12T09:03:38.933Z</time></trkpt><trkpt lat="41.2685183" lon="15.1411483"><ele>748.0</ele><time>2026-04-12T09:03:39.932Z</time></trkpt><trkpt lat="41.2683983" lon="15.1412717"><ele>748.0</ele><time>2026-04-12T09:03:40.933Z</time></trkpt><trkpt lat="41.26827" lon="15.1413767"><ele>748.0</ele><time>2026-04-12T09:03:41.932Z</time></trkpt><trkpt lat="41.2681267" lon="15.14145"><ele>746.75</ele><time>2026-04-12T09:03:42.932Z</time></trkpt><trkpt lat="41.26798" lon="15.141495"><ele>745.5</ele><time>2026-04-12T09:03:43.933Z</time></trkpt><trkpt lat="41.267835" lon="15.1415317"><ele>744.25</ele><time>2026-04-12T09:03:44.933Z</time></trkpt><trkpt lat="41.2677067" lon="15.141575"><ele>743.0</ele><time>2026-04-12T09:03:45.932Z</time></trkpt><trkpt lat="41.2675967" lon="15.1416233"><ele>744.0</ele><time>2026-04-12T09:03:46.932Z</time></trkpt><trkpt lat="41.2674867" lon="15.1416917"><ele>745.0</ele><time>2026-04-12T09:03:47.933Z</time></trkpt><trkpt lat="41.2673833" lon="15.14178"><ele>746.0</ele><time>2026-04-12T09:03:48.933Z</time></trkpt><trkpt lat="41.2672833" lon="15.1418933"><ele>747.0</ele><time>2026-04-12T09:03:49.933Z</time></trkpt><trkpt lat="41.2671867" lon="15.1420283"><ele>747.0</ele><time>2026-04-12T09:03:50.933Z</time></trkpt><trkpt lat="41.2671017" lon="15.14219"><ele>747.0</ele><time>2026-04-12T09:03:51.933Z</time></trkpt><trkpt lat="41.2670167" lon="15.142385"><ele>747.0</ele><time>2026-04-12T09:03:52.932Z</time></trkpt><trkpt lat="41.2669283" lon="15.1426017"><ele>749.25</ele><time>2026-04-12T09:03:53.933Z</time></trkpt><trkpt lat="41.266845" lon="15.1428017"><ele>751.5</ele><time>2026-04-12T09:03:54.933Z</time></trkpt><trkpt lat="41.26677" lon="15.1429617"><ele>753.75</ele><time>2026-04-12T09:03:55.933Z</time></trkpt><trkpt lat="41.26671" lon="15.143095"><ele>756.0</ele><time>2026-04-12T09:03:56.933Z</time></trkpt><trkpt lat="41.26667" lon="15.14322"><ele>757.4</ele><time>2026-04-12T09:03:57.932Z</time></trkpt><trkpt lat="41.2666583" lon="15.143355"><ele>758.8</ele><time>2026-04-12T09:03:58.932Z</time></trkpt><trkpt lat="41.266675" lon="15.1434817"><ele>760.1999999999999</ele><time>2026-04-12T09:03:59.933Z</time></trkpt><trkpt lat="41.2667133" lon="15.143595"><ele>761.5999999999999</ele><time>2026-04-12T09:04:00.932Z</time></trkpt><trkpt lat="41.2667783" lon="15.143695"><ele>763.0</ele><time>2026-04-12T09:04:01.933Z</time></trkpt><trkpt lat="41.2668683" lon="15.1437733"><ele>763.0</ele><time>2026-04-12T09:04:02.932Z</time></trkpt><trkpt lat="41.266975" lon="15.1438283"><ele>763.0</ele><time>2026-04-12T09:04:03.932Z</time></trkpt><trkpt lat="41.2670817" lon="15.1438717"><ele>763.0</ele><time>2026-04-12T09:04:04.933Z</time></trkpt><trkpt lat="41.2671833" lon="15.14392"><ele>763.0</ele><time>2026-04-12T09:04:05.932Z</time></trkpt><trkpt lat="41.267275" lon="15.14397"><ele>763.0</ele><time>2026-04-12T09:04:06.933Z</time></trkpt><trkpt lat="41.2673567" lon="15.1440117"><ele>764.4</ele><time>2026-04-12T09:04:07.933Z</time></trkpt><trkpt lat="41.2674367" lon="15.1440483"><ele>765.8</ele><time>2026-04-12T09:04:08.933Z</time></trkpt><trkpt lat="41.26752" lon="15.1440767"><ele>767.2</ele><time>2026-04-12T09:04:09.932Z</time></trkpt><trkpt lat="41.2676133" lon="15.1441"><ele>768.6</ele><time>2026-04-12T09:04:10.933Z</time></trkpt><trkpt lat="41.2677133" lon="15.1441083"><ele>770.0</ele><time>2026-04-12T09:04:11.933Z</time></trkpt><trkpt lat="41.2678167" lon="15.1441133"><ele>770.0</ele><time>2026-04-12T09:04:12.932Z</time></trkpt><trkpt lat="41.2679167" lon="15.1441133"><ele>770.0</ele><time>2026-04-12T09:04:13.933Z</time></trkpt><trkpt lat="41.26801" lon="15.1441167"><ele>770.0</ele><time>2026-04-12T09:04:14.932Z</time></trkpt><trkpt lat="41.2681017" lon="15.1441233"><ele>770.0</ele><time>2026-04-12T09:04:15.932Z</time></trkpt><trkpt lat="41.2682017" lon="15.1441417"><ele>770.0</ele><time>2026-04-12T09:04:16.933Z</time></trkpt><trkpt lat="41.268305" lon="15.1441667"><ele>772.25</ele><time>2026-04-12T09:04:17.933Z</time></trkpt><trkpt lat="41.268415" lon="15.144195"><ele>774.5</ele><time>2026-04-12T09:04:18.933Z</time></trkpt><trkpt lat="41.2685267" lon="15.1442333"><ele>776.75</ele><time>2026-04-12T09:04:19.933Z</time></trkpt><trkpt lat="41.2686417" lon="15.1442783"><ele>779.0</ele><time>2026-04-12T09:04:20.932Z</time></trkpt><trkpt lat="41.2687617" lon="15.1443233"><ele>779.0</ele><time>2026-04-12T09:04:21.933Z</time></trkpt><trkpt lat="41.2688817" lon="15.1443733"><ele>779.0</ele><time>2026-04-12T09:04:22.932Z</time></trkpt><trkpt lat="41.269005" lon="15.1444267"><ele>779.0</ele><time>2026-04-12T09:04:23.933Z</time></trkpt><trkpt lat="41.26913" lon="15.144475"><ele>779.0</ele><time>2026-04-12T09:04:24.933Z</time></trkpt><trkpt lat="41.2692517" lon="15.1445217"><ele>779.75</ele><time>2026-04-12T09:04:25.933Z</time></trkpt><trkpt lat="41.2693683" lon="15.1445667"><ele>780.5</ele><time>2026-04-12T09:04:26.933Z</time></trkpt><trkpt lat="41.269485" lon="15.14461"><ele>781.25</ele><time>2026-04-12T09:04:27.932Z</time></trkpt><trkpt lat="41.2696117" lon="15.144655"><ele>782.0</ele><time>2026-04-12T09:04:28.933Z</time></trkpt><trkpt lat="41.269745" lon="15.1447017"><ele>782.0</ele><time>2026-04-12T09:04:29.933Z</time></trkpt><trkpt lat="41.2698733" lon="15.14475"><ele>782.0</ele><time>2026-04-12T09:04:30.933Z</time></trkpt><trkpt lat="41.2700033" lon="15.1448033"><ele>782.0</ele><time>2026-04-12T09:04:31.932Z</time></trkpt><trkpt lat="41.2701333" lon="15.144875"><ele>782.0</ele><time>2026-04-12T09:04:32.933Z</time></trkpt><trkpt lat="41.270265" lon="15.1449533"><ele>783.0</ele><time>2026-04-12T09:04:33.933Z</time></trkpt><trkpt lat="41.2704033" lon="15.1450417"><ele>784.0</ele><time>2026-04-12T09:04:34.933Z</time></trkpt><trkpt lat="41.2705383" lon="15.1451433"><ele>785.0</ele><time>2026-04-12T09:04:35.933Z</time></trkpt><trkpt lat="41.2706717" lon="15.1452433"><ele>786.75</ele><time>2026-04-12T09:04:36.933Z</time></trkpt><trkpt lat="41.270795" lon="15.14534"><ele>788.5</ele><time>2026-04-12T09:04:37.932Z</time></trkpt><trkpt lat="41.2709217" lon="15.145425"><ele>790.25</ele><time>2026-04-12T09:04:38.933Z</time></trkpt><trkpt lat="41.2710483" lon="15.1454967"><ele>792.0</ele><time>2026-04-12T09:04:39.932Z</time></trkpt><trkpt lat="41.27117" lon="15.145555"><ele>792.0</ele><time>2026-04-12T09:04:40.933Z</time></trkpt><trkpt lat="41.2713017" lon="15.1456117"><ele>792.0</ele><time>2026-04-12T09:04:41.932Z</time></trkpt><trkpt lat="41.2714283" lon="15.1456717"><ele>792.0</ele><time>2026-04-12T09:04:42.932Z</time></trkpt><trkpt lat="41.2715583" lon="15.1457233"><ele>792.0</ele><time>2026-04-12T09:04:43.933Z</time></trkpt><trkpt lat="41.2716883" lon="15.14578"><ele>791.75</ele><time>2026-04-12T09:04:44.933Z</time></trkpt><trkpt lat="41.2718217" lon="15.1458367"><ele>791.5</ele><time>2026-04-12T09:04:45.933Z</time></trkpt><trkpt lat="41.2719583" lon="15.14589"><ele>791.25</ele><time>2026-04-12T09:04:46.933Z</time></trkpt><trkpt lat="41.2721017" lon="15.1459333"><ele>791.0</ele><time>2026-04-12T09:04:47.932Z</time></trkpt><trkpt lat="41.2722483" lon="15.145965"><ele>791.5</ele><time>2026-04-12T09:04:48.933Z</time></trkpt><trkpt lat="41.2723833" lon="15.1459817"><ele>792.0</ele><time>2026-04-12T09:04:49.933Z</time></trkpt><trkpt lat="41.2725183" lon="15.1459767"><ele>792.5</ele><time>2026-04-12T09:04:50.933Z</time></trkpt><trkpt lat="41.2726583" lon="15.145975"><ele>793.0</ele><time>2026-04-12T09:04:51.933Z</time></trkpt><trkpt lat="41.2727967" lon="15.1459967"><ele>793.0</ele><time>2026-04-12T09:04:52.932Z</time></trkpt><trkpt lat="41.2729333" lon="15.1460383"><ele>793.0</ele><time>2026-04-12T09:04:53.933Z</time></trkpt><trkpt lat="41.2730733" lon="15.1461117"><ele>793.0</ele><time>2026-04-12T09:04:54.932Z</time></trkpt><trkpt lat="41.2732233" lon="15.1461967"><ele>791.3333333333333</ele><time>2026-04-12T09:04:55.933Z</time></trkpt><trkpt lat="41.2733667" lon="15.14629"><ele>789.6666666666667</ele><time>2026-04-12T09:04:56.932Z</time></trkpt><trkpt lat="41.27352" lon="15.1463833"><ele>788.0</ele><time>2026-04-12T09:04:57.932Z</time></trkpt><trkpt lat="41.27367" lon="15.1464933"><ele>787.6666666666667</ele><time>2026-04-12T09:04:58.932Z</time></trkpt><trkpt lat="41.2738233" lon="15.146615"><ele>787.3333333333333</ele><time>2026-04-12T09:04:59.933Z</time></trkpt><trkpt lat="41.273965" lon="15.1467383"><ele>787.0</ele><time>2026-04-12T09:05:00.933Z</time></trkpt><trkpt lat="41.2740933" lon="15.14685"><ele>787.5</ele><time>2026-04-12T09:05:01.933Z</time></trkpt><trkpt lat="41.2742133" lon="15.1469483"><ele>788.0</ele><time>2026-04-12T09:05:02.932Z</time></trkpt><trkpt lat="41.2743283" lon="15.1470467"><ele>788.5</ele><time>2026-04-12T09:05:03.932Z</time></trkpt><trkpt lat="41.27444" lon="15.1471383"><ele>789.0</ele><time>2026-04-12T09:05:04.932Z</time></trkpt><trkpt lat="41.2745483" lon="15.1472217"><ele>789.0</ele><time>2026-04-12T09:05:05.933Z</time></trkpt><trkpt lat="41.2746533" lon="15.1473017"><ele>789.0</ele><time>2026-04-12T09:05:06.932Z</time></trkpt><trkpt lat="41.2747617" lon="15.1473833"><ele>789.0</ele><time>2026-04-12T09:05:07.933Z</time></trkpt><trkpt lat="41.2748667" lon="15.14746"><ele>789.0</ele><time>2026-04-12T09:05:08.932Z</time></trkpt><trkpt lat="41.2749717" lon="15.1475267"><ele>789.0</ele><time>2026-04-12T09:05:09.933Z</time></trkpt><trkpt lat="41.275075" lon="15.1475933"><ele>789.0</ele><time>2026-04-12T09:05:10.933Z</time></trkpt><trkpt lat="41.2751733" lon="15.1476517"><ele>789.0</ele><time>2026-04-12T09:05:11.932Z</time></trkpt><trkpt lat="41.275275" lon="15.1477033"><ele>789.0</ele><time>2026-04-12T09:05:12.933Z</time></trkpt><trkpt lat="41.27538" lon="15.147745"><ele>789.0</ele><time>2026-04-12T09:05:13.933Z</time></trkpt><trkpt lat="41.2754883" lon="15.1477833"><ele>789.0</ele><time>2026-04-12T09:05:14.932Z</time></trkpt><trkpt lat="41.2756017" lon="15.1478117"><ele>789.0</ele><time>2026-04-12T09:05:15.933Z</time></trkpt><trkpt lat="41.2757133" lon="15.1478383"><ele>789.0</ele><time>2026-04-12T09:05:16.932Z</time></trkpt><trkpt lat="41.27583" lon="15.147865"><ele>789.0</ele><time>2026-04-12T09:05:17.933Z</time></trkpt><trkpt lat="41.2759483" lon="15.147885"><ele>788.0</ele><time>2026-04-12T09:05:18.933Z</time></trkpt><trkpt lat="41.2760733" lon="15.1479033"><ele>787.0</ele><time>2026-04-12T09:05:19.932Z</time></trkpt><trkpt lat="41.2761967" lon="15.14792"><ele>786.0</ele><time>2026-04-12T09:05:20.933Z</time></trkpt><trkpt lat="41.27632" lon="15.1479383"><ele>785.0</ele><time>2026-04-12T09:05:21.933Z</time></trkpt><trkpt lat="41.2764467" lon="15.14796"><ele>784.0</ele><time>2026-04-12T09:05:22.933Z</time></trkpt><trkpt lat="41.276575" lon="15.147985"><ele>783.0</ele><time>2026-04-12T09:05:23.933Z</time></trkpt><trkpt lat="41.2767" lon="15.148015"><ele>782.0</ele><time>2026-04-12T09:05:24.932Z</time></trkpt><trkpt lat="41.276825" lon="15.1480433"><ele>781.0</ele><time>2026-04-12T09:05:25.933Z</time></trkpt><trkpt lat="41.27695" lon="15.1480733"><ele>781.0</ele><time>2026-04-12T09:05:26.933Z</time></trkpt><trkpt lat="41.2770783" lon="15.148095"><ele>781.0</ele><time>2026-04-12T09:05:27.933Z</time></trkpt><trkpt lat="41.2772067" lon="15.14811"><ele>781.0</ele><time>2026-04-12T09:05:28.932Z</time></trkpt><trkpt lat="41.27734" lon="15.1481167"><ele>781.0</ele><time>2026-04-12T09:05:29.933Z</time></trkpt><trkpt lat="41.277475" lon="15.1481133"><ele>781.25</ele><time>2026-04-12T09:05:30.933Z</time></trkpt><trkpt lat="41.27761" lon="15.14811"><ele>781.5</ele><time>2026-04-12T09:05:31.932Z</time></trkpt><trkpt lat="41.277745" lon="15.1481017"><ele>781.75</ele><time>2026-04-12T09:05:32.932Z</time></trkpt><trkpt lat="41.2778817" lon="15.1480967"><ele>782.0</ele><time>2026-04-12T09:05:33.932Z</time></trkpt><trkpt lat="41.278015" lon="15.148095"><ele>781.25</ele><time>2026-04-12T09:05:34.933Z</time></trkpt><trkpt lat="41.2781433" lon="15.1480967"><ele>780.5</ele><time>2026-04-12T09:05:35.933Z</time></trkpt><trkpt lat="41.2782683" lon="15.1481"><ele>779.75</ele><time>2026-04-12T09:05:36.932Z</time></trkpt><trkpt lat="41.2783917" lon="15.1481033"><ele>779.0</ele><time>2026-04-12T09:05:37.932Z</time></trkpt><trkpt lat="41.2785117" lon="15.1481033"><ele>779.0</ele><time>2026-04-12T09:05:38.932Z</time></trkpt><trkpt lat="41.2786267" lon="15.1481067"><ele>779.0</ele><time>2026-04-12T09:05:39.933Z</time></trkpt><trkpt lat="41.2787367" lon="15.1481133"><ele>779.0</ele><time>2026-04-12T09:05:40.932Z</time></trkpt><trkpt lat="41.278845" lon="15.1481283"><ele>779.0</ele><time>2026-04-12T09:05:41.933Z</time></trkpt><trkpt lat="41.2789533" lon="15.1481433"><ele>779.0</ele><time>2026-04-12T09:05:42.932Z</time></trkpt><trkpt lat="41.2790583" lon="15.1481617"><ele>779.4000000000001</ele><time>2026-04-12T09:05:43.933Z</time></trkpt><trkpt lat="41.27916" lon="15.1481833"><ele>779.8</ele><time>2026-04-12T09:05:44.933Z</time></trkpt><trkpt lat="41.2792617" lon="15.1482183"><ele>780.2</ele><time>2026-04-12T09:05:45.932Z</time></trkpt><trkpt lat="41.2793583" lon="15.14826"><ele>780.5999999999999</ele><time>2026-04-12T09:05:46.933Z</time></trkpt><trkpt lat="41.2794567" lon="15.1483167"><ele>781.0</ele><time>2026-04-12T09:05:47.933Z</time></trkpt><trkpt lat="41.2795467" lon="15.1483817"><ele>782.0</ele><time>2026-04-12T09:05:48.932Z</time></trkpt><trkpt lat="41.2796333" lon="15.1484517"><ele>783.0</ele><time>2026-04-12T09:05:49.932Z</time></trkpt><trkpt lat="41.2797283" lon="15.14852"><ele>784.0</ele><time>2026-04-12T09:05:50.932Z</time></trkpt><trkpt lat="41.2798317" lon="15.148585"><ele>785.0</ele><time>2026-04-12T09:05:51.933Z</time></trkpt><trkpt lat="41.2799433" lon="15.1486433"><ele>786.0</ele><time>2026-04-12T09:05:52.933Z</time></trkpt><trkpt lat="41.2800483" lon="15.1486867"><ele>786.5999999999999</ele><time>2026-04-12T09:05:53.933Z</time></trkpt><trkpt lat="41.2801433" lon="15.1487167"><ele>787.2</ele><time>2026-04-12T09:05:54.932Z</time></trkpt><trkpt lat="41.280235" lon="15.1487483"><ele>787.8</ele><time>2026-04-12T09:05:55.933Z</time></trkpt><trkpt lat="41.280325" lon="15.14879"><ele>788.4000000000001</ele><time>2026-04-12T09:05:56.933Z</time></trkpt><trkpt lat="41.2804183" lon="15.148835"><ele>789.0</ele><time>2026-04-12T09:05:57.933Z</time></trkpt><trkpt lat="41.2805133" lon="15.1488683"><ele>790.6</ele><time>2026-04-12T09:05:58.933Z</time></trkpt><trkpt lat="41.280615" lon="15.148905"><ele>792.2</ele><time>2026-04-12T09:05:59.933Z</time></trkpt><trkpt lat="41.2807183" lon="15.148935"><ele>793.8000000000001</ele><time>2026-04-12T09:06:00.933Z</time></trkpt><trkpt lat="41.2808183" lon="15.14896"><ele>795.4000000000001</ele><time>2026-04-12T09:06:01.933Z</time></trkpt><trkpt lat="41.2809183" lon="15.1489883"><ele>797.0</ele><time>2026-04-12T09:06:02.933Z</time></trkpt><trkpt lat="41.281015" lon="15.1490183"><ele>797.0</ele><time>2026-04-12T09:06:03.933Z</time></trkpt><trkpt lat="41.2811083" lon="15.14904"><ele>797.0</ele><time>2026-04-12T09:06:04.933Z</time></trkpt><trkpt lat="41.2811967" lon="15.1490633"><ele>797.0</ele><time>2026-04-12T09:06:05.933Z</time></trkpt><trkpt lat="41.2812867" lon="15.1490833"><ele>797.0</ele><time>2026-04-12T09:06:06.933Z</time></trkpt><trkpt lat="41.281375" lon="15.1491017"><ele>797.0</ele><time>2026-04-12T09:06:07.933Z</time></trkpt><trkpt lat="41.2814683" lon="15.149125"><ele>797.6</ele><time>2026-04-12T09:06:08.932Z</time></trkpt><trkpt lat="41.2815583" lon="15.1491467"><ele>798.2</ele><time>2026-04-12T09:06:09.933Z</time></trkpt><trkpt lat="41.2816483" lon="15.1491683"><ele>798.8</ele><time>2026-04-12T09:06:10.933Z</time></trkpt><trkpt lat="41.2817383" lon="15.1491883"><ele>799.4</ele><time>2026-04-12T09:06:11.932Z</time></trkpt><trkpt lat="41.281825" lon="15.14921"><ele>800.0</ele><time>2026-04-12T09:06:12.933Z</time></trkpt><trkpt lat="41.281915" lon="15.1492333"><ele>800.0</ele><time>2026-04-12T09:06:13.932Z</time></trkpt><trkpt lat="41.2820067" lon="15.1492633"><ele>800.0</ele><time>2026-04-12T09:06:14.932Z</time></trkpt><trkpt lat="41.282105" lon="15.149295"><ele>800.0</ele><time>2026-04-12T09:06:15.933Z</time></trkpt><trkpt lat="41.2822067" lon="15.1493283"><ele>800.0</ele><time>2026-04-12T09:06:16.932Z</time></trkpt><trkpt lat="41.2823183" lon="15.14937"><ele>800.0</ele><time>2026-04-12T09:06:17.932Z</time></trkpt><trkpt lat="41.2824367" lon="15.1494133"><ele>799.5</ele><time>2026-04-12T09:06:18.933Z</time></trkpt><trkpt lat="41.2825583" lon="15.1494567"><ele>799.0</ele><time>2026-04-12T09:06:19.933Z</time></trkpt><trkpt lat="41.2826833" lon="15.1495033"><ele>798.5</ele><time>2026-04-12T09:06:20.933Z</time></trkpt><trkpt lat="41.28281" lon="15.1495533"><ele>798.0</ele><time>2026-04-12T09:06:21.932Z</time></trkpt><trkpt lat="41.28294" lon="15.1496117"><ele>798.0</ele><time>2026-04-12T09:06:22.933Z</time></trkpt><trkpt lat="41.2830667" lon="15.14967"><ele>798.0</ele><time>2026-04-12T09:06:23.932Z</time></trkpt><trkpt lat="41.2831933" lon="15.149735"><ele>798.0</ele><time>2026-04-12T09:06:24.933Z</time></trkpt><trkpt lat="41.2833183" lon="15.1498017"><ele>798.0</ele><time>2026-04-12T09:06:25.932Z</time></trkpt><trkpt lat="41.2834317" lon="15.1498633"><ele>797.8</ele><time>2026-04-12T09:06:26.932Z</time></trkpt><trkpt lat="41.28353" lon="15.1499283"><ele>797.5999999999999</ele><time>2026-04-12T09:06:27.932Z</time></trkpt><trkpt lat="41.2836217" lon="15.150005"><ele>797.4000000000001</ele><time>2026-04-12T09:06:28.933Z</time></trkpt><trkpt lat="41.2837067" lon="15.1500883"><ele>797.2</ele><time>2026-04-12T09:06:29.933Z</time></trkpt><trkpt lat="41.2837833" lon="15.1501617"><ele>797.0</ele><time>2026-04-12T09:06:30.932Z</time></trkpt><trkpt lat="41.28385" lon="15.1502267"><ele>797.0000000000001</ele><time>2026-04-12T09:06:31.933Z</time></trkpt><trkpt lat="41.283905" lon="15.1502783"><ele>797.0</ele><time>2026-04-12T09:06:32.933Z</time></trkpt><trkpt lat="41.2839617" lon="15.1503233"><ele>797.0</ele><time>2026-04-12T09:06:33.933Z</time></trkpt><trkpt lat="41.2840283" lon="15.1503717"><ele>797.0</ele><time>2026-04-12T09:06:34.933Z</time></trkpt><trkpt lat="41.2841117" lon="15.1504167"><ele>797.0000000000001</ele><time>2026-04-12T09:06:35.932Z</time></trkpt><trkpt lat="41.284215" lon="15.1504567"><ele>797.0</ele><time>2026-04-12T09:06:36.933Z</time></trkpt><trkpt lat="41.2843283" lon="15.1504967"><ele>797.25</ele><time>2026-04-12T09:06:37.933Z</time></trkpt><trkpt lat="41.2844417" lon="15.1505433"><ele>797.5</ele><time>2026-04-12T09:06:38.933Z</time></trkpt><trkpt lat="41.2845617" lon="15.150605"><ele>797.75</ele><time>2026-04-12T09:06:39.933Z</time></trkpt><trkpt lat="41.2846683" lon="15.15066"><ele>798.0</ele><time>2026-04-12T09:06:40.933Z</time></trkpt><trkpt lat="41.2847633" lon="15.1507183"><ele>800.0</ele><time>2026-04-12T09:06:41.933Z</time></trkpt><trkpt lat="41.2848533" lon="15.1507733"><ele>802.0</ele><time>2026-04-12T09:06:42.933Z</time></trkpt><trkpt lat="41.28494" lon="15.1508383"><ele>804.0</ele><time>2026-04-12T09:06:43.932Z</time></trkpt><trkpt lat="41.2850333" lon="15.150915"><ele>806.0</ele><time>2026-04-12T09:06:44.933Z</time></trkpt><trkpt lat="41.28513" lon="15.15101"><ele>808.0</ele><time>2026-04-12T09:06:45.933Z</time></trkpt><trkpt lat="41.2852283" lon="15.151105"><ele>808.0</ele><time>2026-04-12T09:06:46.932Z</time></trkpt><trkpt lat="41.285325" lon="15.1512033"><ele>808.0</ele><time>2026-04-12T09:06:47.932Z</time></trkpt><trkpt lat="41.285415" lon="15.1513033"><ele>808.0</ele><time>2026-04-12T09:06:48.933Z</time></trkpt><trkpt lat="41.2854967" lon="15.151415"><ele>808.0</ele><time>2026-04-12T09:06:49.932Z</time></trkpt><trkpt lat="41.2855717" lon="15.1515367"><ele>808.0</ele><time>2026-04-12T09:06:50.933Z</time></trkpt><trkpt lat="41.28564" lon="15.1516667"><ele>808.0</ele><time>2026-04-12T09:06:51.933Z</time></trkpt><trkpt lat="41.2857017" lon="15.15181"><ele>808.0</ele><time>2026-04-12T09:06:52.933Z</time></trkpt><trkpt lat="41.2857567" lon="15.1519483"><ele>808.0</ele><time>2026-04-12T09:06:53.932Z</time></trkpt><trkpt lat="41.285815" lon="15.1520867"><ele>808.0</ele><time>2026-04-12T09:06:54.932Z</time></trkpt><trkpt lat="41.285865" lon="15.15224"><ele>808.0</ele><time>2026-04-12T09:06:55.932Z</time></trkpt><trkpt lat="41.2859217" lon="15.1524067"><ele>808.0</ele><time>2026-04-12T09:06:56.932Z</time></trkpt><trkpt lat="41.285965" lon="15.1525783"><ele>808.0</ele><time>2026-04-12T09:06:57.933Z</time></trkpt><trkpt lat="41.2859933" lon="15.15275"><ele>808.4</ele><time>2026-04-12T09:06:58.933Z</time></trkpt><trkpt lat="41.2860117" lon="15.152905"><ele>808.8</ele><time>2026-04-12T09:06:59.933Z</time></trkpt><trkpt lat="41.2860267" lon="15.1530333"><ele>809.2</ele><time>2026-04-12T09:07:00.933Z</time></trkpt><trkpt lat="41.28604" lon="15.15314"><ele>809.6</ele><time>2026-04-12T09:07:01.933Z</time></trkpt><trkpt lat="41.2860467" lon="15.1532317"><ele>810.0</ele><time>2026-04-12T09:07:02.933Z</time></trkpt><trkpt lat="41.2860683" lon="15.1533967"><ele>809.9999999999999</ele><time>2026-04-12T09:07:04.932Z</time></trkpt><trkpt lat="41.28611" lon="15.153465"><ele>810.0</ele><time>2026-04-12T09:07:05.933Z</time></trkpt><trkpt lat="41.286165" lon="15.1535183"><ele>810.0</ele><time>2026-04-12T09:07:06.933Z</time></trkpt><trkpt lat="41.2862333" lon="15.1535317"><ele>810.0</ele><time>2026-04-12T09:07:07.932Z</time></trkpt><trkpt lat="41.2863017" lon="15.1534817"><ele>810.0</ele><time>2026-04-12T09:07:08.932Z</time></trkpt><trkpt lat="41.28636" lon="15.1534017"><ele>809.9999999999999</ele><time>2026-04-12T09:07:09.933Z</time></trkpt><trkpt lat="41.286395" lon="15.153305"><ele>810.0</ele><time>2026-04-12T09:07:10.933Z</time></trkpt><trkpt lat="41.286405" lon="15.1531933"><ele>810.0</ele><time>2026-04-12T09:07:11.933Z</time></trkpt><trkpt lat="41.2864217" lon="15.1530917"><ele>810.0</ele><time>2026-04-12T09:07:12.932Z</time></trkpt><trkpt lat="41.2864583" lon="15.1530033"><ele>810.0</ele><time>2026-04-12T09:07:13.932Z</time></trkpt><trkpt lat="41.2865117" lon="15.1529467"><ele>810.0</ele><time>2026-04-12T09:07:14.933Z</time></trkpt><trkpt lat="41.2865817" lon="15.152915"><ele>810.0</ele><time>2026-04-12T09:07:15.933Z</time></trkpt><trkpt lat="41.2866633" lon="15.1529167"><ele>810.0</ele><time>2026-04-12T09:07:16.932Z</time></trkpt><trkpt lat="41.28676" lon="15.1529483"><ele>812.5</ele><time>2026-04-12T09:07:17.933Z</time></trkpt><trkpt lat="41.286865" lon="15.152995"><ele>815.0</ele><time>2026-04-12T09:07:18.932Z</time></trkpt><trkpt lat="41.28698" lon="15.15304"><ele>817.5</ele><time>2026-04-12T09:07:19.933Z</time></trkpt><trkpt lat="41.2871017" lon="15.1530833"><ele>820.0</ele><time>2026-04-12T09:07:20.932Z</time></trkpt><trkpt lat="41.287225" lon="15.1531267"><ele>821.0</ele><time>2026-04-12T09:07:21.932Z</time></trkpt><trkpt lat="41.28735" lon="15.153175"><ele>822.0</ele><time>2026-04-12T09:07:22.933Z</time></trkpt><trkpt lat="41.28748" lon="15.1532267"><ele>823.0</ele><time>2026-04-12T09:07:23.933Z</time></trkpt><trkpt lat="41.287615" lon="15.1532783"><ele>824.0</ele><time>2026-04-12T09:07:24.933Z</time></trkpt><trkpt lat="41.28775" lon="15.1533217"><ele>825.25</ele><time>2026-04-12T09:07:25.932Z</time></trkpt><trkpt lat="41.2878867" lon="15.1533683"><ele>826.5</ele><time>2026-04-12T09:07:26.932Z</time></trkpt><trkpt lat="41.2880267" lon="15.1534133"><ele>827.75</ele><time>2026-04-12T09:07:27.933Z</time></trkpt><trkpt lat="41.2881717" lon="15.1534617"><ele>829.0</ele><time>2026-04-12T09:07:28.933Z</time></trkpt><trkpt lat="41.2883183" lon="15.1535083"><ele>831.3333333333333</ele><time>2026-04-12T09:07:29.932Z</time></trkpt><trkpt lat="41.28847" lon="15.15356"><ele>833.6666666666667</ele><time>2026-04-12T09:07:30.933Z</time></trkpt><trkpt lat="41.2886267" lon="15.153615"><ele>836.0</ele><time>2026-04-12T09:07:31.932Z</time></trkpt><trkpt lat="41.2887983" lon="15.1536733"><ele>837.0</ele><time>2026-04-12T09:07:32.933Z</time></trkpt><trkpt lat="41.288985" lon="15.1537433"><ele>838.0</ele><time>2026-04-12T09:07:33.932Z</time></trkpt><trkpt lat="41.2892" lon="15.1538233"><ele>839.0</ele><time>2026-04-12T09:07:34.933Z</time></trkpt><trkpt lat="41.2894467" lon="15.1539067"><ele>839.0</ele><time>2026-04-12T09:07:35.933Z</time></trkpt><trkpt lat="41.2897133" lon="15.1540017"><ele>839.0</ele><time>2026-04-12T09:07:36.932Z</time></trkpt><trkpt lat="41.2899783" lon="15.1541017"><ele>842.0</ele><time>2026-04-12T09:07:37.933Z</time></trkpt><trkpt lat="41.29022" lon="15.1541867"><ele>845.0</ele><time>2026-04-12T09:07:38.933Z</time></trkpt><trkpt lat="41.2904383" lon="15.154265"><ele>846.0</ele><time>2026-04-12T09:07:39.932Z</time></trkpt><trkpt lat="41.290635" lon="15.154335"><ele>847.0</ele><time>2026-04-12T09:07:40.933Z</time></trkpt><trkpt lat="41.2908167" lon="15.1544"><ele>848.0</ele><time>2026-04-12T09:07:41.933Z</time></trkpt><trkpt lat="41.2910033" lon="15.1544667"><ele>848.0</ele><time>2026-04-12T09:07:42.932Z</time></trkpt><trkpt lat="41.2911833" lon="15.1545283"><ele>848.0</ele><time>2026-04-12T09:07:43.932Z</time></trkpt><trkpt lat="41.29136" lon="15.15459"><ele>848.0</ele><time>2026-04-12T09:07:44.933Z</time></trkpt><trkpt lat="41.2915283" lon="15.1546467"><ele>849.0</ele><time>2026-04-12T09:07:45.933Z</time></trkpt><trkpt lat="41.2916867" lon="15.1546983"><ele>850.0</ele><time>2026-04-12T09:07:46.933Z</time></trkpt><trkpt lat="41.2918367" lon="15.1547517"><ele>851.0</ele><time>2026-04-12T09:07:47.932Z</time></trkpt><trkpt lat="41.29199" lon="15.15481"><ele>851.0</ele><time>2026-04-12T09:07:48.933Z</time></trkpt><trkpt lat="41.2921483" lon="15.1548667"><ele>851.0</ele><time>2026-04-12T09:07:49.933Z</time></trkpt><trkpt lat="41.2923033" lon="15.1549217"><ele>851.0</ele><time>2026-04-12T09:07:50.933Z</time></trkpt><trkpt lat="41.29246" lon="15.1549783"><ele>851.6666666666667</ele><time>2026-04-12T09:07:51.933Z</time></trkpt><trkpt lat="41.2926117" lon="15.1550383"><ele>852.3333333333333</ele><time>2026-04-12T09:07:52.932Z</time></trkpt><trkpt lat="41.2927717" lon="15.155105"><ele>853.0</ele><time>2026-04-12T09:07:53.933Z</time></trkpt><trkpt lat="41.2929333" lon="15.1551783"><ele>853.0</ele><time>2026-04-12T09:07:54.933Z</time></trkpt><trkpt lat="41.293085" lon="15.1552467"><ele>853.0</ele><time>2026-04-12T09:07:55.933Z</time></trkpt><trkpt lat="41.2932367" lon="15.15532"><ele>853.0</ele><time>2026-04-12T09:07:56.932Z</time></trkpt><trkpt lat="41.2933883" lon="15.1554017"><ele>853.5</ele><time>2026-04-12T09:07:57.932Z</time></trkpt><trkpt lat="41.2935267" lon="15.1554883"><ele>854.0</ele><time>2026-04-12T09:07:58.932Z</time></trkpt><trkpt lat="41.2936633" lon="15.1555633"><ele>854.5</ele><time>2026-04-12T09:07:59.932Z</time></trkpt><trkpt lat="41.293795" lon="15.1556417"><ele>855.0</ele><time>2026-04-12T09:08:00.932Z</time></trkpt><trkpt lat="41.2939083" lon="15.1557133"><ele>855.4</ele><time>2026-04-12T09:08:01.933Z</time></trkpt><trkpt lat="41.2939983" lon="15.1557683"><ele>855.8</ele><time>2026-04-12T09:08:02.932Z</time></trkpt><trkpt lat="41.294075" lon="15.1558117"><ele>856.2</ele><time>2026-04-12T09:08:03.933Z</time></trkpt><trkpt lat="41.2941383" lon="15.1558483"><ele>856.6</ele><time>2026-04-12T09:08:04.933Z</time></trkpt><trkpt lat="41.2942333" lon="15.1559083"><ele>857.0</ele><time>2026-04-12T09:08:06.933Z</time></trkpt><trkpt lat="41.2943117" lon="15.1559817"><ele>857.0</ele><time>2026-04-12T09:08:08.932Z</time></trkpt><trkpt lat="41.2943917" lon="15.1560617"><ele>857.0</ele><time>2026-04-12T09:08:10.933Z</time></trkpt><trkpt lat="41.2944767" lon="15.156155"><ele>857.0</ele><time>2026-04-12T09:08:12.933Z</time></trkpt><trkpt lat="41.2945567" lon="15.156285"><ele>857.0</ele><time>2026-04-12T09:08:14.933Z</time></trkpt><trkpt lat="41.294605" lon="15.15634"><ele>857.0</ele><time>2026-04-12T09:08:15.932Z</time></trkpt><trkpt lat="41.2946683" lon="15.1563983"><ele>857.0</ele><time>2026-04-12T09:08:16.932Z</time></trkpt><trkpt lat="41.2947333" lon="15.15645"><ele>857.0</ele><time>2026-04-12T09:08:17.933Z</time></trkpt><trkpt lat="41.2948083" lon="15.1565067"><ele>857.0</ele><time>2026-04-12T09:08:18.933Z</time></trkpt><trkpt lat="41.294895" lon="15.1565717"><ele>857.0</ele><time>2026-04-12T09:08:19.933Z</time></trkpt><trkpt lat="41.2949733" lon="15.1566767"><ele>857.0</ele><time>2026-04-12T09:08:20.933Z</time></trkpt><trkpt lat="41.2950367" lon="15.156815"><ele>858.0</ele><time>2026-04-12T09:08:21.933Z</time></trkpt><trkpt lat="41.2951117" lon="15.1569733"><ele>859.0</ele><time>2026-04-12T09:08:22.933Z</time></trkpt><trkpt lat="41.2952067" lon="15.1571567"><ele>860.0</ele><time>2026-04-12T09:08:23.933Z</time></trkpt><trkpt lat="41.2953017" lon="15.1573367"><ele>862.0</ele><time>2026-04-12T09:08:24.932Z</time></trkpt><trkpt lat="41.295365" lon="15.1575"><ele>864.0</ele><time>2026-04-12T09:08:25.933Z</time></trkpt><trkpt lat="41.2954167" lon="15.1576667"><ele>866.0</ele><time>2026-04-12T09:08:26.932Z</time></trkpt><trkpt lat="41.2954567" lon="15.15785"><ele>868.0</ele><time>2026-04-12T09:08:27.933Z</time></trkpt><trkpt lat="41.29548" lon="15.1580567"><ele>867.0</ele><time>2026-04-12T09:08:28.933Z</time></trkpt><trkpt lat="41.2955067" lon="15.1582933"><ele>866.0</ele><time>2026-04-12T09:08:29.933Z</time></trkpt><trkpt lat="41.2955383" lon="15.1585533"><ele>865.0</ele><time>2026-04-12T09:08:30.933Z</time></trkpt><trkpt lat="41.2955783" lon="15.158805"><ele>862.0</ele><time>2026-04-12T09:08:31.933Z</time></trkpt><trkpt lat="41.2956117" lon="15.159065"><ele>859.0</ele><time>2026-04-12T09:08:32.932Z</time></trkpt><trkpt lat="41.2956433" lon="15.1593283"><ele>856.0</ele><time>2026-04-12T09:08:33.932Z</time></trkpt><trkpt lat="41.295675" lon="15.1595967"><ele>857.0</ele><time>2026-04-12T09:08:34.933Z</time></trkpt><trkpt lat="41.29571" lon="15.159875"><ele>858.0</ele><time>2026-04-12T09:08:35.932Z</time></trkpt><trkpt lat="41.2957483" lon="15.1601583"><ele>859.0</ele><time>2026-04-12T09:08:36.933Z</time></trkpt><trkpt lat="41.2957867" lon="15.160445"><ele>860.6666666666666</ele><time>2026-04-12T09:08:37.933Z</time></trkpt><trkpt lat="41.2958233" lon="15.160735"><ele>862.3333333333333</ele><time>2026-04-12T09:08:38.933Z</time></trkpt><trkpt lat="41.29586" lon="15.1610317"><ele>864.0</ele><time>2026-04-12T09:08:39.933Z</time></trkpt><trkpt lat="41.2958983" lon="15.1613383"><ele>864.5</ele><time>2026-04-12T09:08:40.933Z</time></trkpt><trkpt lat="41.29594" lon="15.16165"><ele>865.0</ele><time>2026-04-12T09:08:41.933Z</time></trkpt><trkpt lat="41.2959817" lon="15.1619667"><ele>865.0</ele><time>2026-04-12T09:08:42.933Z</time></trkpt><trkpt lat="41.2960267" lon="15.1622883"><ele>865.0</ele><time>2026-04-12T09:08:43.933Z</time></trkpt><trkpt lat="41.2960683" lon="15.16261"><ele>866.0</ele><time>2026-04-12T09:08:44.933Z</time></trkpt><trkpt lat="41.29611" lon="15.1629317"><ele>867.0</ele><time>2026-04-12T09:08:45.932Z</time></trkpt><trkpt lat="41.2961533" lon="15.163245"><ele>869.0</ele><time>2026-04-12T09:08:46.932Z</time></trkpt><trkpt lat="41.296195" lon="15.1635467"><ele>871.0</ele><time>2026-04-12T09:08:47.933Z</time></trkpt><trkpt lat="41.2962333" lon="15.16384"><ele>871.0</ele><time>2026-04-12T09:08:48.933Z</time></trkpt><trkpt lat="41.2962733" lon="15.16413"><ele>871.0</ele><time>2026-04-12T09:08:49.932Z</time></trkpt><trkpt lat="41.2963183" lon="15.16443"><ele>871.0</ele><time>2026-04-12T09:08:50.933Z</time></trkpt><trkpt lat="41.2963533" lon="15.1647283"><ele>871.0</ele><time>2026-04-12T09:08:51.932Z</time></trkpt><trkpt lat="41.2963883" lon="15.16502"><ele>871.0</ele><time>2026-04-12T09:08:52.932Z</time></trkpt><trkpt lat="41.2964217" lon="15.1653117"><ele>873.3333333333333</ele><time>2026-04-12T09:08:53.933Z</time></trkpt><trkpt lat="41.2964533" lon="15.16558"><ele>875.6666666666667</ele><time>2026-04-12T09:08:54.932Z</time></trkpt><trkpt lat="41.296485" lon="15.1658167"><ele>878.0</ele><time>2026-04-12T09:08:55.932Z</time></trkpt><trkpt lat="41.296515" lon="15.1660383"><ele>880.0</ele><time>2026-04-12T09:08:56.933Z</time></trkpt><trkpt lat="41.2965483" lon="15.1662633"><ele>882.0</ele><time>2026-04-12T09:08:57.933Z</time></trkpt><trkpt lat="41.2965883" lon="15.1664883"><ele>884.0</ele><time>2026-04-12T09:08:58.933Z</time></trkpt><trkpt lat="41.29664" lon="15.1666917"><ele>885.6666666666667</ele><time>2026-04-12T09:08:59.932Z</time></trkpt><trkpt lat="41.2967083" lon="15.1668867"><ele>887.3333333333333</ele><time>2026-04-12T09:09:00.933Z</time></trkpt><trkpt lat="41.296795" lon="15.167085"><ele>889.0</ele><time>2026-04-12T09:09:01.933Z</time></trkpt><trkpt lat="41.296905" lon="15.1672783"><ele>889.3333333333333</ele><time>2026-04-12T09:09:02.933Z</time></trkpt><trkpt lat="41.29702" lon="15.16747"><ele>889.6666666666667</ele><time>2026-04-12T09:09:03.933Z</time></trkpt><trkpt lat="41.2971367" lon="15.1676617"><ele>890.0</ele><time>2026-04-12T09:09:04.932Z</time></trkpt><trkpt lat="41.2972617" lon="15.1678467"><ele>889.3333333333334</ele><time>2026-04-12T09:09:05.932Z</time></trkpt><trkpt lat="41.2973883" lon="15.168035"><ele>888.6666666666667</ele><time>2026-04-12T09:09:06.932Z</time></trkpt><trkpt lat="41.2975167" lon="15.1682267"><ele>888.0</ele><time>2026-04-12T09:09:07.932Z</time></trkpt><trkpt lat="41.2976433" lon="15.16841"><ele>890.0</ele><time>2026-04-12T09:09:08.931Z</time></trkpt><trkpt lat="41.2977733" lon="15.1685983"><ele>892.0</ele><time>2026-04-12T09:09:09.932Z</time></trkpt><trkpt lat="41.2979017" lon="15.1687883"><ele>894.0</ele><time>2026-04-12T09:09:10.932Z</time></trkpt><trkpt lat="41.2980217" lon="15.168965"><ele>896.0</ele><time>2026-04-12T09:09:11.931Z</time></trkpt><trkpt lat="41.29813" lon="15.1691167"><ele>898.0</ele><time>2026-04-12T09:09:12.932Z</time></trkpt><trkpt lat="41.2982333" lon="15.16926"><ele>900.0</ele><time>2026-04-12T09:09:13.931Z</time></trkpt><trkpt lat="41.2983283" lon="15.16939"><ele>902.0</ele><time>2026-04-12T09:09:14.932Z</time></trkpt><trkpt lat="41.2984117" lon="15.1695183"><ele>902.0</ele><time>2026-04-12T09:09:15.931Z</time></trkpt><trkpt lat="41.2984817" lon="15.1696483"><ele>902.0</ele><time>2026-04-12T09:09:16.932Z</time></trkpt><trkpt lat="41.2985467" lon="15.169795"><ele>902.0</ele><time>2026-04-12T09:09:17.931Z</time></trkpt><trkpt lat="41.2986033" lon="15.169955"><ele>902.0</ele><time>2026-04-12T09:09:18.931Z</time></trkpt><trkpt lat="41.2986717" lon="15.1701267"><ele>905.5</ele><time>2026-04-12T09:09:19.931Z</time></trkpt><trkpt lat="41.29874" lon="15.1703017"><ele>909.0</ele><time>2026-04-12T09:09:20.932Z</time></trkpt><trkpt lat="41.2988" lon="15.17048"><ele>912.5</ele><time>2026-04-12T09:09:21.932Z</time></trkpt><trkpt lat="41.2988617" lon="15.17065"><ele>916.0</ele><time>2026-04-12T09:09:22.931Z</time></trkpt><trkpt lat="41.29892" lon="15.170825"><ele>916.75</ele><time>2026-04-12T09:09:23.932Z</time></trkpt><trkpt lat="41.298985" lon="15.17099"><ele>917.5</ele><time>2026-04-12T09:09:24.932Z</time></trkpt><trkpt lat="41.29905" lon="15.1711633"><ele>918.25</ele><time>2026-04-12T09:09:25.931Z</time></trkpt><trkpt lat="41.2991217" lon="15.1713383"><ele>919.0</ele><time>2026-04-12T09:09:26.932Z</time></trkpt><trkpt lat="41.2991967" lon="15.1715067"><ele>920.3333333333333</ele><time>2026-04-12T09:09:27.931Z</time></trkpt><trkpt lat="41.2992667" lon="15.17169"><ele>921.6666666666667</ele><time>2026-04-12T09:09:28.932Z</time></trkpt><trkpt lat="41.2993367" lon="15.1718717"><ele>923.0</ele><time>2026-04-12T09:09:29.932Z</time></trkpt><trkpt lat="41.2994067" lon="15.172045"><ele>923.0</ele><time>2026-04-12T09:09:30.931Z</time></trkpt><trkpt lat="41.2994767" lon="15.1722233"><ele>923.0</ele><time>2026-04-12T09:09:31.932Z</time></trkpt><trkpt lat="41.299545" lon="15.172395"><ele>923.0</ele><time>2026-04-12T09:09:32.932Z</time></trkpt><trkpt lat="41.29962" lon="15.1725567"><ele>923.0</ele><time>2026-04-12T09:09:33.932Z</time></trkpt><trkpt lat="41.2996917" lon="15.1727233"><ele>924.75</ele><time>2026-04-12T09:09:34.931Z</time></trkpt><trkpt lat="41.2997667" lon="15.17289"><ele>926.5</ele><time>2026-04-12T09:09:35.932Z</time></trkpt><trkpt lat="41.29983" lon="15.1730617"><ele>928.25</ele><time>2026-04-12T09:09:36.932Z</time></trkpt><trkpt lat="41.29989" lon="15.1732383"><ele>930.0</ele><time>2026-04-12T09:09:37.932Z</time></trkpt><trkpt lat="41.2999533" lon="15.1734133"><ele>930.0</ele><time>2026-04-12T09:09:38.931Z</time></trkpt><trkpt lat="41.30002" lon="15.1735683"><ele>930.0</ele><time>2026-04-12T09:09:39.932Z</time></trkpt><trkpt lat="41.3000917" lon="15.1737183"><ele>930.0</ele><time>2026-04-12T09:09:40.932Z</time></trkpt><trkpt lat="41.3001733" lon="15.17386"><ele>930.0</ele><time>2026-04-12T09:09:41.932Z</time></trkpt><trkpt lat="41.3002717" lon="15.17399"><ele>930.5</ele><time>2026-04-12T09:09:42.932Z</time></trkpt><trkpt lat="41.3003633" lon="15.174115"><ele>931.0</ele><time>2026-04-12T09:09:43.932Z</time></trkpt><trkpt lat="41.3004517" lon="15.17424"><ele>931.5</ele><time>2026-04-12T09:09:44.931Z</time></trkpt><trkpt lat="41.3005467" lon="15.1743533"><ele>932.0</ele><time>2026-04-12T09:09:45.931Z</time></trkpt><trkpt lat="41.300635" lon="15.17447"><ele>932.0</ele><time>2026-04-12T09:09:46.931Z</time></trkpt><trkpt lat="41.3007183" lon="15.1745917"><ele>932.0</ele><time>2026-04-12T09:09:47.932Z</time></trkpt><trkpt lat="41.3008033" lon="15.174715"><ele>932.0</ele><time>2026-04-12T09:09:48.932Z</time></trkpt><trkpt lat="41.3008883" lon="15.1748383"><ele>932.0</ele><time>2026-04-12T09:09:49.932Z</time></trkpt><trkpt lat="41.3009617" lon="15.1749617"><ele>931.8</ele><time>2026-04-12T09:09:50.932Z</time></trkpt><trkpt lat="41.3010367" lon="15.1750667"><ele>931.6</ele><time>2026-04-12T09:09:51.932Z</time></trkpt><trkpt lat="41.3011017" lon="15.1751667"><ele>931.3999999999999</ele><time>2026-04-12T09:09:52.932Z</time></trkpt><trkpt lat="41.3011633" lon="15.175265"><ele>931.1999999999999</ele><time>2026-04-12T09:09:53.932Z</time></trkpt><trkpt lat="41.3012183" lon="15.1753533"><ele>931.0</ele><time>2026-04-12T09:09:54.931Z</time></trkpt><trkpt lat="41.3012783" lon="15.1754433"><ele>930.9999999999999</ele><time>2026-04-12T09:09:55.932Z</time></trkpt><trkpt lat="41.3013433" lon="15.1755267"><ele>931.0</ele><time>2026-04-12T09:09:56.932Z</time></trkpt><trkpt lat="41.3014017" lon="15.1756233"><ele>931.0</ele><time>2026-04-12T09:09:57.932Z</time></trkpt><trkpt lat="41.3014583" lon="15.1757117"><ele>931.0</ele><time>2026-04-12T09:09:58.931Z</time></trkpt><trkpt lat="41.30152" lon="15.1758033"><ele>930.9999999999999</ele><time>2026-04-12T09:09:59.931Z</time></trkpt><trkpt lat="41.301575" lon="15.17589"><ele>931.0</ele><time>2026-04-12T09:10:00.932Z</time></trkpt><trkpt lat="41.3016317" lon="15.17598"><ele>932.4999999999999</ele><time>2026-04-12T09:10:01.932Z</time></trkpt><trkpt lat="41.301685" lon="15.1760633"><ele>934.0</ele><time>2026-04-12T09:10:02.932Z</time></trkpt><trkpt lat="41.301735" lon="15.17615"><ele>935.5</ele><time>2026-04-12T09:10:03.931Z</time></trkpt><trkpt lat="41.3017917" lon="15.1762233"><ele>937.0</ele><time>2026-04-12T09:10:04.932Z</time></trkpt><trkpt lat="41.3018433" lon="15.1762933"><ele>938.4999999999999</ele><time>2026-04-12T09:10:05.931Z</time></trkpt><trkpt lat="41.3018833" lon="15.1763583"><ele>940.0</ele><time>2026-04-12T09:10:06.932Z</time></trkpt><trkpt lat="41.30192" lon="15.1764767"><ele>939.9999999999999</ele><time>2026-04-12T09:10:08.932Z</time></trkpt><trkpt lat="41.3018733" lon="15.1765567"><ele>940.0</ele><time>2026-04-12T09:10:10.932Z</time></trkpt><trkpt lat="41.3018083" lon="15.1765767"><ele>940.0</ele><time>2026-04-12T09:10:12.932Z</time></trkpt><trkpt lat="41.301725" lon="15.17661"><ele>940.0</ele><time>2026-04-12T09:11:03.931Z</time></trkpt><trkpt lat="41.3016" lon="15.1766683"><ele>939.9999999999999</ele><time>2026-04-12T09:11:05.932Z</time></trkpt><trkpt lat="41.3015217" lon="15.1767"><ele>940.0</ele><time>2026-04-12T09:11:06.932Z</time></trkpt><trkpt lat="41.3014367" lon="15.1767383"><ele>940.0</ele><time>2026-04-12T09:11:07.932Z</time></trkpt><trkpt lat="41.30134" lon="15.1767733"><ele>940.0</ele><time>2026-04-12T09:11:08.932Z</time></trkpt><trkpt lat="41.3012467" lon="15.176815"><ele>940.0</ele><time>2026-04-12T09:11:09.932Z</time></trkpt><trkpt lat="41.3011483" lon="15.17685"><ele>940.0</ele><time>2026-04-12T09:11:10.932Z</time></trkpt><trkpt lat="41.30105" lon="15.17688"><ele>940.0</ele><time>2026-04-12T09:11:11.932Z</time></trkpt><trkpt lat="41.300955" lon="15.1769067"><ele>940.0</ele><time>2026-04-12T09:11:12.932Z</time></trkpt><trkpt lat="41.3008583" lon="15.1769317"><ele>940.0</ele><time>2026-04-12T09:11:13.931Z</time></trkpt><trkpt lat="41.30076" lon="15.1769633"><ele>940.0</ele><time>2026-04-12T09:11:14.932Z</time></trkpt><trkpt lat="41.30066" lon="15.1769933"><ele>940.0</ele><time>2026-04-12T09:11:15.931Z</time></trkpt><trkpt lat="41.3005583" lon="15.1770267"><ele>940.0</ele><time>2026-04-12T09:11:16.931Z</time></trkpt><trkpt lat="41.3004583" lon="15.177065"><ele>940.6</ele><time>2026-04-12T09:11:17.932Z</time></trkpt><trkpt lat="41.3003567" lon="15.1771067"><ele>941.2</ele><time>2026-04-12T09:11:18.931Z</time></trkpt><trkpt lat="41.3002617" lon="15.17716"><ele>941.8</ele><time>2026-04-12T09:11:19.931Z</time></trkpt><trkpt lat="41.3001767" lon="15.177215"><ele>942.4</ele><time>2026-04-12T09:11:20.932Z</time></trkpt><trkpt lat="41.3001083" lon="15.1772717"><ele>943.0</ele><time>2026-04-12T09:11:21.932Z</time></trkpt><trkpt lat="41.3000467" lon="15.1773267"><ele>942.9999999999999</ele><time>2026-04-12T09:11:22.931Z</time></trkpt><trkpt lat="41.29999" lon="15.1773867"><ele>943.0</ele><time>2026-04-12T09:11:23.932Z</time></trkpt><trkpt lat="41.2999267" lon="15.1774517"><ele>943.0</ele><time>2026-04-12T09:11:24.932Z</time></trkpt><trkpt lat="41.299855" lon="15.17751"><ele>943.0</ele><time>2026-04-12T09:11:25.931Z</time></trkpt><trkpt lat="41.2997817" lon="15.1775667"><ele>942.9999999999999</ele><time>2026-04-12T09:11:26.932Z</time></trkpt><trkpt lat="41.2997033" lon="15.177635"><ele>943.0</ele><time>2026-04-12T09:11:27.932Z</time></trkpt><trkpt lat="41.2996233" lon="15.1776967"><ele>943.0</ele><time>2026-04-12T09:11:28.932Z</time></trkpt><trkpt lat="41.2995417" lon="15.1777633"><ele>943.0</ele><time>2026-04-12T09:11:29.931Z</time></trkpt><trkpt lat="41.29946" lon="15.177825"><ele>943.0</ele><time>2026-04-12T09:11:30.932Z</time></trkpt><trkpt lat="41.29938" lon="15.1778883"><ele>943.0</ele><time>2026-04-12T09:11:31.932Z</time></trkpt><trkpt lat="41.2993" lon="15.1779533"><ele>943.0</ele><time>2026-04-12T09:11:32.932Z</time></trkpt><trkpt lat="41.2992267" lon="15.17801"><ele>943.0</ele><time>2026-04-12T09:11:33.932Z</time></trkpt><trkpt lat="41.299155" lon="15.1780633"><ele>943.0</ele><time>2026-04-12T09:11:34.932Z</time></trkpt><trkpt lat="41.2990783" lon="15.1781167"><ele>943.0</ele><time>2026-04-12T09:11:35.932Z</time></trkpt><trkpt lat="41.2989983" lon="15.1781733"><ele>943.0</ele><time>2026-04-12T09:11:36.931Z</time></trkpt><trkpt lat="41.298915" lon="15.1782383"><ele>943.0</ele><time>2026-04-12T09:11:37.931Z</time></trkpt><trkpt lat="41.2988267" lon="15.17831"><ele>941.8</ele><time>2026-04-12T09:11:38.932Z</time></trkpt><trkpt lat="41.29874" lon="15.17838"><ele>940.5999999999999</ele><time>2026-04-12T09:11:39.932Z</time></trkpt><trkpt lat="41.2986517" lon="15.1784517"><ele>939.4000000000001</ele><time>2026-04-12T09:11:40.932Z</time></trkpt><trkpt lat="41.2985683" lon="15.1785217"><ele>938.2</ele><time>2026-04-12T09:11:41.932Z</time></trkpt><trkpt lat="41.298485" lon="15.1785783"><ele>937.0</ele><time>2026-04-12T09:11:42.931Z</time></trkpt><trkpt lat="41.29839" lon="15.1786217"><ele>937.0</ele><time>2026-04-12T09:11:43.931Z</time></trkpt><trkpt lat="41.29829" lon="15.178655"><ele>937.0</ele><time>2026-04-12T09:11:44.932Z</time></trkpt><trkpt lat="41.2981867" lon="15.1786983"><ele>937.0</ele><time>2026-04-12T09:11:45.932Z</time></trkpt><trkpt lat="41.2980833" lon="15.178745"><ele>937.0</ele><time>2026-04-12T09:11:46.932Z</time></trkpt><trkpt lat="41.2979833" lon="15.1787933"><ele>937.0</ele><time>2026-04-12T09:11:47.931Z</time></trkpt><trkpt lat="41.2978933" lon="15.178845"><ele>935.8</ele><time>2026-04-12T09:11:48.931Z</time></trkpt><trkpt lat="41.2978033" lon="15.178895"><ele>934.6</ele><time>2026-04-12T09:11:49.931Z</time></trkpt><trkpt lat="41.2977133" lon="15.1789333"><ele>933.3999999999999</ele><time>2026-04-12T09:11:50.932Z</time></trkpt><trkpt lat="41.2976233" lon="15.1789783"><ele>932.1999999999999</ele><time>2026-04-12T09:11:51.931Z</time></trkpt><trkpt lat="41.29753" lon="15.1790283"><ele>931.0</ele><time>2026-04-12T09:11:52.932Z</time></trkpt><trkpt lat="41.2974383" lon="15.179085"><ele>931.0</ele><time>2026-04-12T09:11:53.932Z</time></trkpt><trkpt lat="41.29734" lon="15.179145"><ele>930.9999999999999</ele><time>2026-04-12T09:11:54.931Z</time></trkpt><trkpt lat="41.2972483" lon="15.1792033"><ele>930.9999999999999</ele><time>2026-04-12T09:11:55.931Z</time></trkpt><trkpt lat="41.2971583" lon="15.1792667"><ele>931.0</ele><time>2026-04-12T09:11:56.931Z</time></trkpt><trkpt lat="41.2970717" lon="15.17933"><ele>931.0</ele><time>2026-04-12T09:11:57.931Z</time></trkpt><trkpt lat="41.2969883" lon="15.1793933"><ele>929.8</ele><time>2026-04-12T09:11:58.931Z</time></trkpt><trkpt lat="41.2969033" lon="15.1794617"><ele>928.5999999999999</ele><time>2026-04-12T09:11:59.931Z</time></trkpt><trkpt lat="41.2968133" lon="15.1795383"><ele>927.4</ele><time>2026-04-12T09:12:00.932Z</time></trkpt><trkpt lat="41.296725" lon="15.1796167"><ele>926.2</ele><time>2026-04-12T09:12:01.931Z</time></trkpt><trkpt lat="41.296635" lon="15.1796933"><ele>925.0</ele><time>2026-04-12T09:12:02.932Z</time></trkpt><trkpt lat="41.296545" lon="15.1797767"><ele>924.5</ele><time>2026-04-12T09:12:03.931Z</time></trkpt><trkpt lat="41.2964517" lon="15.1798667"><ele>924.0</ele><time>2026-04-12T09:12:04.932Z</time></trkpt><trkpt lat="41.296355" lon="15.1799567"><ele>923.5</ele><time>2026-04-12T09:12:05.932Z</time></trkpt><trkpt lat="41.2962567" lon="15.1800467"><ele>923.0</ele><time>2026-04-12T09:12:06.932Z</time></trkpt><trkpt lat="41.2961533" lon="15.180145"><ele>922.25</ele><time>2026-04-12T09:12:07.932Z</time></trkpt><trkpt lat="41.296055" lon="15.180225"><ele>921.5</ele><time>2026-04-12T09:12:08.932Z</time></trkpt><trkpt lat="41.2959567" lon="15.1803083"><ele>920.75</ele><time>2026-04-12T09:12:09.932Z</time></trkpt><trkpt lat="41.2958583" lon="15.1803933"><ele>920.0</ele><time>2026-04-12T09:12:10.932Z</time></trkpt><trkpt lat="41.29576" lon="15.1804767"><ele>920.0</ele><time>2026-04-12T09:12:11.931Z</time></trkpt><trkpt lat="41.2956567" lon="15.18057"><ele>920.0</ele><time>2026-04-12T09:12:12.931Z</time></trkpt><trkpt lat="41.2955433" lon="15.180675"><ele>920.0</ele><time>2026-04-12T09:12:13.932Z</time></trkpt><trkpt lat="41.2954267" lon="15.1807817"><ele>920.0</ele><time>2026-04-12T09:12:14.932Z</time></trkpt><trkpt lat="41.2953083" lon="15.18089"><ele>920.3333333333334</ele><time>2026-04-12T09:12:15.932Z</time></trkpt><trkpt lat="41.295185" lon="15.1810033"><ele>920.6666666666667</ele><time>2026-04-12T09:12:16.931Z</time></trkpt><trkpt lat="41.295055" lon="15.1811267"><ele>921.0</ele><time>2026-04-12T09:12:17.932Z</time></trkpt><trkpt lat="41.2949283" lon="15.181245"><ele>921.0</ele><time>2026-04-12T09:12:18.932Z</time></trkpt><trkpt lat="41.2948183" lon="15.1813483"><ele>921.0</ele><time>2026-04-12T09:12:19.931Z</time></trkpt><trkpt lat="41.2947267" lon="15.1814367"><ele>921.0</ele><time>2026-04-12T09:12:20.931Z</time></trkpt><trkpt lat="41.294635" lon="15.1815183"><ele>921.0</ele><time>2026-04-12T09:12:21.932Z</time></trkpt><trkpt lat="41.2945483" lon="15.181595"><ele>921.1666666666666</ele><time>2026-04-12T09:12:22.931Z</time></trkpt><trkpt lat="41.294465" lon="15.1816617"><ele>921.3333333333333</ele><time>2026-04-12T09:12:23.931Z</time></trkpt><trkpt lat="41.2943833" lon="15.1817183"><ele>921.5</ele><time>2026-04-12T09:12:24.931Z</time></trkpt><trkpt lat="41.2943" lon="15.1817683"><ele>921.6666666666666</ele><time>2026-04-12T09:12:25.931Z</time></trkpt><trkpt lat="41.2942217" lon="15.181805"><ele>921.8333333333333</ele><time>2026-04-12T09:12:26.931Z</time></trkpt><trkpt lat="41.2941433" lon="15.1818267"><ele>922.0</ele><time>2026-04-12T09:12:27.932Z</time></trkpt><trkpt lat="41.2940667" lon="15.18183"><ele>921.9999999999999</ele><time>2026-04-12T09:12:28.932Z</time></trkpt><trkpt lat="41.2939917" lon="15.1818233"><ele>922.0</ele><time>2026-04-12T09:12:29.931Z</time></trkpt><trkpt lat="41.2939133" lon="15.1818033"><ele>922.0</ele><time>2026-04-12T09:12:30.931Z</time></trkpt><trkpt lat="41.2938283" lon="15.181785"><ele>922.0</ele><time>2026-04-12T09:12:31.931Z</time></trkpt><trkpt lat="41.2937433" lon="15.1817633"><ele>921.9999999999999</ele><time>2026-04-12T09:12:32.931Z</time></trkpt><trkpt lat="41.2936533" lon="15.181735"><ele>922.0</ele><time>2026-04-12T09:12:33.932Z</time></trkpt><trkpt lat="41.2935583" lon="15.1816983"><ele>922.2</ele><time>2026-04-12T09:12:34.932Z</time></trkpt><trkpt lat="41.2934617" lon="15.1816633"><ele>922.4000000000001</ele><time>2026-04-12T09:12:35.932Z</time></trkpt><trkpt lat="41.2933633" lon="15.181635"><ele>922.5999999999999</ele><time>2026-04-12T09:12:36.932Z</time></trkpt><trkpt lat="41.2932683" lon="15.181605"><ele>922.8</ele><time>2026-04-12T09:12:37.932Z</time></trkpt><trkpt lat="41.2931783" lon="15.1815833"><ele>923.0</ele><time>2026-04-12T09:12:38.932Z</time></trkpt><trkpt lat="41.293085" lon="15.1815733"><ele>923.0000000000001</ele><time>2026-04-12T09:12:39.932Z</time></trkpt><trkpt lat="41.2929967" lon="15.1815783"><ele>923.0</ele><time>2026-04-12T09:12:40.932Z</time></trkpt><trkpt lat="41.2929167" lon="15.1816017"><ele>923.0</ele><time>2026-04-12T09:12:41.931Z</time></trkpt><trkpt lat="41.29283" lon="15.181635"><ele>923.0</ele><time>2026-04-12T09:12:42.931Z</time></trkpt><trkpt lat="41.292745" lon="15.1816783"><ele>923.0000000000001</ele><time>2026-04-12T09:12:43.932Z</time></trkpt><trkpt lat="41.2926583" lon="15.1817267"><ele>923.0</ele><time>2026-04-12T09:12:44.931Z</time></trkpt><trkpt lat="41.292575" lon="15.1817833"><ele>923.0</ele><time>2026-04-12T09:12:45.931Z</time></trkpt><trkpt lat="41.2924883" lon="15.181855"><ele>923.0</ele><time>2026-04-12T09:12:46.932Z</time></trkpt><trkpt lat="41.2923967" lon="15.1819383"><ele>923.0</ele><time>2026-04-12T09:12:47.932Z</time></trkpt><trkpt lat="41.2922983" lon="15.18203"><ele>923.0</ele><time>2026-04-12T09:12:48.932Z</time></trkpt><trkpt lat="41.292205" lon="15.182115"><ele>923.0</ele><time>2026-04-12T09:12:49.932Z</time></trkpt><trkpt lat="41.2921167" lon="15.182205"><ele>923.75</ele><time>2026-04-12T09:12:50.932Z</time></trkpt><trkpt lat="41.2920283" lon="15.18229"><ele>924.5</ele><time>2026-04-12T09:12:51.931Z</time></trkpt><trkpt lat="41.2919383" lon="15.1823767"><ele>925.25</ele><time>2026-04-12T09:12:52.931Z</time></trkpt><trkpt lat="41.2918417" lon="15.1824617"><ele>926.0</ele><time>2026-04-12T09:12:53.932Z</time></trkpt><trkpt lat="41.2917433" lon="15.1825517"><ele>926.5</ele><time>2026-04-12T09:12:54.931Z</time></trkpt><trkpt lat="41.2916433" lon="15.182645"><ele>927.0</ele><time>2026-04-12T09:12:55.932Z</time></trkpt><trkpt lat="41.29154" lon="15.1827383"><ele>927.5</ele><time>2026-04-12T09:12:56.932Z</time></trkpt><trkpt lat="41.2914367" lon="15.1828267"><ele>928.0</ele><time>2026-04-12T09:12:57.932Z</time></trkpt><trkpt lat="41.2913317" lon="15.18291"><ele>928.5999999999999</ele><time>2026-04-12T09:12:58.932Z</time></trkpt><trkpt lat="41.2912383" lon="15.1829817"><ele>929.1999999999999</ele><time>2026-04-12T09:12:59.931Z</time></trkpt><trkpt lat="41.29115" lon="15.1830517"><ele>929.8</ele><time>2026-04-12T09:13:00.932Z</time></trkpt><trkpt lat="41.291065" lon="15.18312"><ele>930.4</ele><time>2026-04-12T09:13:01.931Z</time></trkpt><trkpt lat="41.2909783" lon="15.1831883"><ele>931.0</ele><time>2026-04-12T09:13:02.932Z</time></trkpt><trkpt lat="41.2908883" lon="15.1832567"><ele>931.4</ele><time>2026-04-12T09:13:03.931Z</time></trkpt><trkpt lat="41.290805" lon="15.1833183"><ele>931.8</ele><time>2026-04-12T09:13:04.932Z</time></trkpt><trkpt lat="41.290735" lon="15.1833717"><ele>932.1999999999999</ele><time>2026-04-12T09:13:05.931Z</time></trkpt><trkpt lat="41.2906767" lon="15.18342"><ele>932.5999999999999</ele><time>2026-04-12T09:13:06.932Z</time></trkpt><trkpt lat="41.2905833" lon="15.183505"><ele>933.0</ele><time>2026-04-12T09:13:08.931Z</time></trkpt><trkpt lat="41.2904917" lon="15.1835817"><ele>931.5999999999999</ele><time>2026-04-12T09:13:10.932Z</time></trkpt><trkpt lat="41.2904017" lon="15.1836517"><ele>930.1999999999999</ele><time>2026-04-12T09:13:12.932Z</time></trkpt><trkpt lat="41.290305" lon="15.1837333"><ele>928.8</ele><time>2026-04-12T09:13:14.932Z</time></trkpt><trkpt lat="41.2902517" lon="15.1837783"><ele>927.4</ele><time>2026-04-12T09:13:15.931Z</time></trkpt><trkpt lat="41.29014" lon="15.1838533"><ele>926.0</ele><time>2026-04-12T09:13:17.931Z</time></trkpt><trkpt lat="41.29008" lon="15.1838883"><ele>926.0000000000001</ele><time>2026-04-12T09:13:18.932Z</time></trkpt><trkpt lat="41.29002" lon="15.183925"><ele>926.0</ele><time>2026-04-12T09:13:19.932Z</time></trkpt><trkpt lat="41.2899133" lon="15.1840183"><ele>926.0</ele><time>2026-04-12T09:13:21.931Z</time></trkpt><trkpt lat="41.2898617" lon="15.18408"><ele>926.0</ele><time>2026-04-12T09:13:22.932Z</time></trkpt><trkpt lat="41.28981" lon="15.184145"><ele>926.0000000000001</ele><time>2026-04-12T09:13:23.932Z</time></trkpt><trkpt lat="41.2897633" lon="15.1842117"><ele>926.0</ele><time>2026-04-12T09:13:24.931Z</time></trkpt><trkpt lat="41.2897167" lon="15.184275"><ele>923.8333333333334</ele><time>2026-04-12T09:13:25.932Z</time></trkpt><trkpt lat="41.28967" lon="15.1843367"><ele>921.6666666666667</ele><time>2026-04-12T09:13:26.932Z</time></trkpt><trkpt lat="41.2896183" lon="15.1843933"><ele>919.5</ele><time>2026-04-12T09:13:27.932Z</time></trkpt><trkpt lat="41.289515" lon="15.1844783"><ele>917.3333333333333</ele><time>2026-04-12T09:13:29.932Z</time></trkpt><trkpt lat="41.2894533" lon="15.184515"><ele>915.1666666666666</ele><time>2026-04-12T09:13:30.931Z</time></trkpt><trkpt lat="41.28939" lon="15.1845517"><ele>913.0</ele><time>2026-04-12T09:13:31.932Z</time></trkpt><trkpt lat="41.289275" lon="15.1846117"><ele>912.9999999999999</ele><time>2026-04-12T09:13:33.932Z</time></trkpt><trkpt lat="41.2892117" lon="15.18464"><ele>913.0</ele><time>2026-04-12T09:13:34.932Z</time></trkpt><trkpt lat="41.2891517" lon="15.184675"><ele>913.0</ele><time>2026-04-12T09:13:35.932Z</time></trkpt><trkpt lat="41.2890517" lon="15.1847683"><ele>913.0</ele><time>2026-04-12T09:13:37.931Z</time></trkpt><trkpt lat="41.289005" lon="15.1848317"><ele>912.9999999999999</ele><time>2026-04-12T09:13:38.932Z</time></trkpt><trkpt lat="41.2889583" lon="15.18491"><ele>913.0</ele><time>2026-04-12T09:13:39.931Z</time></trkpt><trkpt lat="41.2889133" lon="15.184995"><ele>912.3333333333333</ele><time>2026-04-12T09:13:40.932Z</time></trkpt><trkpt lat="41.288865" lon="15.18509"><ele>911.6666666666666</ele><time>2026-04-12T09:13:41.932Z</time></trkpt><trkpt lat="41.288815" lon="15.1851817"><ele>911.0</ele><time>2026-04-12T09:13:42.932Z</time></trkpt><trkpt lat="41.2887617" lon="15.1852733"><ele>910.3333333333333</ele><time>2026-04-12T09:13:43.932Z</time></trkpt><trkpt lat="41.2887083" lon="15.1853633"><ele>909.6666666666666</ele><time>2026-04-12T09:13:44.932Z</time></trkpt><trkpt lat="41.288655" lon="15.185445"><ele>909.0</ele><time>2026-04-12T09:13:45.932Z</time></trkpt><trkpt lat="41.2885917" lon="15.1855333"><ele>909.0</ele><time>2026-04-12T09:13:46.932Z</time></trkpt><trkpt lat="41.2885317" lon="15.1856167"><ele>909.0</ele><time>2026-04-12T09:13:47.932Z</time></trkpt><trkpt lat="41.2884683" lon="15.1857033"><ele>909.0</ele><time>2026-04-12T09:13:48.932Z</time></trkpt><trkpt lat="41.2884033" lon="15.1857883"><ele>909.0</ele><time>2026-04-12T09:13:49.931Z</time></trkpt><trkpt lat="41.28834" lon="15.1858733"><ele>909.0</ele><time>2026-04-12T09:13:50.931Z</time></trkpt><trkpt lat="41.2882833" lon="15.1859483"><ele>909.0</ele><time>2026-04-12T09:13:51.932Z</time></trkpt><trkpt lat="41.2882367" lon="15.1860233"><ele>908.4285714285713</ele><time>2026-04-12T09:13:52.931Z</time></trkpt><trkpt lat="41.28819" lon="15.1860917"><ele>907.8571428571429</ele><time>2026-04-12T09:13:53.932Z</time></trkpt><trkpt lat="41.2881433" lon="15.186155"><ele>907.2857142857142</ele><time>2026-04-12T09:13:54.932Z</time></trkpt><trkpt lat="41.2880867" lon="15.1862167"><ele>906.7142857142857</ele><time>2026-04-12T09:13:55.932Z</time></trkpt><trkpt lat="41.2880217" lon="15.18627"><ele>906.1428571428571</ele><time>2026-04-12T09:13:56.932Z</time></trkpt><trkpt lat="41.2879467" lon="15.1863067"><ele>905.5714285714286</ele><time>2026-04-12T09:13:57.931Z</time></trkpt><trkpt lat="41.2878767" lon="15.1863383"><ele>905.0</ele><time>2026-04-12T09:13:58.932Z</time></trkpt><trkpt lat="41.2877983" lon="15.1863633"><ele>904.1666666666667</ele><time>2026-04-12T09:13:59.932Z</time></trkpt><trkpt lat="41.2877167" lon="15.1863867"><ele>903.3333333333334</ele><time>2026-04-12T09:14:00.932Z</time></trkpt><trkpt lat="41.287645" lon="15.1864083"><ele>902.5</ele><time>2026-04-12T09:14:01.931Z</time></trkpt><trkpt lat="41.2875817" lon="15.1864283"><ele>901.6666666666667</ele><time>2026-04-12T09:14:02.932Z</time></trkpt><trkpt lat="41.287475" lon="15.1864483"><ele>900.8333333333334</ele><time>2026-04-12T09:14:04.932Z</time></trkpt><trkpt lat="41.2873717" lon="15.1864467"><ele>900.0</ele><time>2026-04-12T09:14:06.932Z</time></trkpt><trkpt lat="41.28726" lon="15.1864283"><ele>897.6</ele><time>2026-04-12T09:14:08.932Z</time></trkpt><trkpt lat="41.2871467" lon="15.1864067"><ele>895.2</ele><time>2026-04-12T09:14:10.932Z</time></trkpt><trkpt lat="41.2870167" lon="15.1864017"><ele>892.8</ele><time>2026-04-12T09:14:12.932Z</time></trkpt><trkpt lat="41.2869483" lon="15.18642"><ele>890.4</ele><time>2026-04-12T09:14:13.932Z</time></trkpt><trkpt lat="41.2868783" lon="15.1864467"><ele>888.0</ele><time>2026-04-12T09:14:14.932Z</time></trkpt><trkpt lat="41.2868067" lon="15.1864867"><ele>888.0</ele><time>2026-04-12T09:14:15.932Z</time></trkpt><trkpt lat="41.2867367" lon="15.1865217"><ele>888.0</ele><time>2026-04-12T09:14:16.931Z</time></trkpt><trkpt lat="41.2866667" lon="15.1865467"><ele>888.0</ele><time>2026-04-12T09:14:17.932Z</time></trkpt><trkpt lat="41.2865933" lon="15.186565"><ele>888.0</ele><time>2026-04-12T09:14:18.932Z</time></trkpt><trkpt lat="41.2865133" lon="15.186585"><ele>888.0</ele><time>2026-04-12T09:14:19.931Z</time></trkpt><trkpt lat="41.2864283" lon="15.1866083"><ele>888.0</ele><time>2026-04-12T09:14:20.932Z</time></trkpt><trkpt lat="41.286345" lon="15.18664"><ele>887.0</ele><time>2026-04-12T09:14:21.931Z</time></trkpt><trkpt lat="41.286265" lon="15.1866717"><ele>886.0</ele><time>2026-04-12T09:14:22.932Z</time></trkpt><trkpt lat="41.2861817" lon="15.1867067"><ele>885.0</ele><time>2026-04-12T09:14:23.932Z</time></trkpt><trkpt lat="41.2861" lon="15.186745"><ele>884.0</ele><time>2026-04-12T09:14:24.932Z</time></trkpt><trkpt lat="41.2860133" lon="15.18679"><ele>883.0</ele><time>2026-04-12T09:14:25.932Z</time></trkpt><trkpt lat="41.28593" lon="15.1868267"><ele>882.0</ele><time>2026-04-12T09:14:26.931Z</time></trkpt><trkpt lat="41.28584" lon="15.1868717"><ele>882.0</ele><time>2026-04-12T09:14:27.931Z</time></trkpt><trkpt lat="41.2857533" lon="15.18691"><ele>882.0</ele><time>2026-04-12T09:14:28.931Z</time></trkpt><trkpt lat="41.28566" lon="15.1869583"><ele>882.0</ele><time>2026-04-12T09:14:29.932Z</time></trkpt><trkpt lat="41.2855717" lon="15.1870117"><ele>882.0</ele><time>2026-04-12T09:14:30.931Z</time></trkpt><trkpt lat="41.2854867" lon="15.1870617"><ele>882.0</ele><time>2026-04-12T09:14:31.931Z</time></trkpt><trkpt lat="41.2854033" lon="15.187115"><ele>881.6666666666666</ele><time>2026-04-12T09:14:32.932Z</time></trkpt><trkpt lat="41.2853183" lon="15.18717"><ele>881.3333333333333</ele><time>2026-04-12T09:14:33.932Z</time></trkpt><trkpt lat="41.285235" lon="15.18722"><ele>881.0</ele><time>2026-04-12T09:14:34.932Z</time></trkpt><trkpt lat="41.285155" lon="15.187265"><ele>880.6666666666666</ele><time>2026-04-12T09:14:35.931Z</time></trkpt><trkpt lat="41.285075" lon="15.1873"><ele>880.3333333333333</ele><time>2026-04-12T09:14:36.932Z</time></trkpt><trkpt lat="41.2849883" lon="15.1873317"><ele>880.0</ele><time>2026-04-12T09:14:37.932Z</time></trkpt><trkpt lat="41.2848983" lon="15.18737"><ele>880.0</ele><time>2026-04-12T09:14:38.932Z</time></trkpt><trkpt lat="41.2848117" lon="15.1874183"><ele>880.0</ele><time>2026-04-12T09:14:39.931Z</time></trkpt><trkpt lat="41.2847283" lon="15.1874767"><ele>880.0</ele><time>2026-04-12T09:14:40.932Z</time></trkpt><trkpt lat="41.284655" lon="15.18755"><ele>880.0</ele><time>2026-04-12T09:14:41.932Z</time></trkpt><trkpt lat="41.284585" lon="15.18763"><ele>880.0</ele><time>2026-04-12T09:14:42.932Z</time></trkpt><trkpt lat="41.2845167" lon="15.1877117"><ele>878.8</ele><time>2026-04-12T09:14:43.932Z</time></trkpt><trkpt lat="41.2844467" lon="15.1877933"><ele>877.6</ele><time>2026-04-12T09:14:44.932Z</time></trkpt><trkpt lat="41.2843817" lon="15.1878767"><ele>876.4000000000001</ele><time>2026-04-12T09:14:45.932Z</time></trkpt><trkpt lat="41.2843167" lon="15.18797"><ele>875.2</ele><time>2026-04-12T09:14:46.932Z</time></trkpt><trkpt lat="41.2842533" lon="15.18806"><ele>874.0</ele><time>2026-04-12T09:14:47.932Z</time></trkpt><trkpt lat="41.28419" lon="15.18816"><ele>874.4000000000001</ele><time>2026-04-12T09:14:48.932Z</time></trkpt><trkpt lat="41.2841267" lon="15.1882633"><ele>874.8000000000001</ele><time>2026-04-12T09:14:49.932Z</time></trkpt><trkpt lat="41.28406" lon="15.1883683"><ele>875.1999999999999</ele><time>2026-04-12T09:14:50.931Z</time></trkpt><trkpt lat="41.2839933" lon="15.1884783"><ele>875.5999999999999</ele><time>2026-04-12T09:14:51.931Z</time></trkpt><trkpt lat="41.283925" lon="15.188595"><ele>876.0</ele><time>2026-04-12T09:14:52.931Z</time></trkpt><trkpt lat="41.2838533" lon="15.1887117"><ele>875.5</ele><time>2026-04-12T09:14:53.931Z</time></trkpt><trkpt lat="41.2837767" lon="15.1888267"><ele>875.0</ele><time>2026-04-12T09:14:54.932Z</time></trkpt><trkpt lat="41.2836933" lon="15.1889333"><ele>874.5</ele><time>2026-04-12T09:14:55.932Z</time></trkpt><trkpt lat="41.2836083" lon="15.18903"><ele>874.0</ele><time>2026-04-12T09:14:56.932Z</time></trkpt><trkpt lat="41.283525" lon="15.1891267"><ele>874.0</ele><time>2026-04-12T09:14:57.932Z</time></trkpt><trkpt lat="41.2834467" lon="15.1892233"><ele>874.0000000000001</ele><time>2026-04-12T09:14:58.932Z</time></trkpt><trkpt lat="41.2833633" lon="15.1893167"><ele>874.0000000000001</ele><time>2026-04-12T09:14:59.932Z</time></trkpt><trkpt lat="41.28328" lon="15.1894217"><ele>874.0</ele><time>2026-04-12T09:15:00.932Z</time></trkpt><trkpt lat="41.2831967" lon="15.189525"><ele>874.0</ele><time>2026-04-12T09:15:01.932Z</time></trkpt><trkpt lat="41.2831283" lon="15.189625"><ele>872.9999999999999</ele><time>2026-04-12T09:15:02.931Z</time></trkpt><trkpt lat="41.2830667" lon="15.1897183"><ele>872.0</ele><time>2026-04-12T09:15:03.932Z</time></trkpt><trkpt lat="41.283" lon="15.1897917"><ele>871.0</ele><time>2026-04-12T09:15:04.931Z</time></trkpt><trkpt lat="41.2829283" lon="15.18986"><ele>870.0</ele><time>2026-04-12T09:15:05.932Z</time></trkpt><trkpt lat="41.282865" lon="15.1899267"><ele>868.9999999999999</ele><time>2026-04-12T09:15:06.932Z</time></trkpt><trkpt lat="41.2828133" lon="15.190005"><ele>868.0</ele><time>2026-04-12T09:15:07.931Z</time></trkpt><trkpt lat="41.282765" lon="15.1900883"><ele>867.9999999999999</ele><time>2026-04-12T09:15:08.932Z</time></trkpt><trkpt lat="41.2827217" lon="15.1901833"><ele>868.0</ele><time>2026-04-12T09:15:09.932Z</time></trkpt><trkpt lat="41.2826867" lon="15.1902883"><ele>868.0</ele><time>2026-04-12T09:15:10.931Z</time></trkpt><trkpt lat="41.282655" lon="15.1903967"><ele>868.0</ele><time>2026-04-12T09:15:11.932Z</time></trkpt><trkpt lat="41.282625" lon="15.1904967"><ele>867.9999999999999</ele><time>2026-04-12T09:15:12.932Z</time></trkpt><trkpt lat="41.2825917" lon="15.190595"><ele>868.0</ele><time>2026-04-12T09:15:13.932Z</time></trkpt><trkpt lat="41.2825517" lon="15.1906917"><ele>868.0</ele><time>2026-04-12T09:15:14.932Z</time></trkpt><trkpt lat="41.2825" lon="15.1907983"><ele>868.0</ele><time>2026-04-12T09:15:15.931Z</time></trkpt><trkpt lat="41.2824483" lon="15.1909017"><ele>868.0</ele><time>2026-04-12T09:15:16.931Z</time></trkpt><trkpt lat="41.2823883" lon="15.19101"><ele>868.0</ele><time>2026-04-12T09:15:17.932Z</time></trkpt><trkpt lat="41.28233" lon="15.1911167"><ele>868.0</ele><time>2026-04-12T09:15:18.932Z</time></trkpt><trkpt lat="41.2822717" lon="15.1912333"><ele>866.5999999999999</ele><time>2026-04-12T09:15:19.931Z</time></trkpt><trkpt lat="41.2822133" lon="15.1913517"><ele>865.1999999999999</ele><time>2026-04-12T09:15:20.932Z</time></trkpt><trkpt lat="41.282155" lon="15.1914717"><ele>863.8</ele><time>2026-04-12T09:15:21.932Z</time></trkpt><trkpt lat="41.282095" lon="15.1915867"><ele>862.4</ele><time>2026-04-12T09:15:22.932Z</time></trkpt><trkpt lat="41.2820283" lon="15.1917"><ele>861.0</ele><time>2026-04-12T09:15:23.932Z</time></trkpt><trkpt lat="41.2819633" lon="15.1918133"><ele>861.0</ele><time>2026-04-12T09:15:24.931Z</time></trkpt><trkpt lat="41.2818933" lon="15.1919233"><ele>860.9999999999999</ele><time>2026-04-12T09:15:25.932Z</time></trkpt><trkpt lat="41.2818217" lon="15.19203"><ele>860.9999999999999</ele><time>2026-04-12T09:15:26.932Z</time></trkpt><trkpt lat="41.2817533" lon="15.1921333"><ele>861.0</ele><time>2026-04-12T09:15:27.931Z</time></trkpt><trkpt lat="41.281685" lon="15.1922317"><ele>861.0</ele><time>2026-04-12T09:15:28.932Z</time></trkpt><trkpt lat="41.2816117" lon="15.192335"><ele>860.8</ele><time>2026-04-12T09:15:29.932Z</time></trkpt><trkpt lat="41.2815383" lon="15.19244"><ele>860.5999999999999</ele><time>2026-04-12T09:15:30.932Z</time></trkpt><trkpt lat="41.28147" lon="15.19253"><ele>860.4</ele><time>2026-04-12T09:15:31.932Z</time></trkpt><trkpt lat="41.2813983" lon="15.19262"><ele>860.2</ele><time>2026-04-12T09:15:32.932Z</time></trkpt><trkpt lat="41.2813233" lon="15.1927283"><ele>860.0</ele><time>2026-04-12T09:15:33.932Z</time></trkpt><trkpt lat="41.2812483" lon="15.1928417"><ele>860.2</ele><time>2026-04-12T09:15:34.932Z</time></trkpt><trkpt lat="41.281175" lon="15.19296"><ele>860.4</ele><time>2026-04-12T09:15:35.932Z</time></trkpt><trkpt lat="41.2810983" lon="15.19306"><ele>860.5999999999999</ele><time>2026-04-12T09:15:36.932Z</time></trkpt><trkpt lat="41.2810167" lon="15.1931533"><ele>860.8</ele><time>2026-04-12T09:15:37.932Z</time></trkpt><trkpt lat="41.2809367" lon="15.1932367"><ele>861.0</ele><time>2026-04-12T09:15:38.931Z</time></trkpt><trkpt lat="41.2808583" lon="15.1933167"><ele>861.0</ele><time>2026-04-12T09:15:39.931Z</time></trkpt><trkpt lat="41.2807733" lon="15.1933917"><ele>860.9999999999999</ele><time>2026-04-12T09:15:40.932Z</time></trkpt><trkpt lat="41.2806933" lon="15.1934717"><ele>860.9999999999999</ele><time>2026-04-12T09:15:41.932Z</time></trkpt><trkpt lat="41.280605" lon="15.19354"><ele>861.0</ele><time>2026-04-12T09:15:42.932Z</time></trkpt><trkpt lat="41.280515" lon="15.1936117"><ele>861.0</ele><time>2026-04-12T09:15:43.932Z</time></trkpt><trkpt lat="41.2804167" lon="15.1936967"><ele>860.75</ele><time>2026-04-12T09:15:44.932Z</time></trkpt><trkpt lat="41.28031" lon="15.19378"><ele>860.5</ele><time>2026-04-12T09:15:45.932Z</time></trkpt><trkpt lat="41.28021" lon="15.1938683"><ele>860.25</ele><time>2026-04-12T09:15:46.931Z</time></trkpt><trkpt lat="41.2801067" lon="15.193955"><ele>860.0</ele><time>2026-04-12T09:15:47.931Z</time></trkpt><trkpt lat="41.2800083" lon="15.1940433"><ele>860.0</ele><time>2026-04-12T09:15:48.931Z</time></trkpt><trkpt lat="41.2799067" lon="15.194125"><ele>860.0</ele><time>2026-04-12T09:15:49.931Z</time></trkpt><trkpt lat="41.279805" lon="15.1942217"><ele>860.0</ele><time>2026-04-12T09:15:50.932Z</time></trkpt><trkpt lat="41.2797" lon="15.1943083"><ele>860.0</ele><time>2026-04-12T09:15:51.931Z</time></trkpt><trkpt lat="41.2796" lon="15.194395"><ele>860.75</ele><time>2026-04-12T09:15:52.932Z</time></trkpt><trkpt lat="41.2795" lon="15.1944833"><ele>861.5</ele><time>2026-04-12T09:15:53.932Z</time></trkpt><trkpt lat="41.2794033" lon="15.1945667"><ele>862.25</ele><time>2026-04-12T09:15:54.931Z</time></trkpt><trkpt lat="41.2793083" lon="15.1946667"><ele>863.0</ele><time>2026-04-12T09:15:55.932Z</time></trkpt><trkpt lat="41.2792133" lon="15.19475"><ele>863.0</ele><time>2026-04-12T09:15:56.931Z</time></trkpt><trkpt lat="41.2791417" lon="15.1948333"><ele>863.0</ele><time>2026-04-12T09:15:57.932Z</time></trkpt><trkpt lat="41.279085" lon="15.1949283"><ele>863.0</ele><time>2026-04-12T09:15:58.932Z</time></trkpt><trkpt lat="41.2790317" lon="15.195035"><ele>863.0</ele><time>2026-04-12T09:15:59.932Z</time></trkpt><trkpt lat="41.27899" lon="15.19516"><ele>863.0</ele><time>2026-04-12T09:16:00.932Z</time></trkpt><trkpt lat="41.2789583" lon="15.1952783"><ele>863.0</ele><time>2026-04-12T09:16:01.932Z</time></trkpt><trkpt lat="41.2789333" lon="15.1954017"><ele>863.0</ele><time>2026-04-12T09:16:02.932Z</time></trkpt><trkpt lat="41.27892" lon="15.19553"><ele>863.0</ele><time>2026-04-12T09:16:03.931Z</time></trkpt><trkpt lat="41.2789133" lon="15.1956583"><ele>863.0</ele><time>2026-04-12T09:16:04.932Z</time></trkpt><trkpt lat="41.2789133" lon="15.195785"><ele>863.0</ele><time>2026-04-12T09:16:05.932Z</time></trkpt><trkpt lat="41.2789033" lon="15.1959117"><ele>863.4</ele><time>2026-04-12T09:16:06.931Z</time></trkpt><trkpt lat="41.27889" lon="15.196045"><ele>863.8</ele><time>2026-04-12T09:16:07.932Z</time></trkpt><trkpt lat="41.2788717" lon="15.19618"><ele>864.2</ele><time>2026-04-12T09:16:08.932Z</time></trkpt><trkpt lat="41.2788617" lon="15.1963217"><ele>864.6</ele><time>2026-04-12T09:16:09.932Z</time></trkpt><trkpt lat="41.2788467" lon="15.1964583"><ele>865.0</ele><time>2026-04-12T09:16:10.932Z</time></trkpt><trkpt lat="41.2788283" lon="15.1965867"><ele>865.0</ele><time>2026-04-12T09:16:11.932Z</time></trkpt><trkpt lat="41.2788" lon="15.1967133"><ele>865.0</ele><time>2026-04-12T09:16:12.932Z</time></trkpt><trkpt lat="41.2787667" lon="15.19684"><ele>865.0</ele><time>2026-04-12T09:16:13.932Z</time></trkpt><trkpt lat="41.27874" lon="15.19697"><ele>865.0</ele><time>2026-04-12T09:16:14.931Z</time></trkpt><trkpt lat="41.2787217" lon="15.1971033"><ele>865.0</ele><time>2026-04-12T09:16:15.932Z</time></trkpt><trkpt lat="41.2787067" lon="15.197245"><ele>867.8</ele><time>2026-04-12T09:16:16.932Z</time></trkpt><trkpt lat="41.278695" lon="15.1973933"><ele>870.6</ele><time>2026-04-12T09:16:17.932Z</time></trkpt><trkpt lat="41.2786933" lon="15.1975333"><ele>873.4000000000001</ele><time>2026-04-12T09:16:18.932Z</time></trkpt><trkpt lat="41.278705" lon="15.1976717"><ele>876.2</ele><time>2026-04-12T09:16:19.931Z</time></trkpt><trkpt lat="41.27872" lon="15.1978117"><ele>879.0</ele><time>2026-04-12T09:16:20.931Z</time></trkpt><trkpt lat="41.27875" lon="15.1979517"><ele>879.0</ele><time>2026-04-12T09:16:21.931Z</time></trkpt><trkpt lat="41.278795" lon="15.19809"><ele>879.0000000000001</ele><time>2026-04-12T09:16:22.932Z</time></trkpt><trkpt lat="41.2788417" lon="15.1982217"><ele>879.0000000000001</ele><time>2026-04-12T09:16:23.931Z</time></trkpt><trkpt lat="41.2789017" lon="15.1983567"><ele>879.0</ele><time>2026-04-12T09:16:24.932Z</time></trkpt><trkpt lat="41.278955" lon="15.1984817"><ele>879.0</ele><time>2026-04-12T09:16:25.931Z</time></trkpt><trkpt lat="41.2790033" lon="15.1986"><ele>880.8000000000001</ele><time>2026-04-12T09:16:26.932Z</time></trkpt><trkpt lat="41.27905" lon="15.1987017"><ele>882.6000000000001</ele><time>2026-04-12T09:16:27.932Z</time></trkpt><trkpt lat="41.2790767" lon="15.19882"><ele>884.4</ele><time>2026-04-12T09:16:28.931Z</time></trkpt><trkpt lat="41.2791033" lon="15.1989433"><ele>886.2</ele><time>2026-04-12T09:16:29.931Z</time></trkpt><trkpt lat="41.2791267" lon="15.1990883"><ele>888.0</ele><time>2026-04-12T09:16:30.932Z</time></trkpt><trkpt lat="41.27915" lon="15.19921"><ele>890.1666666666666</ele><time>2026-04-12T09:16:31.931Z</time></trkpt><trkpt lat="41.279165" lon="15.1993267"><ele>892.3333333333333</ele><time>2026-04-12T09:16:32.931Z</time></trkpt><trkpt lat="41.2791817" lon="15.1994367"><ele>894.5</ele><time>2026-04-12T09:16:33.932Z</time></trkpt><trkpt lat="41.2791783" lon="15.1995383"><ele>896.6666666666666</ele><time>2026-04-12T09:16:34.932Z</time></trkpt><trkpt lat="41.279175" lon="15.19964"><ele>898.8333333333333</ele><time>2026-04-12T09:16:35.931Z</time></trkpt><trkpt lat="41.2791683" lon="15.1997433"><ele>901.0</ele><time>2026-04-12T09:16:36.931Z</time></trkpt><trkpt lat="41.2791733" lon="15.1998533"><ele>901.4</ele><time>2026-04-12T09:16:37.932Z</time></trkpt><trkpt lat="41.2791783" lon="15.199975"><ele>901.8</ele><time>2026-04-12T09:16:38.931Z</time></trkpt><trkpt lat="41.2791817" lon="15.2001"><ele>902.1999999999999</ele><time>2026-04-12T09:16:39.931Z</time></trkpt><trkpt lat="41.279175" lon="15.2002217"><ele>902.5999999999999</ele><time>2026-04-12T09:16:40.931Z</time></trkpt><trkpt lat="41.27917" lon="15.2003467"><ele>903.0</ele><time>2026-04-12T09:16:41.932Z</time></trkpt><trkpt lat="41.2791633" lon="15.20047"><ele>903.0</ele><time>2026-04-12T09:16:42.932Z</time></trkpt><trkpt lat="41.2791517" lon="15.2005933"><ele>903.0</ele><time>2026-04-12T09:16:43.932Z</time></trkpt><trkpt lat="41.2791383" lon="15.2007117"><ele>903.0</ele><time>2026-04-12T09:16:44.932Z</time></trkpt><trkpt lat="41.2791333" lon="15.200825"><ele>903.0</ele><time>2026-04-12T09:16:45.932Z</time></trkpt><trkpt lat="41.2791233" lon="15.200935"><ele>903.0</ele><time>2026-04-12T09:16:46.931Z</time></trkpt><trkpt lat="41.2791167" lon="15.20104"><ele>903.0</ele><time>2026-04-12T09:16:47.932Z</time></trkpt><trkpt lat="41.2791067" lon="15.201145"><ele>902.5999999999999</ele><time>2026-04-12T09:16:48.931Z</time></trkpt><trkpt lat="41.279095" lon="15.2012533"><ele>902.1999999999999</ele><time>2026-04-12T09:16:49.932Z</time></trkpt><trkpt lat="41.2790883" lon="15.201345"><ele>901.8</ele><time>2026-04-12T09:16:50.931Z</time></trkpt><trkpt lat="41.2790733" lon="15.2015117"><ele>901.4</ele><time>2026-04-12T09:16:52.932Z</time></trkpt><trkpt lat="41.2790517" lon="15.2016633"><ele>901.0</ele><time>2026-04-12T09:16:54.932Z</time></trkpt><trkpt lat="41.2790183" lon="15.20179"><ele>900.4</ele><time>2026-04-12T09:16:56.932Z</time></trkpt><trkpt lat="41.2789767" lon="15.2019267"><ele>899.8</ele><time>2026-04-12T09:16:58.932Z</time></trkpt><trkpt lat="41.278935" lon="15.2020433"><ele>899.1999999999999</ele><time>2026-04-12T09:17:00.932Z</time></trkpt><trkpt lat="41.2788983" lon="15.2021633"><ele>898.5999999999999</ele><time>2026-04-12T09:17:02.931Z</time></trkpt><trkpt lat="41.278835" lon="15.2023133"><ele>898.0</ele><time>2026-04-12T09:17:04.932Z</time></trkpt><trkpt lat="41.2787933" lon="15.20239"><ele>898.0</ele><time>2026-04-12T09:17:05.932Z</time></trkpt><trkpt lat="41.278745" lon="15.202465"><ele>897.9999999999999</ele><time>2026-04-12T09:17:06.931Z</time></trkpt><trkpt lat="41.2786967" lon="15.2025483"><ele>898.0</ele><time>2026-04-12T09:17:07.931Z</time></trkpt><trkpt lat="41.278645" lon="15.20262"><ele>898.0</ele><time>2026-04-12T09:17:08.932Z</time></trkpt><trkpt lat="41.278595" lon="15.20269"><ele>897.9999999999999</ele><time>2026-04-12T09:17:09.931Z</time></trkpt><trkpt lat="41.2785433" lon="15.2027617"><ele>898.0</ele><time>2026-04-12T09:17:10.931Z</time></trkpt><trkpt lat="41.2784917" lon="15.20283"><ele>898.0</ele><time>2026-04-12T09:17:11.932Z</time></trkpt><trkpt lat="41.27844" lon="15.2029"><ele>897.9999999999999</ele><time>2026-04-12T09:17:12.931Z</time></trkpt><trkpt lat="41.27839" lon="15.2029867"><ele>898.0</ele><time>2026-04-12T09:17:13.931Z</time></trkpt><trkpt lat="41.2783417" lon="15.2030767"><ele>898.0</ele><time>2026-04-12T09:17:14.932Z</time></trkpt><trkpt lat="41.278295" lon="15.203165"><ele>898.0</ele><time>2026-04-12T09:17:15.932Z</time></trkpt><trkpt lat="41.2782433" lon="15.2032483"><ele>897.9999999999999</ele><time>2026-04-12T09:17:16.932Z</time></trkpt><trkpt lat="41.27819" lon="15.2033267"><ele>898.0</ele><time>2026-04-12T09:17:17.932Z</time></trkpt><trkpt lat="41.2781317" lon="15.203405"><ele>896.2</ele><time>2026-04-12T09:17:18.932Z</time></trkpt><trkpt lat="41.27807" lon="15.2034733"><ele>894.4</ele><time>2026-04-12T09:17:19.932Z</time></trkpt><trkpt lat="41.2780183" lon="15.20354"><ele>892.6000000000001</ele><time>2026-04-12T09:17:20.932Z</time></trkpt><trkpt lat="41.2779433" lon="15.20367"><ele>890.8000000000001</ele><time>2026-04-12T09:17:22.932Z</time></trkpt><trkpt lat="41.2778717" lon="15.2038"><ele>889.0</ele><time>2026-04-12T09:17:24.931Z</time></trkpt><trkpt lat="41.2778167" lon="15.203925"><ele>886.3333333333333</ele><time>2026-04-12T09:17:26.932Z</time></trkpt><trkpt lat="41.2777667" lon="15.2040667"><ele>883.6666666666666</ele><time>2026-04-12T09:17:28.932Z</time></trkpt><trkpt lat="41.2777167" lon="15.2042133"><ele>881.0</ele><time>2026-04-12T09:17:30.932Z</time></trkpt><trkpt lat="41.277695" lon="15.2042933"><ele>878.3333333333333</ele><time>2026-04-12T09:17:31.931Z</time></trkpt><trkpt lat="41.2776733" lon="15.2043817"><ele>875.6666666666666</ele><time>2026-04-12T09:17:32.931Z</time></trkpt><trkpt lat="41.2776533" lon="15.2044733"><ele>873.0</ele><time>2026-04-12T09:17:33.932Z</time></trkpt><trkpt lat="41.27763" lon="15.204575"><ele>873.0</ele><time>2026-04-12T09:17:34.931Z</time></trkpt><trkpt lat="41.277605" lon="15.204675"><ele>873.0</ele><time>2026-04-12T09:17:35.932Z</time></trkpt><trkpt lat="41.27758" lon="15.2047783"><ele>873.0</ele><time>2026-04-12T09:17:36.932Z</time></trkpt><trkpt lat="41.277565" lon="15.2048667"><ele>873.0</ele><time>2026-04-12T09:17:37.932Z</time></trkpt><trkpt lat="41.2775467" lon="15.20495"><ele>873.0</ele><time>2026-04-12T09:17:38.932Z</time></trkpt><trkpt lat="41.2775167" lon="15.205025"><ele>873.0</ele><time>2026-04-12T09:17:39.932Z</time></trkpt><trkpt lat="41.2774383" lon="15.2051533"><ele>871.8333333333334</ele><time>2026-04-12T09:17:41.931Z</time></trkpt><trkpt lat="41.2773983" lon="15.2052183"><ele>870.6666666666667</ele><time>2026-04-12T09:17:42.931Z</time></trkpt><trkpt lat="41.277335" lon="15.2053633"><ele>869.5</ele><time>2026-04-12T09:17:44.931Z</time></trkpt><trkpt lat="41.2773" lon="15.20545"><ele>868.3333333333334</ele><time>2026-04-12T09:17:45.932Z</time></trkpt><trkpt lat="41.2772633" lon="15.2055433"><ele>867.1666666666667</ele><time>2026-04-12T09:17:46.932Z</time></trkpt><trkpt lat="41.277225" lon="15.2056433"><ele>866.0</ele><time>2026-04-12T09:17:47.932Z</time></trkpt><trkpt lat="41.277185" lon="15.205745"><ele>865.0000000000001</ele><time>2026-04-12T09:17:48.932Z</time></trkpt><trkpt lat="41.2771467" lon="15.2058383"><ele>864.0</ele><time>2026-04-12T09:17:49.931Z</time></trkpt><trkpt lat="41.2771017" lon="15.2059233"><ele>863.0</ele><time>2026-04-12T09:17:50.932Z</time></trkpt><trkpt lat="41.2770567" lon="15.2060133"><ele>862.0</ele><time>2026-04-12T09:17:51.932Z</time></trkpt><trkpt lat="41.277015" lon="15.2061117"><ele>861.0000000000001</ele><time>2026-04-12T09:17:52.931Z</time></trkpt><trkpt lat="41.2769867" lon="15.206225"><ele>860.0</ele><time>2026-04-12T09:17:53.932Z</time></trkpt><trkpt lat="41.2769617" lon="15.2063617"><ele>859.0</ele><time>2026-04-12T09:17:54.932Z</time></trkpt><trkpt lat="41.2769483" lon="15.206505"><ele>858.0</ele><time>2026-04-12T09:17:55.932Z</time></trkpt><trkpt lat="41.2769517" lon="15.2066383"><ele>857.0</ele><time>2026-04-12T09:17:56.932Z</time></trkpt><trkpt lat="41.2769517" lon="15.2067717"><ele>856.0</ele><time>2026-04-12T09:17:57.931Z</time></trkpt><trkpt lat="41.2769467" lon="15.206915"><ele>855.0</ele><time>2026-04-12T09:17:58.932Z</time></trkpt><trkpt lat="41.2769383" lon="15.2070667"><ele>855.0</ele><time>2026-04-12T09:17:59.932Z</time></trkpt><trkpt lat="41.2769267" lon="15.2072017"><ele>855.0</ele><time>2026-04-12T09:18:00.932Z</time></trkpt><trkpt lat="41.2769183" lon="15.2073417"><ele>855.0</ele><time>2026-04-12T09:18:01.932Z</time></trkpt><trkpt lat="41.2769217" lon="15.20746"><ele>855.0</ele><time>2026-04-12T09:18:02.932Z</time></trkpt><trkpt lat="41.2769333" lon="15.2075667"><ele>855.0</ele><time>2026-04-12T09:18:03.932Z</time></trkpt><trkpt lat="41.2769583" lon="15.2076633"><ele>854.4285714285714</ele><time>2026-04-12T09:18:04.932Z</time></trkpt><trkpt lat="41.2769933" lon="15.2077433"><ele>853.8571428571428</ele><time>2026-04-12T09:18:05.932Z</time></trkpt><trkpt lat="41.277045" lon="15.207805"><ele>853.2857142857142</ele><time>2026-04-12T09:18:06.932Z</time></trkpt><trkpt lat="41.2771033" lon="15.20785"><ele>852.7142857142858</ele><time>2026-04-12T09:18:07.932Z</time></trkpt><trkpt lat="41.2771633" lon="15.2078833"><ele>852.1428571428571</ele><time>2026-04-12T09:18:08.932Z</time></trkpt><trkpt lat="41.2772383" lon="15.207905"><ele>851.5714285714286</ele><time>2026-04-12T09:18:09.932Z</time></trkpt><trkpt lat="41.2773217" lon="15.207925"><ele>851.0</ele><time>2026-04-12T09:18:10.931Z</time></trkpt><trkpt lat="41.2773983" lon="15.2079483"><ele>850.4</ele><time>2026-04-12T09:18:11.932Z</time></trkpt><trkpt lat="41.2774717" lon="15.2079717"><ele>849.8</ele><time>2026-04-12T09:18:12.932Z</time></trkpt><trkpt lat="41.277575" lon="15.2080017"><ele>849.1999999999999</ele><time>2026-04-12T09:18:14.932Z</time></trkpt><trkpt lat="41.2776583" lon="15.2080517"><ele>848.5999999999999</ele><time>2026-04-12T09:18:16.932Z</time></trkpt><trkpt lat="41.2777267" lon="15.2081483"><ele>848.0</ele><time>2026-04-12T09:18:18.932Z</time></trkpt><trkpt lat="41.27778" lon="15.2083133"><ele>848.0000000000001</ele><time>2026-04-12T09:18:20.931Z</time></trkpt><trkpt lat="41.2777933" lon="15.2084167"><ele>848.0</ele><time>2026-04-12T09:18:21.932Z</time></trkpt><trkpt lat="41.277795" lon="15.208525"><ele>848.0</ele><time>2026-04-12T09:18:22.932Z</time></trkpt><trkpt lat="41.2777933" lon="15.2086333"><ele>848.0</ele><time>2026-04-12T09:18:23.932Z</time></trkpt><trkpt lat="41.2777867" lon="15.2087567"><ele>848.0000000000001</ele><time>2026-04-12T09:18:24.932Z</time></trkpt><trkpt lat="41.2777783" lon="15.2088717"><ele>848.0</ele><time>2026-04-12T09:18:25.931Z</time></trkpt><trkpt lat="41.2777783" lon="15.2090017"><ele>848.0</ele><time>2026-04-12T09:18:26.931Z</time></trkpt><trkpt lat="41.2777767" lon="15.20912"><ele>848.0</ele><time>2026-04-12T09:18:27.931Z</time></trkpt><trkpt lat="41.2777817" lon="15.2092233"><ele>848.0</ele><time>2026-04-12T09:18:28.932Z</time></trkpt><trkpt lat="41.2777817" lon="15.20931"><ele>848.0</ele><time>2026-04-12T09:18:29.931Z</time></trkpt><trkpt lat="41.27777" lon="15.2094583"><ele>848.0</ele><time>2026-04-12T09:18:31.932Z</time></trkpt><trkpt lat="41.2777517" lon="15.2096133"><ele>848.0</ele><time>2026-04-12T09:18:33.932Z</time></trkpt><trkpt lat="41.2777267" lon="15.20977"><ele>848.0</ele><time>2026-04-12T09:18:35.932Z</time></trkpt><trkpt lat="41.2777017" lon="15.2099283"><ele>848.0</ele><time>2026-04-12T09:18:37.932Z</time></trkpt><trkpt lat="41.2776833" lon="15.21009"><ele>848.0</ele><time>2026-04-12T09:18:39.932Z</time></trkpt><trkpt lat="41.2776833" lon="15.2101767"><ele>848.0</ele><time>2026-04-12T09:18:40.931Z</time></trkpt><trkpt lat="41.2776817" lon="15.2102617"><ele>847.1666666666667</ele><time>2026-04-12T09:18:41.931Z</time></trkpt><trkpt lat="41.277695" lon="15.21035"><ele>846.3333333333334</ele><time>2026-04-12T09:18:42.932Z</time></trkpt><trkpt lat="41.2777167" lon="15.2104533"><ele>845.5</ele><time>2026-04-12T09:18:43.932Z</time></trkpt><trkpt lat="41.277735" lon="15.2105633"><ele>844.6666666666667</ele><time>2026-04-12T09:18:44.931Z</time></trkpt><trkpt lat="41.27775" lon="15.2106783"><ele>843.8333333333334</ele><time>2026-04-12T09:18:45.932Z</time></trkpt><trkpt lat="41.2777633" lon="15.2107933"><ele>843.0</ele><time>2026-04-12T09:18:46.931Z</time></trkpt><trkpt lat="41.2777733" lon="15.2109167"><ele>842.0</ele><time>2026-04-12T09:18:47.932Z</time></trkpt><trkpt lat="41.2777767" lon="15.21105"><ele>841.0</ele><time>2026-04-12T09:18:48.932Z</time></trkpt><trkpt lat="41.2777767" lon="15.2111917"><ele>840.0</ele><time>2026-04-12T09:18:49.932Z</time></trkpt><trkpt lat="41.2777733" lon="15.2113483"><ele>839.0</ele><time>2026-04-12T09:18:50.932Z</time></trkpt><trkpt lat="41.2777633" lon="15.2115183"><ele>839.0</ele><time>2026-04-12T09:18:51.932Z</time></trkpt><trkpt lat="41.27775" lon="15.2116933"><ele>839.0</ele><time>2026-04-12T09:18:52.932Z</time></trkpt><trkpt lat="41.277735" lon="15.2118633"><ele>839.0</ele><time>2026-04-12T09:18:53.932Z</time></trkpt><trkpt lat="41.2777283" lon="15.21203"><ele>839.0</ele><time>2026-04-12T09:18:54.932Z</time></trkpt><trkpt lat="41.2777217" lon="15.2121983"><ele>839.5</ele><time>2026-04-12T09:18:55.932Z</time></trkpt><trkpt lat="41.27771" lon="15.2123567"><ele>840.0</ele><time>2026-04-12T09:18:56.932Z</time></trkpt><trkpt lat="41.277695" lon="15.2125233"><ele>840.5</ele><time>2026-04-12T09:18:57.931Z</time></trkpt><trkpt lat="41.277675" lon="15.212685"><ele>841.0</ele><time>2026-04-12T09:18:58.931Z</time></trkpt><trkpt lat="41.27766" lon="15.2128383"><ele>841.0</ele><time>2026-04-12T09:18:59.932Z</time></trkpt><trkpt lat="41.277645" lon="15.2129717"><ele>841.0</ele><time>2026-04-12T09:19:00.931Z</time></trkpt><trkpt lat="41.27763" lon="15.2131017"><ele>841.0</ele><time>2026-04-12T09:19:01.932Z</time></trkpt><trkpt lat="41.27761" lon="15.2132417"><ele>841.0</ele><time>2026-04-12T09:19:02.931Z</time></trkpt><trkpt lat="41.2775817" lon="15.2133767"><ele>841.0</ele><time>2026-04-12T09:19:03.932Z</time></trkpt><trkpt lat="41.2775483" lon="15.21351"><ele>840.5999999999999</ele><time>2026-04-12T09:19:04.931Z</time></trkpt><trkpt lat="41.2775067" lon="15.2136367"><ele>840.2</ele><time>2026-04-12T09:19:05.932Z</time></trkpt><trkpt lat="41.27746" lon="15.2137667"><ele>839.8</ele><time>2026-04-12T09:19:06.932Z</time></trkpt><trkpt lat="41.2774083" lon="15.2139017"><ele>839.4000000000001</ele><time>2026-04-12T09:19:07.931Z</time></trkpt><trkpt lat="41.277355" lon="15.2140433"><ele>839.0</ele><time>2026-04-12T09:19:08.932Z</time></trkpt><trkpt lat="41.2772967" lon="15.2141917"><ele>839.25</ele><time>2026-04-12T09:19:09.931Z</time></trkpt><trkpt lat="41.2772383" lon="15.2143517"><ele>839.5</ele><time>2026-04-12T09:19:10.932Z</time></trkpt><trkpt lat="41.27718" lon="15.2145067"><ele>839.75</ele><time>2026-04-12T09:19:11.931Z</time></trkpt><trkpt lat="41.277125" lon="15.2146617"><ele>840.0</ele><time>2026-04-12T09:19:12.932Z</time></trkpt><trkpt lat="41.2770783" lon="15.2148183"><ele>841.0</ele><time>2026-04-12T09:19:13.931Z</time></trkpt><trkpt lat="41.2770283" lon="15.2149867"><ele>842.0</ele><time>2026-04-12T09:19:14.932Z</time></trkpt><trkpt lat="41.27698" lon="15.2151583"><ele>843.0</ele><time>2026-04-12T09:19:15.932Z</time></trkpt><trkpt lat="41.2769267" lon="15.2153233"><ele>844.0</ele><time>2026-04-12T09:19:16.931Z</time></trkpt><trkpt lat="41.2768717" lon="15.215485"><ele>844.0</ele><time>2026-04-12T09:19:17.932Z</time></trkpt><trkpt lat="41.2768167" lon="15.2156383"><ele>844.0</ele><time>2026-04-12T09:19:18.932Z</time></trkpt><trkpt lat="41.2767567" lon="15.2157867"><ele>844.0</ele><time>2026-04-12T09:19:19.932Z</time></trkpt><trkpt lat="41.2766967" lon="15.2159267"><ele>844.0</ele><time>2026-04-12T09:19:20.932Z</time></trkpt><trkpt lat="41.276635" lon="15.216065"><ele>845.0</ele><time>2026-04-12T09:19:21.932Z</time></trkpt><trkpt lat="41.2765733" lon="15.21622"><ele>846.0</ele><time>2026-04-12T09:19:22.931Z</time></trkpt><trkpt lat="41.27652" lon="15.2163767"><ele>847.0</ele><time>2026-04-12T09:19:23.931Z</time></trkpt><trkpt lat="41.276465" lon="15.2165217"><ele>848.0</ele><time>2026-04-12T09:19:24.932Z</time></trkpt><trkpt lat="41.2764133" lon="15.2166483"><ele>851.0</ele><time>2026-04-12T09:19:25.932Z</time></trkpt><trkpt lat="41.2763567" lon="15.2167783"><ele>854.0</ele><time>2026-04-12T09:19:26.932Z</time></trkpt><trkpt lat="41.276295" lon="15.21691"><ele>857.0</ele><time>2026-04-12T09:19:27.932Z</time></trkpt><trkpt lat="41.2762317" lon="15.2170517"><ele>860.0</ele><time>2026-04-12T09:19:28.931Z</time></trkpt><trkpt lat="41.2761667" lon="15.2172033"><ele>861.3333333333334</ele><time>2026-04-12T09:19:29.932Z</time></trkpt><trkpt lat="41.276095" lon="15.2173717"><ele>862.6666666666667</ele><time>2026-04-12T09:19:30.932Z</time></trkpt><trkpt lat="41.2760183" lon="15.2175567"><ele>864.0</ele><time>2026-04-12T09:19:31.932Z</time></trkpt><trkpt lat="41.2759367" lon="15.2177433"><ele>864.0</ele><time>2026-04-12T09:19:32.931Z</time></trkpt><trkpt lat="41.2758683" lon="15.2179083"><ele>864.0</ele><time>2026-04-12T09:19:33.932Z</time></trkpt><trkpt lat="41.275805" lon="15.2180683"><ele>864.0</ele><time>2026-04-12T09:19:34.932Z</time></trkpt><trkpt lat="41.275735" lon="15.2182267"><ele>864.0</ele><time>2026-04-12T09:19:35.931Z</time></trkpt><trkpt lat="41.27567" lon="15.2183733"><ele>864.5</ele><time>2026-04-12T09:19:36.931Z</time></trkpt><trkpt lat="41.27561" lon="15.2185117"><ele>865.0</ele><time>2026-04-12T09:19:37.932Z</time></trkpt><trkpt lat="41.2755517" lon="15.2186483"><ele>865.5</ele><time>2026-04-12T09:19:38.932Z</time></trkpt><trkpt lat="41.2754933" lon="15.2187817"><ele>866.0</ele><time>2026-04-12T09:19:39.932Z</time></trkpt><trkpt lat="41.2754383" lon="15.218915"><ele>866.4</ele><time>2026-04-12T09:19:40.931Z</time></trkpt><trkpt lat="41.2753883" lon="15.2190317"><ele>866.8</ele><time>2026-04-12T09:19:41.932Z</time></trkpt><trkpt lat="41.2753467" lon="15.2191333"><ele>867.1999999999999</ele><time>2026-04-12T09:19:42.932Z</time></trkpt><trkpt lat="41.2753017" lon="15.2191933"><ele>867.5999999999999</ele><time>2026-04-12T09:19:43.931Z</time></trkpt><trkpt lat="41.2752033" lon="15.2192533"><ele>868.0</ele><time>2026-04-12T09:19:45.932Z</time></trkpt><trkpt lat="41.2750967" lon="15.2192517"><ele>867.9999999999999</ele><time>2026-04-12T09:19:47.932Z</time></trkpt><trkpt lat="41.2750017" lon="15.2192367"><ele>868.0</ele><time>2026-04-12T09:19:49.932Z</time></trkpt><trkpt lat="41.2749217" lon="15.2192867"><ele>868.0</ele><time>2026-04-12T09:19:51.932Z</time></trkpt><trkpt lat="41.2748767" lon="15.2194033"><ele>868.0</ele><time>2026-04-12T09:19:53.931Z</time></trkpt><trkpt lat="41.274865" lon="15.21949"><ele>867.9999999999999</ele><time>2026-04-12T09:19:54.931Z</time></trkpt><trkpt lat="41.2748467" lon="15.2195933"><ele>868.0</ele><time>2026-04-12T09:19:55.932Z</time></trkpt><trkpt lat="41.2748317" lon="15.2197083"><ele>867.9999999999999</ele><time>2026-04-12T09:19:56.932Z</time></trkpt><trkpt lat="41.2748133" lon="15.21983"><ele>868.0</ele><time>2026-04-12T09:19:57.931Z</time></trkpt><trkpt lat="41.2747983" lon="15.2199433"><ele>868.0</ele><time>2026-04-12T09:19:58.932Z</time></trkpt><trkpt lat="41.2747917" lon="15.2200567"><ele>868.0</ele><time>2026-04-12T09:19:59.932Z</time></trkpt><trkpt lat="41.274785" lon="15.2201783"><ele>867.9999999999999</ele><time>2026-04-12T09:20:00.932Z</time></trkpt><trkpt lat="41.2747733" lon="15.2203"><ele>868.0</ele><time>2026-04-12T09:20:01.932Z</time></trkpt><trkpt lat="41.2747533" lon="15.2204183"><ele>867.0</ele><time>2026-04-12T09:20:02.932Z</time></trkpt><trkpt lat="41.2747217" lon="15.220535"><ele>866.0</ele><time>2026-04-12T09:20:03.931Z</time></trkpt><trkpt lat="41.2746733" lon="15.2206467"><ele>865.0</ele><time>2026-04-12T09:20:04.931Z</time></trkpt><trkpt lat="41.2746183" lon="15.220755"><ele>864.0</ele><time>2026-04-12T09:20:05.931Z</time></trkpt><trkpt lat="41.2745617" lon="15.2208733"><ele>863.0</ele><time>2026-04-12T09:20:06.931Z</time></trkpt><trkpt lat="41.274495" lon="15.220985"><ele>863.0</ele><time>2026-04-12T09:20:07.931Z</time></trkpt><trkpt lat="41.27443" lon="15.221095"><ele>863.0</ele><time>2026-04-12T09:20:08.931Z</time></trkpt><trkpt lat="41.2743617" lon="15.2212017"><ele>863.0</ele><time>2026-04-12T09:20:09.932Z</time></trkpt><trkpt lat="41.27429" lon="15.2213067"><ele>863.0</ele><time>2026-04-12T09:20:10.931Z</time></trkpt><trkpt lat="41.2742233" lon="15.2214117"><ele>863.0</ele><time>2026-04-12T09:20:11.931Z</time></trkpt><trkpt lat="41.2741633" lon="15.22152"><ele>863.0</ele><time>2026-04-12T09:20:12.932Z</time></trkpt><trkpt lat="41.2741117" lon="15.2216367"><ele>863.0</ele><time>2026-04-12T09:20:13.931Z</time></trkpt><trkpt lat="41.27407" lon="15.2217667"><ele>863.0</ele><time>2026-04-12T09:20:14.932Z</time></trkpt><trkpt lat="41.2740283" lon="15.2219017"><ele>863.0</ele><time>2026-04-12T09:20:15.932Z</time></trkpt><trkpt lat="41.2739833" lon="15.2220417"><ele>863.0</ele><time>2026-04-12T09:20:16.931Z</time></trkpt><trkpt lat="41.273935" lon="15.2221783"><ele>863.0</ele><time>2026-04-12T09:20:17.932Z</time></trkpt><trkpt lat="41.2738833" lon="15.2223083"><ele>863.0</ele><time>2026-04-12T09:20:18.932Z</time></trkpt><trkpt lat="41.2738417" lon="15.22244"><ele>863.0</ele><time>2026-04-12T09:20:19.932Z</time></trkpt><trkpt lat="41.2738033" lon="15.2225733"><ele>863.0</ele><time>2026-04-12T09:20:20.932Z</time></trkpt><trkpt lat="41.2737617" lon="15.2227033"><ele>863.0</ele><time>2026-04-12T09:20:21.932Z</time></trkpt><trkpt lat="41.273725" lon="15.2228483"><ele>863.25</ele><time>2026-04-12T09:20:22.931Z</time></trkpt><trkpt lat="41.2736883" lon="15.22299"><ele>863.5</ele><time>2026-04-12T09:20:23.932Z</time></trkpt><trkpt lat="41.2736517" lon="15.2231317"><ele>863.75</ele><time>2026-04-12T09:20:24.932Z</time></trkpt><trkpt lat="41.2736133" lon="15.22327"><ele>864.0</ele><time>2026-04-12T09:20:25.931Z</time></trkpt><trkpt lat="41.2735733" lon="15.2234117"><ele>864.25</ele><time>2026-04-12T09:20:26.931Z</time></trkpt><trkpt lat="41.27353" lon="15.2235533"><ele>864.5</ele><time>2026-04-12T09:20:27.931Z</time></trkpt><trkpt lat="41.2734833" lon="15.2236967"><ele>864.75</ele><time>2026-04-12T09:20:28.932Z</time></trkpt><trkpt lat="41.27344" lon="15.2238417"><ele>865.0</ele><time>2026-04-12T09:20:29.931Z</time></trkpt><trkpt lat="41.2733933" lon="15.2239833"><ele>865.5</ele><time>2026-04-12T09:20:30.932Z</time></trkpt><trkpt lat="41.27334" lon="15.2241333"><ele>866.0</ele><time>2026-04-12T09:20:31.932Z</time></trkpt><trkpt lat="41.2732783" lon="15.2242867"><ele>866.5</ele><time>2026-04-12T09:20:32.932Z</time></trkpt><trkpt lat="41.2732233" lon="15.2244417"><ele>867.0</ele><time>2026-04-12T09:20:33.931Z</time></trkpt><trkpt lat="41.2731667" lon="15.224595"><ele>867.0</ele><time>2026-04-12T09:20:34.931Z</time></trkpt><trkpt lat="41.2731167" lon="15.2247417"><ele>867.0</ele><time>2026-04-12T09:20:35.932Z</time></trkpt><trkpt lat="41.273075" lon="15.2248867"><ele>867.0</ele><time>2026-04-12T09:20:36.932Z</time></trkpt><trkpt lat="41.2730433" lon="15.2250417"><ele>867.0</ele><time>2026-04-12T09:20:37.932Z</time></trkpt><trkpt lat="41.2730117" lon="15.2252033"><ele>869.25</ele><time>2026-04-12T09:20:38.932Z</time></trkpt><trkpt lat="41.27298" lon="15.2253583"><ele>871.5</ele><time>2026-04-12T09:20:39.931Z</time></trkpt><trkpt lat="41.2729433" lon="15.2255083"><ele>873.75</ele><time>2026-04-12T09:20:40.931Z</time></trkpt><trkpt lat="41.2728967" lon="15.22565"><ele>876.0</ele><time>2026-04-12T09:20:41.932Z</time></trkpt><trkpt lat="41.27284" lon="15.2257883"><ele>878.1999999999999</ele><time>2026-04-12T09:20:42.932Z</time></trkpt><trkpt lat="41.2727917" lon="15.2259333"><ele>880.3999999999999</ele><time>2026-04-12T09:20:43.931Z</time></trkpt><trkpt lat="41.2727583" lon="15.2260767"><ele>882.6</ele><time>2026-04-12T09:20:44.931Z</time></trkpt><trkpt lat="41.27273" lon="15.2262117"><ele>884.8</ele><time>2026-04-12T09:20:45.932Z</time></trkpt><trkpt lat="41.2727017" lon="15.2263417"><ele>887.0</ele><time>2026-04-12T09:20:46.932Z</time></trkpt><trkpt lat="41.27267" lon="15.2264683"><ele>889.25</ele><time>2026-04-12T09:20:47.932Z</time></trkpt><trkpt lat="41.272635" lon="15.2266083"><ele>891.5</ele><time>2026-04-12T09:20:48.932Z</time></trkpt><trkpt lat="41.2725967" lon="15.2267583"><ele>893.75</ele><time>2026-04-12T09:20:49.931Z</time></trkpt><trkpt lat="41.27255" lon="15.2269"><ele>896.0</ele><time>2026-04-12T09:20:50.932Z</time></trkpt><trkpt lat="41.27249" lon="15.227035"><ele>896.0</ele><time>2026-04-12T09:20:51.931Z</time></trkpt><trkpt lat="41.2724267" lon="15.2271583"><ele>895.9999999999999</ele><time>2026-04-12T09:20:52.932Z</time></trkpt><trkpt lat="41.2723733" lon="15.2272817"><ele>895.9999999999999</ele><time>2026-04-12T09:20:53.932Z</time></trkpt><trkpt lat="41.2723433" lon="15.2274083"><ele>896.0</ele><time>2026-04-12T09:20:54.932Z</time></trkpt><trkpt lat="41.27234" lon="15.227545"><ele>896.0</ele><time>2026-04-12T09:20:55.932Z</time></trkpt><trkpt lat="41.272345" lon="15.227705"><ele>897.1999999999999</ele><time>2026-04-12T09:20:56.931Z</time></trkpt><trkpt lat="41.2723417" lon="15.2278717"><ele>898.3999999999999</ele><time>2026-04-12T09:20:57.932Z</time></trkpt><trkpt lat="41.2723367" lon="15.228025"><ele>899.6</ele><time>2026-04-12T09:20:58.932Z</time></trkpt><trkpt lat="41.2723383" lon="15.22815"><ele>900.8</ele><time>2026-04-12T09:20:59.932Z</time></trkpt><trkpt lat="41.2723383" lon="15.2282583"><ele>902.0</ele><time>2026-04-12T09:21:00.932Z</time></trkpt><trkpt lat="41.2723333" lon="15.228365"><ele>904.2</ele><time>2026-04-12T09:21:01.931Z</time></trkpt><trkpt lat="41.2723233" lon="15.2284733"><ele>906.4000000000001</ele><time>2026-04-12T09:21:02.932Z</time></trkpt><trkpt lat="41.2723167" lon="15.2285983"><ele>908.5999999999999</ele><time>2026-04-12T09:21:03.932Z</time></trkpt><trkpt lat="41.27231" lon="15.2287317"><ele>910.8</ele><time>2026-04-12T09:21:04.932Z</time></trkpt><trkpt lat="41.27232" lon="15.2288783"><ele>913.0</ele><time>2026-04-12T09:21:05.932Z</time></trkpt><trkpt lat="41.27234" lon="15.2290167"><ele>913.9999999999999</ele><time>2026-04-12T09:21:06.931Z</time></trkpt><trkpt lat="41.2723633" lon="15.2291467"><ele>915.0</ele><time>2026-04-12T09:21:07.932Z</time></trkpt><trkpt lat="41.272375" lon="15.2292633"><ele>916.0</ele><time>2026-04-12T09:21:08.932Z</time></trkpt><trkpt lat="41.27238" lon="15.229375"><ele>917.0</ele><time>2026-04-12T09:21:09.932Z</time></trkpt><trkpt lat="41.2723783" lon="15.2294867"><ele>917.9999999999999</ele><time>2026-04-12T09:21:10.932Z</time></trkpt><trkpt lat="41.2723667" lon="15.2295917"><ele>919.0</ele><time>2026-04-12T09:21:11.932Z</time></trkpt><trkpt lat="41.27235" lon="15.2296883"><ele>918.9999999999999</ele><time>2026-04-12T09:21:12.932Z</time></trkpt><trkpt lat="41.2723283" lon="15.22979"><ele>919.0</ele><time>2026-04-12T09:21:13.932Z</time></trkpt><trkpt lat="41.2723067" lon="15.2298983"><ele>919.0</ele><time>2026-04-12T09:21:14.932Z</time></trkpt><trkpt lat="41.2722833" lon="15.2300167"><ele>919.0</ele><time>2026-04-12T09:21:15.932Z</time></trkpt><trkpt lat="41.27226" lon="15.2301383"><ele>918.9999999999999</ele><time>2026-04-12T09:21:16.932Z</time></trkpt><trkpt lat="41.2722367" lon="15.2302633"><ele>919.0</ele><time>2026-04-12T09:21:17.931Z</time></trkpt><trkpt lat="41.2722117" lon="15.2303883"><ele>921.6</ele><time>2026-04-12T09:21:18.931Z</time></trkpt><trkpt lat="41.2721917" lon="15.2305133"><ele>924.2</ele><time>2026-04-12T09:21:19.932Z</time></trkpt><trkpt lat="41.2721667" lon="15.230645"><ele>926.8000000000001</ele><time>2026-04-12T09:21:20.931Z</time></trkpt><trkpt lat="41.2721433" lon="15.2307717"><ele>929.4000000000001</ele><time>2026-04-12T09:21:21.932Z</time></trkpt><trkpt lat="41.2721183" lon="15.23089"><ele>932.0</ele><time>2026-04-12T09:21:22.932Z</time></trkpt><trkpt lat="41.2721017" lon="15.231"><ele>932.0000000000001</ele><time>2026-04-12T09:21:23.932Z</time></trkpt><trkpt lat="41.27209" lon="15.2311017"><ele>932.0</ele><time>2026-04-12T09:21:24.932Z</time></trkpt><trkpt lat="41.2721" lon="15.2312017"><ele>932.0</ele><time>2026-04-12T09:21:25.931Z</time></trkpt><trkpt lat="41.272125" lon="15.2313133"><ele>932.0</ele><time>2026-04-12T09:21:26.932Z</time></trkpt><trkpt lat="41.272165" lon="15.231425"><ele>932.0000000000001</ele><time>2026-04-12T09:21:27.932Z</time></trkpt><trkpt lat="41.2722233" lon="15.2315317"><ele>932.0</ele><time>2026-04-12T09:21:28.931Z</time></trkpt><trkpt lat="41.2722833" lon="15.2316383"><ele>928.8</ele><time>2026-04-12T09:21:29.932Z</time></trkpt><trkpt lat="41.2723383" lon="15.23175"><ele>925.6</ele><time>2026-04-12T09:21:30.932Z</time></trkpt><trkpt lat="41.272385" lon="15.23186"><ele>922.3999999999999</ele><time>2026-04-12T09:21:31.931Z</time></trkpt><trkpt lat="41.2724233" lon="15.23197"><ele>919.1999999999999</ele><time>2026-04-12T09:21:32.932Z</time></trkpt><trkpt lat="41.2724617" lon="15.2320767"><ele>916.0</ele><time>2026-04-12T09:21:33.931Z</time></trkpt><trkpt lat="41.272495" lon="15.2321867"><ele>917.1999999999999</ele><time>2026-04-12T09:21:34.932Z</time></trkpt><trkpt lat="41.2725233" lon="15.2323067"><ele>918.3999999999999</ele><time>2026-04-12T09:21:35.931Z</time></trkpt><trkpt lat="41.2725517" lon="15.2324317"><ele>919.6</ele><time>2026-04-12T09:21:36.931Z</time></trkpt><trkpt lat="41.2725733" lon="15.2325533"><ele>920.8</ele><time>2026-04-12T09:21:37.931Z</time></trkpt><trkpt lat="41.2725917" lon="15.2326783"><ele>922.0</ele><time>2026-04-12T09:21:38.932Z</time></trkpt><trkpt lat="41.2726017" lon="15.2328167"><ele>922.0</ele><time>2026-04-12T09:21:39.932Z</time></trkpt><trkpt lat="41.2726033" lon="15.2329583"><ele>922.0</ele><time>2026-04-12T09:21:40.931Z</time></trkpt><trkpt lat="41.2726117" lon="15.2330983"><ele>922.0</ele><time>2026-04-12T09:21:41.932Z</time></trkpt><trkpt lat="41.272625" lon="15.2332333"><ele>922.0</ele><time>2026-04-12T09:21:42.932Z</time></trkpt><trkpt lat="41.272645" lon="15.2333617"><ele>922.0</ele><time>2026-04-12T09:21:43.932Z</time></trkpt><trkpt lat="41.2726717" lon="15.2334667"><ele>921.9999999999999</ele><time>2026-04-12T09:21:44.932Z</time></trkpt><trkpt lat="41.272715" lon="15.2336083"><ele>922.0</ele><time>2026-04-12T09:21:46.932Z</time></trkpt><trkpt lat="41.2727533" lon="15.233695"><ele>922.0</ele><time>2026-04-12T09:21:48.932Z</time></trkpt><trkpt lat="41.2727233" lon="15.23379"><ele>922.0</ele><time>2026-04-12T09:22:08.93Z</time></trkpt><trkpt lat="41.2726367" lon="15.2338283"><ele>921.9999999999999</ele><time>2026-04-12T09:22:27.93Z</time></trkpt><trkpt lat="41.2725783" lon="15.2338617"><ele>922.0</ele><time>2026-04-12T09:22:29.93Z</time></trkpt><trkpt lat="41.2725167" lon="15.2339033"><ele>921.9999999999999</ele><time>2026-04-12T09:22:31.93Z</time></trkpt><trkpt lat="41.27244" lon="15.2339467"><ele>922.0</ele><time>2026-04-12T09:22:33.931Z</time></trkpt><trkpt lat="41.272365" lon="15.2339917"><ele>922.0</ele><time>2026-04-12T09:22:35.931Z</time></trkpt><trkpt lat="41.2722983" lon="15.23403"><ele>922.0</ele><time>2026-04-12T09:22:37.931Z</time></trkpt><trkpt lat="41.2722333" lon="15.2340717"><ele>921.9999999999999</ele><time>2026-04-12T09:22:39.93Z</time></trkpt><trkpt lat="41.2721533" lon="15.2341117"><ele>922.0</ele><time>2026-04-12T09:22:41.93Z</time></trkpt><trkpt lat="41.27208" lon="15.2341583"><ele>920.6666666666666</ele><time>2026-04-12T09:22:43.931Z</time></trkpt><trkpt lat="41.2720117" lon="15.2342"><ele>919.3333333333333</ele><time>2026-04-12T09:22:45.93Z</time></trkpt><trkpt lat="41.27194" lon="15.234235"><ele>918.0</ele><time>2026-04-12T09:22:47.93Z</time></trkpt><trkpt lat="41.2718683" lon="15.2342767"><ele>916.6666666666667</ele><time>2026-04-12T09:22:49.931Z</time></trkpt><trkpt lat="41.2717983" lon="15.23431"><ele>915.3333333333334</ele><time>2026-04-12T09:22:51.931Z</time></trkpt><trkpt lat="41.2717317" lon="15.23436"><ele>914.0</ele><time>2026-04-12T09:22:53.93Z</time></trkpt><trkpt lat="41.2716667" lon="15.2344167"><ele>914.0000000000001</ele><time>2026-04-12T09:22:55.931Z</time></trkpt><trkpt lat="41.2716167" lon="15.2344683"><ele>914.0</ele><time>2026-04-12T09:22:57.93Z</time></trkpt><trkpt lat="41.2715683" lon="15.2345333"><ele>914.0</ele><time>2026-04-12T09:23:01.931Z</time></trkpt><trkpt lat="41.2715333" lon="15.23468"><ele>914.0</ele><time>2026-04-12T09:24:03.931Z</time></trkpt><trkpt lat="41.27156" lon="15.2347833"><ele>914.0000000000001</ele><time>2026-04-12T09:24:06.931Z</time></trkpt><trkpt lat="41.2716367" lon="15.2348533"><ele>914.0</ele><time>2026-04-12T09:24:09.931Z</time></trkpt><trkpt lat="41.2717067" lon="15.2349333"><ele>912.4000000000001</ele><time>2026-04-12T09:24:11.931Z</time></trkpt><trkpt lat="41.271765" lon="15.23503"><ele>910.8000000000001</ele><time>2026-04-12T09:24:13.931Z</time></trkpt><trkpt lat="41.2718117" lon="15.2351467"><ele>909.1999999999999</ele><time>2026-04-12T09:24:15.931Z</time></trkpt><trkpt lat="41.2718567" lon="15.2352683"><ele>907.5999999999999</ele><time>2026-04-12T09:24:17.931Z</time></trkpt><trkpt lat="41.27189" lon="15.2354167"><ele>906.0</ele><time>2026-04-12T09:24:19.93Z</time></trkpt><trkpt lat="41.2719067" lon="15.2354983"><ele>905.9999999999999</ele><time>2026-04-12T09:24:20.93Z</time></trkpt><trkpt lat="41.2719217" lon="15.2355883"><ele>906.0</ele><time>2026-04-12T09:24:21.931Z</time></trkpt><trkpt lat="41.2719317" lon="15.2356833"><ele>905.9999999999999</ele><time>2026-04-12T09:24:22.931Z</time></trkpt><trkpt lat="41.271945" lon="15.235775"><ele>905.9999999999999</ele><time>2026-04-12T09:24:23.93Z</time></trkpt><trkpt lat="41.27196" lon="15.2358683"><ele>906.0</ele><time>2026-04-12T09:24:24.931Z</time></trkpt><trkpt lat="41.27197" lon="15.2359567"><ele>905.9999999999999</ele><time>2026-04-12T09:24:25.93Z</time></trkpt><trkpt lat="41.2719783" lon="15.23605"><ele>905.9999999999999</ele><time>2026-04-12T09:24:26.93Z</time></trkpt><trkpt lat="41.2719867" lon="15.2361467"><ele>904.9999999999999</ele><time>2026-04-12T09:24:27.93Z</time></trkpt><trkpt lat="41.271985" lon="15.236245"><ele>904.0</ele><time>2026-04-12T09:24:28.931Z</time></trkpt><trkpt lat="41.2719883" lon="15.236335"><ele>902.9999999999999</ele><time>2026-04-12T09:24:29.931Z</time></trkpt><trkpt lat="41.271995" lon="15.2364233"><ele>901.9999999999999</ele><time>2026-04-12T09:24:30.931Z</time></trkpt><trkpt lat="41.272" lon="15.2365167"><ele>901.0</ele><time>2026-04-12T09:24:31.93Z</time></trkpt><trkpt lat="41.272005" lon="15.236615"><ele>899.9999999999999</ele><time>2026-04-12T09:24:32.931Z</time></trkpt><trkpt lat="41.27201" lon="15.2367117"><ele>898.9999999999999</ele><time>2026-04-12T09:24:33.931Z</time></trkpt><trkpt lat="41.2720117" lon="15.2368017"><ele>898.6666666666667</ele><time>2026-04-12T09:24:34.931Z</time></trkpt><trkpt lat="41.27201" lon="15.2368867"><ele>898.3333333333334</ele><time>2026-04-12T09:24:35.931Z</time></trkpt><trkpt lat="41.271995" lon="15.2370517"><ele>898.0</ele><time>2026-04-12T09:24:37.931Z</time></trkpt><trkpt lat="41.2719817" lon="15.23714"><ele>897.6666666666667</ele><time>2026-04-12T09:24:38.93Z</time></trkpt><trkpt lat="41.27196" lon="15.2372433"><ele>897.3333333333334</ele><time>2026-04-12T09:24:39.931Z</time></trkpt><trkpt lat="41.2719433" lon="15.2373533"><ele>897.0</ele><time>2026-04-12T09:24:40.931Z</time></trkpt><trkpt lat="41.2719267" lon="15.237465"><ele>897.0</ele><time>2026-04-12T09:24:41.93Z</time></trkpt><trkpt lat="41.271915" lon="15.2375767"><ele>897.0</ele><time>2026-04-12T09:24:42.931Z</time></trkpt><trkpt lat="41.2719067" lon="15.2376967"><ele>897.0</ele><time>2026-04-12T09:24:43.93Z</time></trkpt><trkpt lat="41.27191" lon="15.23782"><ele>897.0</ele><time>2026-04-12T09:24:44.931Z</time></trkpt><trkpt lat="41.2719167" lon="15.2379483"><ele>897.0</ele><time>2026-04-12T09:24:45.931Z</time></trkpt><trkpt lat="41.27192" lon="15.2380733"><ele>896.3333333333334</ele><time>2026-04-12T09:24:46.93Z</time></trkpt><trkpt lat="41.27192" lon="15.2381933"><ele>895.6666666666667</ele><time>2026-04-12T09:24:47.931Z</time></trkpt><trkpt lat="41.2719233" lon="15.2383067"><ele>895.0</ele><time>2026-04-12T09:24:48.931Z</time></trkpt><trkpt lat="41.2719267" lon="15.238415"><ele>894.3333333333334</ele><time>2026-04-12T09:24:49.93Z</time></trkpt><trkpt lat="41.271935" lon="15.2385133"><ele>893.6666666666667</ele><time>2026-04-12T09:24:50.93Z</time></trkpt><trkpt lat="41.2719433" lon="15.23861"><ele>893.0</ele><time>2026-04-12T09:24:51.93Z</time></trkpt><trkpt lat="41.2719583" lon="15.2387083"><ele>893.0000000000001</ele><time>2026-04-12T09:24:52.931Z</time></trkpt><trkpt lat="41.2719717" lon="15.2388"><ele>893.0</ele><time>2026-04-12T09:24:53.931Z</time></trkpt><trkpt lat="41.2719917" lon="15.23889"><ele>893.0</ele><time>2026-04-12T09:24:54.93Z</time></trkpt><trkpt lat="41.272015" lon="15.2390467"><ele>893.0</ele><time>2026-04-12T09:24:56.93Z</time></trkpt><trkpt lat="41.272015" lon="15.2391317"><ele>893.0000000000001</ele><time>2026-04-12T09:24:57.931Z</time></trkpt><trkpt lat="41.27198" lon="15.23929"><ele>893.0</ele><time>2026-04-12T09:24:59.93Z</time></trkpt><trkpt lat="41.2719517" lon="15.2393667"><ele>892.1666666666667</ele><time>2026-04-12T09:25:00.931Z</time></trkpt><trkpt lat="41.2718933" lon="15.2394867"><ele>891.3333333333334</ele><time>2026-04-12T09:25:02.931Z</time></trkpt><trkpt lat="41.2718433" lon="15.23958"><ele>890.5</ele><time>2026-04-12T09:25:04.931Z</time></trkpt><trkpt lat="41.2717967" lon="15.2396717"><ele>889.6666666666667</ele><time>2026-04-12T09:25:06.93Z</time></trkpt><trkpt lat="41.2717583" lon="15.2397583"><ele>888.8333333333334</ele><time>2026-04-12T09:25:08.93Z</time></trkpt><trkpt lat="41.2717167" lon="15.2398433"><ele>888.0</ele><time>2026-04-12T09:25:10.931Z</time></trkpt><trkpt lat="41.2716867" lon="15.2399333"><ele>886.8</ele><time>2026-04-12T09:25:12.931Z</time></trkpt><trkpt lat="41.2716667" lon="15.240045"><ele>885.5999999999999</ele><time>2026-04-12T09:25:14.931Z</time></trkpt><trkpt lat="41.2716483" lon="15.2401617"><ele>884.4000000000001</ele><time>2026-04-12T09:25:16.93Z</time></trkpt><trkpt lat="41.2716383" lon="15.2402967"><ele>883.2</ele><time>2026-04-12T09:25:18.931Z</time></trkpt><trkpt lat="41.2716517" lon="15.2404433"><ele>882.0</ele><time>2026-04-12T09:25:20.931Z</time></trkpt><trkpt lat="41.2716833" lon="15.2405717"><ele>879.8</ele><time>2026-04-12T09:25:22.931Z</time></trkpt><trkpt lat="41.271725" lon="15.240675"><ele>877.6</ele><time>2026-04-12T09:25:24.931Z</time></trkpt><trkpt lat="41.271765" lon="15.24077"><ele>875.3999999999999</ele><time>2026-04-12T09:25:26.931Z</time></trkpt><trkpt lat="41.27178" lon="15.2408883"><ele>873.1999999999999</ele><time>2026-04-12T09:25:28.93Z</time></trkpt><trkpt lat="41.2717917" lon="15.2410167"><ele>871.0</ele><time>2026-04-12T09:25:30.931Z</time></trkpt><trkpt lat="41.27179" lon="15.24115"><ele>871.0</ele><time>2026-04-12T09:25:32.931Z</time></trkpt><trkpt lat="41.2717667" lon="15.2412917"><ele>870.9999999999999</ele><time>2026-04-12T09:25:34.93Z</time></trkpt><trkpt lat="41.2717267" lon="15.241425"><ele>870.9999999999999</ele><time>2026-04-12T09:25:36.93Z</time></trkpt><trkpt lat="41.2716917" lon="15.241555"><ele>871.0</ele><time>2026-04-12T09:25:38.93Z</time></trkpt><trkpt lat="41.271655" lon="15.2416933"><ele>871.0</ele><time>2026-04-12T09:25:40.931Z</time></trkpt><trkpt lat="41.2716167" lon="15.2418467"><ele>868.8</ele><time>2026-04-12T09:25:42.93Z</time></trkpt><trkpt lat="41.271565" lon="15.241975"><ele>866.5999999999999</ele><time>2026-04-12T09:25:44.931Z</time></trkpt><trkpt lat="41.271505" lon="15.2420717"><ele>864.4</ele><time>2026-04-12T09:25:46.93Z</time></trkpt><trkpt lat="41.2714367" lon="15.2421467"><ele>862.2</ele><time>2026-04-12T09:25:48.931Z</time></trkpt><trkpt lat="41.2713667" lon="15.2422433"><ele>860.0</ele><time>2026-04-12T09:25:50.93Z</time></trkpt><trkpt lat="41.2713033" lon="15.2423667"><ele>856.2</ele><time>2026-04-12T09:25:52.931Z</time></trkpt><trkpt lat="41.2712517" lon="15.2425067"><ele>852.4</ele><time>2026-04-12T09:25:54.93Z</time></trkpt><trkpt lat="41.2712167" lon="15.2426517"><ele>848.5999999999999</ele><time>2026-04-12T09:25:56.93Z</time></trkpt><trkpt lat="41.271175" lon="15.2427917"><ele>844.8</ele><time>2026-04-12T09:25:58.931Z</time></trkpt><trkpt lat="41.2711367" lon="15.2429"><ele>841.0</ele><time>2026-04-12T09:26:00.931Z</time></trkpt><trkpt lat="41.2710983" lon="15.2430183"><ele>839.3333333333333</ele><time>2026-04-12T09:26:02.93Z</time></trkpt><trkpt lat="41.2710867" lon="15.2431617"><ele>837.6666666666666</ele><time>2026-04-12T09:26:04.931Z</time></trkpt><trkpt lat="41.2710883" lon="15.243325"><ele>836.0</ele><time>2026-04-12T09:26:06.931Z</time></trkpt><trkpt lat="41.27109" lon="15.2434133"><ele>834.3333333333333</ele><time>2026-04-12T09:26:07.931Z</time></trkpt><trkpt lat="41.2710933" lon="15.2435033"><ele>832.6666666666666</ele><time>2026-04-12T09:26:08.93Z</time></trkpt><trkpt lat="41.2711017" lon="15.2435983"><ele>831.0</ele><time>2026-04-12T09:26:09.931Z</time></trkpt><trkpt lat="41.2711167" lon="15.2436917"><ele>830.9999999999999</ele><time>2026-04-12T09:26:10.93Z</time></trkpt><trkpt lat="41.27114" lon="15.243775"><ele>831.0</ele><time>2026-04-12T09:26:11.931Z</time></trkpt><trkpt lat="41.27117" lon="15.24386"><ele>831.0</ele><time>2026-04-12T09:26:12.931Z</time></trkpt><trkpt lat="41.2712067" lon="15.2439483"><ele>831.0</ele><time>2026-04-12T09:26:13.93Z</time></trkpt><trkpt lat="41.271245" lon="15.244035"><ele>831.0</ele><time>2026-04-12T09:26:14.93Z</time></trkpt><trkpt lat="41.27129" lon="15.2441183"><ele>830.9999999999999</ele><time>2026-04-12T09:26:15.931Z</time></trkpt><trkpt lat="41.2713317" lon="15.2442083"><ele>831.0</ele><time>2026-04-12T09:26:16.93Z</time></trkpt><trkpt lat="41.2713733" lon="15.2443033"><ele>830.8333333333334</ele><time>2026-04-12T09:26:17.931Z</time></trkpt><trkpt lat="41.271405" lon="15.2443967"><ele>830.6666666666667</ele><time>2026-04-12T09:26:18.931Z</time></trkpt><trkpt lat="41.27143" lon="15.2444967"><ele>830.5</ele><time>2026-04-12T09:26:19.93Z</time></trkpt><trkpt lat="41.27145" lon="15.244615"><ele>830.3333333333334</ele><time>2026-04-12T09:26:20.93Z</time></trkpt><trkpt lat="41.2714667" lon="15.24474"><ele>830.1666666666667</ele><time>2026-04-12T09:26:21.931Z</time></trkpt><trkpt lat="41.27147" lon="15.2448533"><ele>830.0</ele><time>2026-04-12T09:26:22.931Z</time></trkpt><trkpt lat="41.27147" lon="15.24498"><ele>829.6666666666667</ele><time>2026-04-12T09:26:23.93Z</time></trkpt><trkpt lat="41.27147" lon="15.2451"><ele>829.3333333333334</ele><time>2026-04-12T09:26:24.931Z</time></trkpt><trkpt lat="41.2714767" lon="15.2452167"><ele>829.0</ele><time>2026-04-12T09:26:25.93Z</time></trkpt><trkpt lat="41.2714867" lon="15.2453117"><ele>828.6666666666667</ele><time>2026-04-12T09:26:26.931Z</time></trkpt><trkpt lat="41.2714967" lon="15.2454033"><ele>828.3333333333334</ele><time>2026-04-12T09:26:27.931Z</time></trkpt><trkpt lat="41.27152" lon="15.24556"><ele>828.0</ele><time>2026-04-12T09:26:29.93Z</time></trkpt><trkpt lat="41.27155" lon="15.245695"><ele>827.6666666666666</ele><time>2026-04-12T09:26:31.93Z</time></trkpt><trkpt lat="41.271595" lon="15.2458083"><ele>827.3333333333333</ele><time>2026-04-12T09:26:33.931Z</time></trkpt><trkpt lat="41.2716317" lon="15.2459067"><ele>827.0</ele><time>2026-04-12T09:26:35.931Z</time></trkpt><trkpt lat="41.2716483" lon="15.24601"><ele>826.6666666666666</ele><time>2026-04-12T09:26:38.93Z</time></trkpt><trkpt lat="41.2715733" lon="15.2460633"><ele>826.3333333333333</ele><time>2026-04-12T09:28:13.93Z</time></trkpt><trkpt lat="41.271495" lon="15.2459817"><ele>826.0</ele><time>2026-04-12T09:28:15.931Z</time></trkpt><trkpt lat="41.2714467" lon="15.2459267"><ele>825.0</ele><time>2026-04-12T09:28:16.93Z</time></trkpt><trkpt lat="41.2713967" lon="15.2458633"><ele>824.0</ele><time>2026-04-12T09:28:17.931Z</time></trkpt><trkpt lat="41.2712933" lon="15.245765"><ele>823.0</ele><time>2026-04-12T09:28:19.93Z</time></trkpt><trkpt lat="41.27123" lon="15.2457017"><ele>822.0</ele><time>2026-04-12T09:28:20.931Z</time></trkpt><trkpt lat="41.2711617" lon="15.245625"><ele>821.0</ele><time>2026-04-12T09:28:21.931Z</time></trkpt><trkpt lat="41.2711067" lon="15.245525"><ele>821.0</ele><time>2026-04-12T09:28:22.93Z</time></trkpt><trkpt lat="41.2710533" lon="15.24541"><ele>821.0</ele><time>2026-04-12T09:28:23.93Z</time></trkpt><trkpt lat="41.2710133" lon="15.2452767"><ele>821.0</ele><time>2026-04-12T09:28:24.931Z</time></trkpt><trkpt lat="41.270965" lon="15.2451283"><ele>821.0</ele><time>2026-04-12T09:28:25.931Z</time></trkpt><trkpt lat="41.2709233" lon="15.2449783"><ele>821.0</ele><time>2026-04-12T09:28:26.931Z</time></trkpt><trkpt lat="41.2708883" lon="15.2448517"><ele>821.0</ele><time>2026-04-12T09:28:27.93Z</time></trkpt><trkpt lat="41.2708567" lon="15.2447483"><ele>821.0</ele><time>2026-04-12T09:28:28.93Z</time></trkpt><trkpt lat="41.27081" lon="15.2446633"><ele>821.0</ele><time>2026-04-12T09:28:29.931Z</time></trkpt><trkpt lat="41.270745" lon="15.24458"><ele>821.0</ele><time>2026-04-12T09:28:30.93Z</time></trkpt><trkpt lat="41.2706583" lon="15.2445033"><ele>820.0</ele><time>2026-04-12T09:28:31.931Z</time></trkpt><trkpt lat="41.2705617" lon="15.24445"><ele>819.0</ele><time>2026-04-12T09:28:32.931Z</time></trkpt><trkpt lat="41.27046" lon="15.244415"><ele>818.0</ele><time>2026-04-12T09:28:33.931Z</time></trkpt><trkpt lat="41.270355" lon="15.24439"><ele>817.0</ele><time>2026-04-12T09:28:34.931Z</time></trkpt><trkpt lat="41.270255" lon="15.2443583"><ele>816.0</ele><time>2026-04-12T09:28:35.931Z</time></trkpt><trkpt lat="41.2701667" lon="15.2443233"><ele>816.0</ele><time>2026-04-12T09:28:36.93Z</time></trkpt><trkpt lat="41.2700967" lon="15.2442567"><ele>816.0</ele><time>2026-04-12T09:28:37.93Z</time></trkpt><trkpt lat="41.2700383" lon="15.244165"><ele>816.0</ele><time>2026-04-12T09:28:38.93Z</time></trkpt><trkpt lat="41.2699733" lon="15.2440533"><ele>816.0</ele><time>2026-04-12T09:28:39.931Z</time></trkpt><trkpt lat="41.2699083" lon="15.2439267"><ele>816.0</ele><time>2026-04-12T09:28:40.931Z</time></trkpt><trkpt lat="41.2698383" lon="15.243795"><ele>814.25</ele><time>2026-04-12T09:28:41.93Z</time></trkpt><trkpt lat="41.2697633" lon="15.2436617"><ele>812.5</ele><time>2026-04-12T09:28:42.93Z</time></trkpt><trkpt lat="41.2696867" lon="15.243535"><ele>810.75</ele><time>2026-04-12T09:28:43.931Z</time></trkpt><trkpt lat="41.2696067" lon="15.24342"><ele>809.0</ele><time>2026-04-12T09:28:44.93Z</time></trkpt><trkpt lat="41.2695133" lon="15.2433133"><ele>809.0</ele><time>2026-04-12T09:28:45.93Z</time></trkpt><trkpt lat="41.2694083" lon="15.243205"><ele>809.0</ele><time>2026-04-12T09:28:46.93Z</time></trkpt><trkpt lat="41.269295" lon="15.2430983"><ele>809.0</ele><time>2026-04-12T09:28:47.93Z</time></trkpt><trkpt lat="41.26918" lon="15.2429933"><ele>809.0</ele><time>2026-04-12T09:28:48.93Z</time></trkpt><trkpt lat="41.2690733" lon="15.2428933"><ele>810.4000000000001</ele><time>2026-04-12T09:28:49.93Z</time></trkpt><trkpt lat="41.2689817" lon="15.2428"><ele>811.8</ele><time>2026-04-12T09:28:50.93Z</time></trkpt><trkpt lat="41.2689017" lon="15.2427067"><ele>813.2</ele><time>2026-04-12T09:28:51.931Z</time></trkpt><trkpt lat="41.26884" lon="15.2426117"><ele>814.5999999999999</ele><time>2026-04-12T09:28:52.93Z</time></trkpt><trkpt lat="41.2687867" lon="15.2424933"><ele>816.0</ele><time>2026-04-12T09:28:53.931Z</time></trkpt><trkpt lat="41.2687333" lon="15.242375"><ele>814.8333333333334</ele><time>2026-04-12T09:28:54.931Z</time></trkpt><trkpt lat="41.2686867" lon="15.2422667"><ele>813.6666666666667</ele><time>2026-04-12T09:28:55.93Z</time></trkpt><trkpt lat="41.2686333" lon="15.24217"><ele>812.5</ele><time>2026-04-12T09:28:56.931Z</time></trkpt><trkpt lat="41.26857" lon="15.242085"><ele>811.3333333333334</ele><time>2026-04-12T09:28:57.931Z</time></trkpt><trkpt lat="41.2685017" lon="15.2420317"><ele>810.1666666666667</ele><time>2026-04-12T09:28:58.931Z</time></trkpt><trkpt lat="41.2684217" lon="15.2420033"><ele>809.0</ele><time>2026-04-12T09:28:59.931Z</time></trkpt><trkpt lat="41.268335" lon="15.2420017"><ele>809.0</ele><time>2026-04-12T09:29:00.931Z</time></trkpt><trkpt lat="41.2682467" lon="15.2420233"><ele>809.0</ele><time>2026-04-12T09:29:01.93Z</time></trkpt><trkpt lat="41.2681633" lon="15.2420733"><ele>809.0</ele><time>2026-04-12T09:29:02.931Z</time></trkpt><trkpt lat="41.26809" lon="15.242155"><ele>809.0</ele><time>2026-04-12T09:29:03.931Z</time></trkpt><trkpt lat="41.2680283" lon="15.242255"><ele>809.0</ele><time>2026-04-12T09:29:04.93Z</time></trkpt><trkpt lat="41.2679733" lon="15.24237"><ele>807.0</ele><time>2026-04-12T09:29:05.93Z</time></trkpt><trkpt lat="41.2679217" lon="15.2424917"><ele>805.0</ele><time>2026-04-12T09:29:06.931Z</time></trkpt><trkpt lat="41.2678567" lon="15.2426"><ele>803.0</ele><time>2026-04-12T09:29:07.931Z</time></trkpt><trkpt lat="41.2677883" lon="15.242675"><ele>801.0</ele><time>2026-04-12T09:29:08.931Z</time></trkpt><trkpt lat="41.2677067" lon="15.2427283"><ele>799.0</ele><time>2026-04-12T09:29:09.931Z</time></trkpt><trkpt lat="41.2676167" lon="15.2427533"><ele>799.0</ele><time>2026-04-12T09:29:10.931Z</time></trkpt><trkpt lat="41.2675183" lon="15.24272"><ele>799.0</ele><time>2026-04-12T09:29:11.931Z</time></trkpt><trkpt lat="41.2674133" lon="15.242655"><ele>799.0</ele><time>2026-04-12T09:29:12.931Z</time></trkpt><trkpt lat="41.2673067" lon="15.24258"><ele>799.0</ele><time>2026-04-12T09:29:13.93Z</time></trkpt><trkpt lat="41.2671967" lon="15.2425067"><ele>798.75</ele><time>2026-04-12T09:29:14.93Z</time></trkpt><trkpt lat="41.2670883" lon="15.2424333"><ele>798.5</ele><time>2026-04-12T09:29:15.931Z</time></trkpt><trkpt lat="41.2669817" lon="15.2423683"><ele>798.25</ele><time>2026-04-12T09:29:16.93Z</time></trkpt><trkpt lat="41.2668817" lon="15.242305"><ele>798.0</ele><time>2026-04-12T09:29:17.931Z</time></trkpt><trkpt lat="41.2667783" lon="15.24223"><ele>798.0</ele><time>2026-04-12T09:29:18.93Z</time></trkpt><trkpt lat="41.26667" lon="15.2421467"><ele>798.0</ele><time>2026-04-12T09:29:19.931Z</time></trkpt><trkpt lat="41.2665583" lon="15.242065"><ele>798.0</ele><time>2026-04-12T09:29:20.931Z</time></trkpt><trkpt lat="41.26645" lon="15.2419867"><ele>798.0</ele><time>2026-04-12T09:29:21.931Z</time></trkpt><trkpt lat="41.26635" lon="15.2419067"><ele>795.75</ele><time>2026-04-12T09:29:22.931Z</time></trkpt><trkpt lat="41.26626" lon="15.2418183"><ele>793.5</ele><time>2026-04-12T09:29:23.931Z</time></trkpt><trkpt lat="41.26618" lon="15.2417217"><ele>791.25</ele><time>2026-04-12T09:29:24.931Z</time></trkpt><trkpt lat="41.2661083" lon="15.241605"><ele>789.0</ele><time>2026-04-12T09:29:25.931Z</time></trkpt><trkpt lat="41.266045" lon="15.241475"><ele>789.4000000000001</ele><time>2026-04-12T09:29:26.931Z</time></trkpt><trkpt lat="41.2659967" lon="15.24134"><ele>789.8</ele><time>2026-04-12T09:29:27.931Z</time></trkpt><trkpt lat="41.2659533" lon="15.2412117"><ele>790.2</ele><time>2026-04-12T09:29:28.93Z</time></trkpt><trkpt lat="41.265905" lon="15.241095"><ele>790.5999999999999</ele><time>2026-04-12T09:29:29.931Z</time></trkpt><trkpt lat="41.265845" lon="15.24099"><ele>791.0</ele><time>2026-04-12T09:29:30.931Z</time></trkpt><trkpt lat="41.2657667" lon="15.2409167"><ele>791.0</ele><time>2026-04-12T09:29:31.931Z</time></trkpt><trkpt lat="41.26566" lon="15.2408583"><ele>791.0</ele><time>2026-04-12T09:29:32.93Z</time></trkpt><trkpt lat="41.2655367" lon="15.2408133"><ele>791.0</ele><time>2026-04-12T09:29:33.931Z</time></trkpt><trkpt lat="41.265395" lon="15.2407767"><ele>791.0</ele><time>2026-04-12T09:29:34.93Z</time></trkpt><trkpt lat="41.2652617" lon="15.2407483"><ele>789.8</ele><time>2026-04-12T09:29:35.931Z</time></trkpt><trkpt lat="41.26514" lon="15.2407233"><ele>788.5999999999999</ele><time>2026-04-12T09:29:36.931Z</time></trkpt><trkpt lat="41.26502" lon="15.2407133"><ele>787.4</ele><time>2026-04-12T09:29:37.931Z</time></trkpt><trkpt lat="41.264915" lon="15.2407233"><ele>786.2</ele><time>2026-04-12T09:29:38.931Z</time></trkpt><trkpt lat="41.26482" lon="15.2407583"><ele>785.0</ele><time>2026-04-12T09:29:39.93Z</time></trkpt><trkpt lat="41.2647267" lon="15.2408267"><ele>785.0</ele><time>2026-04-12T09:29:40.931Z</time></trkpt><trkpt lat="41.2646383" lon="15.240925"><ele>785.0</ele><time>2026-04-12T09:29:41.931Z</time></trkpt><trkpt lat="41.26455" lon="15.24104"><ele>785.0</ele><time>2026-04-12T09:29:42.93Z</time></trkpt><trkpt lat="41.2644717" lon="15.2411567"><ele>785.0</ele><time>2026-04-12T09:29:43.931Z</time></trkpt><trkpt lat="41.2644083" lon="15.241275"><ele>785.0</ele><time>2026-04-12T09:29:44.931Z</time></trkpt><trkpt lat="41.264375" lon="15.241395"><ele>785.0</ele><time>2026-04-12T09:29:45.931Z</time></trkpt><trkpt lat="41.2643617" lon="15.2415267"><ele>785.0</ele><time>2026-04-12T09:29:46.931Z</time></trkpt><trkpt lat="41.2643733" lon="15.241675"><ele>785.0</ele><time>2026-04-12T09:29:47.93Z</time></trkpt><trkpt lat="41.2644083" lon="15.24184"><ele>785.0</ele><time>2026-04-12T09:29:48.931Z</time></trkpt><trkpt lat="41.264455" lon="15.242005"><ele>785.0</ele><time>2026-04-12T09:29:49.931Z</time></trkpt><trkpt lat="41.2645017" lon="15.2421683"><ele>785.0</ele><time>2026-04-12T09:29:50.931Z</time></trkpt><trkpt lat="41.2645517" lon="15.2423267"><ele>785.0</ele><time>2026-04-12T09:29:51.93Z</time></trkpt><trkpt lat="41.2645917" lon="15.242475"><ele>785.0</ele><time>2026-04-12T09:29:52.931Z</time></trkpt><trkpt lat="41.26463" lon="15.2426317"><ele>784.25</ele><time>2026-04-12T09:29:53.931Z</time></trkpt><trkpt lat="41.2646667" lon="15.2427867"><ele>783.5</ele><time>2026-04-12T09:29:54.931Z</time></trkpt><trkpt lat="41.2646967" lon="15.2429467"><ele>782.75</ele><time>2026-04-12T09:29:55.931Z</time></trkpt><trkpt lat="41.2647183" lon="15.2430967"><ele>782.0</ele><time>2026-04-12T09:29:56.931Z</time></trkpt><trkpt lat="41.264745" lon="15.2432333"><ele>781.4000000000001</ele><time>2026-04-12T09:29:57.931Z</time></trkpt><trkpt lat="41.2647733" lon="15.2433633"><ele>780.8000000000001</ele><time>2026-04-12T09:29:58.931Z</time></trkpt><trkpt lat="41.264795" lon="15.2434933"><ele>780.2</ele><time>2026-04-12T09:29:59.93Z</time></trkpt><trkpt lat="41.2648017" lon="15.2436217"><ele>779.6</ele><time>2026-04-12T09:30:00.931Z</time></trkpt><trkpt lat="41.2647967" lon="15.24375"><ele>779.0</ele><time>2026-04-12T09:30:01.931Z</time></trkpt><trkpt lat="41.2647683" lon="15.2438567"><ele>779.0</ele><time>2026-04-12T09:30:02.931Z</time></trkpt><trkpt lat="41.2647183" lon="15.2439417"><ele>779.0</ele><time>2026-04-12T09:30:03.931Z</time></trkpt><trkpt lat="41.2646483" lon="15.2439933"><ele>779.0</ele><time>2026-04-12T09:30:04.93Z</time></trkpt><trkpt lat="41.2645583" lon="15.2440083"><ele>779.0</ele><time>2026-04-12T09:30:05.931Z</time></trkpt><trkpt lat="41.26446" lon="15.2439783"><ele>779.0</ele><time>2026-04-12T09:30:06.93Z</time></trkpt><trkpt lat="41.2643483" lon="15.243885"><ele>779.0</ele><time>2026-04-12T09:30:07.93Z</time></trkpt><trkpt lat="41.26425" lon="15.24378"><ele>779.0</ele><time>2026-04-12T09:30:08.931Z</time></trkpt><trkpt lat="41.2641567" lon="15.24367"><ele>779.0</ele><time>2026-04-12T09:30:09.931Z</time></trkpt><trkpt lat="41.2640567" lon="15.2435517"><ele>779.0</ele><time>2026-04-12T09:30:10.931Z</time></trkpt><trkpt lat="41.2639583" lon="15.24344"><ele>778.4000000000001</ele><time>2026-04-12T09:30:11.931Z</time></trkpt><trkpt lat="41.2638717" lon="15.2433417"><ele>777.8</ele><time>2026-04-12T09:30:12.931Z</time></trkpt><trkpt lat="41.2637833" lon="15.2432683"><ele>777.2</ele><time>2026-04-12T09:30:13.93Z</time></trkpt><trkpt lat="41.26368" lon="15.24322"><ele>776.5999999999999</ele><time>2026-04-12T09:30:14.93Z</time></trkpt><trkpt lat="41.263565" lon="15.2432017"><ele>776.0</ele><time>2026-04-12T09:30:15.931Z</time></trkpt><trkpt lat="41.2634383" lon="15.2432083"><ele>776.0</ele><time>2026-04-12T09:30:16.93Z</time></trkpt><trkpt lat="41.2633067" lon="15.24321"><ele>776.0</ele><time>2026-04-12T09:30:17.931Z</time></trkpt><trkpt lat="41.263165" lon="15.2431983"><ele>776.0</ele><time>2026-04-12T09:30:18.931Z</time></trkpt><trkpt lat="41.2630067" lon="15.2431733"><ele>776.0</ele><time>2026-04-12T09:30:19.931Z</time></trkpt><trkpt lat="41.262845" lon="15.2431417"><ele>777.6666666666667</ele><time>2026-04-12T09:30:20.931Z</time></trkpt><trkpt lat="41.262675" lon="15.2431033"><ele>779.3333333333333</ele><time>2026-04-12T09:30:21.93Z</time></trkpt><trkpt lat="41.2625" lon="15.2430733"><ele>781.0</ele><time>2026-04-12T09:30:22.931Z</time></trkpt><trkpt lat="41.2623383" lon="15.2430583"><ele>779.75</ele><time>2026-04-12T09:30:23.931Z</time></trkpt><trkpt lat="41.2621817" lon="15.2430567"><ele>778.5</ele><time>2026-04-12T09:30:24.931Z</time></trkpt><trkpt lat="41.262035" lon="15.2430633"><ele>777.25</ele><time>2026-04-12T09:30:25.93Z</time></trkpt><trkpt lat="41.2619067" lon="15.2430717"><ele>776.0</ele><time>2026-04-12T09:30:26.931Z</time></trkpt><trkpt lat="41.2617817" lon="15.2430733"><ele>776.0</ele><time>2026-04-12T09:30:27.931Z</time></trkpt><trkpt lat="41.2616667" lon="15.243055"><ele>776.0</ele><time>2026-04-12T09:30:28.931Z</time></trkpt><trkpt lat="41.2615467" lon="15.243025"><ele>776.0</ele><time>2026-04-12T09:30:29.93Z</time></trkpt><trkpt lat="41.26144" lon="15.242965"><ele>776.0</ele><time>2026-04-12T09:30:30.931Z</time></trkpt><trkpt lat="41.2613267" lon="15.2428633"><ele>774.0</ele><time>2026-04-12T09:30:31.931Z</time></trkpt><trkpt lat="41.2611967" lon="15.2427583"><ele>772.0</ele><time>2026-04-12T09:30:32.93Z</time></trkpt><trkpt lat="41.2610717" lon="15.2426633"><ele>770.0</ele><time>2026-04-12T09:30:33.931Z</time></trkpt><trkpt lat="41.260955" lon="15.2425883"><ele>768.0</ele><time>2026-04-12T09:30:34.93Z</time></trkpt><trkpt lat="41.26084" lon="15.2425333"><ele>768.0</ele><time>2026-04-12T09:30:35.931Z</time></trkpt><trkpt lat="41.2607367" lon="15.24249"><ele>768.0</ele><time>2026-04-12T09:30:36.931Z</time></trkpt><trkpt lat="41.2606417" lon="15.242465"><ele>768.0</ele><time>2026-04-12T09:30:37.931Z</time></trkpt><trkpt lat="41.2605467" lon="15.24244"><ele>768.0</ele><time>2026-04-12T09:30:38.93Z</time></trkpt><trkpt lat="41.2604617" lon="15.2424083"><ele>768.0</ele><time>2026-04-12T09:30:39.931Z</time></trkpt><trkpt lat="41.26038" lon="15.2423667"><ele>767.1666666666666</ele><time>2026-04-12T09:30:40.931Z</time></trkpt><trkpt lat="41.2603067" lon="15.2423133"><ele>766.3333333333334</ele><time>2026-04-12T09:30:41.931Z</time></trkpt><trkpt lat="41.2602433" lon="15.2422517"><ele>765.5</ele><time>2026-04-12T09:30:42.931Z</time></trkpt><trkpt lat="41.26019" lon="15.24218"><ele>764.6666666666667</ele><time>2026-04-12T09:30:43.931Z</time></trkpt><trkpt lat="41.2601417" lon="15.2420917"><ele>763.8333333333334</ele><time>2026-04-12T09:30:44.931Z</time></trkpt><trkpt lat="41.2600983" lon="15.2419833"><ele>763.0</ele><time>2026-04-12T09:30:45.93Z</time></trkpt><trkpt lat="41.2600483" lon="15.2418633"><ele>763.0</ele><time>2026-04-12T09:30:46.931Z</time></trkpt><trkpt lat="41.2600067" lon="15.2417333"><ele>763.0</ele><time>2026-04-12T09:30:47.93Z</time></trkpt><trkpt lat="41.25997" lon="15.2415967"><ele>763.0</ele><time>2026-04-12T09:30:48.931Z</time></trkpt><trkpt lat="41.2599333" lon="15.2414483"><ele>763.0</ele><time>2026-04-12T09:30:49.931Z</time></trkpt><trkpt lat="41.2598983" lon="15.2413133"><ele>763.0</ele><time>2026-04-12T09:30:50.931Z</time></trkpt><trkpt lat="41.259865" lon="15.2411883"><ele>763.4</ele><time>2026-04-12T09:30:51.931Z</time></trkpt><trkpt lat="41.2598217" lon="15.2410783"><ele>763.8</ele><time>2026-04-12T09:30:52.931Z</time></trkpt><trkpt lat="41.259765" lon="15.2409783"><ele>764.2</ele><time>2026-04-12T09:30:53.931Z</time></trkpt><trkpt lat="41.25969" lon="15.240895"><ele>764.6</ele><time>2026-04-12T09:30:54.93Z</time></trkpt><trkpt lat="41.2596033" lon="15.2408367"><ele>765.0</ele><time>2026-04-12T09:30:55.931Z</time></trkpt><trkpt lat="41.2594967" lon="15.2407917"><ele>762.75</ele><time>2026-04-12T09:30:56.931Z</time></trkpt><trkpt lat="41.2593767" lon="15.240755"><ele>760.5</ele><time>2026-04-12T09:30:57.93Z</time></trkpt><trkpt lat="41.2592467" lon="15.2407283"><ele>758.25</ele><time>2026-04-12T09:30:58.93Z</time></trkpt><trkpt lat="41.2591233" lon="15.2407117"><ele>756.0</ele><time>2026-04-12T09:30:59.931Z</time></trkpt><trkpt lat="41.2590067" lon="15.2407067"><ele>755.5999999999999</ele><time>2026-04-12T09:31:00.931Z</time></trkpt><trkpt lat="41.2588983" lon="15.240715"><ele>755.2</ele><time>2026-04-12T09:31:01.93Z</time></trkpt><trkpt lat="41.2587967" lon="15.2407367"><ele>754.8</ele><time>2026-04-12T09:31:02.931Z</time></trkpt><trkpt lat="41.2586933" lon="15.2407783"><ele>754.4000000000001</ele><time>2026-04-12T09:31:03.931Z</time></trkpt><trkpt lat="41.25859" lon="15.2408467"><ele>754.0</ele><time>2026-04-12T09:31:04.931Z</time></trkpt><trkpt lat="41.2584933" lon="15.240945"><ele>754.0</ele><time>2026-04-12T09:31:05.93Z</time></trkpt><trkpt lat="41.258395" lon="15.241085"><ele>754.0</ele><time>2026-04-12T09:31:06.931Z</time></trkpt><trkpt lat="41.2582883" lon="15.2412667"><ele>754.0</ele><time>2026-04-12T09:31:07.93Z</time></trkpt><trkpt lat="41.258175" lon="15.241485"><ele>752.5</ele><time>2026-04-12T09:31:08.93Z</time></trkpt><trkpt lat="41.2580317" lon="15.24173"><ele>751.0</ele><time>2026-04-12T09:31:09.931Z</time></trkpt><trkpt lat="41.2578767" lon="15.2419983"><ele>751.0</ele><time>2026-04-12T09:31:10.931Z</time></trkpt><trkpt lat="41.25773" lon="15.2422483"><ele>751.0</ele><time>2026-04-12T09:31:11.93Z</time></trkpt><trkpt lat="41.2575883" lon="15.2425017"><ele>750.3333333333334</ele><time>2026-04-12T09:31:12.931Z</time></trkpt><trkpt lat="41.2574667" lon="15.2427217"><ele>749.6666666666666</ele><time>2026-04-12T09:31:13.93Z</time></trkpt><trkpt lat="41.2573533" lon="15.242925"><ele>749.0</ele><time>2026-04-12T09:31:14.931Z</time></trkpt><trkpt lat="41.2572517" lon="15.2431117"><ele>748.3333333333333</ele><time>2026-04-12T09:31:15.931Z</time></trkpt><trkpt lat="41.2571517" lon="15.24329"><ele>747.6666666666666</ele><time>2026-04-12T09:31:16.93Z</time></trkpt><trkpt lat="41.2570617" lon="15.24345"><ele>747.0</ele><time>2026-04-12T09:31:17.93Z</time></trkpt><trkpt lat="41.2569683" lon="15.2436183"><ele>747.0</ele><time>2026-04-12T09:31:18.931Z</time></trkpt><trkpt lat="41.256885" lon="15.2437767"><ele>747.0</ele><time>2026-04-12T09:31:19.93Z</time></trkpt><trkpt lat="41.256795" lon="15.2439117"><ele>747.0</ele><time>2026-04-12T09:31:20.93Z</time></trkpt><trkpt lat="41.2566883" lon="15.2440283"><ele>747.0</ele><time>2026-04-12T09:31:21.931Z</time></trkpt><trkpt lat="41.25657" lon="15.244125"><ele>747.0</ele><time>2026-04-12T09:31:22.931Z</time></trkpt><trkpt lat="41.25645" lon="15.2442067"><ele>747.0</ele><time>2026-04-12T09:31:23.93Z</time></trkpt><trkpt lat="41.2563217" lon="15.244285"><ele>747.0</ele><time>2026-04-12T09:31:24.931Z</time></trkpt><trkpt lat="41.2562117" lon="15.2443867"><ele>747.0</ele><time>2026-04-12T09:31:25.93Z</time></trkpt><trkpt lat="41.2561133" lon="15.2445183"><ele>747.0</ele><time>2026-04-12T09:31:26.93Z</time></trkpt><trkpt lat="41.2560167" lon="15.2446767"><ele>747.0</ele><time>2026-04-12T09:31:27.93Z</time></trkpt><trkpt lat="41.255915" lon="15.2448633"><ele>747.0</ele><time>2026-04-12T09:31:28.931Z</time></trkpt><trkpt lat="41.2558183" lon="15.245045"><ele>745.5</ele><time>2026-04-12T09:31:29.931Z</time></trkpt><trkpt lat="41.2557267" lon="15.2452067"><ele>744.0</ele><time>2026-04-12T09:31:30.931Z</time></trkpt><trkpt lat="41.2556533" lon="15.24534"><ele>742.5</ele><time>2026-04-12T09:31:31.93Z</time></trkpt><trkpt lat="41.2555683" lon="15.2454533"><ele>741.0</ele><time>2026-04-12T09:31:32.931Z</time></trkpt><trkpt lat="41.2554767" lon="15.2455317"><ele>743.5999999999999</ele><time>2026-04-12T09:31:33.931Z</time></trkpt><trkpt lat="41.25537" lon="15.2455817"><ele>746.2</ele><time>2026-04-12T09:31:34.931Z</time></trkpt><trkpt lat="41.255255" lon="15.2456"><ele>748.8</ele><time>2026-04-12T09:31:35.93Z</time></trkpt><trkpt lat="41.2551517" lon="15.2455917"><ele>751.4000000000001</ele><time>2026-04-12T09:31:36.931Z</time></trkpt><trkpt lat="41.2550433" lon="15.2455583"><ele>754.0</ele><time>2026-04-12T09:31:37.931Z</time></trkpt><trkpt lat="41.254935" lon="15.2455"><ele>754.0</ele><time>2026-04-12T09:31:38.931Z</time></trkpt><trkpt lat="41.2548217" lon="15.2454533"><ele>754.0</ele><time>2026-04-12T09:31:39.931Z</time></trkpt><trkpt lat="41.2547033" lon="15.2454433"><ele>754.0</ele><time>2026-04-12T09:31:40.93Z</time></trkpt><trkpt lat="41.2545817" lon="15.2454633"><ele>754.0</ele><time>2026-04-12T09:31:41.931Z</time></trkpt><trkpt lat="41.2544433" lon="15.24552"><ele>752.25</ele><time>2026-04-12T09:31:42.93Z</time></trkpt><trkpt lat="41.2543083" lon="15.2456"><ele>750.5</ele><time>2026-04-12T09:31:43.931Z</time></trkpt><trkpt lat="41.25417" lon="15.2456733"><ele>748.75</ele><time>2026-04-12T09:31:44.93Z</time></trkpt><trkpt lat="41.2540283" lon="15.2457333"><ele>747.0</ele><time>2026-04-12T09:31:45.931Z</time></trkpt><trkpt lat="41.2538817" lon="15.24578"><ele>747.0</ele><time>2026-04-12T09:31:46.931Z</time></trkpt><trkpt lat="41.25373" lon="15.24583"><ele>747.0</ele><time>2026-04-12T09:31:47.931Z</time></trkpt><trkpt lat="41.2535767" lon="15.2458867"><ele>747.0</ele><time>2026-04-12T09:31:48.93Z</time></trkpt><trkpt lat="41.2534333" lon="15.2459567"><ele>747.0</ele><time>2026-04-12T09:31:49.93Z</time></trkpt><trkpt lat="41.2532967" lon="15.2460383"><ele>747.0</ele><time>2026-04-12T09:31:50.931Z</time></trkpt><trkpt lat="41.2531683" lon="15.2461133"><ele>747.0</ele><time>2026-04-12T09:31:51.931Z</time></trkpt><trkpt lat="41.2530517" lon="15.2461783"><ele>747.0</ele><time>2026-04-12T09:31:52.931Z</time></trkpt><trkpt lat="41.2529317" lon="15.2462317"><ele>749.75</ele><time>2026-04-12T09:31:53.931Z</time></trkpt><trkpt lat="41.2528033" lon="15.2462667"><ele>752.5</ele><time>2026-04-12T09:31:54.93Z</time></trkpt><trkpt lat="41.25267" lon="15.2462967"><ele>755.25</ele><time>2026-04-12T09:31:55.93Z</time></trkpt><trkpt lat="41.2525533" lon="15.2463317"><ele>758.0</ele><time>2026-04-12T09:31:56.93Z</time></trkpt><trkpt lat="41.2524533" lon="15.2463867"><ele>756.4</ele><time>2026-04-12T09:31:57.931Z</time></trkpt><trkpt lat="41.2523667" lon="15.24647"><ele>754.8</ele><time>2026-04-12T09:31:58.931Z</time></trkpt><trkpt lat="41.252285" lon="15.2465667"><ele>753.2</ele><time>2026-04-12T09:31:59.931Z</time></trkpt><trkpt lat="41.252195" lon="15.2466567"><ele>751.6</ele><time>2026-04-12T09:32:00.931Z</time></trkpt><trkpt lat="41.252085" lon="15.246715"><ele>750.0</ele><time>2026-04-12T09:32:01.93Z</time></trkpt><trkpt lat="41.2519617" lon="15.2467467"><ele>750.0</ele><time>2026-04-12T09:32:02.93Z</time></trkpt><trkpt lat="41.2518467" lon="15.2467867"><ele>750.0</ele><time>2026-04-12T09:32:03.929Z</time></trkpt><trkpt lat="41.251745" lon="15.2468533"><ele>750.0</ele><time>2026-04-12T09:32:04.93Z</time></trkpt><trkpt lat="41.25166" lon="15.2469483"><ele>750.0</ele><time>2026-04-12T09:32:05.929Z</time></trkpt><trkpt lat="41.251585" lon="15.247065"><ele>750.0</ele><time>2026-04-12T09:32:06.93Z</time></trkpt><trkpt lat="41.25151" lon="15.247175"><ele>750.0</ele><time>2026-04-12T09:32:07.93Z</time></trkpt><trkpt lat="41.2514267" lon="15.2472633"><ele>750.0</ele><time>2026-04-12T09:32:08.93Z</time></trkpt><trkpt lat="41.2513283" lon="15.24733"><ele>750.0</ele><time>2026-04-12T09:32:09.929Z</time></trkpt><trkpt lat="41.2512133" lon="15.2473633"><ele>750.0</ele><time>2026-04-12T09:32:10.93Z</time></trkpt><trkpt lat="41.2510967" lon="15.247365"><ele>746.25</ele><time>2026-04-12T09:32:11.929Z</time></trkpt><trkpt lat="41.2509783" lon="15.2473533"><ele>742.5</ele><time>2026-04-12T09:32:12.93Z</time></trkpt><trkpt lat="41.2508633" lon="15.2473367"><ele>738.75</ele><time>2026-04-12T09:32:13.929Z</time></trkpt><trkpt lat="41.2507533" lon="15.2473267"><ele>735.0</ele><time>2026-04-12T09:32:14.93Z</time></trkpt><trkpt lat="41.2506383" lon="15.2473583"><ele>737.0</ele><time>2026-04-12T09:32:15.929Z</time></trkpt><trkpt lat="41.2505283" lon="15.2474133"><ele>739.0</ele><time>2026-04-12T09:32:16.929Z</time></trkpt><trkpt lat="41.2504267" lon="15.2474817"><ele>741.0</ele><time>2026-04-12T09:32:17.93Z</time></trkpt><trkpt lat="41.250335" lon="15.2475417"><ele>743.0</ele><time>2026-04-12T09:32:18.929Z</time></trkpt><trkpt lat="41.2502533" lon="15.2476133"><ele>745.0</ele><time>2026-04-12T09:32:19.93Z</time></trkpt><trkpt lat="41.2501733" lon="15.2476917"><ele>745.0</ele><time>2026-04-12T09:32:20.929Z</time></trkpt><trkpt lat="41.2500983" lon="15.2477717"><ele>745.0</ele><time>2026-04-12T09:32:21.93Z</time></trkpt><trkpt lat="41.2500217" lon="15.2478467"><ele>745.0</ele><time>2026-04-12T09:32:22.929Z</time></trkpt><trkpt lat="41.2499417" lon="15.2479233"><ele>745.0</ele><time>2026-04-12T09:32:23.93Z</time></trkpt><trkpt lat="41.2498617" lon="15.2480067"><ele>745.0</ele><time>2026-04-12T09:32:24.93Z</time></trkpt><trkpt lat="41.2497883" lon="15.248085"><ele>742.4</ele><time>2026-04-12T09:32:25.929Z</time></trkpt><trkpt lat="41.2497183" lon="15.24815"><ele>739.8</ele><time>2026-04-12T09:32:26.929Z</time></trkpt><trkpt lat="41.2496567" lon="15.2482033"><ele>737.2</ele><time>2026-04-12T09:32:27.93Z</time></trkpt><trkpt lat="41.2495567" lon="15.24825"><ele>734.6</ele><time>2026-04-12T09:32:29.929Z</time></trkpt><trkpt lat="41.2494533" lon="15.248225"><ele>732.0</ele><time>2026-04-12T09:32:31.93Z</time></trkpt><trkpt lat="41.249355" lon="15.24818"><ele>733.1666666666666</ele><time>2026-04-12T09:32:33.929Z</time></trkpt><trkpt lat="41.2493017" lon="15.2481133"><ele>734.3333333333334</ele><time>2026-04-12T09:32:35.929Z</time></trkpt><trkpt lat="41.249295" lon="15.2480067"><ele>735.5</ele><time>2026-04-12T09:32:37.93Z</time></trkpt><trkpt lat="41.2492583" lon="15.2478617"><ele>736.6666666666667</ele><time>2026-04-12T09:32:39.93Z</time></trkpt><trkpt lat="41.2492317" lon="15.2477683"><ele>737.8333333333334</ele><time>2026-04-12T09:32:40.929Z</time></trkpt><trkpt lat="41.2492017" lon="15.2476733"><ele>739.0</ele><time>2026-04-12T09:32:41.929Z</time></trkpt><trkpt lat="41.2491617" lon="15.2475767"><ele>739.0</ele><time>2026-04-12T09:32:42.93Z</time></trkpt><trkpt lat="41.2491167" lon="15.2474783"><ele>739.0</ele><time>2026-04-12T09:32:43.93Z</time></trkpt><trkpt lat="41.2490583" lon="15.2473867"><ele>739.0</ele><time>2026-04-12T09:32:44.929Z</time></trkpt><trkpt lat="41.2489883" lon="15.2473183"><ele>739.0</ele><time>2026-04-12T09:32:45.929Z</time></trkpt><trkpt lat="41.2489117" lon="15.247275"><ele>739.0</ele><time>2026-04-12T09:32:46.929Z</time></trkpt><trkpt lat="41.2488333" lon="15.247245"><ele>739.0</ele><time>2026-04-12T09:32:47.93Z</time></trkpt><trkpt lat="41.2487533" lon="15.2472033"><ele>737.8333333333334</ele><time>2026-04-12T09:32:48.929Z</time></trkpt><trkpt lat="41.2486767" lon="15.2471617"><ele>736.6666666666667</ele><time>2026-04-12T09:32:49.93Z</time></trkpt><trkpt lat="41.2485983" lon="15.247115"><ele>735.5</ele><time>2026-04-12T09:32:50.93Z</time></trkpt><trkpt lat="41.2485267" lon="15.2470633"><ele>734.3333333333334</ele><time>2026-04-12T09:32:51.93Z</time></trkpt><trkpt lat="41.2484633" lon="15.2470017"><ele>733.1666666666666</ele><time>2026-04-12T09:32:52.93Z</time></trkpt><trkpt lat="41.24841" lon="15.2469317"><ele>732.0</ele><time>2026-04-12T09:32:53.93Z</time></trkpt><trkpt lat="41.248365" lon="15.2468567"><ele>732.0</ele><time>2026-04-12T09:32:54.93Z</time></trkpt><trkpt lat="41.2483283" lon="15.246775"><ele>732.0</ele><time>2026-04-12T09:32:55.93Z</time></trkpt><trkpt lat="41.2482983" lon="15.2466817"><ele>732.0</ele><time>2026-04-12T09:32:56.93Z</time></trkpt><trkpt lat="41.248275" lon="15.2465733"><ele>732.0</ele><time>2026-04-12T09:32:57.93Z</time></trkpt><trkpt lat="41.2482483" lon="15.2464683"><ele>732.0</ele><time>2026-04-12T09:32:58.929Z</time></trkpt><trkpt lat="41.2482133" lon="15.24635"><ele>732.0</ele><time>2026-04-12T09:32:59.929Z</time></trkpt><trkpt lat="41.2481683" lon="15.2462433"><ele>731.0</ele><time>2026-04-12T09:33:00.929Z</time></trkpt><trkpt lat="41.248115" lon="15.246155"><ele>730.0</ele><time>2026-04-12T09:33:01.93Z</time></trkpt><trkpt lat="41.2480483" lon="15.2460833"><ele>729.0</ele><time>2026-04-12T09:33:02.929Z</time></trkpt><trkpt lat="41.2479867" lon="15.24603"><ele>728.0</ele><time>2026-04-12T09:33:03.93Z</time></trkpt><trkpt lat="41.2479167" lon="15.2459983"><ele>727.0</ele><time>2026-04-12T09:33:04.93Z</time></trkpt><trkpt lat="41.247825" lon="15.24601"><ele>726.0</ele><time>2026-04-12T09:33:05.93Z</time></trkpt><trkpt lat="41.2477483" lon="15.2460117"><ele>726.0</ele><time>2026-04-12T09:33:06.93Z</time></trkpt><trkpt lat="41.2476783" lon="15.2460033"><ele>726.0</ele><time>2026-04-12T09:33:07.929Z</time></trkpt><trkpt lat="41.24756" lon="15.245965"><ele>726.0</ele><time>2026-04-12T09:33:09.929Z</time></trkpt><trkpt lat="41.2474583" lon="15.2458833"><ele>726.0</ele><time>2026-04-12T09:33:11.93Z</time></trkpt><trkpt lat="41.2474133" lon="15.24582"><ele>726.0</ele><time>2026-04-12T09:33:12.93Z</time></trkpt><trkpt lat="41.2473717" lon="15.245745"><ele>726.0</ele><time>2026-04-12T09:33:13.93Z</time></trkpt><trkpt lat="41.24732" lon="15.2456767"><ele>726.1666666666666</ele><time>2026-04-12T09:33:14.93Z</time></trkpt><trkpt lat="41.247265" lon="15.2456067"><ele>726.3333333333334</ele><time>2026-04-12T09:33:15.93Z</time></trkpt><trkpt lat="41.2472017" lon="15.2455367"><ele>726.5</ele><time>2026-04-12T09:33:16.93Z</time></trkpt><trkpt lat="41.2471283" lon="15.2454883"><ele>726.6666666666667</ele><time>2026-04-12T09:33:17.93Z</time></trkpt><trkpt lat="41.24705" lon="15.245455"><ele>726.8333333333334</ele><time>2026-04-12T09:33:18.93Z</time></trkpt><trkpt lat="41.2469517" lon="15.2454467"><ele>727.0</ele><time>2026-04-12T09:33:19.93Z</time></trkpt><trkpt lat="41.2468433" lon="15.2454667"><ele>727.0</ele><time>2026-04-12T09:33:20.93Z</time></trkpt><trkpt lat="41.2467417" lon="15.245495"><ele>727.0</ele><time>2026-04-12T09:33:21.929Z</time></trkpt><trkpt lat="41.2466383" lon="15.2455217"><ele>727.0</ele><time>2026-04-12T09:33:22.93Z</time></trkpt><trkpt lat="41.2465367" lon="15.245545"><ele>727.0</ele><time>2026-04-12T09:33:23.929Z</time></trkpt><trkpt lat="41.24644" lon="15.2455417"><ele>727.0</ele><time>2026-04-12T09:33:24.929Z</time></trkpt><trkpt lat="41.246345" lon="15.2455033"><ele>721.25</ele><time>2026-04-12T09:33:25.929Z</time></trkpt><trkpt lat="41.24625" lon="15.2454283"><ele>715.5</ele><time>2026-04-12T09:33:26.93Z</time></trkpt><trkpt lat="41.2461533" lon="15.245335"><ele>709.75</ele><time>2026-04-12T09:33:27.93Z</time></trkpt><trkpt lat="41.24606" lon="15.2452283"><ele>704.0</ele><time>2026-04-12T09:33:28.929Z</time></trkpt><trkpt lat="41.24598" lon="15.2451083"><ele>704.0</ele><time>2026-04-12T09:33:29.929Z</time></trkpt><trkpt lat="41.2459067" lon="15.2449867"><ele>704.0</ele><time>2026-04-12T09:33:30.93Z</time></trkpt><trkpt lat="41.2458433" lon="15.2448783"><ele>704.0</ele><time>2026-04-12T09:33:31.929Z</time></trkpt><trkpt lat="41.2457933" lon="15.2447633"><ele>704.0</ele><time>2026-04-12T09:33:32.929Z</time></trkpt><trkpt lat="41.24577" lon="15.2446383"><ele>704.0</ele><time>2026-04-12T09:33:33.93Z</time></trkpt><trkpt lat="41.2457667" lon="15.2444933"><ele>702.75</ele><time>2026-04-12T09:33:34.93Z</time></trkpt><trkpt lat="41.2458017" lon="15.24433"><ele>701.5</ele><time>2026-04-12T09:33:35.93Z</time></trkpt><trkpt lat="41.2458583" lon="15.2441583"><ele>700.25</ele><time>2026-04-12T09:33:36.93Z</time></trkpt><trkpt lat="41.2459333" lon="15.24398"><ele>699.0</ele><time>2026-04-12T09:33:37.93Z</time></trkpt><trkpt lat="41.2460133" lon="15.2437917"><ele>694.3333333333334</ele><time>2026-04-12T09:33:38.93Z</time></trkpt><trkpt lat="41.246095" lon="15.2435983"><ele>689.6666666666667</ele><time>2026-04-12T09:33:39.93Z</time></trkpt><trkpt lat="41.246175" lon="15.243405"><ele>685.0</ele><time>2026-04-12T09:33:40.929Z</time></trkpt><trkpt lat="41.2462483" lon="15.2432183"><ele>682.0</ele><time>2026-04-12T09:33:41.93Z</time></trkpt><trkpt lat="41.2463083" lon="15.2430467"><ele>679.0</ele><time>2026-04-12T09:33:42.93Z</time></trkpt><trkpt lat="41.24636" lon="15.2428867"><ele>676.0</ele><time>2026-04-12T09:33:43.93Z</time></trkpt><trkpt lat="41.2463917" lon="15.2427217"><ele>673.0</ele><time>2026-04-12T09:33:44.93Z</time></trkpt><trkpt lat="41.2464033" lon="15.24256"><ele>673.0</ele><time>2026-04-12T09:33:45.93Z</time></trkpt><trkpt lat="41.2464033" lon="15.2423983"><ele>673.0</ele><time>2026-04-12T09:33:46.93Z</time></trkpt><trkpt lat="41.24642" lon="15.2422433"><ele>673.0</ele><time>2026-04-12T09:33:47.93Z</time></trkpt><trkpt lat="41.2464567" lon="15.2421017"><ele>673.0</ele><time>2026-04-12T09:33:48.929Z</time></trkpt><trkpt lat="41.2465067" lon="15.24195"><ele>669.5</ele><time>2026-04-12T09:33:49.93Z</time></trkpt><trkpt lat="41.2465817" lon="15.2418117"><ele>666.0</ele><time>2026-04-12T09:33:50.929Z</time></trkpt><trkpt lat="41.2466817" lon="15.241655"><ele>662.5</ele><time>2026-04-12T09:33:51.929Z</time></trkpt><trkpt lat="41.2467667" lon="15.2414933"><ele>659.0</ele><time>2026-04-12T09:33:52.93Z</time></trkpt><trkpt lat="41.2468333" lon="15.24134"><ele>659.0</ele><time>2026-04-12T09:33:53.93Z</time></trkpt><trkpt lat="41.2469033" lon="15.2412"><ele>659.0</ele><time>2026-04-12T09:33:54.929Z</time></trkpt><trkpt lat="41.2469717" lon="15.24111"><ele>659.0</ele><time>2026-04-12T09:33:55.929Z</time></trkpt><trkpt lat="41.2470467" lon="15.2410333"><ele>659.0</ele><time>2026-04-12T09:33:56.93Z</time></trkpt><trkpt lat="41.247125" lon="15.2410083"><ele>659.0</ele><time>2026-04-12T09:33:57.93Z</time></trkpt><trkpt lat="41.247205" lon="15.2410017"><ele>659.0</ele><time>2026-04-12T09:33:58.929Z</time></trkpt><trkpt lat="41.2472917" lon="15.2410483"><ele>659.0</ele><time>2026-04-12T09:33:59.93Z</time></trkpt><trkpt lat="41.24739" lon="15.2411383"><ele>659.0</ele><time>2026-04-12T09:34:00.929Z</time></trkpt><trkpt lat="41.247505" lon="15.24123"><ele>659.0</ele><time>2026-04-12T09:34:01.93Z</time></trkpt><trkpt lat="41.2476283" lon="15.2413217"><ele>663.75</ele><time>2026-04-12T09:34:02.93Z</time></trkpt><trkpt lat="41.2477467" lon="15.2414117"><ele>668.5</ele><time>2026-04-12T09:34:03.93Z</time></trkpt><trkpt lat="41.2478633" lon="15.2415"><ele>673.25</ele><time>2026-04-12T09:34:04.929Z</time></trkpt><trkpt lat="41.24796" lon="15.2415583"><ele>678.0</ele><time>2026-04-12T09:34:05.93Z</time></trkpt><trkpt lat="41.2480483" lon="15.241605"><ele>675.8</ele><time>2026-04-12T09:34:06.93Z</time></trkpt><trkpt lat="41.2481383" lon="15.24161"><ele>673.5999999999999</ele><time>2026-04-12T09:34:07.93Z</time></trkpt><trkpt lat="41.2482333" lon="15.241575"><ele>671.4000000000001</ele><time>2026-04-12T09:34:08.93Z</time></trkpt><trkpt lat="41.2483333" lon="15.241495"><ele>669.2</ele><time>2026-04-12T09:34:09.929Z</time></trkpt><trkpt lat="41.248435" lon="15.241425"><ele>667.0</ele><time>2026-04-12T09:34:10.93Z</time></trkpt><trkpt lat="41.2485467" lon="15.241345"><ele>667.0</ele><time>2026-04-12T09:34:11.93Z</time></trkpt><trkpt lat="41.248665" lon="15.24129"><ele>667.0</ele><time>2026-04-12T09:34:12.929Z</time></trkpt><trkpt lat="41.24878" lon="15.2412633"><ele>667.0</ele><time>2026-04-12T09:34:13.93Z</time></trkpt><trkpt lat="41.2488767" lon="15.24124"><ele>667.0</ele><time>2026-04-12T09:34:14.929Z</time></trkpt><trkpt lat="41.24897" lon="15.2412183"><ele>667.0</ele><time>2026-04-12T09:34:15.93Z</time></trkpt><trkpt lat="41.249045" lon="15.2411683"><ele>673.4000000000001</ele><time>2026-04-12T09:34:16.929Z</time></trkpt><trkpt lat="41.2490883" lon="15.24108"><ele>679.8000000000001</ele><time>2026-04-12T09:34:17.93Z</time></trkpt><trkpt lat="41.24911" lon="15.24097"><ele>686.2</ele><time>2026-04-12T09:34:18.93Z</time></trkpt><trkpt lat="41.2491083" lon="15.2408433"><ele>692.6</ele><time>2026-04-12T09:34:19.929Z</time></trkpt><trkpt lat="41.249045" lon="15.2406583"><ele>699.0</ele><time>2026-04-12T09:34:20.929Z</time></trkpt><trkpt lat="41.2489783" lon="15.2404717"><ele>685.6666666666666</ele><time>2026-04-12T09:34:21.93Z</time></trkpt><trkpt lat="41.2488967" lon="15.240275"><ele>672.3333333333333</ele><time>2026-04-12T09:34:22.93Z</time></trkpt><trkpt lat="41.24883" lon="15.2400717"><ele>659.0</ele><time>2026-04-12T09:34:23.93Z</time></trkpt><trkpt lat="41.24877" lon="15.23988"><ele>659.0</ele><time>2026-04-12T09:34:24.93Z</time></trkpt><trkpt lat="41.2486983" lon="15.2397183"><ele>659.0</ele><time>2026-04-12T09:34:25.93Z</time></trkpt><trkpt lat="41.24865" lon="15.2395733"><ele>659.0</ele><time>2026-04-12T09:34:26.93Z</time></trkpt><trkpt lat="41.2486" lon="15.2394517"><ele>659.0</ele><time>2026-04-12T09:34:27.93Z</time></trkpt><trkpt lat="41.24857" lon="15.239325"><ele>659.0</ele><time>2026-04-12T09:34:28.93Z</time></trkpt><trkpt lat="41.24856" lon="15.2392117"><ele>659.0</ele><time>2026-04-12T09:34:29.93Z</time></trkpt><trkpt lat="41.248595" lon="15.2390917"><ele>659.0</ele><time>2026-04-12T09:34:30.929Z</time></trkpt><trkpt lat="41.2486467" lon="15.23898"><ele>659.0</ele><time>2026-04-12T09:34:31.93Z</time></trkpt><trkpt lat="41.2487217" lon="15.238855"><ele>659.0</ele><time>2026-04-12T09:34:32.929Z</time></trkpt><trkpt lat="41.24884" lon="15.238715"><ele>659.0</ele><time>2026-04-12T09:34:33.93Z</time></trkpt><trkpt lat="41.24894" lon="15.23858"><ele>659.0</ele><time>2026-04-12T09:34:34.929Z</time></trkpt><trkpt lat="41.2490283" lon="15.238465"><ele>659.0</ele><time>2026-04-12T09:34:35.93Z</time></trkpt><trkpt lat="41.2491" lon="15.2383183"><ele>659.0</ele><time>2026-04-12T09:34:36.93Z</time></trkpt><trkpt lat="41.249155" lon="15.2381533"><ele>662.75</ele><time>2026-04-12T09:34:37.93Z</time></trkpt><trkpt lat="41.2491917" lon="15.2379817"><ele>666.5</ele><time>2026-04-12T09:34:38.93Z</time></trkpt><trkpt lat="41.2492217" lon="15.2378317"><ele>670.25</ele><time>2026-04-12T09:34:39.93Z</time></trkpt><trkpt lat="41.2492417" lon="15.2377017"><ele>674.0</ele><time>2026-04-12T09:34:40.93Z</time></trkpt><trkpt lat="41.2492433" lon="15.237565"><ele>674.0</ele><time>2026-04-12T09:34:41.93Z</time></trkpt><trkpt lat="41.2492183" lon="15.237445"><ele>674.0</ele><time>2026-04-12T09:34:42.93Z</time></trkpt><trkpt lat="41.2491683" lon="15.2373467"><ele>674.0</ele><time>2026-04-12T09:34:43.929Z</time></trkpt><trkpt lat="41.24912" lon="15.2372717"><ele>674.0</ele><time>2026-04-12T09:34:44.929Z</time></trkpt><trkpt lat="41.2490583" lon="15.2372083"><ele>674.0</ele><time>2026-04-12T09:34:45.929Z</time></trkpt><trkpt lat="41.248985" lon="15.237165"><ele>674.0</ele><time>2026-04-12T09:34:46.93Z</time></trkpt><trkpt lat="41.2489167" lon="15.237135"><ele>669.75</ele><time>2026-04-12T09:34:47.93Z</time></trkpt><trkpt lat="41.2488333" lon="15.2371817"><ele>665.5</ele><time>2026-04-12T09:34:48.93Z</time></trkpt><trkpt lat="41.2487367" lon="15.2372617"><ele>661.25</ele><time>2026-04-12T09:34:49.93Z</time></trkpt><trkpt lat="41.2486333" lon="15.2373817"><ele>657.0</ele><time>2026-04-12T09:34:50.93Z</time></trkpt><trkpt lat="41.2485533" lon="15.2375017"><ele>657.0</ele><time>2026-04-12T09:34:51.93Z</time></trkpt><trkpt lat="41.2484833" lon="15.2376183"><ele>657.0</ele><time>2026-04-12T09:34:52.93Z</time></trkpt><trkpt lat="41.248425" lon="15.2377617"><ele>657.0</ele><time>2026-04-12T09:34:53.93Z</time></trkpt><trkpt lat="41.2483717" lon="15.2378733"><ele>657.0</ele><time>2026-04-12T09:34:54.929Z</time></trkpt><trkpt lat="41.2483133" lon="15.237965"><ele>657.0</ele><time>2026-04-12T09:34:55.93Z</time></trkpt><trkpt lat="41.2482533" lon="15.2380217"><ele>657.0</ele><time>2026-04-12T09:34:56.93Z</time></trkpt><trkpt lat="41.2481833" lon="15.2380167"><ele>657.0</ele><time>2026-04-12T09:34:57.929Z</time></trkpt><trkpt lat="41.2481083" lon="15.2379183"><ele>657.0</ele><time>2026-04-12T09:34:59.929Z</time></trkpt><trkpt lat="41.24813" lon="15.2377533"><ele>657.0</ele><time>2026-04-12T09:35:01.93Z</time></trkpt><trkpt lat="41.2481833" lon="15.23765"><ele>657.0</ele><time>2026-04-12T09:35:02.93Z</time></trkpt><trkpt lat="41.2482783" lon="15.2375117"><ele>657.0</ele><time>2026-04-12T09:35:03.93Z</time></trkpt><trkpt lat="41.2483683" lon="15.23737"><ele>657.0</ele><time>2026-04-12T09:35:04.929Z</time></trkpt><trkpt lat="41.2484483" lon="15.237225"><ele>657.0</ele><time>2026-04-12T09:35:05.93Z</time></trkpt><trkpt lat="41.2485183" lon="15.23707"><ele>657.0</ele><time>2026-04-12T09:35:06.929Z</time></trkpt><trkpt lat="41.2485867" lon="15.2369083"><ele>653.5</ele><time>2026-04-12T09:35:07.93Z</time></trkpt><trkpt lat="41.2486467" lon="15.2367717"><ele>650.0</ele><time>2026-04-12T09:35:08.929Z</time></trkpt><trkpt lat="41.2487133" lon="15.2366167"><ele>646.5</ele><time>2026-04-12T09:35:09.93Z</time></trkpt><trkpt lat="41.24879" lon="15.2364683"><ele>643.0</ele><time>2026-04-12T09:35:10.93Z</time></trkpt><trkpt lat="41.248875" lon="15.2363333"><ele>645.25</ele><time>2026-04-12T09:35:11.93Z</time></trkpt><trkpt lat="41.2489633" lon="15.236205"><ele>647.5</ele><time>2026-04-12T09:35:12.93Z</time></trkpt><trkpt lat="41.2490467" lon="15.2360833"><ele>649.75</ele><time>2026-04-12T09:35:13.929Z</time></trkpt><trkpt lat="41.2491267" lon="15.23596"><ele>652.0</ele><time>2026-04-12T09:35:14.93Z</time></trkpt><trkpt lat="41.2492083" lon="15.2358383"><ele>652.0</ele><time>2026-04-12T09:35:15.93Z</time></trkpt><trkpt lat="41.2492833" lon="15.23572"><ele>652.0</ele><time>2026-04-12T09:35:16.93Z</time></trkpt><trkpt lat="41.2493617" lon="15.2355967"><ele>652.0</ele><time>2026-04-12T09:35:17.929Z</time></trkpt><trkpt lat="41.2494483" lon="15.235475"><ele>652.0</ele><time>2026-04-12T09:35:18.93Z</time></trkpt><trkpt lat="41.2495317" lon="15.2353517"><ele>655.25</ele><time>2026-04-12T09:35:19.93Z</time></trkpt><trkpt lat="41.2496117" lon="15.2352333"><ele>658.5</ele><time>2026-04-12T09:35:20.93Z</time></trkpt><trkpt lat="41.24969" lon="15.23511"><ele>661.75</ele><time>2026-04-12T09:35:21.93Z</time></trkpt><trkpt lat="41.2497733" lon="15.2349867"><ele>665.0</ele><time>2026-04-12T09:35:22.93Z</time></trkpt><trkpt lat="41.2498233" lon="15.2348333"><ele>660.3333333333333</ele><time>2026-04-12T09:35:23.929Z</time></trkpt><trkpt lat="41.2498733" lon="15.2346467"><ele>655.6666666666666</ele><time>2026-04-12T09:35:24.93Z</time></trkpt><trkpt lat="41.249895" lon="15.23445"><ele>651.0</ele><time>2026-04-12T09:35:25.93Z</time></trkpt><trkpt lat="41.2499" lon="15.2342383"><ele>651.0</ele><time>2026-04-12T09:35:26.93Z</time></trkpt><trkpt lat="41.2499017" lon="15.233995"><ele>651.0</ele><time>2026-04-12T09:35:27.93Z</time></trkpt><trkpt lat="41.249915" lon="15.2337317"><ele>651.0</ele><time>2026-04-12T09:35:28.929Z</time></trkpt><trkpt lat="41.24994" lon="15.2334817"><ele>648.6666666666666</ele><time>2026-04-12T09:35:29.93Z</time></trkpt><trkpt lat="41.2499583" lon="15.2332567"><ele>646.3333333333333</ele><time>2026-04-12T09:35:30.93Z</time></trkpt><trkpt lat="41.2499783" lon="15.2330567"><ele>644.0</ele><time>2026-04-12T09:35:31.93Z</time></trkpt><trkpt lat="41.2500017" lon="15.2328683"><ele>643.5</ele><time>2026-04-12T09:35:32.929Z</time></trkpt><trkpt lat="41.2500167" lon="15.2326917"><ele>643.0</ele><time>2026-04-12T09:35:33.929Z</time></trkpt><trkpt lat="41.25001" lon="15.2325117"><ele>642.5</ele><time>2026-04-12T09:35:34.929Z</time></trkpt><trkpt lat="41.2499567" lon="15.23232"><ele>642.0</ele><time>2026-04-12T09:35:35.93Z</time></trkpt><trkpt lat="41.2498633" lon="15.2321"><ele>644.0</ele><time>2026-04-12T09:35:36.929Z</time></trkpt><trkpt lat="41.249795" lon="15.231875"><ele>646.0</ele><time>2026-04-12T09:35:37.929Z</time></trkpt><trkpt lat="41.24974" lon="15.2316583"><ele>648.0</ele><time>2026-04-12T09:35:38.93Z</time></trkpt><trkpt lat="41.24969" lon="15.2314517"><ele>644.5</ele><time>2026-04-12T09:35:39.93Z</time></trkpt><trkpt lat="41.2496417" lon="15.231255"><ele>641.0</ele><time>2026-04-12T09:35:40.93Z</time></trkpt><trkpt lat="41.2495817" lon="15.2310917"><ele>637.5</ele><time>2026-04-12T09:35:41.93Z</time></trkpt><trkpt lat="41.24951" lon="15.230955"><ele>634.0</ele><time>2026-04-12T09:35:42.929Z</time></trkpt><trkpt lat="41.2494233" lon="15.2308383"><ele>634.0</ele><time>2026-04-12T09:35:43.929Z</time></trkpt><trkpt lat="41.2493183" lon="15.230735"><ele>634.0</ele><time>2026-04-12T09:35:44.93Z</time></trkpt><trkpt lat="41.2491883" lon="15.2306567"><ele>634.0</ele><time>2026-04-12T09:35:45.93Z</time></trkpt><trkpt lat="41.2490533" lon="15.230595"><ele>634.0</ele><time>2026-04-12T09:35:46.929Z</time></trkpt><trkpt lat="41.2489133" lon="15.2305367"><ele>631.0</ele><time>2026-04-12T09:35:47.93Z</time></trkpt><trkpt lat="41.24876" lon="15.2304617"><ele>628.0</ele><time>2026-04-12T09:35:48.93Z</time></trkpt><trkpt lat="41.24862" lon="15.23036"><ele>625.0</ele><time>2026-04-12T09:35:49.93Z</time></trkpt><trkpt lat="41.24848" lon="15.2302517"><ele>625.0</ele><time>2026-04-12T09:35:50.929Z</time></trkpt><trkpt lat="41.2483617" lon="15.230125"><ele>625.0</ele><time>2026-04-12T09:35:51.929Z</time></trkpt><trkpt lat="41.2482617" lon="15.2299983"><ele>625.0</ele><time>2026-04-12T09:35:52.929Z</time></trkpt><trkpt lat="41.24817" lon="15.2298667"><ele>625.0</ele><time>2026-04-12T09:35:53.93Z</time></trkpt><trkpt lat="41.2480933" lon="15.22972"><ele>620.6666666666667</ele><time>2026-04-12T09:35:54.929Z</time></trkpt><trkpt lat="41.24805" lon="15.2295367"><ele>616.3333333333334</ele><time>2026-04-12T09:35:55.929Z</time></trkpt><trkpt lat="41.248005" lon="15.2293367"><ele>612.0</ele><time>2026-04-12T09:35:56.929Z</time></trkpt><trkpt lat="41.247955" lon="15.2291383"><ele>616.3333333333334</ele><time>2026-04-12T09:35:57.93Z</time></trkpt><trkpt lat="41.24788" lon="15.22895"><ele>620.6666666666667</ele><time>2026-04-12T09:35:58.93Z</time></trkpt><trkpt lat="41.2477967" lon="15.2287783"><ele>625.0</ele><time>2026-04-12T09:35:59.93Z</time></trkpt><trkpt lat="41.2476967" lon="15.2286367"><ele>625.0</ele><time>2026-04-12T09:36:00.93Z</time></trkpt><trkpt lat="41.24759" lon="15.2285167"><ele>625.0</ele><time>2026-04-12T09:36:01.93Z</time></trkpt><trkpt lat="41.2474883" lon="15.2284117"><ele>625.0</ele><time>2026-04-12T09:36:02.93Z</time></trkpt><trkpt lat="41.2473767" lon="15.2283283"><ele>625.0</ele><time>2026-04-12T09:36:03.93Z</time></trkpt><trkpt lat="41.247245" lon="15.228275"><ele>623.0</ele><time>2026-04-12T09:36:04.93Z</time></trkpt><trkpt lat="41.2470967" lon="15.2282483"><ele>621.0</ele><time>2026-04-12T09:36:05.93Z</time></trkpt><trkpt lat="41.2469433" lon="15.2282533"><ele>619.0</ele><time>2026-04-12T09:36:06.93Z</time></trkpt><trkpt lat="41.2467833" lon="15.2282883"><ele>619.0</ele><time>2026-04-12T09:36:07.929Z</time></trkpt><trkpt lat="41.24662" lon="15.22834"><ele>619.0</ele><time>2026-04-12T09:36:08.93Z</time></trkpt><trkpt lat="41.24648" lon="15.22839"><ele>619.0</ele><time>2026-04-12T09:36:09.93Z</time></trkpt><trkpt lat="41.2463517" lon="15.2284367"><ele>619.0</ele><time>2026-04-12T09:36:10.929Z</time></trkpt><trkpt lat="41.2462367" lon="15.2284483"><ele>615.5</ele><time>2026-04-12T09:36:11.93Z</time></trkpt><trkpt lat="41.24613" lon="15.2284533"><ele>612.0</ele><time>2026-04-12T09:36:12.93Z</time></trkpt><trkpt lat="41.2460317" lon="15.2284167"><ele>608.5</ele><time>2026-04-12T09:36:13.93Z</time></trkpt><trkpt lat="41.2459383" lon="15.228335"><ele>605.0</ele><time>2026-04-12T09:36:14.93Z</time></trkpt><trkpt lat="41.2458367" lon="15.2282217"><ele>601.6666666666666</ele><time>2026-04-12T09:36:15.93Z</time></trkpt><trkpt lat="41.2457183" lon="15.2280967"><ele>598.3333333333334</ele><time>2026-04-12T09:36:16.93Z</time></trkpt><trkpt lat="41.2455917" lon="15.2279683"><ele>595.0</ele><time>2026-04-12T09:36:17.93Z</time></trkpt><trkpt lat="41.2454717" lon="15.2278433"><ele>595.0</ele><time>2026-04-12T09:36:18.93Z</time></trkpt><trkpt lat="41.24536" lon="15.2277183"><ele>595.0</ele><time>2026-04-12T09:36:19.929Z</time></trkpt><trkpt lat="41.2452583" lon="15.2275883"><ele>595.0</ele><time>2026-04-12T09:36:20.93Z</time></trkpt><trkpt lat="41.2451817" lon="15.2274333"><ele>595.0</ele><time>2026-04-12T09:36:21.93Z</time></trkpt><trkpt lat="41.2451317" lon="15.227225"><ele>596.6666666666667</ele><time>2026-04-12T09:36:22.93Z</time></trkpt><trkpt lat="41.24507" lon="15.226995"><ele>598.3333333333334</ele><time>2026-04-12T09:36:23.929Z</time></trkpt><trkpt lat="41.2450383" lon="15.2267467"><ele>600.0</ele><time>2026-04-12T09:36:24.929Z</time></trkpt><trkpt lat="41.24499" lon="15.226465"><ele>600.0</ele><time>2026-04-12T09:36:25.93Z</time></trkpt><trkpt lat="41.24493" lon="15.2261383"><ele>600.0</ele><time>2026-04-12T09:36:26.929Z</time></trkpt><trkpt lat="41.2448567" lon="15.225815"><ele>591.6666666666666</ele><time>2026-04-12T09:36:27.93Z</time></trkpt><trkpt lat="41.2447933" lon="15.2255317"><ele>583.3333333333333</ele><time>2026-04-12T09:36:28.93Z</time></trkpt><trkpt lat="41.24474" lon="15.22528"><ele>575.0</ele><time>2026-04-12T09:36:29.93Z</time></trkpt><trkpt lat="41.2446917" lon="15.225065"><ele>575.0</ele><time>2026-04-12T09:36:30.93Z</time></trkpt><trkpt lat="41.2446433" lon="15.2248683"><ele>575.0</ele><time>2026-04-12T09:36:31.929Z</time></trkpt><trkpt lat="41.2446033" lon="15.2246983"><ele>575.0</ele><time>2026-04-12T09:36:32.93Z</time></trkpt><trkpt lat="41.2445767" lon="15.2245433"><ele>575.0</ele><time>2026-04-12T09:36:33.929Z</time></trkpt><trkpt lat="41.24457" lon="15.2244"><ele>574.8</ele><time>2026-04-12T09:36:34.929Z</time></trkpt><trkpt lat="41.24458" lon="15.22427"><ele>574.6</ele><time>2026-04-12T09:36:35.93Z</time></trkpt><trkpt lat="41.2446033" lon="15.22416"><ele>574.4</ele><time>2026-04-12T09:36:36.929Z</time></trkpt><trkpt lat="41.2446133" lon="15.224075"><ele>574.2</ele><time>2026-04-12T09:36:37.93Z</time></trkpt><trkpt lat="41.2445817" lon="15.2239483"><ele>574.0</ele><time>2026-04-12T09:36:39.93Z</time></trkpt><trkpt lat="41.2444733" lon="15.2240217"><ele>574.0</ele><time>2026-04-12T09:36:41.93Z</time></trkpt><trkpt lat="41.2444283" lon="15.2241317"><ele>574.0</ele><time>2026-04-12T09:36:42.93Z</time></trkpt><trkpt lat="41.24439" lon="15.22428"><ele>574.0</ele><time>2026-04-12T09:36:43.93Z</time></trkpt><trkpt lat="41.2443667" lon="15.2244817"><ele>574.0</ele><time>2026-04-12T09:36:44.929Z</time></trkpt><trkpt lat="41.24434" lon="15.2247"><ele>574.3333333333334</ele><time>2026-04-12T09:36:45.93Z</time></trkpt><trkpt lat="41.2443133" lon="15.2249483"><ele>574.6666666666666</ele><time>2026-04-12T09:36:46.93Z</time></trkpt><trkpt lat="41.2442733" lon="15.2252117"><ele>575.0</ele><time>2026-04-12T09:36:47.93Z</time></trkpt><trkpt lat="41.2442433" lon="15.225455"><ele>575.0</ele><time>2026-04-12T09:36:48.929Z</time></trkpt><trkpt lat="41.2442133" lon="15.2256867"><ele>575.0</ele><time>2026-04-12T09:36:49.93Z</time></trkpt><trkpt lat="41.2441917" lon="15.2259017"><ele>575.0</ele><time>2026-04-12T09:36:50.93Z</time></trkpt><trkpt lat="41.2441617" lon="15.2261033"><ele>575.0</ele><time>2026-04-12T09:36:51.93Z</time></trkpt><trkpt lat="41.2441283" lon="15.2263117"><ele>575.0</ele><time>2026-04-12T09:36:52.93Z</time></trkpt><trkpt lat="41.2441017" lon="15.226525"><ele>575.0</ele><time>2026-04-12T09:36:53.929Z</time></trkpt><trkpt lat="41.244085" lon="15.2267517"><ele>575.0</ele><time>2026-04-12T09:36:54.93Z</time></trkpt><trkpt lat="41.2440883" lon="15.2269767"><ele>575.0</ele><time>2026-04-12T09:36:55.93Z</time></trkpt><trkpt lat="41.2441033" lon="15.2272"><ele>575.0</ele><time>2026-04-12T09:36:56.93Z</time></trkpt><trkpt lat="41.2441017" lon="15.2274083"><ele>574.4</ele><time>2026-04-12T09:36:57.93Z</time></trkpt><trkpt lat="41.2440933" lon="15.2275833"><ele>573.8</ele><time>2026-04-12T09:36:58.93Z</time></trkpt><trkpt lat="41.2440833" lon="15.2277433"><ele>573.2</ele><time>2026-04-12T09:36:59.929Z</time></trkpt><trkpt lat="41.24409" lon="15.2278767"><ele>572.6</ele><time>2026-04-12T09:37:00.929Z</time></trkpt><trkpt lat="41.2441183" lon="15.2279983"><ele>572.0</ele><time>2026-04-12T09:37:01.93Z</time></trkpt><trkpt lat="41.24417" lon="15.2280933"><ele>569.5</ele><time>2026-04-12T09:37:02.93Z</time></trkpt><trkpt lat="41.244255" lon="15.2281767"><ele>567.0</ele><time>2026-04-12T09:37:03.93Z</time></trkpt><trkpt lat="41.2443683" lon="15.2282333"><ele>564.5</ele><time>2026-04-12T09:37:04.93Z</time></trkpt><trkpt lat="41.2444967" lon="15.2282867"><ele>562.0</ele><time>2026-04-12T09:37:05.93Z</time></trkpt><trkpt lat="41.2446217" lon="15.2283833"><ele>562.0</ele><time>2026-04-12T09:37:06.929Z</time></trkpt><trkpt lat="41.24473" lon="15.2285467"><ele>562.0</ele><time>2026-04-12T09:37:07.929Z</time></trkpt><trkpt lat="41.244845" lon="15.228715"><ele>562.0</ele><time>2026-04-12T09:37:08.929Z</time></trkpt><trkpt lat="41.2449517" lon="15.22887"><ele>562.0</ele><time>2026-04-12T09:37:09.93Z</time></trkpt><trkpt lat="41.2450383" lon="15.229025"><ele>562.0</ele><time>2026-04-12T09:37:10.93Z</time></trkpt><trkpt lat="41.2451233" lon="15.2291533"><ele>562.0</ele><time>2026-04-12T09:37:11.929Z</time></trkpt><trkpt lat="41.2451933" lon="15.2292817"><ele>562.0</ele><time>2026-04-12T09:37:12.929Z</time></trkpt><trkpt lat="41.245235" lon="15.2294183"><ele>562.0</ele><time>2026-04-12T09:37:13.93Z</time></trkpt><trkpt lat="41.2452567" lon="15.22958"><ele>562.0</ele><time>2026-04-12T09:37:14.929Z</time></trkpt><trkpt lat="41.2452617" lon="15.2297467"><ele>562.0</ele><time>2026-04-12T09:37:15.93Z</time></trkpt><trkpt lat="41.2452483" lon="15.229915"><ele>562.0</ele><time>2026-04-12T09:37:16.93Z</time></trkpt><trkpt lat="41.2452317" lon="15.2300817"><ele>559.4</ele><time>2026-04-12T09:37:17.93Z</time></trkpt><trkpt lat="41.2452033" lon="15.2302333"><ele>556.8000000000001</ele><time>2026-04-12T09:37:18.93Z</time></trkpt><trkpt lat="41.245185" lon="15.230355"><ele>554.2</ele><time>2026-04-12T09:37:19.93Z</time></trkpt><trkpt lat="41.2451833" lon="15.2304667"><ele>551.6</ele><time>2026-04-12T09:37:20.929Z</time></trkpt><trkpt lat="41.2452083" lon="15.2305783"><ele>549.0</ele><time>2026-04-12T09:37:21.93Z</time></trkpt><trkpt lat="41.2452933" lon="15.230705"><ele>546.3333333333334</ele><time>2026-04-12T09:37:22.93Z</time></trkpt><trkpt lat="41.24542" lon="15.2308617"><ele>543.6666666666667</ele><time>2026-04-12T09:37:23.93Z</time></trkpt><trkpt lat="41.2455483" lon="15.2310317"><ele>541.0</ele><time>2026-04-12T09:37:24.93Z</time></trkpt><trkpt lat="41.2456667" lon="15.2311967"><ele>542.4</ele><time>2026-04-12T09:37:25.93Z</time></trkpt><trkpt lat="41.245765" lon="15.2313233"><ele>543.8</ele><time>2026-04-12T09:37:26.93Z</time></trkpt><trkpt lat="41.2458583" lon="15.231425"><ele>545.1999999999999</ele><time>2026-04-12T09:37:27.93Z</time></trkpt><trkpt lat="41.2459183" lon="15.2315067"><ele>546.6</ele><time>2026-04-12T09:37:28.93Z</time></trkpt><trkpt lat="41.2459667" lon="15.2315817"><ele>548.0</ele><time>2026-04-12T09:37:29.929Z</time></trkpt><trkpt lat="41.2459533" lon="15.2317233"><ele>548.0</ele><time>2026-04-12T09:37:31.93Z</time></trkpt><trkpt lat="41.24589" lon="15.231765"><ele>548.0</ele><time>2026-04-12T09:37:32.93Z</time></trkpt><trkpt lat="41.2458167" lon="15.2317533"><ele>548.0</ele><time>2026-04-12T09:37:33.929Z</time></trkpt><trkpt lat="41.2457417" lon="15.2316833"><ele>548.0</ele><time>2026-04-12T09:37:34.93Z</time></trkpt><trkpt lat="41.2456567" lon="15.2315667"><ele>548.0</ele><time>2026-04-12T09:37:35.93Z</time></trkpt><trkpt lat="41.2455483" lon="15.2314317"><ele>545.6666666666666</ele><time>2026-04-12T09:37:36.93Z</time></trkpt><trkpt lat="41.245445" lon="15.2312883"><ele>543.3333333333334</ele><time>2026-04-12T09:37:37.93Z</time></trkpt><trkpt lat="41.2453167" lon="15.2311317"><ele>541.0</ele><time>2026-04-12T09:37:38.93Z</time></trkpt><trkpt lat="41.245185" lon="15.230975"><ele>541.0</ele><time>2026-04-12T09:37:39.93Z</time></trkpt><trkpt lat="41.245055" lon="15.23084"><ele>541.0</ele><time>2026-04-12T09:37:40.929Z</time></trkpt><trkpt lat="41.244955" lon="15.2307067"><ele>541.0</ele><time>2026-04-12T09:37:41.929Z</time></trkpt><trkpt lat="41.2448667" lon="15.2305733"><ele>541.0</ele><time>2026-04-12T09:37:42.93Z</time></trkpt><trkpt lat="41.244805" lon="15.2304183"><ele>541.25</ele><time>2026-04-12T09:37:43.929Z</time></trkpt><trkpt lat="41.2447683" lon="15.2302217"><ele>541.5</ele><time>2026-04-12T09:37:44.929Z</time></trkpt><trkpt lat="41.2447233" lon="15.23003"><ele>541.75</ele><time>2026-04-12T09:37:45.929Z</time></trkpt><trkpt lat="41.2447017" lon="15.2298417"><ele>542.0</ele><time>2026-04-12T09:37:46.93Z</time></trkpt><trkpt lat="41.244655" lon="15.229705"><ele>542.0</ele><time>2026-04-12T09:37:47.93Z</time></trkpt><trkpt lat="41.2445667" lon="15.229595"><ele>542.0</ele><time>2026-04-12T09:37:48.93Z</time></trkpt><trkpt lat="41.244475" lon="15.2294883"><ele>542.0</ele><time>2026-04-12T09:37:49.93Z</time></trkpt><trkpt lat="41.2443583" lon="15.229385"><ele>542.0</ele><time>2026-04-12T09:37:50.93Z</time></trkpt><trkpt lat="41.2442267" lon="15.2293"><ele>542.0</ele><time>2026-04-12T09:37:51.93Z</time></trkpt><trkpt lat="41.2440783" lon="15.2292533"><ele>542.0</ele><time>2026-04-12T09:37:52.929Z</time></trkpt><trkpt lat="41.2439317" lon="15.2292317"><ele>542.0</ele><time>2026-04-12T09:37:53.929Z</time></trkpt><trkpt lat="41.2437883" lon="15.2292383"><ele>542.0</ele><time>2026-04-12T09:37:54.929Z</time></trkpt><trkpt lat="41.2436467" lon="15.2292733"><ele>539.5</ele><time>2026-04-12T09:37:55.93Z</time></trkpt><trkpt lat="41.24351" lon="15.2293267"><ele>537.0</ele><time>2026-04-12T09:37:56.93Z</time></trkpt><trkpt lat="41.2433767" lon="15.2293633"><ele>534.5</ele><time>2026-04-12T09:37:57.93Z</time></trkpt><trkpt lat="41.2432467" lon="15.2293633"><ele>532.0</ele><time>2026-04-12T09:37:58.93Z</time></trkpt><trkpt lat="41.2431267" lon="15.2293317"><ele>528.5</ele><time>2026-04-12T09:37:59.929Z</time></trkpt><trkpt lat="41.2430233" lon="15.2292683"><ele>525.0</ele><time>2026-04-12T09:38:00.93Z</time></trkpt><trkpt lat="41.2429233" lon="15.22917"><ele>521.5</ele><time>2026-04-12T09:38:01.93Z</time></trkpt><trkpt lat="41.2428267" lon="15.2290417"><ele>518.0</ele><time>2026-04-12T09:38:02.929Z</time></trkpt><trkpt lat="41.2427333" lon="15.2288917"><ele>518.0</ele><time>2026-04-12T09:38:03.93Z</time></trkpt><trkpt lat="41.2426517" lon="15.228735"><ele>518.0</ele><time>2026-04-12T09:38:04.93Z</time></trkpt><trkpt lat="41.2425767" lon="15.2285667"><ele>518.0</ele><time>2026-04-12T09:38:05.93Z</time></trkpt><trkpt lat="41.2425017" lon="15.2284017"><ele>518.0</ele><time>2026-04-12T09:38:06.93Z</time></trkpt><trkpt lat="41.2424617" lon="15.2282083"><ele>518.3333333333333</ele><time>2026-04-12T09:38:07.93Z</time></trkpt><trkpt lat="41.24245" lon="15.2279867"><ele>518.6666666666666</ele><time>2026-04-12T09:38:08.93Z</time></trkpt><trkpt lat="41.2424517" lon="15.2277433"><ele>519.0</ele><time>2026-04-12T09:38:09.93Z</time></trkpt><trkpt lat="41.2424633" lon="15.2274933"><ele>519.3333333333334</ele><time>2026-04-12T09:38:10.93Z</time></trkpt><trkpt lat="41.2424467" lon="15.227255"><ele>519.6666666666667</ele><time>2026-04-12T09:38:11.93Z</time></trkpt><trkpt lat="41.2424167" lon="15.2270233"><ele>520.0</ele><time>2026-04-12T09:38:12.929Z</time></trkpt><trkpt lat="41.2423833" lon="15.22679"><ele>520.0</ele><time>2026-04-12T09:38:13.93Z</time></trkpt><trkpt lat="41.2423583" lon="15.226565"><ele>520.0</ele><time>2026-04-12T09:38:14.93Z</time></trkpt><trkpt lat="41.2423383" lon="15.2263433"><ele>520.0</ele><time>2026-04-12T09:38:15.93Z</time></trkpt><trkpt lat="41.24234" lon="15.2261233"><ele>520.0</ele><time>2026-04-12T09:38:16.929Z</time></trkpt><trkpt lat="41.2423567" lon="15.22591"><ele>520.0</ele><time>2026-04-12T09:38:17.93Z</time></trkpt><trkpt lat="41.242365" lon="15.225715"><ele>520.0</ele><time>2026-04-12T09:38:18.93Z</time></trkpt><trkpt lat="41.2423683" lon="15.2255283"><ele>520.0</ele><time>2026-04-12T09:38:19.93Z</time></trkpt><trkpt lat="41.242355" lon="15.2253567"><ele>515.0</ele><time>2026-04-12T09:38:20.929Z</time></trkpt><trkpt lat="41.242285" lon="15.2252133"><ele>510.0</ele><time>2026-04-12T09:38:21.93Z</time></trkpt><trkpt lat="41.242205" lon="15.2250917"><ele>505.0</ele><time>2026-04-12T09:38:22.93Z</time></trkpt><trkpt lat="41.2421233" lon="15.2249883"><ele>500.0</ele><time>2026-04-12T09:38:23.93Z</time></trkpt><trkpt lat="41.2420333" lon="15.2249167"><ele>499.99999999999994</ele><time>2026-04-12T09:38:24.929Z</time></trkpt><trkpt lat="41.24195" lon="15.2248833"><ele>500.0</ele><time>2026-04-12T09:38:25.93Z</time></trkpt><trkpt lat="41.2418783" lon="15.224845"><ele>500.0</ele><time>2026-04-12T09:38:26.93Z</time></trkpt><trkpt lat="41.2418267" lon="15.2247917"><ele>500.0</ele><time>2026-04-12T09:38:27.929Z</time></trkpt><trkpt lat="41.241805" lon="15.22471"><ele>499.99999999999994</ele><time>2026-04-12T09:38:28.93Z</time></trkpt><trkpt lat="41.2418417" lon="15.2245733"><ele>500.0</ele><time>2026-04-12T09:38:29.93Z</time></trkpt><trkpt lat="41.241885" lon="15.2244233"><ele>499.5</ele><time>2026-04-12T09:38:30.93Z</time></trkpt><trkpt lat="41.2419233" lon="15.224255"><ele>499.0</ele><time>2026-04-12T09:38:31.93Z</time></trkpt><trkpt lat="41.2419383" lon="15.2240867"><ele>498.5</ele><time>2026-04-12T09:38:32.93Z</time></trkpt><trkpt lat="41.2419067" lon="15.22393"><ele>498.0</ele><time>2026-04-12T09:38:33.93Z</time></trkpt><trkpt lat="41.24189" lon="15.223795"><ele>497.6666666666667</ele><time>2026-04-12T09:38:34.929Z</time></trkpt><trkpt lat="41.24187" lon="15.2236667"><ele>497.33333333333337</ele><time>2026-04-12T09:38:35.93Z</time></trkpt><trkpt lat="41.2418483" lon="15.2235533"><ele>497.0</ele><time>2026-04-12T09:38:36.93Z</time></trkpt><trkpt lat="41.2418317" lon="15.2234533"><ele>496.6666666666667</ele><time>2026-04-12T09:38:37.93Z</time></trkpt><trkpt lat="41.2418167" lon="15.2233633"><ele>496.33333333333337</ele><time>2026-04-12T09:38:38.93Z</time></trkpt><trkpt lat="41.241785" lon="15.2232883"><ele>496.0</ele><time>2026-04-12T09:38:39.929Z</time></trkpt><trkpt lat="41.2416817" lon="15.22325"><ele>496.0</ele><time>2026-04-12T09:38:41.93Z</time></trkpt><trkpt lat="41.2416233" lon="15.2233017"><ele>496.0</ele><time>2026-04-12T09:38:42.93Z</time></trkpt><trkpt lat="41.2415817" lon="15.223385"><ele>496.0</ele><time>2026-04-12T09:38:43.93Z</time></trkpt><trkpt lat="41.2415633" lon="15.2234933"><ele>496.0</ele><time>2026-04-12T09:38:44.929Z</time></trkpt><trkpt lat="41.2415767" lon="15.2236217"><ele>496.0</ele><time>2026-04-12T09:38:45.929Z</time></trkpt><trkpt lat="41.2416133" lon="15.2237833"><ele>496.0</ele><time>2026-04-12T09:38:46.929Z</time></trkpt><trkpt lat="41.2416333" lon="15.2239433"><ele>496.0</ele><time>2026-04-12T09:38:47.93Z</time></trkpt><trkpt lat="41.2416283" lon="15.2241"><ele>496.0</ele><time>2026-04-12T09:38:48.93Z</time></trkpt><trkpt lat="41.241595" lon="15.2242467"><ele>496.0</ele><time>2026-04-12T09:38:49.93Z</time></trkpt><trkpt lat="41.2415467" lon="15.2243917"><ele>496.5</ele><time>2026-04-12T09:38:50.929Z</time></trkpt><trkpt lat="41.2414783" lon="15.2245283"><ele>497.0</ele><time>2026-04-12T09:38:51.93Z</time></trkpt><trkpt lat="41.2414033" lon="15.2246667"><ele>497.5</ele><time>2026-04-12T09:38:52.929Z</time></trkpt><trkpt lat="41.2413067" lon="15.2248067"><ele>498.0</ele><time>2026-04-12T09:38:53.929Z</time></trkpt><trkpt lat="41.2411983" lon="15.22494"><ele>493.75</ele><time>2026-04-12T09:38:54.93Z</time></trkpt><trkpt lat="41.2410967" lon="15.2250933"><ele>489.5</ele><time>2026-04-12T09:38:55.93Z</time></trkpt><trkpt lat="41.24101" lon="15.2252467"><ele>485.25</ele><time>2026-04-12T09:38:56.929Z</time></trkpt><trkpt lat="41.24095" lon="15.22538"><ele>481.0</ele><time>2026-04-12T09:38:57.929Z</time></trkpt><trkpt lat="41.240915" lon="15.225495"><ele>481.00000000000006</ele><time>2026-04-12T09:38:58.93Z</time></trkpt><trkpt lat="41.2409083" lon="15.22561"><ele>481.0</ele><time>2026-04-12T09:38:59.93Z</time></trkpt><trkpt lat="41.24091" lon="15.22571"><ele>481.0</ele><time>2026-04-12T09:39:00.93Z</time></trkpt><trkpt lat="41.2409367" lon="15.2258133"><ele>481.0</ele><time>2026-04-12T09:39:01.929Z</time></trkpt><trkpt lat="41.2410133" lon="15.2258617"><ele>481.00000000000006</ele><time>2026-04-12T09:39:02.93Z</time></trkpt><trkpt lat="41.24109" lon="15.2258733"><ele>481.0</ele><time>2026-04-12T09:39:03.929Z</time></trkpt><trkpt lat="41.2411683" lon="15.225855"><ele>481.00000000000006</ele><time>2026-04-12T09:39:04.93Z</time></trkpt><trkpt lat="41.2412633" lon="15.2258067"><ele>481.0</ele><time>2026-04-12T09:39:05.93Z</time></trkpt><trkpt lat="41.2413567" lon="15.22578"><ele>481.0</ele><time>2026-04-12T09:39:06.93Z</time></trkpt><trkpt lat="41.2414367" lon="15.2257667"><ele>481.0</ele><time>2026-04-12T09:39:07.93Z</time></trkpt><trkpt lat="41.2415133" lon="15.225785"><ele>481.00000000000006</ele><time>2026-04-12T09:39:08.93Z</time></trkpt><trkpt lat="41.24157" lon="15.2258517"><ele>481.0</ele><time>2026-04-12T09:39:09.93Z</time></trkpt><trkpt lat="41.24155" lon="15.226025"><ele>484.5</ele><time>2026-04-12T09:39:10.93Z</time></trkpt><trkpt lat="41.2415267" lon="15.2261933"><ele>488.0</ele><time>2026-04-12T09:39:11.93Z</time></trkpt><trkpt lat="41.241475" lon="15.2263933"><ele>491.5</ele><time>2026-04-12T09:39:12.929Z</time></trkpt><trkpt lat="41.2414367" lon="15.22659"><ele>495.0</ele><time>2026-04-12T09:39:13.93Z</time></trkpt><trkpt lat="41.2414333" lon="15.22681"><ele>492.33333333333337</ele><time>2026-04-12T09:39:14.93Z</time></trkpt><trkpt lat="41.24144" lon="15.2270467"><ele>489.6666666666667</ele><time>2026-04-12T09:39:15.93Z</time></trkpt><trkpt lat="41.2414583" lon="15.2272767"><ele>487.0</ele><time>2026-04-12T09:39:16.93Z</time></trkpt><trkpt lat="41.2414833" lon="15.22751"><ele>487.0</ele><time>2026-04-12T09:39:17.929Z</time></trkpt><trkpt lat="41.2414933" lon="15.2277283"><ele>487.0</ele><time>2026-04-12T09:39:18.929Z</time></trkpt><trkpt lat="41.2414983" lon="15.2279267"><ele>487.0</ele><time>2026-04-12T09:39:19.929Z</time></trkpt><trkpt lat="41.241475" lon="15.2281533"><ele>479.0</ele><time>2026-04-12T09:39:20.93Z</time></trkpt><trkpt lat="41.2414417" lon="15.22835"><ele>471.0</ele><time>2026-04-12T09:39:21.93Z</time></trkpt><trkpt lat="41.2413967" lon="15.2285367"><ele>463.0</ele><time>2026-04-12T09:39:22.929Z</time></trkpt><trkpt lat="41.2413333" lon="15.2286933"><ele>455.0</ele><time>2026-04-12T09:39:23.93Z</time></trkpt><trkpt lat="41.2412617" lon="15.2288267"><ele>455.0</ele><time>2026-04-12T09:39:24.93Z</time></trkpt><trkpt lat="41.2412067" lon="15.2289683"><ele>455.0</ele><time>2026-04-12T09:39:25.93Z</time></trkpt><trkpt lat="41.2411967" lon="15.2291267"><ele>455.0</ele><time>2026-04-12T09:39:26.93Z</time></trkpt><trkpt lat="41.2412317" lon="15.2292933"><ele>455.0</ele><time>2026-04-12T09:39:27.93Z</time></trkpt><trkpt lat="41.2412867" lon="15.2294517"><ele>454.75</ele><time>2026-04-12T09:39:28.93Z</time></trkpt><trkpt lat="41.24135" lon="15.2295967"><ele>454.5</ele><time>2026-04-12T09:39:29.929Z</time></trkpt><trkpt lat="41.2414183" lon="15.2297283"><ele>454.25</ele><time>2026-04-12T09:39:30.929Z</time></trkpt><trkpt lat="41.2414767" lon="15.2298517"><ele>454.0</ele><time>2026-04-12T09:39:31.93Z</time></trkpt><trkpt lat="41.24153" lon="15.2299767"><ele>457.79999999999995</ele><time>2026-04-12T09:39:32.93Z</time></trkpt><trkpt lat="41.241565" lon="15.2301083"><ele>461.59999999999997</ele><time>2026-04-12T09:39:33.93Z</time></trkpt><trkpt lat="41.2416217" lon="15.2302433"><ele>465.4</ele><time>2026-04-12T09:39:34.93Z</time></trkpt><trkpt lat="41.2416633" lon="15.23035"><ele>469.2</ele><time>2026-04-12T09:39:35.93Z</time></trkpt><trkpt lat="41.2416917" lon="15.2304683"><ele>473.0</ele><time>2026-04-12T09:39:36.93Z</time></trkpt><trkpt lat="41.241715" lon="15.2305817"><ele>471.59999999999997</ele><time>2026-04-12T09:39:37.93Z</time></trkpt><trkpt lat="41.2417233" lon="15.2307"><ele>470.19999999999993</ele><time>2026-04-12T09:39:38.93Z</time></trkpt><trkpt lat="41.2417167" lon="15.2308267"><ele>468.8</ele><time>2026-04-12T09:39:39.93Z</time></trkpt><trkpt lat="41.2416683" lon="15.2309467"><ele>467.4</ele><time>2026-04-12T09:39:40.93Z</time></trkpt><trkpt lat="41.2415983" lon="15.2310583"><ele>466.0</ele><time>2026-04-12T09:39:41.93Z</time></trkpt><trkpt lat="41.2415517" lon="15.2311683"><ele>466.00000000000006</ele><time>2026-04-12T09:39:42.929Z</time></trkpt><trkpt lat="41.2415283" lon="15.23128"><ele>466.0</ele><time>2026-04-12T09:39:43.929Z</time></trkpt><trkpt lat="41.241545" lon="15.2313983"><ele>466.0</ele><time>2026-04-12T09:39:44.93Z</time></trkpt><trkpt lat="41.2415967" lon="15.231505"><ele>466.0</ele><time>2026-04-12T09:39:45.929Z</time></trkpt><trkpt lat="41.24165" lon="15.2316"><ele>466.00000000000006</ele><time>2026-04-12T09:39:46.93Z</time></trkpt><trkpt lat="41.241685" lon="15.2316867"><ele>466.0</ele><time>2026-04-12T09:39:47.93Z</time></trkpt><trkpt lat="41.2416567" lon="15.2318367"><ele>465.0</ele><time>2026-04-12T09:39:49.93Z</time></trkpt><trkpt lat="41.24157" lon="15.23185"><ele>464.0</ele><time>2026-04-12T09:39:50.929Z</time></trkpt><trkpt lat="41.2414883" lon="15.2318317"><ele>463.0</ele><time>2026-04-12T09:39:51.93Z</time></trkpt><trkpt lat="41.2414017" lon="15.231745"><ele>462.0</ele><time>2026-04-12T09:39:52.93Z</time></trkpt><trkpt lat="41.2413317" lon="15.231635"><ele>461.0</ele><time>2026-04-12T09:39:53.93Z</time></trkpt><trkpt lat="41.2412633" lon="15.23152"><ele>458.3333333333333</ele><time>2026-04-12T09:39:54.93Z</time></trkpt><trkpt lat="41.2412133" lon="15.2314183"><ele>455.66666666666663</ele><time>2026-04-12T09:39:55.929Z</time></trkpt><trkpt lat="41.241185" lon="15.2313133"><ele>453.0</ele><time>2026-04-12T09:39:56.93Z</time></trkpt><trkpt lat="41.2411783" lon="15.23121"><ele>450.33333333333337</ele><time>2026-04-12T09:39:57.929Z</time></trkpt><trkpt lat="41.2412017" lon="15.231105"><ele>447.6666666666667</ele><time>2026-04-12T09:39:58.93Z</time></trkpt><trkpt lat="41.24125" lon="15.230995"><ele>445.0</ele><time>2026-04-12T09:39:59.93Z</time></trkpt><trkpt lat="41.2412983" lon="15.2308917"><ele>445.00000000000006</ele><time>2026-04-12T09:40:00.93Z</time></trkpt><trkpt lat="41.24134" lon="15.2307933"><ele>445.0</ele><time>2026-04-12T09:40:01.93Z</time></trkpt><trkpt lat="41.241365" lon="15.2307033"><ele>445.0</ele><time>2026-04-12T09:40:02.93Z</time></trkpt><trkpt lat="41.24137" lon="15.2306"><ele>445.0</ele><time>2026-04-12T09:40:03.93Z</time></trkpt><trkpt lat="41.24134" lon="15.2304717"><ele>445.00000000000006</ele><time>2026-04-12T09:40:04.93Z</time></trkpt><trkpt lat="41.241285" lon="15.2303483"><ele>445.0</ele><time>2026-04-12T09:40:05.93Z</time></trkpt><trkpt lat="41.2412167" lon="15.2302317"><ele>445.25</ele><time>2026-04-12T09:40:06.93Z</time></trkpt><trkpt lat="41.2411317" lon="15.2301183"><ele>445.5</ele><time>2026-04-12T09:40:07.929Z</time></trkpt><trkpt lat="41.241035" lon="15.2299967"><ele>445.75</ele><time>2026-04-12T09:40:08.93Z</time></trkpt><trkpt lat="41.240965" lon="15.2298733"><ele>446.0</ele><time>2026-04-12T09:40:09.93Z</time></trkpt><trkpt lat="41.2408867" lon="15.2297433"><ele>448.0</ele><time>2026-04-12T09:40:10.93Z</time></trkpt><trkpt lat="41.240815" lon="15.2296083"><ele>450.0</ele><time>2026-04-12T09:40:11.929Z</time></trkpt><trkpt lat="41.240765" lon="15.2294467"><ele>452.0</ele><time>2026-04-12T09:40:12.93Z</time></trkpt><trkpt lat="41.2407233" lon="15.2292667"><ele>454.0</ele><time>2026-04-12T09:40:13.93Z</time></trkpt><trkpt lat="41.2406633" lon="15.2290833"><ele>448.33333333333337</ele><time>2026-04-12T09:40:14.93Z</time></trkpt><trkpt lat="41.240595" lon="15.2288783"><ele>442.66666666666663</ele><time>2026-04-12T09:40:15.93Z</time></trkpt><trkpt lat="41.240505" lon="15.2286767"><ele>437.0</ele><time>2026-04-12T09:40:16.929Z</time></trkpt><trkpt lat="41.2404117" lon="15.2284733"><ele>437.0</ele><time>2026-04-12T09:40:17.929Z</time></trkpt><trkpt lat="41.2403" lon="15.2282817"><ele>437.0</ele><time>2026-04-12T09:40:18.929Z</time></trkpt><trkpt lat="41.240215" lon="15.2280967"><ele>437.0</ele><time>2026-04-12T09:40:19.93Z</time></trkpt><trkpt lat="41.2401067" lon="15.2279567"><ele>437.75</ele><time>2026-04-12T09:40:20.93Z</time></trkpt><trkpt lat="41.2399983" lon="15.22784"><ele>438.5</ele><time>2026-04-12T09:40:21.93Z</time></trkpt><trkpt lat="41.239895" lon="15.227725"><ele>439.25</ele><time>2026-04-12T09:40:22.929Z</time></trkpt><trkpt lat="41.2398" lon="15.227615"><ele>440.0</ele><time>2026-04-12T09:40:23.929Z</time></trkpt><trkpt lat="41.239725" lon="15.2274917"><ele>438.75</ele><time>2026-04-12T09:40:24.93Z</time></trkpt><trkpt lat="41.23967" lon="15.22734"><ele>437.5</ele><time>2026-04-12T09:40:25.93Z</time></trkpt><trkpt lat="41.2396283" lon="15.227185"><ele>436.25</ele><time>2026-04-12T09:40:26.93Z</time></trkpt><trkpt lat="41.23958" lon="15.2270333"><ele>435.0</ele><time>2026-04-12T09:40:27.929Z</time></trkpt><trkpt lat="41.2395067" lon="15.2269083"><ele>435.0</ele><time>2026-04-12T09:40:28.93Z</time></trkpt><trkpt lat="41.2394083" lon="15.22681"><ele>435.0</ele><time>2026-04-12T09:40:29.93Z</time></trkpt><trkpt lat="41.2392917" lon="15.2267333"><ele>435.0</ele><time>2026-04-12T09:40:30.93Z</time></trkpt><trkpt lat="41.2391583" lon="15.22669"><ele>435.0</ele><time>2026-04-12T09:40:31.93Z</time></trkpt><trkpt lat="41.239045" lon="15.2266667"><ele>431.5</ele><time>2026-04-12T09:40:32.93Z</time></trkpt><trkpt lat="41.2389367" lon="15.2266367"><ele>428.0</ele><time>2026-04-12T09:40:33.93Z</time></trkpt><trkpt lat="41.2388583" lon="15.226585"><ele>424.5</ele><time>2026-04-12T09:40:34.929Z</time></trkpt><trkpt lat="41.2388133" lon="15.2265183"><ele>421.0</ele><time>2026-04-12T09:40:35.93Z</time></trkpt><trkpt lat="41.2387867" lon="15.2264367"><ele>417.5</ele><time>2026-04-12T09:40:36.929Z</time></trkpt><trkpt lat="41.238795" lon="15.2263417"><ele>414.0</ele><time>2026-04-12T09:40:37.93Z</time></trkpt><trkpt lat="41.2388217" lon="15.2262417"><ele>414.0</ele><time>2026-04-12T09:40:38.929Z</time></trkpt><trkpt lat="41.2388917" lon="15.22613"><ele>414.0</ele><time>2026-04-12T09:40:39.93Z</time></trkpt><trkpt lat="41.2389417" lon="15.2259883"><ele>414.0</ele><time>2026-04-12T09:40:40.93Z</time></trkpt><trkpt lat="41.238955" lon="15.2258383"><ele>414.0</ele><time>2026-04-12T09:40:41.93Z</time></trkpt><trkpt lat="41.2389233" lon="15.22567"><ele>415.25</ele><time>2026-04-12T09:40:42.93Z</time></trkpt><trkpt lat="41.23887" lon="15.2255067"><ele>416.5</ele><time>2026-04-12T09:40:43.929Z</time></trkpt><trkpt lat="41.2388017" lon="15.2253367"><ele>417.75</ele><time>2026-04-12T09:40:44.929Z</time></trkpt><trkpt lat="41.2387183" lon="15.2251717"><ele>419.0</ele><time>2026-04-12T09:40:45.929Z</time></trkpt><trkpt lat="41.2386383" lon="15.22501"><ele>419.0</ele><time>2026-04-12T09:40:46.93Z</time></trkpt><trkpt lat="41.238575" lon="15.2248367"><ele>419.0</ele><time>2026-04-12T09:40:47.93Z</time></trkpt><trkpt lat="41.2385267" lon="15.2246667"><ele>419.0</ele><time>2026-04-12T09:40:48.929Z</time></trkpt><trkpt lat="41.2384783" lon="15.224505"><ele>419.0</ele><time>2026-04-12T09:40:49.929Z</time></trkpt><trkpt lat="41.2384267" lon="15.2243667"><ele>418.5</ele><time>2026-04-12T09:40:50.929Z</time></trkpt><trkpt lat="41.2383633" lon="15.2242317"><ele>418.0</ele><time>2026-04-12T09:40:51.93Z</time></trkpt><trkpt lat="41.2382817" lon="15.2241117"><ele>417.5</ele><time>2026-04-12T09:40:52.929Z</time></trkpt><trkpt lat="41.2381967" lon="15.2240133"><ele>417.0</ele><time>2026-04-12T09:40:53.93Z</time></trkpt><trkpt lat="41.23811" lon="15.2239267"><ele>417.0</ele><time>2026-04-12T09:40:54.93Z</time></trkpt><trkpt lat="41.2380267" lon="15.22386"><ele>417.0</ele><time>2026-04-12T09:40:55.93Z</time></trkpt><trkpt lat="41.2379517" lon="15.2237983"><ele>417.0</ele><time>2026-04-12T09:40:56.93Z</time></trkpt><trkpt lat="41.2378783" lon="15.2237483"><ele>417.0</ele><time>2026-04-12T09:40:57.93Z</time></trkpt><trkpt lat="41.23782" lon="15.2237117"><ele>417.0</ele><time>2026-04-12T09:40:58.93Z</time></trkpt><trkpt lat="41.2377383" lon="15.2236267"><ele>417.0</ele><time>2026-04-12T09:41:00.929Z</time></trkpt><trkpt lat="41.2376767" lon="15.2235183"><ele>417.0</ele><time>2026-04-12T09:41:02.93Z</time></trkpt><trkpt lat="41.2376517" lon="15.22344"><ele>417.0</ele><time>2026-04-12T09:41:03.929Z</time></trkpt><trkpt lat="41.2376317" lon="15.2233233"><ele>417.0</ele><time>2026-04-12T09:41:04.93Z</time></trkpt><trkpt lat="41.2376117" lon="15.2231783"><ele>417.0</ele><time>2026-04-12T09:41:05.929Z</time></trkpt><trkpt lat="41.2375983" lon="15.2230017"><ele>417.0</ele><time>2026-04-12T09:41:06.929Z</time></trkpt><trkpt lat="41.2375917" lon="15.222815"><ele>417.0</ele><time>2026-04-12T09:41:07.93Z</time></trkpt><trkpt lat="41.2375933" lon="15.2226217"><ele>417.0</ele><time>2026-04-12T09:41:08.93Z</time></trkpt><trkpt lat="41.2376033" lon="15.222415"><ele>417.0</ele><time>2026-04-12T09:41:09.93Z</time></trkpt><trkpt lat="41.2376117" lon="15.2222017"><ele>417.0</ele><time>2026-04-12T09:41:10.929Z</time></trkpt><trkpt lat="41.2376117" lon="15.221995"><ele>417.0</ele><time>2026-04-12T09:41:11.929Z</time></trkpt><trkpt lat="41.237605" lon="15.2218"><ele>417.0</ele><time>2026-04-12T09:41:12.93Z</time></trkpt><trkpt lat="41.2375983" lon="15.2216267"><ele>417.0</ele><time>2026-04-12T09:41:13.93Z</time></trkpt><trkpt lat="41.237585" lon="15.221455"><ele>417.0</ele><time>2026-04-12T09:41:14.93Z</time></trkpt><trkpt lat="41.2375733" lon="15.2212683"><ele>417.0</ele><time>2026-04-12T09:41:15.93Z</time></trkpt><trkpt lat="41.237565" lon="15.221085"><ele>417.0</ele><time>2026-04-12T09:41:16.93Z</time></trkpt><trkpt lat="41.2375717" lon="15.2208967"><ele>417.0</ele><time>2026-04-12T09:41:17.93Z</time></trkpt><trkpt lat="41.2375867" lon="15.22071"><ele>415.0</ele><time>2026-04-12T09:41:18.929Z</time></trkpt><trkpt lat="41.23762" lon="15.2205217"><ele>413.0</ele><time>2026-04-12T09:41:19.929Z</time></trkpt><trkpt lat="41.2376733" lon="15.2203333"><ele>411.0</ele><time>2026-04-12T09:41:20.93Z</time></trkpt><trkpt lat="41.2377383" lon="15.2201467"><ele>411.0</ele><time>2026-04-12T09:41:21.93Z</time></trkpt><trkpt lat="41.2378133" lon="15.219955"><ele>411.0</ele><time>2026-04-12T09:41:22.929Z</time></trkpt><trkpt lat="41.2378917" lon="15.2197617"><ele>411.0</ele><time>2026-04-12T09:41:23.929Z</time></trkpt><trkpt lat="41.2379683" lon="15.2195717"><ele>410.66666666666663</ele><time>2026-04-12T09:41:24.93Z</time></trkpt><trkpt lat="41.2380417" lon="15.2194"><ele>410.3333333333333</ele><time>2026-04-12T09:41:25.929Z</time></trkpt><trkpt lat="41.23812" lon="15.219225"><ele>410.0</ele><time>2026-04-12T09:41:26.93Z</time></trkpt><trkpt lat="41.238205" lon="15.219055"><ele>411.66666666666663</ele><time>2026-04-12T09:41:27.929Z</time></trkpt><trkpt lat="41.2383017" lon="15.2188917"><ele>413.33333333333337</ele><time>2026-04-12T09:41:28.93Z</time></trkpt><trkpt lat="41.2384067" lon="15.2187317"><ele>415.0</ele><time>2026-04-12T09:41:29.93Z</time></trkpt><trkpt lat="41.23851" lon="15.218565"><ele>415.0</ele><time>2026-04-12T09:41:30.93Z</time></trkpt><trkpt lat="41.2386067" lon="15.21839"><ele>415.0</ele><time>2026-04-12T09:41:31.93Z</time></trkpt><trkpt lat="41.2386917" lon="15.2182033"><ele>415.0</ele><time>2026-04-12T09:41:32.93Z</time></trkpt><trkpt lat="41.23877" lon="15.2179917"><ele>414.33333333333337</ele><time>2026-04-12T09:41:33.929Z</time></trkpt><trkpt lat="41.238835" lon="15.2177667"><ele>413.66666666666663</ele><time>2026-04-12T09:41:34.93Z</time></trkpt><trkpt lat="41.2388833" lon="15.2175267"><ele>413.0</ele><time>2026-04-12T09:41:35.929Z</time></trkpt><trkpt lat="41.23894" lon="15.2172917"><ele>415.3333333333333</ele><time>2026-04-12T09:41:36.93Z</time></trkpt><trkpt lat="41.2389933" lon="15.2170567"><ele>417.66666666666663</ele><time>2026-04-12T09:41:37.929Z</time></trkpt><trkpt lat="41.239045" lon="15.21682"><ele>420.0</ele><time>2026-04-12T09:41:38.93Z</time></trkpt><trkpt lat="41.2391017" lon="15.2165767"><ele>420.66666666666663</ele><time>2026-04-12T09:41:39.93Z</time></trkpt><trkpt lat="41.2391533" lon="15.216325"><ele>421.3333333333333</ele><time>2026-04-12T09:41:40.93Z</time></trkpt><trkpt lat="41.2391983" lon="15.2160683"><ele>422.0</ele><time>2026-04-12T09:41:41.929Z</time></trkpt><trkpt lat="41.2392283" lon="15.2158017"><ele>422.66666666666663</ele><time>2026-04-12T09:41:42.93Z</time></trkpt><trkpt lat="41.239245" lon="15.21554"><ele>423.33333333333337</ele><time>2026-04-12T09:41:43.929Z</time></trkpt><trkpt lat="41.2392517" lon="15.215275"><ele>424.0</ele><time>2026-04-12T09:41:44.93Z</time></trkpt><trkpt lat="41.2392533" lon="15.2150167"><ele>423.6666666666667</ele><time>2026-04-12T09:41:45.929Z</time></trkpt><trkpt lat="41.2392483" lon="15.21478"><ele>423.33333333333337</ele><time>2026-04-12T09:41:46.93Z</time></trkpt><trkpt lat="41.2392233" lon="15.2145517"><ele>423.0</ele><time>2026-04-12T09:41:47.93Z</time></trkpt><trkpt lat="41.2391917" lon="15.2143283"><ele>423.0</ele><time>2026-04-12T09:41:48.929Z</time></trkpt><trkpt lat="41.2391683" lon="15.2141217"><ele>423.0</ele><time>2026-04-12T09:41:49.93Z</time></trkpt><trkpt lat="41.2391533" lon="15.2139267"><ele>423.0</ele><time>2026-04-12T09:41:50.929Z</time></trkpt><trkpt lat="41.23914" lon="15.2137367"><ele>423.0</ele><time>2026-04-12T09:41:51.93Z</time></trkpt><trkpt lat="41.23912" lon="15.213535"><ele>424.33333333333337</ele><time>2026-04-12T09:41:52.93Z</time></trkpt><trkpt lat="41.2391" lon="15.21333"><ele>425.6666666666667</ele><time>2026-04-12T09:41:53.929Z</time></trkpt><trkpt lat="41.2390817" lon="15.2131217"><ele>427.0</ele><time>2026-04-12T09:41:54.93Z</time></trkpt><trkpt lat="41.2390667" lon="15.2129233"><ele>426.6666666666667</ele><time>2026-04-12T09:41:55.929Z</time></trkpt><trkpt lat="41.2390467" lon="15.2127183"><ele>426.33333333333337</ele><time>2026-04-12T09:41:56.929Z</time></trkpt><trkpt lat="41.2390167" lon="15.2125033"><ele>426.0</ele><time>2026-04-12T09:41:57.93Z</time></trkpt><trkpt lat="41.2390033" lon="15.2122917"><ele>426.0</ele><time>2026-04-12T09:41:58.93Z</time></trkpt><trkpt lat="41.2389867" lon="15.2120783"><ele>426.0</ele><time>2026-04-12T09:41:59.929Z</time></trkpt><trkpt lat="41.2389667" lon="15.2118683"><ele>426.0</ele><time>2026-04-12T09:42:00.93Z</time></trkpt><trkpt lat="41.238945" lon="15.2116567"><ele>423.66666666666663</ele><time>2026-04-12T09:42:01.93Z</time></trkpt><trkpt lat="41.238925" lon="15.2114467"><ele>421.3333333333333</ele><time>2026-04-12T09:42:02.929Z</time></trkpt><trkpt lat="41.2389067" lon="15.2112333"><ele>419.0</ele><time>2026-04-12T09:42:03.93Z</time></trkpt><trkpt lat="41.2388883" lon="15.2110217"><ele>419.0</ele><time>2026-04-12T09:42:04.929Z</time></trkpt><trkpt lat="41.23888" lon="15.210805"><ele>419.0</ele><time>2026-04-12T09:42:05.929Z</time></trkpt><trkpt lat="41.2388683" lon="15.2105883"><ele>419.0</ele><time>2026-04-12T09:42:06.929Z</time></trkpt><trkpt lat="41.238865" lon="15.2103717"><ele>419.66666666666663</ele><time>2026-04-12T09:42:07.929Z</time></trkpt><trkpt lat="41.2388683" lon="15.2101617"><ele>420.33333333333337</ele><time>2026-04-12T09:42:08.93Z</time></trkpt><trkpt lat="41.2388783" lon="15.209955"><ele>421.0</ele><time>2026-04-12T09:42:09.93Z</time></trkpt><trkpt lat="41.23889" lon="15.20975"><ele>422.0</ele><time>2026-04-12T09:42:10.929Z</time></trkpt><trkpt lat="41.2389017" lon="15.2095433"><ele>423.0</ele><time>2026-04-12T09:42:11.93Z</time></trkpt><trkpt lat="41.2389167" lon="15.20934"><ele>424.0</ele><time>2026-04-12T09:42:12.93Z</time></trkpt><trkpt lat="41.2389333" lon="15.2091367"><ele>424.6666666666667</ele><time>2026-04-12T09:42:13.93Z</time></trkpt><trkpt lat="41.23894" lon="15.2089383"><ele>425.33333333333337</ele><time>2026-04-12T09:42:14.929Z</time></trkpt><trkpt lat="41.23895" lon="15.2087367"><ele>426.0</ele><time>2026-04-12T09:42:15.93Z</time></trkpt><trkpt lat="41.2389567" lon="15.208535"><ele>428.33333333333337</ele><time>2026-04-12T09:42:16.93Z</time></trkpt><trkpt lat="41.2389683" lon="15.2083267"><ele>430.6666666666667</ele><time>2026-04-12T09:42:17.929Z</time></trkpt><trkpt lat="41.2389817" lon="15.2081183"><ele>433.0</ele><time>2026-04-12T09:42:18.93Z</time></trkpt><trkpt lat="41.2389933" lon="15.2079083"><ele>433.33333333333337</ele><time>2026-04-12T09:42:19.93Z</time></trkpt><trkpt lat="41.2390017" lon="15.2077017"><ele>433.66666666666663</ele><time>2026-04-12T09:42:20.93Z</time></trkpt><trkpt lat="41.2390117" lon="15.2074883"><ele>434.0</ele><time>2026-04-12T09:42:21.93Z</time></trkpt><trkpt lat="41.2390267" lon="15.20728"><ele>435.3333333333333</ele><time>2026-04-12T09:42:22.93Z</time></trkpt><trkpt lat="41.23904" lon="15.207065"><ele>436.66666666666663</ele><time>2026-04-12T09:42:23.929Z</time></trkpt><trkpt lat="41.239055" lon="15.2068517"><ele>438.0</ele><time>2026-04-12T09:42:24.929Z</time></trkpt><trkpt lat="41.23907" lon="15.2066433"><ele>437.0</ele><time>2026-04-12T09:42:25.93Z</time></trkpt><trkpt lat="41.2390833" lon="15.2064317"><ele>436.0</ele><time>2026-04-12T09:42:26.93Z</time></trkpt><trkpt lat="41.2390883" lon="15.2062167"><ele>435.0</ele><time>2026-04-12T09:42:27.93Z</time></trkpt><trkpt lat="41.2390983" lon="15.2060033"><ele>435.0</ele><time>2026-04-12T09:42:28.929Z</time></trkpt><trkpt lat="41.23911" lon="15.2057883"><ele>435.0</ele><time>2026-04-12T09:42:29.93Z</time></trkpt><trkpt lat="41.2391233" lon="15.2055817"><ele>435.0</ele><time>2026-04-12T09:42:30.93Z</time></trkpt><trkpt lat="41.23914" lon="15.205375"><ele>435.33333333333337</ele><time>2026-04-12T09:42:31.93Z</time></trkpt><trkpt lat="41.2391567" lon="15.205165"><ele>435.6666666666667</ele><time>2026-04-12T09:42:32.93Z</time></trkpt><trkpt lat="41.239175" lon="15.2049567"><ele>436.0</ele><time>2026-04-12T09:42:33.929Z</time></trkpt><trkpt lat="41.2392" lon="15.2047467"><ele>436.0</ele><time>2026-04-12T09:42:34.93Z</time></trkpt><trkpt lat="41.2392267" lon="15.2045383"><ele>436.0</ele><time>2026-04-12T09:42:35.93Z</time></trkpt><trkpt lat="41.239255" lon="15.2043333"><ele>436.0</ele><time>2026-04-12T09:42:36.93Z</time></trkpt><trkpt lat="41.239295" lon="15.2041333"><ele>435.6666666666667</ele><time>2026-04-12T09:42:37.929Z</time></trkpt><trkpt lat="41.2393383" lon="15.2039367"><ele>435.33333333333337</ele><time>2026-04-12T09:42:38.929Z</time></trkpt><trkpt lat="41.2393783" lon="15.2037267"><ele>435.0</ele><time>2026-04-12T09:42:39.93Z</time></trkpt><trkpt lat="41.239415" lon="15.2035167"><ele>435.0</ele><time>2026-04-12T09:42:40.929Z</time></trkpt><trkpt lat="41.2394517" lon="15.2033033"><ele>435.0</ele><time>2026-04-12T09:42:41.93Z</time></trkpt><trkpt lat="41.2394833" lon="15.2030867"><ele>435.0</ele><time>2026-04-12T09:42:42.929Z</time></trkpt><trkpt lat="41.239515" lon="15.2028667"><ele>434.33333333333337</ele><time>2026-04-12T09:42:43.93Z</time></trkpt><trkpt lat="41.2395533" lon="15.202645"><ele>433.6666666666667</ele><time>2026-04-12T09:42:44.93Z</time></trkpt><trkpt lat="41.2395933" lon="15.2024233"><ele>433.0</ele><time>2026-04-12T09:42:45.93Z</time></trkpt><trkpt lat="41.23963" lon="15.202195"><ele>432.6666666666667</ele><time>2026-04-12T09:42:46.929Z</time></trkpt><trkpt lat="41.2396667" lon="15.2019633"><ele>432.33333333333337</ele><time>2026-04-12T09:42:47.93Z</time></trkpt><trkpt lat="41.2397067" lon="15.2017333"><ele>432.0</ele><time>2026-04-12T09:42:48.93Z</time></trkpt><trkpt lat="41.2397467" lon="15.2015033"><ele>432.33333333333337</ele><time>2026-04-12T09:42:49.93Z</time></trkpt><trkpt lat="41.2397817" lon="15.20128"><ele>432.6666666666667</ele><time>2026-04-12T09:42:50.93Z</time></trkpt><trkpt lat="41.2398183" lon="15.2010483"><ele>433.0</ele><time>2026-04-12T09:42:51.93Z</time></trkpt><trkpt lat="41.2398517" lon="15.20082"><ele>436.33333333333337</ele><time>2026-04-12T09:42:52.93Z</time></trkpt><trkpt lat="41.2398917" lon="15.200595"><ele>439.66666666666663</ele><time>2026-04-12T09:42:53.93Z</time></trkpt><trkpt lat="41.23993" lon="15.20037"><ele>443.0</ele><time>2026-04-12T09:42:54.93Z</time></trkpt><trkpt lat="41.2399617" lon="15.2001483"><ele>443.0</ele><time>2026-04-12T09:42:55.93Z</time></trkpt><trkpt lat="41.2399867" lon="15.199935"><ele>443.0</ele><time>2026-04-12T09:42:56.93Z</time></trkpt><trkpt lat="41.2400083" lon="15.19973"><ele>443.0</ele><time>2026-04-12T09:42:57.93Z</time></trkpt><trkpt lat="41.2400133" lon="15.1995283"><ele>444.3333333333333</ele><time>2026-04-12T09:42:58.929Z</time></trkpt><trkpt lat="41.2399933" lon="15.1993317"><ele>445.66666666666663</ele><time>2026-04-12T09:42:59.929Z</time></trkpt><trkpt lat="41.2399583" lon="15.1991317"><ele>447.0</ele><time>2026-04-12T09:43:00.93Z</time></trkpt><trkpt lat="41.2399133" lon="15.1989433"><ele>448.5</ele><time>2026-04-12T09:43:01.929Z</time></trkpt><trkpt lat="41.239875" lon="15.198745"><ele>450.0</ele><time>2026-04-12T09:43:02.929Z</time></trkpt><trkpt lat="41.2398533" lon="15.1985483"><ele>451.5</ele><time>2026-04-12T09:43:03.929Z</time></trkpt><trkpt lat="41.2398517" lon="15.1983567"><ele>453.0</ele><time>2026-04-12T09:43:04.93Z</time></trkpt><trkpt lat="41.2398667" lon="15.19818"><ele>451.66666666666663</ele><time>2026-04-12T09:43:05.93Z</time></trkpt><trkpt lat="41.2399033" lon="15.198"><ele>450.3333333333333</ele><time>2026-04-12T09:43:06.929Z</time></trkpt><trkpt lat="41.2399733" lon="15.197815"><ele>449.0</ele><time>2026-04-12T09:43:07.929Z</time></trkpt><trkpt lat="41.2400567" lon="15.197625"><ele>449.0</ele><time>2026-04-12T09:43:08.929Z</time></trkpt><trkpt lat="41.2401517" lon="15.1974267"><ele>449.0</ele><time>2026-04-12T09:43:09.929Z</time></trkpt><trkpt lat="41.240245" lon="15.1972317"><ele>449.0</ele><time>2026-04-12T09:43:10.93Z</time></trkpt><trkpt lat="41.2403333" lon="15.1970533"><ele>447.0</ele><time>2026-04-12T09:43:11.93Z</time></trkpt><trkpt lat="41.2404167" lon="15.1968767"><ele>445.0</ele><time>2026-04-12T09:43:12.929Z</time></trkpt><trkpt lat="41.2405133" lon="15.1967117"><ele>443.0</ele><time>2026-04-12T09:43:13.93Z</time></trkpt><trkpt lat="41.2406167" lon="15.1965533"><ele>445.5</ele><time>2026-04-12T09:43:14.93Z</time></trkpt><trkpt lat="41.240715" lon="15.1963983"><ele>448.0</ele><time>2026-04-12T09:43:15.93Z</time></trkpt><trkpt lat="41.2407917" lon="15.1962283"><ele>450.5</ele><time>2026-04-12T09:43:16.93Z</time></trkpt><trkpt lat="41.2408533" lon="15.1960567"><ele>453.0</ele><time>2026-04-12T09:43:17.93Z</time></trkpt><trkpt lat="41.2408833" lon="15.1958817"><ele>453.0</ele><time>2026-04-12T09:43:18.93Z</time></trkpt><trkpt lat="41.2408867" lon="15.1956783"><ele>453.0</ele><time>2026-04-12T09:43:19.93Z</time></trkpt><trkpt lat="41.24086" lon="15.195475"><ele>453.0</ele><time>2026-04-12T09:43:20.93Z</time></trkpt><trkpt lat="41.2408217" lon="15.1952517"><ele>453.66666666666663</ele><time>2026-04-12T09:43:21.93Z</time></trkpt><trkpt lat="41.2407733" lon="15.1950283"><ele>454.3333333333333</ele><time>2026-04-12T09:43:22.93Z</time></trkpt><trkpt lat="41.240745" lon="15.1948233"><ele>455.0</ele><time>2026-04-12T09:43:23.93Z</time></trkpt><trkpt lat="41.2407317" lon="15.1946167"><ele>455.3333333333333</ele><time>2026-04-12T09:43:24.93Z</time></trkpt><trkpt lat="41.2407267" lon="15.1944017"><ele>455.66666666666663</ele><time>2026-04-12T09:43:25.93Z</time></trkpt><trkpt lat="41.2407333" lon="15.19419"><ele>456.0</ele><time>2026-04-12T09:43:26.93Z</time></trkpt><trkpt lat="41.240745" lon="15.1939667"><ele>457.66666666666663</ele><time>2026-04-12T09:43:27.93Z</time></trkpt><trkpt lat="41.2407433" lon="15.1937467"><ele>459.3333333333333</ele><time>2026-04-12T09:43:28.93Z</time></trkpt><trkpt lat="41.2407317" lon="15.1935317"><ele>461.0</ele><time>2026-04-12T09:43:29.929Z</time></trkpt><trkpt lat="41.2407117" lon="15.1933317"><ele>460.5</ele><time>2026-04-12T09:43:30.93Z</time></trkpt><trkpt lat="41.24069" lon="15.1931483"><ele>460.0</ele><time>2026-04-12T09:43:31.93Z</time></trkpt><trkpt lat="41.2406833" lon="15.19296"><ele>459.5</ele><time>2026-04-12T09:43:32.93Z</time></trkpt><trkpt lat="41.2407033" lon="15.19278"><ele>459.0</ele><time>2026-04-12T09:43:33.929Z</time></trkpt><trkpt lat="41.2407517" lon="15.1926167"><ele>459.0</ele><time>2026-04-12T09:43:34.929Z</time></trkpt><trkpt lat="41.240815" lon="15.1924683"><ele>459.0</ele><time>2026-04-12T09:43:35.93Z</time></trkpt><trkpt lat="41.2409" lon="15.1923333"><ele>459.0</ele><time>2026-04-12T09:43:36.93Z</time></trkpt><trkpt lat="41.240985" lon="15.1922017"><ele>459.0</ele><time>2026-04-12T09:43:37.93Z</time></trkpt><trkpt lat="41.241065" lon="15.19206"><ele>458.25</ele><time>2026-04-12T09:43:38.929Z</time></trkpt><trkpt lat="41.2411133" lon="15.1919033"><ele>457.5</ele><time>2026-04-12T09:43:39.93Z</time></trkpt><trkpt lat="41.2411333" lon="15.1917333"><ele>456.75</ele><time>2026-04-12T09:43:40.929Z</time></trkpt><trkpt lat="41.2411383" lon="15.19155"><ele>456.0</ele><time>2026-04-12T09:43:41.93Z</time></trkpt><trkpt lat="41.2411267" lon="15.19138"><ele>456.0</ele><time>2026-04-12T09:43:42.929Z</time></trkpt><trkpt lat="41.2411067" lon="15.1911967"><ele>456.0</ele><time>2026-04-12T09:43:43.93Z</time></trkpt><trkpt lat="41.2410717" lon="15.1910183"><ele>456.0</ele><time>2026-04-12T09:43:44.93Z</time></trkpt><trkpt lat="41.2410433" lon="15.1908333"><ele>456.0</ele><time>2026-04-12T09:43:45.93Z</time></trkpt><trkpt lat="41.2410367" lon="15.1906467"><ele>456.0</ele><time>2026-04-12T09:43:46.93Z</time></trkpt><trkpt lat="41.241035" lon="15.1904517"><ele>456.0</ele><time>2026-04-12T09:43:47.93Z</time></trkpt><trkpt lat="41.2410383" lon="15.1902433"><ele>456.0</ele><time>2026-04-12T09:43:48.93Z</time></trkpt><trkpt lat="41.24104" lon="15.19004"><ele>455.66666666666663</ele><time>2026-04-12T09:43:49.93Z</time></trkpt><trkpt lat="41.2410417" lon="15.18983"><ele>455.3333333333333</ele><time>2026-04-12T09:43:50.929Z</time></trkpt><trkpt lat="41.2410517" lon="15.1896283"><ele>455.0</ele><time>2026-04-12T09:43:51.93Z</time></trkpt><trkpt lat="41.2410683" lon="15.1894317"><ele>455.0</ele><time>2026-04-12T09:43:52.93Z</time></trkpt><trkpt lat="41.2411" lon="15.189235"><ele>455.0</ele><time>2026-04-12T09:43:53.93Z</time></trkpt><trkpt lat="41.24113" lon="15.1890383"><ele>455.0</ele><time>2026-04-12T09:43:54.93Z</time></trkpt><trkpt lat="41.2411567" lon="15.1888467"><ele>455.0</ele><time>2026-04-12T09:43:55.929Z</time></trkpt><trkpt lat="41.2411833" lon="15.1886567"><ele>455.0</ele><time>2026-04-12T09:43:56.93Z</time></trkpt><trkpt lat="41.241215" lon="15.18847"><ele>455.0</ele><time>2026-04-12T09:43:57.93Z</time></trkpt><trkpt lat="41.2412417" lon="15.1882833"><ele>455.0</ele><time>2026-04-12T09:43:58.93Z</time></trkpt><trkpt lat="41.2412733" lon="15.1881"><ele>455.0</ele><time>2026-04-12T09:43:59.93Z</time></trkpt><trkpt lat="41.2413017" lon="15.1879133"><ele>455.0</ele><time>2026-04-12T09:44:00.93Z</time></trkpt><trkpt lat="41.2413283" lon="15.187735"><ele>455.0</ele><time>2026-04-12T09:44:01.929Z</time></trkpt><trkpt lat="41.2413567" lon="15.187555"><ele>455.0</ele><time>2026-04-12T09:44:02.93Z</time></trkpt><trkpt lat="41.2413833" lon="15.18738"><ele>455.0</ele><time>2026-04-12T09:44:03.93Z</time></trkpt><trkpt lat="41.2414067" lon="15.1872033"><ele>455.75</ele><time>2026-04-12T09:44:04.93Z</time></trkpt><trkpt lat="41.2414217" lon="15.18702"><ele>456.5</ele><time>2026-04-12T09:44:05.93Z</time></trkpt><trkpt lat="41.2414367" lon="15.1868383"><ele>457.25</ele><time>2026-04-12T09:44:06.93Z</time></trkpt><trkpt lat="41.24146" lon="15.1866517"><ele>458.0</ele><time>2026-04-12T09:44:07.929Z</time></trkpt><trkpt lat="41.2414817" lon="15.1864717"><ele>461.5</ele><time>2026-04-12T09:44:08.93Z</time></trkpt><trkpt lat="41.2415017" lon="15.186295"><ele>465.0</ele><time>2026-04-12T09:44:09.93Z</time></trkpt><trkpt lat="41.2415217" lon="15.1861167"><ele>468.5</ele><time>2026-04-12T09:44:10.93Z</time></trkpt><trkpt lat="41.241535" lon="15.18594"><ele>472.0</ele><time>2026-04-12T09:44:11.93Z</time></trkpt><trkpt lat="41.2415467" lon="15.18576"><ele>472.25</ele><time>2026-04-12T09:44:12.93Z</time></trkpt><trkpt lat="41.241555" lon="15.18558"><ele>472.5</ele><time>2026-04-12T09:44:13.929Z</time></trkpt><trkpt lat="41.2415567" lon="15.1853983"><ele>472.75</ele><time>2026-04-12T09:44:14.929Z</time></trkpt><trkpt lat="41.2415533" lon="15.18522"><ele>473.0</ele><time>2026-04-12T09:44:15.93Z</time></trkpt><trkpt lat="41.24154" lon="15.185035"><ele>473.0</ele><time>2026-04-12T09:44:16.93Z</time></trkpt><trkpt lat="41.2415233" lon="15.1848583"><ele>473.0</ele><time>2026-04-12T09:44:17.93Z</time></trkpt><trkpt lat="41.2415067" lon="15.184665"><ele>473.0</ele><time>2026-04-12T09:44:18.93Z</time></trkpt><trkpt lat="41.2414917" lon="15.1844783"><ele>473.0</ele><time>2026-04-12T09:44:19.93Z</time></trkpt><trkpt lat="41.2414617" lon="15.184295"><ele>470.75</ele><time>2026-04-12T09:44:20.929Z</time></trkpt><trkpt lat="41.24144" lon="15.184115"><ele>468.5</ele><time>2026-04-12T09:44:21.93Z</time></trkpt><trkpt lat="41.2414067" lon="15.1839217"><ele>466.25</ele><time>2026-04-12T09:44:22.93Z</time></trkpt><trkpt lat="41.2413817" lon="15.18373"><ele>464.0</ele><time>2026-04-12T09:44:23.929Z</time></trkpt><trkpt lat="41.2413533" lon="15.1835517"><ele>464.0</ele><time>2026-04-12T09:44:24.93Z</time></trkpt><trkpt lat="41.241325" lon="15.1833667"><ele>464.0</ele><time>2026-04-12T09:44:25.93Z</time></trkpt><trkpt lat="41.2412933" lon="15.183185"><ele>464.0</ele><time>2026-04-12T09:44:26.929Z</time></trkpt><trkpt lat="41.2412667" lon="15.183005"><ele>464.0</ele><time>2026-04-12T09:44:27.93Z</time></trkpt><trkpt lat="41.241235" lon="15.1828283"><ele>465.5</ele><time>2026-04-12T09:44:28.929Z</time></trkpt><trkpt lat="41.2411783" lon="15.182675"><ele>467.0</ele><time>2026-04-12T09:44:29.929Z</time></trkpt><trkpt lat="41.2411067" lon="15.18252"><ele>468.5</ele><time>2026-04-12T09:44:30.93Z</time></trkpt><trkpt lat="41.2410217" lon="15.1823767"><ele>470.0</ele><time>2026-04-12T09:44:31.929Z</time></trkpt><trkpt lat="41.2409233" lon="15.1822517"><ele>469.25</ele><time>2026-04-12T09:44:32.929Z</time></trkpt><trkpt lat="41.2408167" lon="15.182145"><ele>468.5</ele><time>2026-04-12T09:44:33.929Z</time></trkpt><trkpt lat="41.2407017" lon="15.182035"><ele>467.75</ele><time>2026-04-12T09:44:34.93Z</time></trkpt><trkpt lat="41.24059" lon="15.1819233"><ele>467.0</ele><time>2026-04-12T09:44:35.929Z</time></trkpt><trkpt lat="41.240495" lon="15.1818017"><ele>467.0</ele><time>2026-04-12T09:44:36.929Z</time></trkpt><trkpt lat="41.240415" lon="15.18166"><ele>467.0</ele><time>2026-04-12T09:44:37.93Z</time></trkpt><trkpt lat="41.2403367" lon="15.1815067"><ele>467.0</ele><time>2026-04-12T09:44:38.93Z</time></trkpt><trkpt lat="41.2402617" lon="15.1813483"><ele>467.0</ele><time>2026-04-12T09:44:39.93Z</time></trkpt><trkpt lat="41.24018" lon="15.1811933"><ele>469.0</ele><time>2026-04-12T09:44:40.929Z</time></trkpt><trkpt lat="41.2400917" lon="15.1810433"><ele>471.0</ele><time>2026-04-12T09:44:41.93Z</time></trkpt><trkpt lat="41.2399983" lon="15.1809"><ele>473.0</ele><time>2026-04-12T09:44:42.93Z</time></trkpt><trkpt lat="41.2399017" lon="15.1807667"><ele>475.0</ele><time>2026-04-12T09:44:43.93Z</time></trkpt><trkpt lat="41.2397983" lon="15.1806383"><ele>476.5</ele><time>2026-04-12T09:44:44.93Z</time></trkpt><trkpt lat="41.239695" lon="15.1805167"><ele>478.0</ele><time>2026-04-12T09:44:45.929Z</time></trkpt><trkpt lat="41.2396" lon="15.1804"><ele>479.5</ele><time>2026-04-12T09:44:46.93Z</time></trkpt><trkpt lat="41.2395017" lon="15.1802883"><ele>481.0</ele><time>2026-04-12T09:44:47.93Z</time></trkpt><trkpt lat="41.2393983" lon="15.1801817"><ele>481.0</ele><time>2026-04-12T09:44:48.93Z</time></trkpt><trkpt lat="41.2392917" lon="15.1800867"><ele>481.0</ele><time>2026-04-12T09:44:49.929Z</time></trkpt><trkpt lat="41.2391817" lon="15.1799917"><ele>481.0</ele><time>2026-04-12T09:44:50.93Z</time></trkpt><trkpt lat="41.2390783" lon="15.1799033"><ele>481.0</ele><time>2026-04-12T09:44:51.929Z</time></trkpt><trkpt lat="41.2389733" lon="15.1798117"><ele>480.5</ele><time>2026-04-12T09:44:52.929Z</time></trkpt><trkpt lat="41.238875" lon="15.17971"><ele>480.0</ele><time>2026-04-12T09:44:53.93Z</time></trkpt><trkpt lat="41.2387683" lon="15.17961"><ele>479.5</ele><time>2026-04-12T09:44:54.929Z</time></trkpt><trkpt lat="41.238675" lon="15.17949"><ele>479.0</ele><time>2026-04-12T09:44:55.93Z</time></trkpt><trkpt lat="41.2385883" lon="15.1793567"><ele>479.0</ele><time>2026-04-12T09:44:56.93Z</time></trkpt><trkpt lat="41.2384967" lon="15.1792133"><ele>479.0</ele><time>2026-04-12T09:44:57.93Z</time></trkpt><trkpt lat="41.238415" lon="15.1790733"><ele>479.0</ele><time>2026-04-12T09:44:58.93Z</time></trkpt><trkpt lat="41.2383333" lon="15.1789283"><ele>479.0</ele><time>2026-04-12T09:44:59.929Z</time></trkpt><trkpt lat="41.23826" lon="15.17878"><ele>478.75</ele><time>2026-04-12T09:45:00.93Z</time></trkpt><trkpt lat="41.2382017" lon="15.1786233"><ele>478.5</ele><time>2026-04-12T09:45:01.93Z</time></trkpt><trkpt lat="41.2381567" lon="15.1784567"><ele>478.25</ele><time>2026-04-12T09:45:02.93Z</time></trkpt><trkpt lat="41.238115" lon="15.1782917"><ele>478.0</ele><time>2026-04-12T09:45:03.929Z</time></trkpt><trkpt lat="41.238065" lon="15.1781233"><ele>478.0</ele><time>2026-04-12T09:45:04.929Z</time></trkpt><trkpt lat="41.2379917" lon="15.17797"><ele>478.0</ele><time>2026-04-12T09:45:05.929Z</time></trkpt><trkpt lat="41.23791" lon="15.177815"><ele>478.0</ele><time>2026-04-12T09:45:06.93Z</time></trkpt><trkpt lat="41.2378333" lon="15.1776583"><ele>478.0</ele><time>2026-04-12T09:45:07.929Z</time></trkpt><trkpt lat="41.2377617" lon="15.1775067"><ele>478.0</ele><time>2026-04-12T09:45:08.929Z</time></trkpt><trkpt lat="41.2376967" lon="15.17736"><ele>478.0</ele><time>2026-04-12T09:45:09.929Z</time></trkpt><trkpt lat="41.2376433" lon="15.1772067"><ele>478.0</ele><time>2026-04-12T09:45:10.93Z</time></trkpt><trkpt lat="41.2376083" lon="15.1770467"><ele>478.0</ele><time>2026-04-12T09:45:11.93Z</time></trkpt><trkpt lat="41.2375833" lon="15.17689"><ele>478.0</ele><time>2026-04-12T09:45:12.93Z</time></trkpt><trkpt lat="41.2375767" lon="15.1767233"><ele>478.0</ele><time>2026-04-12T09:45:13.929Z</time></trkpt><trkpt lat="41.2375917" lon="15.1765583"><ele>478.0</ele><time>2026-04-12T09:45:14.93Z</time></trkpt><trkpt lat="41.237615" lon="15.1763867"><ele>478.0</ele><time>2026-04-12T09:45:15.93Z</time></trkpt><trkpt lat="41.2376533" lon="15.1762217"><ele>478.0</ele><time>2026-04-12T09:45:16.93Z</time></trkpt><trkpt lat="41.2376983" lon="15.1760517"><ele>478.0</ele><time>2026-04-12T09:45:17.929Z</time></trkpt><trkpt lat="41.23774" lon="15.17589"><ele>478.0</ele><time>2026-04-12T09:45:18.93Z</time></trkpt><trkpt lat="41.2377833" lon="15.175715"><ele>478.0</ele><time>2026-04-12T09:45:19.93Z</time></trkpt><trkpt lat="41.2378183" lon="15.1755467"><ele>478.25</ele><time>2026-04-12T09:45:20.929Z</time></trkpt><trkpt lat="41.2378517" lon="15.17537"><ele>478.5</ele><time>2026-04-12T09:45:21.929Z</time></trkpt><trkpt lat="41.2378683" lon="15.1751983"><ele>478.75</ele><time>2026-04-12T09:45:22.93Z</time></trkpt><trkpt lat="41.2378683" lon="15.1750317"><ele>479.0</ele><time>2026-04-12T09:45:23.93Z</time></trkpt><trkpt lat="41.237845" lon="15.1748667"><ele>480.0</ele><time>2026-04-12T09:45:24.93Z</time></trkpt><trkpt lat="41.2377967" lon="15.1746933"><ele>481.0</ele><time>2026-04-12T09:45:25.93Z</time></trkpt><trkpt lat="41.237735" lon="15.1745233"><ele>482.0</ele><time>2026-04-12T09:45:26.929Z</time></trkpt><trkpt lat="41.237665" lon="15.1743583"><ele>483.0</ele><time>2026-04-12T09:45:27.93Z</time></trkpt><trkpt lat="41.2376133" lon="15.1741783"><ele>487.0</ele><time>2026-04-12T09:45:28.93Z</time></trkpt><trkpt lat="41.237565" lon="15.1739983"><ele>491.0</ele><time>2026-04-12T09:45:29.93Z</time></trkpt><trkpt lat="41.2375217" lon="15.1738233"><ele>495.0</ele><time>2026-04-12T09:45:30.93Z</time></trkpt><trkpt lat="41.2374817" lon="15.1736333"><ele>499.0</ele><time>2026-04-12T09:45:31.93Z</time></trkpt><trkpt lat="41.237455" lon="15.1734567"><ele>499.0</ele><time>2026-04-12T09:45:32.929Z</time></trkpt><trkpt lat="41.23743" lon="15.1732883"><ele>499.0</ele><time>2026-04-12T09:45:33.929Z</time></trkpt><trkpt lat="41.2374017" lon="15.17313"><ele>499.0</ele><time>2026-04-12T09:45:34.93Z</time></trkpt><trkpt lat="41.2373417" lon="15.1729867"><ele>499.0</ele><time>2026-04-12T09:45:35.929Z</time></trkpt><trkpt lat="41.2372383" lon="15.1728667"><ele>497.5</ele><time>2026-04-12T09:45:36.929Z</time></trkpt><trkpt lat="41.2371233" lon="15.17277"><ele>496.0</ele><time>2026-04-12T09:45:37.929Z</time></trkpt><trkpt lat="41.237005" lon="15.1726883"><ele>494.5</ele><time>2026-04-12T09:45:38.93Z</time></trkpt><trkpt lat="41.2368833" lon="15.172605"><ele>493.0</ele><time>2026-04-12T09:45:39.929Z</time></trkpt><trkpt lat="41.2367683" lon="15.1725"><ele>493.0</ele><time>2026-04-12T09:45:40.93Z</time></trkpt><trkpt lat="41.2366567" lon="15.1723883"><ele>493.0</ele><time>2026-04-12T09:45:41.93Z</time></trkpt><trkpt lat="41.2365433" lon="15.17227"><ele>493.0</ele><time>2026-04-12T09:45:42.93Z</time></trkpt><trkpt lat="41.2364367" lon="15.172145"><ele>493.0</ele><time>2026-04-12T09:45:43.929Z</time></trkpt><trkpt lat="41.2363217" lon="15.172025"><ele>494.0</ele><time>2026-04-12T09:45:44.93Z</time></trkpt><trkpt lat="41.23621" lon="15.1719083"><ele>495.0</ele><time>2026-04-12T09:45:45.93Z</time></trkpt><trkpt lat="41.2360983" lon="15.1717933"><ele>496.0</ele><time>2026-04-12T09:45:46.93Z</time></trkpt><trkpt lat="41.2359883" lon="15.1716833"><ele>497.0</ele><time>2026-04-12T09:45:47.929Z</time></trkpt><trkpt lat="41.2358717" lon="15.17157"><ele>496.0</ele><time>2026-04-12T09:45:48.93Z</time></trkpt><trkpt lat="41.2357483" lon="15.1714767"><ele>495.0</ele><time>2026-04-12T09:45:49.93Z</time></trkpt><trkpt lat="41.2356283" lon="15.1713817"><ele>494.0</ele><time>2026-04-12T09:45:50.93Z</time></trkpt><trkpt lat="41.2355067" lon="15.1712883"><ele>493.0</ele><time>2026-04-12T09:45:51.93Z</time></trkpt><trkpt lat="41.2354017" lon="15.17119"><ele>493.0</ele><time>2026-04-12T09:45:52.929Z</time></trkpt><trkpt lat="41.2352883" lon="15.1710633"><ele>493.0</ele><time>2026-04-12T09:45:53.929Z</time></trkpt><trkpt lat="41.2351733" lon="15.1709217"><ele>493.0</ele><time>2026-04-12T09:45:54.93Z</time></trkpt><trkpt lat="41.2350717" lon="15.1707633"><ele>491.5</ele><time>2026-04-12T09:45:55.929Z</time></trkpt><trkpt lat="41.2349733" lon="15.170595"><ele>490.0</ele><time>2026-04-12T09:45:56.93Z</time></trkpt><trkpt lat="41.23487" lon="15.1704633"><ele>488.5</ele><time>2026-04-12T09:45:57.929Z</time></trkpt><trkpt lat="41.23476" lon="15.17034"><ele>487.0</ele><time>2026-04-12T09:45:58.93Z</time></trkpt><trkpt lat="41.2346483" lon="15.1702183"><ele>487.0</ele><time>2026-04-12T09:45:59.93Z</time></trkpt><trkpt lat="41.23453" lon="15.1701017"><ele>487.0</ele><time>2026-04-12T09:46:00.93Z</time></trkpt><trkpt lat="41.2343983" lon="15.1699833"><ele>487.0</ele><time>2026-04-12T09:46:01.93Z</time></trkpt><trkpt lat="41.2342833" lon="15.1698733"><ele>487.0</ele><time>2026-04-12T09:46:02.93Z</time></trkpt><trkpt lat="41.23417" lon="15.1697433"><ele>488.0</ele><time>2026-04-12T09:46:03.93Z</time></trkpt><trkpt lat="41.2340567" lon="15.1696333"><ele>489.0</ele><time>2026-04-12T09:46:04.929Z</time></trkpt><trkpt lat="41.2339483" lon="15.1695183"><ele>490.0</ele><time>2026-04-12T09:46:05.93Z</time></trkpt><trkpt lat="41.2338467" lon="15.1693833"><ele>491.0</ele><time>2026-04-12T09:46:06.93Z</time></trkpt><trkpt lat="41.23376" lon="15.1692333"><ele>490.3333333333333</ele><time>2026-04-12T09:46:07.93Z</time></trkpt><trkpt lat="41.2336783" lon="15.1690683"><ele>489.66666666666663</ele><time>2026-04-12T09:46:08.93Z</time></trkpt><trkpt lat="41.2336067" lon="15.1688983"><ele>489.0</ele><time>2026-04-12T09:46:09.93Z</time></trkpt><trkpt lat="41.2335383" lon="15.16871"><ele>489.0</ele><time>2026-04-12T09:46:10.93Z</time></trkpt><trkpt lat="41.2334667" lon="15.168525"><ele>489.0</ele><time>2026-04-12T09:46:11.93Z</time></trkpt><trkpt lat="41.2333917" lon="15.1683483"><ele>489.0</ele><time>2026-04-12T09:46:12.93Z</time></trkpt><trkpt lat="41.23331" lon="15.168175"><ele>488.0</ele><time>2026-04-12T09:46:13.93Z</time></trkpt><trkpt lat="41.2332133" lon="15.1680167"><ele>487.0</ele><time>2026-04-12T09:46:14.93Z</time></trkpt><trkpt lat="41.2331083" lon="15.1678717"><ele>486.0</ele><time>2026-04-12T09:46:15.93Z</time></trkpt><trkpt lat="41.233" lon="15.167745"><ele>485.0</ele><time>2026-04-12T09:46:16.93Z</time></trkpt><trkpt lat="41.2328867" lon="15.1676233"><ele>485.0</ele><time>2026-04-12T09:46:17.93Z</time></trkpt><trkpt lat="41.2327867" lon="15.167495"><ele>485.0</ele><time>2026-04-12T09:46:18.93Z</time></trkpt><trkpt lat="41.2326883" lon="15.1673617"><ele>485.0</ele><time>2026-04-12T09:46:19.93Z</time></trkpt><trkpt lat="41.2325933" lon="15.16722"><ele>485.0</ele><time>2026-04-12T09:46:20.93Z</time></trkpt><trkpt lat="41.2324967" lon="15.1670833"><ele>484.0</ele><time>2026-04-12T09:46:21.93Z</time></trkpt><trkpt lat="41.2324067" lon="15.1669367"><ele>483.0</ele><time>2026-04-12T09:46:22.93Z</time></trkpt><trkpt lat="41.23233" lon="15.1667783"><ele>482.0</ele><time>2026-04-12T09:46:23.93Z</time></trkpt><trkpt lat="41.23226" lon="15.1666217"><ele>481.0</ele><time>2026-04-12T09:46:24.93Z</time></trkpt><trkpt lat="41.2321833" lon="15.16646"><ele>483.0</ele><time>2026-04-12T09:46:25.93Z</time></trkpt><trkpt lat="41.2321117" lon="15.1662983"><ele>485.0</ele><time>2026-04-12T09:46:26.93Z</time></trkpt><trkpt lat="41.2320333" lon="15.1661383"><ele>487.0</ele><time>2026-04-12T09:46:27.929Z</time></trkpt><trkpt lat="41.231955" lon="15.1659717"><ele>489.0</ele><time>2026-04-12T09:46:28.93Z</time></trkpt><trkpt lat="41.2318767" lon="15.1658067"><ele>489.5</ele><time>2026-04-12T09:46:29.929Z</time></trkpt><trkpt lat="41.231795" lon="15.16565"><ele>490.0</ele><time>2026-04-12T09:46:30.929Z</time></trkpt><trkpt lat="41.2317133" lon="15.1654967"><ele>490.5</ele><time>2026-04-12T09:46:31.93Z</time></trkpt><trkpt lat="41.23163" lon="15.1653333"><ele>491.0</ele><time>2026-04-12T09:46:32.93Z</time></trkpt><trkpt lat="41.2315367" lon="15.16518"><ele>489.25</ele><time>2026-04-12T09:46:33.93Z</time></trkpt><trkpt lat="41.2314533" lon="15.1650233"><ele>487.5</ele><time>2026-04-12T09:46:34.929Z</time></trkpt><trkpt lat="41.23137" lon="15.1648617"><ele>485.75</ele><time>2026-04-12T09:46:35.929Z</time></trkpt><trkpt lat="41.231285" lon="15.164705"><ele>484.0</ele><time>2026-04-12T09:46:36.93Z</time></trkpt><trkpt lat="41.2312033" lon="15.1645483"><ele>484.0</ele><time>2026-04-12T09:46:37.93Z</time></trkpt><trkpt lat="41.2311217" lon="15.1644017"><ele>484.0</ele><time>2026-04-12T09:46:38.93Z</time></trkpt><trkpt lat="41.2310317" lon="15.1642583"><ele>484.0</ele><time>2026-04-12T09:46:39.929Z</time></trkpt><trkpt lat="41.2309467" lon="15.16411"><ele>484.0</ele><time>2026-04-12T09:46:40.929Z</time></trkpt><trkpt lat="41.23086" lon="15.16397"><ele>484.5</ele><time>2026-04-12T09:46:41.93Z</time></trkpt><trkpt lat="41.2307833" lon="15.1638317"><ele>485.0</ele><time>2026-04-12T09:46:42.929Z</time></trkpt><trkpt lat="41.2307067" lon="15.1636983"><ele>485.5</ele><time>2026-04-12T09:46:43.93Z</time></trkpt><trkpt lat="41.2306333" lon="15.163555"><ele>486.0</ele><time>2026-04-12T09:46:44.929Z</time></trkpt><trkpt lat="41.2305733" lon="15.1634133"><ele>484.5</ele><time>2026-04-12T09:46:45.93Z</time></trkpt><trkpt lat="41.23051" lon="15.1632683"><ele>483.0</ele><time>2026-04-12T09:46:46.93Z</time></trkpt><trkpt lat="41.230455" lon="15.1631217"><ele>481.5</ele><time>2026-04-12T09:46:47.93Z</time></trkpt><trkpt lat="41.2304083" lon="15.1629767"><ele>480.0</ele><time>2026-04-12T09:46:48.929Z</time></trkpt><trkpt lat="41.2303617" lon="15.16283"><ele>480.0</ele><time>2026-04-12T09:46:49.93Z</time></trkpt><trkpt lat="41.23032" lon="15.162675"><ele>480.0</ele><time>2026-04-12T09:46:50.929Z</time></trkpt><trkpt lat="41.2302917" lon="15.1625017"><ele>480.0</ele><time>2026-04-12T09:46:51.93Z</time></trkpt><trkpt lat="41.2302567" lon="15.16234"><ele>480.0</ele><time>2026-04-12T09:46:52.93Z</time></trkpt><trkpt lat="41.2302083" lon="15.1621783"><ele>480.0</ele><time>2026-04-12T09:46:53.93Z</time></trkpt><trkpt lat="41.230175" lon="15.1620233"><ele>480.0</ele><time>2026-04-12T09:46:54.93Z</time></trkpt><trkpt lat="41.23014" lon="15.16185"><ele>480.0</ele><time>2026-04-12T09:46:55.93Z</time></trkpt><trkpt lat="41.2300883" lon="15.16169"><ele>480.0</ele><time>2026-04-12T09:46:56.93Z</time></trkpt><trkpt lat="41.2300233" lon="15.1615433"><ele>480.25</ele><time>2026-04-12T09:46:57.93Z</time></trkpt><trkpt lat="41.2299367" lon="15.1614167"><ele>480.5</ele><time>2026-04-12T09:46:58.929Z</time></trkpt><trkpt lat="41.229835" lon="15.1613"><ele>480.75</ele><time>2026-04-12T09:46:59.93Z</time></trkpt><trkpt lat="41.2297317" lon="15.1611917"><ele>481.0</ele><time>2026-04-12T09:47:00.93Z</time></trkpt><trkpt lat="41.229635" lon="15.1610867"><ele>481.20000000000005</ele><time>2026-04-12T09:47:01.93Z</time></trkpt><trkpt lat="41.2295467" lon="15.1609933"><ele>481.40000000000003</ele><time>2026-04-12T09:47:02.929Z</time></trkpt><trkpt lat="41.2294683" lon="15.1609117"><ele>481.6</ele><time>2026-04-12T09:47:03.93Z</time></trkpt><trkpt lat="41.229395" lon="15.16084"><ele>481.8</ele><time>2026-04-12T09:47:04.929Z</time></trkpt><trkpt lat="41.22933" lon="15.160775"><ele>482.0</ele><time>2026-04-12T09:47:05.93Z</time></trkpt><trkpt lat="41.2292733" lon="15.16072"><ele>483.6</ele><time>2026-04-12T09:47:06.929Z</time></trkpt><trkpt lat="41.22918" lon="15.16064"><ele>485.20000000000005</ele><time>2026-04-12T09:47:08.93Z</time></trkpt><trkpt lat="41.2291167" lon="15.160585"><ele>486.8</ele><time>2026-04-12T09:47:10.93Z</time></trkpt><trkpt lat="41.22905" lon="15.1605333"><ele>488.4</ele><time>2026-04-12T09:48:03.929Z</time></trkpt><trkpt lat="41.2289367" lon="15.1604433"><ele>490.0</ele><time>2026-04-12T09:48:05.93Z</time></trkpt><trkpt lat="41.2288683" lon="15.1603817"><ele>490.4</ele><time>2026-04-12T09:48:06.929Z</time></trkpt><trkpt lat="41.2288067" lon="15.1603217"><ele>490.8</ele><time>2026-04-12T09:48:07.929Z</time></trkpt><trkpt lat="41.2287567" lon="15.1602617"><ele>491.20000000000005</ele><time>2026-04-12T09:48:08.929Z</time></trkpt><trkpt lat="41.22871" lon="15.1601933"><ele>491.6</ele><time>2026-04-12T09:48:09.93Z</time></trkpt><trkpt lat="41.2286467" lon="15.1600517"><ele>492.0</ele><time>2026-04-12T09:48:11.929Z</time></trkpt><trkpt lat="41.2286083" lon="15.1598933"><ele>494.1666666666667</ele><time>2026-04-12T09:48:13.93Z</time></trkpt><trkpt lat="41.2285883" lon="15.159805"><ele>496.33333333333337</ele><time>2026-04-12T09:48:14.93Z</time></trkpt><trkpt lat="41.228565" lon="15.15971"><ele>498.5</ele><time>2026-04-12T09:48:15.93Z</time></trkpt><trkpt lat="41.2285417" lon="15.1596117"><ele>500.6666666666667</ele><time>2026-04-12T09:48:16.929Z</time></trkpt><trkpt lat="41.2285183" lon="15.15951"><ele>502.83333333333337</ele><time>2026-04-12T09:48:17.93Z</time></trkpt><trkpt lat="41.228495" lon="15.1594067"><ele>505.0</ele><time>2026-04-12T09:48:18.93Z</time></trkpt><trkpt lat="41.2284683" lon="15.1593067"><ele>505.00000000000006</ele><time>2026-04-12T09:48:19.93Z</time></trkpt><trkpt lat="41.22844" lon="15.159205"><ele>505.0</ele><time>2026-04-12T09:48:20.929Z</time></trkpt><trkpt lat="41.228405" lon="15.1590967"><ele>505.0</ele><time>2026-04-12T09:48:21.929Z</time></trkpt><trkpt lat="41.2283667" lon="15.1589967"><ele>505.0</ele><time>2026-04-12T09:48:22.93Z</time></trkpt><trkpt lat="41.2283283" lon="15.1588967"><ele>505.00000000000006</ele><time>2026-04-12T09:48:23.929Z</time></trkpt><trkpt lat="41.22827" lon="15.1588083"><ele>505.0</ele><time>2026-04-12T09:48:24.93Z</time></trkpt><trkpt lat="41.2282133" lon="15.1587283"><ele>506.83333333333337</ele><time>2026-04-12T09:48:25.93Z</time></trkpt><trkpt lat="41.228145" lon="15.1586567"><ele>508.6666666666667</ele><time>2026-04-12T09:48:26.929Z</time></trkpt><trkpt lat="41.22808" lon="15.1585867"><ele>510.5</ele><time>2026-04-12T09:48:27.929Z</time></trkpt><trkpt lat="41.228015" lon="15.158515"><ele>512.3333333333334</ele><time>2026-04-12T09:48:28.93Z</time></trkpt><trkpt lat="41.2279517" lon="15.15843"><ele>514.1666666666666</ele><time>2026-04-12T09:48:29.929Z</time></trkpt><trkpt lat="41.2279" lon="15.158345"><ele>516.0</ele><time>2026-04-12T09:48:30.929Z</time></trkpt><trkpt lat="41.2278517" lon="15.15827"><ele>517.5714285714286</ele><time>2026-04-12T09:48:31.929Z</time></trkpt><trkpt lat="41.2278167" lon="15.158195"><ele>519.1428571428571</ele><time>2026-04-12T09:48:32.93Z</time></trkpt><trkpt lat="41.227785" lon="15.15812"><ele>520.7142857142858</ele><time>2026-04-12T09:48:33.93Z</time></trkpt><trkpt lat="41.22776" lon="15.15803"><ele>522.2857142857142</ele><time>2026-04-12T09:48:34.929Z</time></trkpt><trkpt lat="41.2277267" lon="15.1579417"><ele>523.8571428571429</ele><time>2026-04-12T09:48:35.93Z</time></trkpt><trkpt lat="41.227695" lon="15.157855"><ele>525.4285714285714</ele><time>2026-04-12T09:48:36.93Z</time></trkpt><trkpt lat="41.2276633" lon="15.1577667"><ele>527.0</ele><time>2026-04-12T09:48:37.93Z</time></trkpt><trkpt lat="41.2276333" lon="15.1576733"><ele>527.0</ele><time>2026-04-12T09:48:38.93Z</time></trkpt><trkpt lat="41.2275983" lon="15.15759"><ele>527.0</ele><time>2026-04-12T09:48:39.93Z</time></trkpt><trkpt lat="41.2275633" lon="15.1575017"><ele>527.0</ele><time>2026-04-12T09:48:40.93Z</time></trkpt><trkpt lat="41.2275333" lon="15.1574083"><ele>527.0</ele><time>2026-04-12T09:48:41.93Z</time></trkpt><trkpt lat="41.2274967" lon="15.15732"><ele>527.0</ele><time>2026-04-12T09:48:42.93Z</time></trkpt><trkpt lat="41.22745" lon="15.1572317"><ele>527.0</ele><time>2026-04-12T09:48:43.93Z</time></trkpt><trkpt lat="41.2273967" lon="15.15714"><ele>528.0</ele><time>2026-04-12T09:48:44.929Z</time></trkpt><trkpt lat="41.2273383" lon="15.157045"><ele>529.0</ele><time>2026-04-12T09:48:45.93Z</time></trkpt><trkpt lat="41.22727" lon="15.1569583"><ele>530.0</ele><time>2026-04-12T09:48:46.93Z</time></trkpt><trkpt lat="41.227205" lon="15.1568683"><ele>531.0</ele><time>2026-04-12T09:48:47.93Z</time></trkpt><trkpt lat="41.2271467" lon="15.1567717"><ele>532.0</ele><time>2026-04-12T09:48:48.93Z</time></trkpt><trkpt lat="41.2271" lon="15.1566667"><ele>532.0</ele><time>2026-04-12T09:48:49.929Z</time></trkpt><trkpt lat="41.2270567" lon="15.1565633"><ele>532.0</ele><time>2026-04-12T09:48:50.93Z</time></trkpt><trkpt lat="41.2270133" lon="15.1564617"><ele>532.0</ele><time>2026-04-12T09:48:51.929Z</time></trkpt><trkpt lat="41.226975" lon="15.1563667"><ele>532.0</ele><time>2026-04-12T09:48:52.93Z</time></trkpt><trkpt lat="41.2269433" lon="15.1562817"><ele>532.0</ele><time>2026-04-12T09:48:53.93Z</time></trkpt><trkpt lat="41.22692" lon="15.1562"><ele>532.0</ele><time>2026-04-12T09:48:54.93Z</time></trkpt><trkpt lat="41.22691" lon="15.1561133"><ele>533.0</ele><time>2026-04-12T09:48:55.93Z</time></trkpt><trkpt lat="41.22691" lon="15.156025"><ele>534.0</ele><time>2026-04-12T09:48:56.93Z</time></trkpt><trkpt lat="41.2269167" lon="15.1559317"><ele>535.0</ele><time>2026-04-12T09:48:57.93Z</time></trkpt><trkpt lat="41.226935" lon="15.155835"><ele>536.0</ele><time>2026-04-12T09:48:58.929Z</time></trkpt><trkpt lat="41.2269633" lon="15.1557417"><ele>537.0</ele><time>2026-04-12T09:48:59.93Z</time></trkpt><trkpt lat="41.2269983" lon="15.15564"><ele>538.0</ele><time>2026-04-12T09:49:00.929Z</time></trkpt><trkpt lat="41.2270333" lon="15.15553"><ele>539.5</ele><time>2026-04-12T09:49:01.93Z</time></trkpt><trkpt lat="41.2270683" lon="15.1554183"><ele>541.0</ele><time>2026-04-12T09:49:02.93Z</time></trkpt><trkpt lat="41.227095" lon="15.1553083"><ele>542.5</ele><time>2026-04-12T09:49:03.929Z</time></trkpt><trkpt lat="41.2271133" lon="15.155205"><ele>544.0</ele><time>2026-04-12T09:49:04.93Z</time></trkpt><trkpt lat="41.2271167" lon="15.1550967"><ele>545.5</ele><time>2026-04-12T09:49:05.929Z</time></trkpt><trkpt lat="41.2270967" lon="15.1549933"><ele>547.0</ele><time>2026-04-12T09:49:06.93Z</time></trkpt><trkpt lat="41.2270583" lon="15.1548967"><ele>548.0</ele><time>2026-04-12T09:49:07.93Z</time></trkpt><trkpt lat="41.226995" lon="15.1548133"><ele>549.0</ele><time>2026-04-12T09:49:08.93Z</time></trkpt><trkpt lat="41.226945" lon="15.1547283"><ele>550.0</ele><time>2026-04-12T09:49:09.93Z</time></trkpt><trkpt lat="41.2269167" lon="15.1546433"><ele>551.0</ele><time>2026-04-12T09:49:10.93Z</time></trkpt><trkpt lat="41.2268983" lon="15.1545483"><ele>552.0</ele><time>2026-04-12T09:49:11.93Z</time></trkpt><trkpt lat="41.2268883" lon="15.1544283"><ele>553.0</ele><time>2026-04-12T09:49:12.93Z</time></trkpt><trkpt lat="41.2268817" lon="15.1542983"><ele>553.0</ele><time>2026-04-12T09:49:13.929Z</time></trkpt><trkpt lat="41.2268783" lon="15.1541717"><ele>553.0</ele><time>2026-04-12T09:49:14.93Z</time></trkpt><trkpt lat="41.2268817" lon="15.1540383"><ele>553.0</ele><time>2026-04-12T09:49:15.93Z</time></trkpt><trkpt lat="41.2268817" lon="15.153905"><ele>553.0</ele><time>2026-04-12T09:49:16.93Z</time></trkpt><trkpt lat="41.2268833" lon="15.153775"><ele>553.0</ele><time>2026-04-12T09:49:17.93Z</time></trkpt><trkpt lat="41.2268883" lon="15.1536633"><ele>553.0</ele><time>2026-04-12T09:49:18.93Z</time></trkpt><trkpt lat="41.226895" lon="15.1535533"><ele>553.0</ele><time>2026-04-12T09:49:19.929Z</time></trkpt><trkpt lat="41.2269017" lon="15.153435"><ele>553.0</ele><time>2026-04-12T09:49:20.93Z</time></trkpt><trkpt lat="41.2269117" lon="15.1533133"><ele>553.0</ele><time>2026-04-12T09:49:21.93Z</time></trkpt><trkpt lat="41.2269217" lon="15.1531917"><ele>553.0</ele><time>2026-04-12T09:49:22.93Z</time></trkpt><trkpt lat="41.2269417" lon="15.1530733"><ele>553.0</ele><time>2026-04-12T09:49:23.93Z</time></trkpt><trkpt lat="41.2269583" lon="15.15295"><ele>554.4</ele><time>2026-04-12T09:49:24.93Z</time></trkpt><trkpt lat="41.2269633" lon="15.152835"><ele>555.8</ele><time>2026-04-12T09:49:25.93Z</time></trkpt><trkpt lat="41.22697" lon="15.1527183"><ele>557.2</ele><time>2026-04-12T09:49:26.929Z</time></trkpt><trkpt lat="41.22698" lon="15.1525917"><ele>558.6</ele><time>2026-04-12T09:49:27.93Z</time></trkpt><trkpt lat="41.2269983" lon="15.15246"><ele>560.0</ele><time>2026-04-12T09:49:28.93Z</time></trkpt><trkpt lat="41.22701" lon="15.1523283"><ele>560.8</ele><time>2026-04-12T09:49:29.929Z</time></trkpt><trkpt lat="41.2270183" lon="15.1522017"><ele>561.6</ele><time>2026-04-12T09:49:30.93Z</time></trkpt><trkpt lat="41.2270283" lon="15.1520717"><ele>562.4</ele><time>2026-04-12T09:49:31.929Z</time></trkpt><trkpt lat="41.2270333" lon="15.1519417"><ele>563.2</ele><time>2026-04-12T09:49:32.929Z</time></trkpt><trkpt lat="41.2270367" lon="15.15182"><ele>564.0</ele><time>2026-04-12T09:49:33.929Z</time></trkpt><trkpt lat="41.227035" lon="15.1516967"><ele>564.0</ele><time>2026-04-12T09:49:34.93Z</time></trkpt><trkpt lat="41.227035" lon="15.1515833"><ele>564.0</ele><time>2026-04-12T09:49:35.929Z</time></trkpt><trkpt lat="41.2270367" lon="15.1514683"><ele>564.0</ele><time>2026-04-12T09:49:36.929Z</time></trkpt><trkpt lat="41.227045" lon="15.1513583"><ele>564.0</ele><time>2026-04-12T09:49:37.93Z</time></trkpt><trkpt lat="41.2270533" lon="15.15124"><ele>564.0</ele><time>2026-04-12T09:49:38.93Z</time></trkpt><trkpt lat="41.2270667" lon="15.15112"><ele>564.0</ele><time>2026-04-12T09:49:39.93Z</time></trkpt><trkpt lat="41.2270783" lon="15.1510033"><ele>564.1666666666666</ele><time>2026-04-12T09:49:40.929Z</time></trkpt><trkpt lat="41.2270933" lon="15.1508917"><ele>564.3333333333334</ele><time>2026-04-12T09:49:41.93Z</time></trkpt><trkpt lat="41.2271083" lon="15.1507867"><ele>564.5</ele><time>2026-04-12T09:49:42.93Z</time></trkpt><trkpt lat="41.2271367" lon="15.1506867"><ele>564.6666666666667</ele><time>2026-04-12T09:49:43.929Z</time></trkpt><trkpt lat="41.2271667" lon="15.1505733"><ele>564.8333333333334</ele><time>2026-04-12T09:49:44.93Z</time></trkpt><trkpt lat="41.2271933" lon="15.1504467"><ele>565.0</ele><time>2026-04-12T09:49:45.93Z</time></trkpt><trkpt lat="41.2272183" lon="15.15032"><ele>565.4</ele><time>2026-04-12T09:49:46.93Z</time></trkpt><trkpt lat="41.227245" lon="15.1502"><ele>565.8</ele><time>2026-04-12T09:49:47.93Z</time></trkpt><trkpt lat="41.2272667" lon="15.15008"><ele>566.2</ele><time>2026-04-12T09:49:48.93Z</time></trkpt><trkpt lat="41.2273017" lon="15.1499667"><ele>566.6</ele><time>2026-04-12T09:49:49.93Z</time></trkpt><trkpt lat="41.2273283" lon="15.1498467"><ele>567.0</ele><time>2026-04-12T09:49:50.929Z</time></trkpt><trkpt lat="41.2273517" lon="15.149715"><ele>570.2</ele><time>2026-04-12T09:49:51.93Z</time></trkpt><trkpt lat="41.2273783" lon="15.1495867"><ele>573.4000000000001</ele><time>2026-04-12T09:49:52.929Z</time></trkpt><trkpt lat="41.2274083" lon="15.1494483"><ele>576.5999999999999</ele><time>2026-04-12T09:49:53.93Z</time></trkpt><trkpt lat="41.22744" lon="15.1493117"><ele>579.8</ele><time>2026-04-12T09:49:54.929Z</time></trkpt><trkpt lat="41.2274717" lon="15.1491667"><ele>583.0</ele><time>2026-04-12T09:49:55.93Z</time></trkpt><trkpt lat="41.22751" lon="15.149035"><ele>583.1999999999999</ele><time>2026-04-12T09:49:56.93Z</time></trkpt><trkpt lat="41.2275483" lon="15.1489017"><ele>583.4</ele><time>2026-04-12T09:49:57.93Z</time></trkpt><trkpt lat="41.22759" lon="15.1487633"><ele>583.5999999999999</ele><time>2026-04-12T09:49:58.929Z</time></trkpt><trkpt lat="41.2276383" lon="15.148625"><ele>583.8</ele><time>2026-04-12T09:49:59.93Z</time></trkpt><trkpt lat="41.2276867" lon="15.1484883"><ele>584.0</ele><time>2026-04-12T09:50:00.929Z</time></trkpt><trkpt lat="41.227735" lon="15.1483533"><ele>584.0</ele><time>2026-04-12T09:50:01.93Z</time></trkpt><trkpt lat="41.2277833" lon="15.14821"><ele>584.0</ele><time>2026-04-12T09:50:02.93Z</time></trkpt><trkpt lat="41.2278367" lon="15.148065"><ele>584.0</ele><time>2026-04-12T09:50:03.93Z</time></trkpt><trkpt lat="41.2278867" lon="15.1479167"><ele>584.0</ele><time>2026-04-12T09:50:04.93Z</time></trkpt><trkpt lat="41.2279283" lon="15.147785"><ele>583.3333333333333</ele><time>2026-04-12T09:50:05.93Z</time></trkpt><trkpt lat="41.2279583" lon="15.147675"><ele>582.6666666666666</ele><time>2026-04-12T09:50:06.929Z</time></trkpt><trkpt lat="41.2279867" lon="15.147565"><ele>582.0</ele><time>2026-04-12T09:50:07.93Z</time></trkpt><trkpt lat="41.22801" lon="15.1474533"><ele>581.3333333333334</ele><time>2026-04-12T09:50:08.93Z</time></trkpt><trkpt lat="41.2280233" lon="15.1473467"><ele>580.6666666666667</ele><time>2026-04-12T09:50:09.93Z</time></trkpt><trkpt lat="41.2280383" lon="15.1472333"><ele>580.0</ele><time>2026-04-12T09:50:10.93Z</time></trkpt><trkpt lat="41.2280567" lon="15.14711"><ele>580.0</ele><time>2026-04-12T09:50:11.93Z</time></trkpt><trkpt lat="41.2280717" lon="15.1469883"><ele>580.0</ele><time>2026-04-12T09:50:12.93Z</time></trkpt><trkpt lat="41.2280767" lon="15.1468683"><ele>580.0</ele><time>2026-04-12T09:50:13.93Z</time></trkpt><trkpt lat="41.2280833" lon="15.146745"><ele>580.0</ele><time>2026-04-12T09:50:14.93Z</time></trkpt><trkpt lat="41.22808" lon="15.14663"><ele>580.0</ele><time>2026-04-12T09:50:15.93Z</time></trkpt><trkpt lat="41.228075" lon="15.1465083"><ele>580.8333333333334</ele><time>2026-04-12T09:50:16.93Z</time></trkpt><trkpt lat="41.2280633" lon="15.14639"><ele>581.6666666666667</ele><time>2026-04-12T09:50:17.929Z</time></trkpt><trkpt lat="41.2280417" lon="15.1462817"><ele>582.5</ele><time>2026-04-12T09:50:18.93Z</time></trkpt><trkpt lat="41.2280133" lon="15.14617"><ele>583.3333333333334</ele><time>2026-04-12T09:50:19.93Z</time></trkpt><trkpt lat="41.227985" lon="15.1460633"><ele>584.1666666666666</ele><time>2026-04-12T09:50:20.93Z</time></trkpt><trkpt lat="41.2279567" lon="15.1459633"><ele>585.0</ele><time>2026-04-12T09:50:21.93Z</time></trkpt><trkpt lat="41.227935" lon="15.1458717"><ele>585.0</ele><time>2026-04-12T09:50:22.93Z</time></trkpt><trkpt lat="41.2279167" lon="15.1457783"><ele>585.0</ele><time>2026-04-12T09:50:23.929Z</time></trkpt><trkpt lat="41.2278967" lon="15.1456783"><ele>585.0</ele><time>2026-04-12T09:50:24.93Z</time></trkpt><trkpt lat="41.2278783" lon="15.1455733"><ele>585.0</ele><time>2026-04-12T09:50:25.93Z</time></trkpt><trkpt lat="41.2278667" lon="15.1454767"><ele>585.0</ele><time>2026-04-12T09:50:26.929Z</time></trkpt><trkpt lat="41.2278617" lon="15.145365"><ele>585.0</ele><time>2026-04-12T09:50:27.929Z</time></trkpt><trkpt lat="41.22786" lon="15.1452383"><ele>585.2</ele><time>2026-04-12T09:50:28.93Z</time></trkpt><trkpt lat="41.2278633" lon="15.1451083"><ele>585.4</ele><time>2026-04-12T09:50:29.929Z</time></trkpt><trkpt lat="41.227865" lon="15.144975"><ele>585.6</ele><time>2026-04-12T09:50:30.929Z</time></trkpt><trkpt lat="41.22786" lon="15.1448517"><ele>585.8</ele><time>2026-04-12T09:50:31.93Z</time></trkpt><trkpt lat="41.2278483" lon="15.1447367"><ele>586.0</ele><time>2026-04-12T09:50:32.93Z</time></trkpt><trkpt lat="41.2278367" lon="15.14462"><ele>587.1666666666667</ele><time>2026-04-12T09:50:33.929Z</time></trkpt><trkpt lat="41.22782" lon="15.1445017"><ele>588.3333333333334</ele><time>2026-04-12T09:50:34.93Z</time></trkpt><trkpt lat="41.227795" lon="15.1443883"><ele>589.5</ele><time>2026-04-12T09:50:35.929Z</time></trkpt><trkpt lat="41.2277617" lon="15.1442767"><ele>590.6666666666666</ele><time>2026-04-12T09:50:36.93Z</time></trkpt><trkpt lat="41.2277233" lon="15.144165"><ele>591.8333333333333</ele><time>2026-04-12T09:50:37.929Z</time></trkpt><trkpt lat="41.2276817" lon="15.1440633"><ele>593.0</ele><time>2026-04-12T09:50:38.93Z</time></trkpt><trkpt lat="41.227645" lon="15.1439683"><ele>594.8</ele><time>2026-04-12T09:50:39.93Z</time></trkpt><trkpt lat="41.2276067" lon="15.1438667"><ele>596.5999999999999</ele><time>2026-04-12T09:50:40.93Z</time></trkpt><trkpt lat="41.227575" lon="15.1437583"><ele>598.4000000000001</ele><time>2026-04-12T09:50:41.93Z</time></trkpt><trkpt lat="41.2275417" lon="15.1436467"><ele>600.2</ele><time>2026-04-12T09:50:42.93Z</time></trkpt><trkpt lat="41.2275" lon="15.1435317"><ele>602.0</ele><time>2026-04-12T09:50:43.93Z</time></trkpt><trkpt lat="41.227465" lon="15.1434017"><ele>602.0</ele><time>2026-04-12T09:50:44.929Z</time></trkpt><trkpt lat="41.2274383" lon="15.1432783"><ele>602.0</ele><time>2026-04-12T09:50:45.93Z</time></trkpt><trkpt lat="41.2274033" lon="15.143145"><ele>602.0</ele><time>2026-04-12T09:50:46.93Z</time></trkpt><trkpt lat="41.227365" lon="15.1430167"><ele>602.0</ele><time>2026-04-12T09:50:47.93Z</time></trkpt><trkpt lat="41.22733" lon="15.1428933"><ele>602.0</ele><time>2026-04-12T09:50:48.93Z</time></trkpt><trkpt lat="41.2272967" lon="15.1427717"><ele>601.2</ele><time>2026-04-12T09:50:49.929Z</time></trkpt><trkpt lat="41.2272617" lon="15.142655"><ele>600.4000000000001</ele><time>2026-04-12T09:50:50.93Z</time></trkpt><trkpt lat="41.22723" lon="15.1425367"><ele>599.5999999999999</ele><time>2026-04-12T09:50:51.93Z</time></trkpt><trkpt lat="41.227205" lon="15.1424183"><ele>598.8</ele><time>2026-04-12T09:50:52.929Z</time></trkpt><trkpt lat="41.2271867" lon="15.1422967"><ele>598.0</ele><time>2026-04-12T09:50:53.93Z</time></trkpt><trkpt lat="41.2271733" lon="15.142165"><ele>598.0</ele><time>2026-04-12T09:50:54.929Z</time></trkpt><trkpt lat="41.2271683" lon="15.1420417"><ele>598.0</ele><time>2026-04-12T09:50:55.93Z</time></trkpt><trkpt lat="41.2271617" lon="15.1419133"><ele>598.0</ele><time>2026-04-12T09:50:56.93Z</time></trkpt><trkpt lat="41.2271567" lon="15.1417817"><ele>598.0</ele><time>2026-04-12T09:50:57.929Z</time></trkpt><trkpt lat="41.2271517" lon="15.1416633"><ele>598.0</ele><time>2026-04-12T09:50:58.93Z</time></trkpt><trkpt lat="41.2271433" lon="15.1415567"><ele>598.6</ele><time>2026-04-12T09:50:59.929Z</time></trkpt><trkpt lat="41.2271267" lon="15.1414533"><ele>599.1999999999999</ele><time>2026-04-12T09:51:00.93Z</time></trkpt><trkpt lat="41.2270967" lon="15.1413417"><ele>599.8</ele><time>2026-04-12T09:51:01.93Z</time></trkpt><trkpt lat="41.22706" lon="15.1412233"><ele>600.4</ele><time>2026-04-12T09:51:02.93Z</time></trkpt><trkpt lat="41.2270167" lon="15.1410983"><ele>601.0</ele><time>2026-04-12T09:51:03.93Z</time></trkpt><trkpt lat="41.2269617" lon="15.1409683"><ele>601.0</ele><time>2026-04-12T09:51:04.93Z</time></trkpt><trkpt lat="41.2269033" lon="15.14085"><ele>601.0</ele><time>2026-04-12T09:51:05.93Z</time></trkpt><trkpt lat="41.2268533" lon="15.1407517"><ele>601.0</ele><time>2026-04-12T09:51:06.93Z</time></trkpt><trkpt lat="41.2268067" lon="15.1406683"><ele>601.0</ele><time>2026-04-12T09:51:07.93Z</time></trkpt><trkpt lat="41.2267633" lon="15.1405983"><ele>601.0</ele><time>2026-04-12T09:51:08.929Z</time></trkpt><trkpt lat="41.2267217" lon="15.1405217"><ele>601.0</ele><time>2026-04-12T09:51:09.929Z</time></trkpt><trkpt lat="41.226675" lon="15.1404417"><ele>601.2857142857142</ele><time>2026-04-12T09:51:10.93Z</time></trkpt><trkpt lat="41.2266283" lon="15.1403567"><ele>601.5714285714287</ele><time>2026-04-12T09:51:11.93Z</time></trkpt><trkpt lat="41.2265883" lon="15.1402733"><ele>601.8571428571429</ele><time>2026-04-12T09:51:12.93Z</time></trkpt><trkpt lat="41.2265517" lon="15.1401933"><ele>602.1428571428571</ele><time>2026-04-12T09:51:13.93Z</time></trkpt><trkpt lat="41.2265183" lon="15.1401167"><ele>602.4285714285713</ele><time>2026-04-12T09:51:14.93Z</time></trkpt><trkpt lat="41.2264783" lon="15.14004"><ele>602.7142857142858</ele><time>2026-04-12T09:51:15.929Z</time></trkpt><trkpt lat="41.2264383" lon="15.1399533"><ele>603.0</ele><time>2026-04-12T09:51:16.93Z</time></trkpt><trkpt lat="41.2264" lon="15.1398617"><ele>602.3333333333334</ele><time>2026-04-12T09:51:17.93Z</time></trkpt><trkpt lat="41.226365" lon="15.1397733"><ele>601.6666666666666</ele><time>2026-04-12T09:51:18.929Z</time></trkpt><trkpt lat="41.2263233" lon="15.1396883"><ele>601.0</ele><time>2026-04-12T09:51:19.929Z</time></trkpt><trkpt lat="41.226275" lon="15.1396117"><ele>600.3333333333333</ele><time>2026-04-12T09:51:20.929Z</time></trkpt><trkpt lat="41.2262233" lon="15.1395283"><ele>599.6666666666666</ele><time>2026-04-12T09:51:21.929Z</time></trkpt><trkpt lat="41.2261667" lon="15.1394283"><ele>599.0</ele><time>2026-04-12T09:51:22.93Z</time></trkpt><trkpt lat="41.2261067" lon="15.1393183"><ele>599.0</ele><time>2026-04-12T09:51:23.929Z</time></trkpt><trkpt lat="41.2260433" lon="15.139215"><ele>599.0</ele><time>2026-04-12T09:51:24.93Z</time></trkpt><trkpt lat="41.2259817" lon="15.13912"><ele>599.0</ele><time>2026-04-12T09:51:25.93Z</time></trkpt><trkpt lat="41.2259217" lon="15.13903"><ele>599.0</ele><time>2026-04-12T09:51:26.929Z</time></trkpt><trkpt lat="41.2258533" lon="15.13893"><ele>599.0</ele><time>2026-04-12T09:51:27.929Z</time></trkpt><trkpt lat="41.2257817" lon="15.1388317"><ele>600.2</ele><time>2026-04-12T09:51:28.929Z</time></trkpt><trkpt lat="41.2257267" lon="15.1387417"><ele>601.4</ele><time>2026-04-12T09:51:29.929Z</time></trkpt><trkpt lat="41.2256733" lon="15.1386433"><ele>602.6</ele><time>2026-04-12T09:51:30.93Z</time></trkpt><trkpt lat="41.22562" lon="15.1385433"><ele>603.8</ele><time>2026-04-12T09:51:31.93Z</time></trkpt><trkpt lat="41.22557" lon="15.1384333"><ele>605.0</ele><time>2026-04-12T09:51:32.93Z</time></trkpt><trkpt lat="41.22551" lon="15.1383117"><ele>602.4</ele><time>2026-04-12T09:51:33.93Z</time></trkpt><trkpt lat="41.2254517" lon="15.138195"><ele>599.8</ele><time>2026-04-12T09:51:34.929Z</time></trkpt><trkpt lat="41.2254017" lon="15.1380933"><ele>597.2</ele><time>2026-04-12T09:51:35.929Z</time></trkpt><trkpt lat="41.2253633" lon="15.1379933"><ele>594.6</ele><time>2026-04-12T09:51:36.93Z</time></trkpt><trkpt lat="41.22533" lon="15.1378733"><ele>592.0</ele><time>2026-04-12T09:51:37.93Z</time></trkpt><trkpt lat="41.2253" lon="15.13774"><ele>592.0</ele><time>2026-04-12T09:51:38.929Z</time></trkpt><trkpt lat="41.2252767" lon="15.1375983"><ele>592.0</ele><time>2026-04-12T09:51:39.93Z</time></trkpt><trkpt lat="41.2252467" lon="15.13746"><ele>592.0</ele><time>2026-04-12T09:51:40.93Z</time></trkpt><trkpt lat="41.2252233" lon="15.13732"><ele>592.0</ele><time>2026-04-12T09:51:41.93Z</time></trkpt><trkpt lat="41.2252033" lon="15.13718"><ele>592.0</ele><time>2026-04-12T09:51:42.929Z</time></trkpt><trkpt lat="41.2251717" lon="15.1370317"><ele>592.4</ele><time>2026-04-12T09:51:43.929Z</time></trkpt><trkpt lat="41.2251467" lon="15.13689"><ele>592.8000000000001</ele><time>2026-04-12T09:51:44.93Z</time></trkpt><trkpt lat="41.2251317" lon="15.136765"><ele>593.2</ele><time>2026-04-12T09:51:45.93Z</time></trkpt><trkpt lat="41.2251183" lon="15.136645"><ele>593.6</ele><time>2026-04-12T09:51:46.929Z</time></trkpt><trkpt lat="41.225095" lon="15.1365217"><ele>594.0</ele><time>2026-04-12T09:51:47.93Z</time></trkpt><trkpt lat="41.22507" lon="15.1364017"><ele>595.0</ele><time>2026-04-12T09:51:48.93Z</time></trkpt><trkpt lat="41.225045" lon="15.1362733"><ele>596.0</ele><time>2026-04-12T09:51:49.929Z</time></trkpt><trkpt lat="41.22502" lon="15.1361417"><ele>597.0</ele><time>2026-04-12T09:51:50.93Z</time></trkpt><trkpt lat="41.2249883" lon="15.1360067"><ele>598.0</ele><time>2026-04-12T09:51:51.929Z</time></trkpt><trkpt lat="41.224955" lon="15.13587"><ele>599.0</ele><time>2026-04-12T09:51:52.929Z</time></trkpt><trkpt lat="41.22492" lon="15.1357217"><ele>599.8</ele><time>2026-04-12T09:51:53.93Z</time></trkpt><trkpt lat="41.224885" lon="15.1355683"><ele>600.5999999999999</ele><time>2026-04-12T09:51:54.93Z</time></trkpt><trkpt lat="41.22485" lon="15.1354333"><ele>601.4</ele><time>2026-04-12T09:51:55.93Z</time></trkpt><trkpt lat="41.22482" lon="15.1353167"><ele>602.1999999999999</ele><time>2026-04-12T09:51:56.929Z</time></trkpt><trkpt lat="41.2247967" lon="15.1351917"><ele>603.0</ele><time>2026-04-12T09:51:57.93Z</time></trkpt><trkpt lat="41.2247783" lon="15.1350667"><ele>602.8333333333334</ele><time>2026-04-12T09:51:58.93Z</time></trkpt><trkpt lat="41.2247667" lon="15.134945"><ele>602.6666666666666</ele><time>2026-04-12T09:51:59.929Z</time></trkpt><trkpt lat="41.2247583" lon="15.13483"><ele>602.5</ele><time>2026-04-12T09:52:00.93Z</time></trkpt><trkpt lat="41.2247583" lon="15.1347283"><ele>602.3333333333333</ele><time>2026-04-12T09:52:01.93Z</time></trkpt><trkpt lat="41.224765" lon="15.1346333"><ele>602.1666666666666</ele><time>2026-04-12T09:52:02.929Z</time></trkpt><trkpt lat="41.2247833" lon="15.13453"><ele>602.0</ele><time>2026-04-12T09:52:03.929Z</time></trkpt><trkpt lat="41.2248167" lon="15.1344333"><ele>602.0</ele><time>2026-04-12T09:52:04.929Z</time></trkpt><trkpt lat="41.224865" lon="15.1343333"><ele>602.0</ele><time>2026-04-12T09:52:05.93Z</time></trkpt><trkpt lat="41.224935" lon="15.13424"><ele>602.0</ele><time>2026-04-12T09:52:06.93Z</time></trkpt><trkpt lat="41.225025" lon="15.1341317"><ele>602.0</ele><time>2026-04-12T09:52:07.93Z</time></trkpt><trkpt lat="41.225125" lon="15.1340133"><ele>602.0</ele><time>2026-04-12T09:52:08.93Z</time></trkpt><trkpt lat="41.2252517" lon="15.1338817"><ele>600.6666666666666</ele><time>2026-04-12T09:52:09.93Z</time></trkpt><trkpt lat="41.2253817" lon="15.1337517"><ele>599.3333333333334</ele><time>2026-04-12T09:52:10.929Z</time></trkpt><trkpt lat="41.2255133" lon="15.13362"><ele>598.0</ele><time>2026-04-12T09:52:11.929Z</time></trkpt><trkpt lat="41.2256383" lon="15.1334767"><ele>599.0</ele><time>2026-04-12T09:52:12.93Z</time></trkpt><trkpt lat="41.225755" lon="15.1333483"><ele>600.0</ele><time>2026-04-12T09:52:13.93Z</time></trkpt><trkpt lat="41.225875" lon="15.1332033"><ele>601.0</ele><time>2026-04-12T09:52:14.929Z</time></trkpt><trkpt lat="41.2259983" lon="15.1330617"><ele>601.0</ele><time>2026-04-12T09:52:15.93Z</time></trkpt><trkpt lat="41.2261367" lon="15.1329017"><ele>601.0</ele><time>2026-04-12T09:52:16.93Z</time></trkpt><trkpt lat="41.2262833" lon="15.1327367"><ele>601.0</ele><time>2026-04-12T09:52:17.93Z</time></trkpt><trkpt lat="41.226425" lon="15.1325817"><ele>601.5</ele><time>2026-04-12T09:52:18.93Z</time></trkpt><trkpt lat="41.2265517" lon="15.1324417"><ele>602.0</ele><time>2026-04-12T09:52:19.929Z</time></trkpt><trkpt lat="41.2266633" lon="15.132315"><ele>602.5</ele><time>2026-04-12T09:52:20.93Z</time></trkpt><trkpt lat="41.2267683" lon="15.1322033"><ele>603.0</ele><time>2026-04-12T09:52:21.93Z</time></trkpt><trkpt lat="41.226855" lon="15.1320883"><ele>603.0</ele><time>2026-04-12T09:52:22.93Z</time></trkpt><trkpt lat="41.2269283" lon="15.1319683"><ele>603.0</ele><time>2026-04-12T09:52:23.93Z</time></trkpt><trkpt lat="41.22698" lon="15.1318217"><ele>603.0</ele><time>2026-04-12T09:52:24.93Z</time></trkpt><trkpt lat="41.227" lon="15.131645"><ele>603.0</ele><time>2026-04-12T09:52:25.929Z</time></trkpt><trkpt lat="41.227" lon="15.1314483"><ele>604.0</ele><time>2026-04-12T09:52:26.929Z</time></trkpt><trkpt lat="41.2269817" lon="15.131235"><ele>605.0</ele><time>2026-04-12T09:52:27.93Z</time></trkpt><trkpt lat="41.2269633" lon="15.1310283"><ele>606.0</ele><time>2026-04-12T09:52:28.93Z</time></trkpt><trkpt lat="41.2269483" lon="15.1308267"><ele>606.0</ele><time>2026-04-12T09:52:29.93Z</time></trkpt><trkpt lat="41.2269317" lon="15.1306233"><ele>606.0</ele><time>2026-04-12T09:52:30.93Z</time></trkpt><trkpt lat="41.22692" lon="15.130425"><ele>606.0</ele><time>2026-04-12T09:52:31.93Z</time></trkpt><trkpt lat="41.2269083" lon="15.1302383"><ele>606.0</ele><time>2026-04-12T09:52:32.93Z</time></trkpt><trkpt lat="41.2268983" lon="15.1300617"><ele>606.0</ele><time>2026-04-12T09:52:33.93Z</time></trkpt><trkpt lat="41.2268933" lon="15.1299"><ele>606.0</ele><time>2026-04-12T09:52:34.93Z</time></trkpt><trkpt lat="41.226895" lon="15.1297467"><ele>606.0</ele><time>2026-04-12T09:52:35.93Z</time></trkpt><trkpt lat="41.2269083" lon="15.1295983"><ele>606.0</ele><time>2026-04-12T09:52:36.93Z</time></trkpt><trkpt lat="41.2269333" lon="15.12947"><ele>606.0</ele><time>2026-04-12T09:52:37.929Z</time></trkpt><trkpt lat="41.22696" lon="15.1293617"><ele>606.2</ele><time>2026-04-12T09:52:38.929Z</time></trkpt><trkpt lat="41.2269833" lon="15.1292783"><ele>606.4000000000001</ele><time>2026-04-12T09:52:39.93Z</time></trkpt><trkpt lat="41.2270283" lon="15.1291517"><ele>606.6</ele><time>2026-04-12T09:52:41.929Z</time></trkpt><trkpt lat="41.227005" lon="15.12905"><ele>606.8000000000001</ele><time>2026-04-12T09:52:45.929Z</time></trkpt><trkpt lat="41.22689" lon="15.128995"><ele>607.0</ele><time>2026-04-12T09:52:47.929Z</time></trkpt><trkpt lat="41.226815" lon="15.1289767"><ele>606.7142857142857</ele><time>2026-04-12T09:52:48.93Z</time></trkpt><trkpt lat="41.22674" lon="15.128965"><ele>606.4285714285714</ele><time>2026-04-12T09:52:49.929Z</time></trkpt><trkpt lat="41.2266717" lon="15.1289483"><ele>606.1428571428571</ele><time>2026-04-12T09:52:50.93Z</time></trkpt><trkpt lat="41.2266067" lon="15.1289267"><ele>605.8571428571429</ele><time>2026-04-12T09:52:51.929Z</time></trkpt><trkpt lat="41.2265433" lon="15.1289017"><ele>605.5714285714286</ele><time>2026-04-12T09:52:52.93Z</time></trkpt><trkpt lat="41.2264767" lon="15.128875"><ele>605.2857142857142</ele><time>2026-04-12T09:52:53.93Z</time></trkpt><trkpt lat="41.22641" lon="15.1288533"><ele>605.0</ele><time>2026-04-12T09:52:54.929Z</time></trkpt><trkpt lat="41.22634" lon="15.1288267"><ele>604.8571428571429</ele><time>2026-04-12T09:52:55.93Z</time></trkpt><trkpt lat="41.22627" lon="15.1288033"><ele>604.7142857142858</ele><time>2026-04-12T09:52:56.93Z</time></trkpt><trkpt lat="41.2262033" lon="15.1287817"><ele>604.5714285714287</ele><time>2026-04-12T09:52:57.93Z</time></trkpt><trkpt lat="41.2261367" lon="15.12876"><ele>604.4285714285714</ele><time>2026-04-12T09:52:58.929Z</time></trkpt><trkpt lat="41.2260733" lon="15.128735"><ele>604.2857142857143</ele><time>2026-04-12T09:52:59.929Z</time></trkpt><trkpt lat="41.2260067" lon="15.12871"><ele>604.1428571428572</ele><time>2026-04-12T09:53:00.929Z</time></trkpt><trkpt lat="41.225945" lon="15.1286883"><ele>604.0</ele><time>2026-04-12T09:53:01.93Z</time></trkpt><trkpt lat="41.22588" lon="15.1286667"><ele>604.0</ele><time>2026-04-12T09:53:02.93Z</time></trkpt><trkpt lat="41.2258133" lon="15.1286467"><ele>604.0</ele><time>2026-04-12T09:53:03.93Z</time></trkpt><trkpt lat="41.22574" lon="15.1286233"><ele>604.0</ele><time>2026-04-12T09:53:04.93Z</time></trkpt><trkpt lat="41.22566" lon="15.1286033"><ele>604.0</ele><time>2026-04-12T09:53:05.93Z</time></trkpt><trkpt lat="41.2255733" lon="15.1285767"><ele>604.0</ele><time>2026-04-12T09:53:06.93Z</time></trkpt><trkpt lat="41.2254917" lon="15.1285483"><ele>604.0</ele><time>2026-04-12T09:53:07.929Z</time></trkpt><trkpt lat="41.2254133" lon="15.1285183"><ele>603.6</ele><time>2026-04-12T09:53:08.929Z</time></trkpt><trkpt lat="41.2253383" lon="15.1284917"><ele>603.2</ele><time>2026-04-12T09:53:09.93Z</time></trkpt><trkpt lat="41.2252717" lon="15.1284617"><ele>602.8000000000001</ele><time>2026-04-12T09:53:10.93Z</time></trkpt><trkpt lat="41.225205" lon="15.1284417"><ele>602.4</ele><time>2026-04-12T09:53:11.93Z</time></trkpt><trkpt lat="41.2250967" lon="15.1283967"><ele>602.0</ele><time>2026-04-12T09:53:13.93Z</time></trkpt><trkpt lat="41.2249733" lon="15.1283733"><ele>602.0</ele><time>2026-04-12T09:53:15.93Z</time></trkpt><trkpt lat="41.2248633" lon="15.128345"><ele>602.0</ele><time>2026-04-12T09:53:17.93Z</time></trkpt><trkpt lat="41.2247517" lon="15.128305"><ele>602.0</ele><time>2026-04-12T09:53:19.929Z</time></trkpt><trkpt lat="41.22466" lon="15.128275"><ele>602.0</ele><time>2026-04-12T09:53:21.93Z</time></trkpt><trkpt lat="41.22458" lon="15.1282483"><ele>602.0</ele><time>2026-04-12T09:53:23.93Z</time></trkpt><trkpt lat="41.2244883" lon="15.128215"><ele>602.0</ele><time>2026-04-12T09:53:25.93Z</time></trkpt><trkpt lat="41.2243783" lon="15.1281733"><ele>602.0</ele><time>2026-04-12T09:53:27.929Z</time></trkpt><trkpt lat="41.2243133" lon="15.12816"><ele>602.0</ele><time>2026-04-12T09:53:28.93Z</time></trkpt><trkpt lat="41.2242433" lon="15.1281433"><ele>602.0</ele><time>2026-04-12T09:53:29.93Z</time></trkpt><trkpt lat="41.2241733" lon="15.1281233"><ele>602.0</ele><time>2026-04-12T09:53:30.93Z</time></trkpt><trkpt lat="41.2240967" lon="15.1281"><ele>602.0</ele><time>2026-04-12T09:53:31.93Z</time></trkpt><trkpt lat="41.2240233" lon="15.1280717"><ele>601.8000000000001</ele><time>2026-04-12T09:53:32.93Z</time></trkpt><trkpt lat="41.2239417" lon="15.128045"><ele>601.6</ele><time>2026-04-12T09:53:33.929Z</time></trkpt><trkpt lat="41.2238483" lon="15.128015"><ele>601.4000000000001</ele><time>2026-04-12T09:53:34.93Z</time></trkpt><trkpt lat="41.2237583" lon="15.12798"><ele>601.2</ele><time>2026-04-12T09:53:35.93Z</time></trkpt><trkpt lat="41.2236667" lon="15.1279483"><ele>601.0</ele><time>2026-04-12T09:53:36.929Z</time></trkpt><trkpt lat="41.22358" lon="15.12792"><ele>601.0</ele><time>2026-04-12T09:53:37.93Z</time></trkpt><trkpt lat="41.2234867" lon="15.127885"><ele>601.0</ele><time>2026-04-12T09:53:38.93Z</time></trkpt><trkpt lat="41.2234033" lon="15.1278617"><ele>601.0</ele><time>2026-04-12T09:53:39.93Z</time></trkpt><trkpt lat="41.2233167" lon="15.1278317"><ele>601.0</ele><time>2026-04-12T09:53:40.93Z</time></trkpt><trkpt lat="41.22323" lon="15.1278017"><ele>601.0</ele><time>2026-04-12T09:53:41.929Z</time></trkpt><trkpt lat="41.2231467" lon="15.127775"><ele>601.0</ele><time>2026-04-12T09:53:42.929Z</time></trkpt><trkpt lat="41.2230567" lon="15.1277417"><ele>600.6666666666667</ele><time>2026-04-12T09:53:43.93Z</time></trkpt><trkpt lat="41.222975" lon="15.127715"><ele>600.3333333333334</ele><time>2026-04-12T09:53:44.929Z</time></trkpt><trkpt lat="41.2229" lon="15.127685"><ele>600.0</ele><time>2026-04-12T09:53:45.93Z</time></trkpt><trkpt lat="41.2228267" lon="15.127665"><ele>599.6666666666666</ele><time>2026-04-12T09:53:46.93Z</time></trkpt><trkpt lat="41.2227433" lon="15.12766"><ele>599.3333333333333</ele><time>2026-04-12T09:53:47.93Z</time></trkpt><trkpt lat="41.22265" lon="15.1276833"><ele>599.0</ele><time>2026-04-12T09:53:48.93Z</time></trkpt><trkpt lat="41.2225483" lon="15.1277233"><ele>599.0</ele><time>2026-04-12T09:53:49.93Z</time></trkpt><trkpt lat="41.2224467" lon="15.1277683"><ele>599.0</ele><time>2026-04-12T09:53:50.93Z</time></trkpt><trkpt lat="41.2223383" lon="15.1278133"><ele>599.0</ele><time>2026-04-12T09:53:51.93Z</time></trkpt><trkpt lat="41.222215" lon="15.1278517"><ele>599.0</ele><time>2026-04-12T09:53:52.93Z</time></trkpt><trkpt lat="41.2220733" lon="15.127895"><ele>598.6666666666666</ele><time>2026-04-12T09:53:53.929Z</time></trkpt><trkpt lat="41.221925" lon="15.12794"><ele>598.3333333333334</ele><time>2026-04-12T09:53:54.93Z</time></trkpt><trkpt lat="41.2217683" lon="15.127985"><ele>598.0</ele><time>2026-04-12T09:53:55.929Z</time></trkpt><trkpt lat="41.2216033" lon="15.1280367"><ele>596.6666666666667</ele><time>2026-04-12T09:53:56.93Z</time></trkpt><trkpt lat="41.2214333" lon="15.1281"><ele>595.3333333333334</ele><time>2026-04-12T09:53:57.929Z</time></trkpt><trkpt lat="41.221255" lon="15.1281617"><ele>594.0</ele><time>2026-04-12T09:53:58.93Z</time></trkpt><trkpt lat="41.2210617" lon="15.1282233"><ele>593.6666666666666</ele><time>2026-04-12T09:53:59.929Z</time></trkpt><trkpt lat="41.2208717" lon="15.128285"><ele>593.3333333333333</ele><time>2026-04-12T09:54:00.929Z</time></trkpt><trkpt lat="41.22067" lon="15.128345"><ele>593.0</ele><time>2026-04-12T09:54:01.929Z</time></trkpt><trkpt lat="41.22047" lon="15.12841"><ele>592.6666666666666</ele><time>2026-04-12T09:54:02.93Z</time></trkpt><trkpt lat="41.2202833" lon="15.1284667"><ele>592.3333333333334</ele><time>2026-04-12T09:54:03.93Z</time></trkpt><trkpt lat="41.2200933" lon="15.1285267"><ele>592.0</ele><time>2026-04-12T09:54:04.929Z</time></trkpt><trkpt lat="41.21991" lon="15.1285867"><ele>593.0</ele><time>2026-04-12T09:54:05.93Z</time></trkpt><trkpt lat="41.2197217" lon="15.1286367"><ele>594.0</ele><time>2026-04-12T09:54:06.929Z</time></trkpt><trkpt lat="41.21953" lon="15.128685"><ele>595.0</ele><time>2026-04-12T09:54:07.93Z</time></trkpt><trkpt lat="41.2193417" lon="15.1287317"><ele>595.0</ele><time>2026-04-12T09:54:08.93Z</time></trkpt><trkpt lat="41.219145" lon="15.128775"><ele>595.0</ele><time>2026-04-12T09:54:09.929Z</time></trkpt><trkpt lat="41.218955" lon="15.1288217"><ele>595.0</ele><time>2026-04-12T09:54:10.93Z</time></trkpt><trkpt lat="41.2187533" lon="15.1288683"><ele>595.0</ele><time>2026-04-12T09:54:11.93Z</time></trkpt><trkpt lat="41.2185467" lon="15.1289133"><ele>595.0</ele><time>2026-04-12T09:54:12.929Z</time></trkpt><trkpt lat="41.2183383" lon="15.1289567"><ele>595.0</ele><time>2026-04-12T09:54:13.93Z</time></trkpt><trkpt lat="41.218125" lon="15.1290033"><ele>595.0</ele><time>2026-04-12T09:54:14.93Z</time></trkpt><trkpt lat="41.2179" lon="15.1290467"><ele>595.0</ele><time>2026-04-12T09:54:15.929Z</time></trkpt><trkpt lat="41.2176783" lon="15.1290933"><ele>595.0</ele><time>2026-04-12T09:54:16.93Z</time></trkpt><trkpt lat="41.2174583" lon="15.1291333"><ele>595.0</ele><time>2026-04-12T09:54:17.93Z</time></trkpt><trkpt lat="41.2172467" lon="15.1291717"><ele>595.0</ele><time>2026-04-12T09:54:18.93Z</time></trkpt><trkpt lat="41.21703" lon="15.1292033"><ele>595.6666666666667</ele><time>2026-04-12T09:54:19.93Z</time></trkpt><trkpt lat="41.2168117" lon="15.12924"><ele>596.3333333333334</ele><time>2026-04-12T09:54:20.93Z</time></trkpt><trkpt lat="41.216595" lon="15.1292767"><ele>597.0</ele><time>2026-04-12T09:54:21.93Z</time></trkpt><trkpt lat="41.2163733" lon="15.1293133"><ele>598.3333333333334</ele><time>2026-04-12T09:54:22.93Z</time></trkpt><trkpt lat="41.2161467" lon="15.12935"><ele>599.6666666666667</ele><time>2026-04-12T09:54:23.929Z</time></trkpt><trkpt lat="41.215935" lon="15.1293833"><ele>601.0</ele><time>2026-04-12T09:54:24.929Z</time></trkpt><trkpt lat="41.21572" lon="15.1294217"><ele>601.0</ele><time>2026-04-12T09:54:25.93Z</time></trkpt><trkpt lat="41.2155117" lon="15.12946"><ele>601.0</ele><time>2026-04-12T09:54:26.93Z</time></trkpt><trkpt lat="41.2152983" lon="15.1295067"><ele>601.0</ele><time>2026-04-12T09:54:27.929Z</time></trkpt><trkpt lat="41.2150783" lon="15.1295567"><ele>601.0</ele><time>2026-04-12T09:54:28.93Z</time></trkpt><trkpt lat="41.2148583" lon="15.129605"><ele>601.0</ele><time>2026-04-12T09:54:29.93Z</time></trkpt><trkpt lat="41.2146417" lon="15.1296583"><ele>601.0</ele><time>2026-04-12T09:54:30.929Z</time></trkpt><trkpt lat="41.214415" lon="15.1297167"><ele>600.5</ele><time>2026-04-12T09:54:31.93Z</time></trkpt><trkpt lat="41.2141883" lon="15.129775"><ele>600.0</ele><time>2026-04-12T09:54:32.93Z</time></trkpt><trkpt lat="41.213965" lon="15.1298283"><ele>600.3333333333334</ele><time>2026-04-12T09:54:33.93Z</time></trkpt><trkpt lat="41.21376" lon="15.1298833"><ele>600.6666666666667</ele><time>2026-04-12T09:54:34.929Z</time></trkpt><trkpt lat="41.2135683" lon="15.129945"><ele>601.0</ele><time>2026-04-12T09:54:35.93Z</time></trkpt><trkpt lat="41.2133767" lon="15.1300217"><ele>601.0</ele><time>2026-04-12T09:54:36.93Z</time></trkpt><trkpt lat="41.21318" lon="15.1301083"><ele>601.0</ele><time>2026-04-12T09:54:37.93Z</time></trkpt><trkpt lat="41.2129767" lon="15.1302017"><ele>601.0</ele><time>2026-04-12T09:54:38.929Z</time></trkpt><trkpt lat="41.2127767" lon="15.1303"><ele>601.3333333333334</ele><time>2026-04-12T09:54:39.93Z</time></trkpt><trkpt lat="41.21258" lon="15.130405"><ele>601.6666666666666</ele><time>2026-04-12T09:54:40.93Z</time></trkpt><trkpt lat="41.21238" lon="15.1305167"><ele>602.0</ele><time>2026-04-12T09:54:41.93Z</time></trkpt><trkpt lat="41.2121833" lon="15.13063"><ele>602.0</ele><time>2026-04-12T09:54:42.93Z</time></trkpt><trkpt lat="41.21199" lon="15.130745"><ele>602.0</ele><time>2026-04-12T09:54:43.93Z</time></trkpt><trkpt lat="41.2117883" lon="15.1308583"><ele>602.0</ele><time>2026-04-12T09:54:44.93Z</time></trkpt><trkpt lat="41.2115967" lon="15.13097"><ele>602.6666666666666</ele><time>2026-04-12T09:54:45.929Z</time></trkpt><trkpt lat="41.2114083" lon="15.131075"><ele>603.3333333333334</ele><time>2026-04-12T09:54:46.93Z</time></trkpt><trkpt lat="41.21122" lon="15.13119"><ele>604.0</ele><time>2026-04-12T09:54:47.93Z</time></trkpt><trkpt lat="41.2110317" lon="15.1313033"><ele>604.0</ele><time>2026-04-12T09:54:48.93Z</time></trkpt><trkpt lat="41.2108533" lon="15.1314117"><ele>604.0</ele><time>2026-04-12T09:54:49.929Z</time></trkpt><trkpt lat="41.2106917" lon="15.1315117"><ele>604.0</ele><time>2026-04-12T09:54:50.93Z</time></trkpt><trkpt lat="41.2105317" lon="15.1316117"><ele>603.6666666666667</ele><time>2026-04-12T09:54:51.929Z</time></trkpt><trkpt lat="41.21038" lon="15.13171"><ele>603.3333333333334</ele><time>2026-04-12T09:54:52.93Z</time></trkpt><trkpt lat="41.210235" lon="15.1318067"><ele>603.0</ele><time>2026-04-12T09:54:53.93Z</time></trkpt><trkpt lat="41.2100983" lon="15.1318967"><ele>603.0</ele><time>2026-04-12T09:54:54.93Z</time></trkpt><trkpt lat="41.2099717" lon="15.1319833"><ele>603.0</ele><time>2026-04-12T09:54:55.93Z</time></trkpt><trkpt lat="41.2098583" lon="15.132055"><ele>603.0</ele><time>2026-04-12T09:54:56.93Z</time></trkpt><trkpt lat="41.2097567" lon="15.1321267"><ele>603.0</ele><time>2026-04-12T09:54:57.93Z</time></trkpt><trkpt lat="41.2096717" lon="15.1321833"><ele>602.8333333333334</ele><time>2026-04-12T09:54:58.929Z</time></trkpt><trkpt lat="41.2096017" lon="15.132225"><ele>602.6666666666666</ele><time>2026-04-12T09:54:59.93Z</time></trkpt><trkpt lat="41.2095367" lon="15.1322567"><ele>602.5</ele><time>2026-04-12T09:55:00.929Z</time></trkpt><trkpt lat="41.20941" lon="15.1322567"><ele>602.3333333333333</ele><time>2026-04-12T09:55:02.929Z</time></trkpt><trkpt lat="41.20934" lon="15.1322583"><ele>602.1666666666666</ele><time>2026-04-12T09:55:03.93Z</time></trkpt><trkpt lat="41.209275" lon="15.13228"><ele>602.0</ele><time>2026-04-12T09:55:04.929Z</time></trkpt><trkpt lat="41.2092083" lon="15.1323217"><ele>602.0</ele><time>2026-04-12T09:55:05.93Z</time></trkpt><trkpt lat="41.2091383" lon="15.132375"><ele>602.0</ele><time>2026-04-12T09:55:06.929Z</time></trkpt><trkpt lat="41.20906" lon="15.1324217"><ele>602.0</ele><time>2026-04-12T09:55:07.929Z</time></trkpt><trkpt lat="41.208975" lon="15.1324783"><ele>602.0</ele><time>2026-04-12T09:55:08.93Z</time></trkpt><trkpt lat="41.2088933" lon="15.1325333"><ele>602.0</ele><time>2026-04-12T09:55:09.93Z</time></trkpt><trkpt lat="41.2088083" lon="15.132595"><ele>602.2</ele><time>2026-04-12T09:55:10.93Z</time></trkpt><trkpt lat="41.208725" lon="15.1326567"><ele>602.4000000000001</ele><time>2026-04-12T09:55:11.93Z</time></trkpt><trkpt lat="41.2086383" lon="15.1327233"><ele>602.5999999999999</ele><time>2026-04-12T09:55:12.93Z</time></trkpt><trkpt lat="41.2085483" lon="15.1327917"><ele>602.8</ele><time>2026-04-12T09:55:13.93Z</time></trkpt><trkpt lat="41.2084567" lon="15.1328567"><ele>603.0</ele><time>2026-04-12T09:55:14.929Z</time></trkpt><trkpt lat="41.208365" lon="15.1329217"><ele>603.0</ele><time>2026-04-12T09:55:15.93Z</time></trkpt><trkpt lat="41.2082767" lon="15.13298"><ele>603.0</ele><time>2026-04-12T09:55:16.93Z</time></trkpt><trkpt lat="41.208185" lon="15.1330483"><ele>603.0</ele><time>2026-04-12T09:55:17.929Z</time></trkpt><trkpt lat="41.2080917" lon="15.1331133"><ele>603.0</ele><time>2026-04-12T09:55:18.93Z</time></trkpt><trkpt lat="41.2079933" lon="15.1331833"><ele>603.0</ele><time>2026-04-12T09:55:19.929Z</time></trkpt><trkpt lat="41.2078933" lon="15.1332483"><ele>604.0</ele><time>2026-04-12T09:55:20.93Z</time></trkpt><trkpt lat="41.2077983" lon="15.1333183"><ele>605.0</ele><time>2026-04-12T09:55:21.93Z</time></trkpt><trkpt lat="41.2077033" lon="15.1333767"><ele>606.0</ele><time>2026-04-12T09:55:22.93Z</time></trkpt><trkpt lat="41.207605" lon="15.133435"><ele>607.0</ele><time>2026-04-12T09:55:23.93Z</time></trkpt><trkpt lat="41.2075033" lon="15.1334833"><ele>608.0</ele><time>2026-04-12T09:55:24.929Z</time></trkpt><trkpt lat="41.2073933" lon="15.133525"><ele>608.5</ele><time>2026-04-12T09:55:25.929Z</time></trkpt><trkpt lat="41.2072867" lon="15.1335567"><ele>609.0</ele><time>2026-04-12T09:55:26.93Z</time></trkpt><trkpt lat="41.2071633" lon="15.1335817"><ele>609.5</ele><time>2026-04-12T09:55:27.93Z</time></trkpt><trkpt lat="41.20705" lon="15.1336"><ele>610.0</ele><time>2026-04-12T09:55:28.929Z</time></trkpt><trkpt lat="41.2069367" lon="15.1336067"><ele>610.0</ele><time>2026-04-12T09:55:29.93Z</time></trkpt><trkpt lat="41.206825" lon="15.1336217"><ele>610.0</ele><time>2026-04-12T09:55:30.929Z</time></trkpt><trkpt lat="41.2067117" lon="15.1336417"><ele>610.0</ele><time>2026-04-12T09:55:31.929Z</time></trkpt><trkpt lat="41.2066" lon="15.1336583"><ele>610.0</ele><time>2026-04-12T09:55:32.93Z</time></trkpt><trkpt lat="41.206485" lon="15.133675"><ele>610.25</ele><time>2026-04-12T09:55:33.93Z</time></trkpt><trkpt lat="41.20637" lon="15.1336917"><ele>610.5</ele><time>2026-04-12T09:55:34.93Z</time></trkpt><trkpt lat="41.206255" lon="15.13371"><ele>610.75</ele><time>2026-04-12T09:55:35.93Z</time></trkpt><trkpt lat="41.2061433" lon="15.1337283"><ele>611.0</ele><time>2026-04-12T09:55:36.93Z</time></trkpt><trkpt lat="41.2060317" lon="15.1337483"><ele>611.0</ele><time>2026-04-12T09:55:37.93Z</time></trkpt><trkpt lat="41.205915" lon="15.1337717"><ele>611.0</ele><time>2026-04-12T09:55:38.93Z</time></trkpt><trkpt lat="41.2058017" lon="15.1337867"><ele>611.0</ele><time>2026-04-12T09:55:39.93Z</time></trkpt><trkpt lat="41.2057017" lon="15.1338"><ele>611.0</ele><time>2026-04-12T09:55:40.93Z</time></trkpt><trkpt lat="41.2056083" lon="15.133815"><ele>611.0</ele><time>2026-04-12T09:55:41.93Z</time></trkpt><trkpt lat="41.2055117" lon="15.13383"><ele>611.4</ele><time>2026-04-12T09:55:42.929Z</time></trkpt><trkpt lat="41.20542" lon="15.1338467"><ele>611.8</ele><time>2026-04-12T09:55:43.93Z</time></trkpt><trkpt lat="41.20533" lon="15.13386"><ele>612.1999999999999</ele><time>2026-04-12T09:55:44.929Z</time></trkpt><trkpt lat="41.205235" lon="15.1338683"><ele>612.6</ele><time>2026-04-12T09:55:45.929Z</time></trkpt><trkpt lat="41.20513" lon="15.1338817"><ele>613.0</ele><time>2026-04-12T09:55:46.929Z</time></trkpt><trkpt lat="41.20502" lon="15.1339"><ele>613.0</ele><time>2026-04-12T09:55:47.93Z</time></trkpt><trkpt lat="41.2049083" lon="15.1339217"><ele>613.0</ele><time>2026-04-12T09:55:48.93Z</time></trkpt><trkpt lat="41.204795" lon="15.1339417"><ele>613.0</ele><time>2026-04-12T09:55:49.93Z</time></trkpt><trkpt lat="41.2046733" lon="15.1339617"><ele>613.0</ele><time>2026-04-12T09:55:50.93Z</time></trkpt><trkpt lat="41.204555" lon="15.1339817"><ele>614.0</ele><time>2026-04-12T09:55:51.929Z</time></trkpt><trkpt lat="41.204435" lon="15.1339983"><ele>615.0</ele><time>2026-04-12T09:55:52.93Z</time></trkpt><trkpt lat="41.2043167" lon="15.1340183"><ele>616.0</ele><time>2026-04-12T09:55:53.93Z</time></trkpt><trkpt lat="41.2041933" lon="15.1340383"><ele>617.0</ele><time>2026-04-12T09:55:54.93Z</time></trkpt><trkpt lat="41.2040683" lon="15.1340567"><ele>617.5</ele><time>2026-04-12T09:55:55.93Z</time></trkpt><trkpt lat="41.20394" lon="15.1340733"><ele>618.0</ele><time>2026-04-12T09:55:56.93Z</time></trkpt><trkpt lat="41.20381" lon="15.1340933"><ele>618.5</ele><time>2026-04-12T09:55:57.929Z</time></trkpt><trkpt lat="41.203675" lon="15.134115"><ele>619.0</ele><time>2026-04-12T09:55:58.93Z</time></trkpt><trkpt lat="41.2035383" lon="15.13413"><ele>619.0</ele><time>2026-04-12T09:55:59.929Z</time></trkpt><trkpt lat="41.2034" lon="15.13414"><ele>619.0</ele><time>2026-04-12T09:56:00.929Z</time></trkpt><trkpt lat="41.2032633" lon="15.13415"><ele>619.0</ele><time>2026-04-12T09:56:01.93Z</time></trkpt><trkpt lat="41.20312" lon="15.134155"><ele>619.0</ele><time>2026-04-12T09:56:02.93Z</time></trkpt><trkpt lat="41.2029767" lon="15.1341583"><ele>619.0</ele><time>2026-04-12T09:56:03.929Z</time></trkpt><trkpt lat="41.2028317" lon="15.1341617"><ele>619.0</ele><time>2026-04-12T09:56:04.93Z</time></trkpt><trkpt lat="41.2026883" lon="15.13417"><ele>619.0</ele><time>2026-04-12T09:56:05.93Z</time></trkpt><trkpt lat="41.20255" lon="15.13418"><ele>619.0</ele><time>2026-04-12T09:56:06.93Z</time></trkpt><trkpt lat="41.202425" lon="15.13419"><ele>620.0</ele><time>2026-04-12T09:56:07.93Z</time></trkpt><trkpt lat="41.202305" lon="15.134195"><ele>621.0</ele><time>2026-04-12T09:56:08.93Z</time></trkpt><trkpt lat="41.2021933" lon="15.1342033"><ele>622.0</ele><time>2026-04-12T09:56:09.929Z</time></trkpt><trkpt lat="41.20208" lon="15.1342117"><ele>623.0</ele><time>2026-04-12T09:56:10.93Z</time></trkpt><trkpt lat="41.20197" lon="15.1342183"><ele>623.0</ele><time>2026-04-12T09:56:11.93Z</time></trkpt><trkpt lat="41.20187" lon="15.1342233"><ele>623.0</ele><time>2026-04-12T09:56:12.93Z</time></trkpt><trkpt lat="41.2017783" lon="15.13423"><ele>623.0</ele><time>2026-04-12T09:56:13.929Z</time></trkpt><trkpt lat="41.201695" lon="15.1342367"><ele>623.0</ele><time>2026-04-12T09:56:14.929Z</time></trkpt><trkpt lat="41.2016033" lon="15.1342417"><ele>623.0</ele><time>2026-04-12T09:56:15.929Z</time></trkpt><trkpt lat="41.20149" lon="15.1342367"><ele>622.75</ele><time>2026-04-12T09:56:16.93Z</time></trkpt><trkpt lat="41.201385" lon="15.13424"><ele>622.5</ele><time>2026-04-12T09:56:17.929Z</time></trkpt><trkpt lat="41.2012567" lon="15.1342483"><ele>622.25</ele><time>2026-04-12T09:56:18.93Z</time></trkpt><trkpt lat="41.2011283" lon="15.134255"><ele>622.0</ele><time>2026-04-12T09:56:19.93Z</time></trkpt><trkpt lat="41.2009933" lon="15.1342617"><ele>622.0</ele><time>2026-04-12T09:56:20.93Z</time></trkpt><trkpt lat="41.2008683" lon="15.13427"><ele>622.0</ele><time>2026-04-12T09:56:21.93Z</time></trkpt><trkpt lat="41.20074" lon="15.1342717"><ele>622.0</ele><time>2026-04-12T09:56:22.93Z</time></trkpt><trkpt lat="41.200615" lon="15.1342733"><ele>622.0</ele><time>2026-04-12T09:56:23.93Z</time></trkpt><trkpt lat="41.2004867" lon="15.1342733"><ele>622.0</ele><time>2026-04-12T09:56:24.929Z</time></trkpt><trkpt lat="41.2003517" lon="15.1342783"><ele>622.0</ele><time>2026-04-12T09:56:25.93Z</time></trkpt><trkpt lat="41.2002183" lon="15.1342817"><ele>622.0</ele><time>2026-04-12T09:56:26.929Z</time></trkpt><trkpt lat="41.20008" lon="15.1342817"><ele>622.0</ele><time>2026-04-12T09:56:27.93Z</time></trkpt><trkpt lat="41.19995" lon="15.1342833"><ele>622.5</ele><time>2026-04-12T09:56:28.93Z</time></trkpt><trkpt lat="41.1998217" lon="15.1342883"><ele>623.0</ele><time>2026-04-12T09:56:29.93Z</time></trkpt><trkpt lat="41.19969" lon="15.1342983"><ele>623.5</ele><time>2026-04-12T09:56:30.93Z</time></trkpt><trkpt lat="41.1995567" lon="15.1343067"><ele>624.0</ele><time>2026-04-12T09:56:31.93Z</time></trkpt><trkpt lat="41.1994333" lon="15.1343117"><ele>624.0</ele><time>2026-04-12T09:56:32.93Z</time></trkpt><trkpt lat="41.1993183" lon="15.13432"><ele>624.0</ele><time>2026-04-12T09:56:33.929Z</time></trkpt><trkpt lat="41.1992117" lon="15.134325"><ele>624.0</ele><time>2026-04-12T09:56:34.929Z</time></trkpt><trkpt lat="41.19911" lon="15.1343267"><ele>624.0</ele><time>2026-04-12T09:56:35.93Z</time></trkpt><trkpt lat="41.1990133" lon="15.1343333"><ele>624.0</ele><time>2026-04-12T09:56:36.93Z</time></trkpt><trkpt lat="41.1989333" lon="15.13434"><ele>624.5</ele><time>2026-04-12T09:56:37.93Z</time></trkpt><trkpt lat="41.1988583" lon="15.134355"><ele>625.0</ele><time>2026-04-12T09:56:38.93Z</time></trkpt><trkpt lat="41.1987817" lon="15.1343867"><ele>625.5</ele><time>2026-04-12T09:56:39.93Z</time></trkpt><trkpt lat="41.198715" lon="15.1344367"><ele>626.0</ele><time>2026-04-12T09:56:40.929Z</time></trkpt><trkpt lat="41.1986467" lon="15.1344883"><ele>626.5</ele><time>2026-04-12T09:56:41.93Z</time></trkpt><trkpt lat="41.1985767" lon="15.1345217"><ele>627.0</ele><time>2026-04-12T09:56:42.93Z</time></trkpt><trkpt lat="41.198505" lon="15.13453"><ele>627.0</ele><time>2026-04-12T09:56:43.93Z</time></trkpt><trkpt lat="41.1984217" lon="15.1345217"><ele>627.0</ele><time>2026-04-12T09:56:44.93Z</time></trkpt><trkpt lat="41.19832" lon="15.1345283"><ele>627.0</ele><time>2026-04-12T09:56:45.929Z</time></trkpt><trkpt lat="41.1982133" lon="15.1345367"><ele>627.0</ele><time>2026-04-12T09:56:46.929Z</time></trkpt><trkpt lat="41.1981017" lon="15.1345483"><ele>627.0</ele><time>2026-04-12T09:56:47.929Z</time></trkpt><trkpt lat="41.19799" lon="15.1345483"><ele>627.0</ele><time>2026-04-12T09:56:48.93Z</time></trkpt><trkpt lat="41.1978883" lon="15.134565"><ele>627.0</ele><time>2026-04-12T09:56:49.929Z</time></trkpt><trkpt lat="41.19781" lon="15.1345783"><ele>627.0</ele><time>2026-04-12T09:56:50.929Z</time></trkpt><trkpt lat="41.1977383" lon="15.1346"><ele>627.0</ele><time>2026-04-12T09:56:51.93Z</time></trkpt><trkpt lat="41.197635" lon="15.13463"><ele>627.0</ele><time>2026-04-12T09:56:53.93Z</time></trkpt><trkpt lat="41.1975433" lon="15.13464"><ele>627.0</ele><time>2026-04-12T09:56:55.93Z</time></trkpt><trkpt lat="41.197435" lon="15.1346367"><ele>627.0</ele><time>2026-04-12T09:56:57.929Z</time></trkpt><trkpt lat="41.197365" lon="15.1346467"><ele>627.0</ele><time>2026-04-12T09:56:58.93Z</time></trkpt><trkpt lat="41.1972817" lon="15.13466"><ele>627.0</ele><time>2026-04-12T09:56:59.929Z</time></trkpt><trkpt lat="41.19719" lon="15.13468"><ele>627.0</ele><time>2026-04-12T09:57:00.929Z</time></trkpt><trkpt lat="41.197095" lon="15.134695"><ele>627.0</ele><time>2026-04-12T09:57:01.928Z</time></trkpt><trkpt lat="41.197" lon="15.134705"><ele>627.0</ele><time>2026-04-12T09:57:02.929Z</time></trkpt><trkpt lat="41.1969033" lon="15.1347133"><ele>627.0</ele><time>2026-04-12T09:57:03.929Z</time></trkpt><trkpt lat="41.1968033" lon="15.1347133"><ele>627.0</ele><time>2026-04-12T09:57:04.928Z</time></trkpt><trkpt lat="41.1967067" lon="15.13471"><ele>627.0</ele><time>2026-04-12T09:57:05.928Z</time></trkpt><trkpt lat="41.1966017" lon="15.13471"><ele>627.2</ele><time>2026-04-12T09:57:06.928Z</time></trkpt><trkpt lat="41.1964983" lon="15.1347117"><ele>627.4000000000001</ele><time>2026-04-12T09:57:07.929Z</time></trkpt><trkpt lat="41.196395" lon="15.1347183"><ele>627.5999999999999</ele><time>2026-04-12T09:57:08.928Z</time></trkpt><trkpt lat="41.1962883" lon="15.134725"><ele>627.8</ele><time>2026-04-12T09:57:09.929Z</time></trkpt><trkpt lat="41.1961833" lon="15.1347333"><ele>628.0</ele><time>2026-04-12T09:57:10.929Z</time></trkpt><trkpt lat="41.196075" lon="15.1347383"><ele>628.0</ele><time>2026-04-12T09:57:11.929Z</time></trkpt><trkpt lat="41.1959617" lon="15.1347433"><ele>628.0</ele><time>2026-04-12T09:57:12.929Z</time></trkpt><trkpt lat="41.19585" lon="15.1347483"><ele>628.0</ele><time>2026-04-12T09:57:13.929Z</time></trkpt><trkpt lat="41.1957417" lon="15.134755"><ele>628.0</ele><time>2026-04-12T09:57:14.929Z</time></trkpt><trkpt lat="41.1956383" lon="15.13476"><ele>628.0</ele><time>2026-04-12T09:57:15.929Z</time></trkpt><trkpt lat="41.195535" lon="15.1347617"><ele>628.1999999999999</ele><time>2026-04-12T09:57:16.929Z</time></trkpt><trkpt lat="41.1954317" lon="15.1347633"><ele>628.4</ele><time>2026-04-12T09:57:17.928Z</time></trkpt><trkpt lat="41.1953317" lon="15.1347633"><ele>628.5999999999999</ele><time>2026-04-12T09:57:18.929Z</time></trkpt><trkpt lat="41.1952467" lon="15.1347667"><ele>628.8</ele><time>2026-04-12T09:57:19.929Z</time></trkpt><trkpt lat="41.1951617" lon="15.1347733"><ele>629.0</ele><time>2026-04-12T09:57:20.929Z</time></trkpt><trkpt lat="41.195075" lon="15.1347767"><ele>629.0</ele><time>2026-04-12T09:57:21.929Z</time></trkpt><trkpt lat="41.194985" lon="15.13478"><ele>629.0</ele><time>2026-04-12T09:57:22.929Z</time></trkpt><trkpt lat="41.194895" lon="15.1347817"><ele>629.0</ele><time>2026-04-12T09:57:23.929Z</time></trkpt><trkpt lat="41.1948" lon="15.1347833"><ele>629.0</ele><time>2026-04-12T09:57:24.929Z</time></trkpt><trkpt lat="41.1947083" lon="15.1347867"><ele>629.0</ele><time>2026-04-12T09:57:25.929Z</time></trkpt><trkpt lat="41.1946183" lon="15.1347917"><ele>629.2</ele><time>2026-04-12T09:57:26.928Z</time></trkpt><trkpt lat="41.194525" lon="15.1347933"><ele>629.4</ele><time>2026-04-12T09:57:27.929Z</time></trkpt><trkpt lat="41.1944217" lon="15.1347983"><ele>629.6</ele><time>2026-04-12T09:57:28.929Z</time></trkpt><trkpt lat="41.1943183" lon="15.1348017"><ele>629.8</ele><time>2026-04-12T09:57:29.928Z</time></trkpt><trkpt lat="41.1942183" lon="15.13481"><ele>630.0</ele><time>2026-04-12T09:57:30.928Z</time></trkpt><trkpt lat="41.194105" lon="15.1348117"><ele>630.6</ele><time>2026-04-12T09:57:31.929Z</time></trkpt><trkpt lat="41.194" lon="15.1348067"><ele>631.2</ele><time>2026-04-12T09:57:32.929Z</time></trkpt><trkpt lat="41.1938933" lon="15.13481"><ele>631.8</ele><time>2026-04-12T09:57:33.929Z</time></trkpt><trkpt lat="41.1937783" lon="15.134805"><ele>632.4</ele><time>2026-04-12T09:57:34.928Z</time></trkpt><trkpt lat="41.1936683" lon="15.1348017"><ele>633.0</ele><time>2026-04-12T09:57:35.929Z</time></trkpt><trkpt lat="41.1935667" lon="15.1347933"><ele>633.0</ele><time>2026-04-12T09:57:36.929Z</time></trkpt><trkpt lat="41.1934683" lon="15.1347783"><ele>633.0</ele><time>2026-04-12T09:57:37.929Z</time></trkpt><trkpt lat="41.1933633" lon="15.1347633"><ele>633.0</ele><time>2026-04-12T09:57:38.929Z</time></trkpt><trkpt lat="41.1932517" lon="15.134745"><ele>633.0</ele><time>2026-04-12T09:57:39.929Z</time></trkpt><trkpt lat="41.1931367" lon="15.1347283"><ele>633.0</ele><time>2026-04-12T09:57:40.929Z</time></trkpt><trkpt lat="41.1930167" lon="15.134715"><ele>633.0</ele><time>2026-04-12T09:57:41.928Z</time></trkpt><trkpt lat="41.192895" lon="15.134695"><ele>633.0</ele><time>2026-04-12T09:57:42.929Z</time></trkpt><trkpt lat="41.1927633" lon="15.1346833"><ele>633.0</ele><time>2026-04-12T09:57:43.929Z</time></trkpt><trkpt lat="41.1926267" lon="15.1346683"><ele>633.0</ele><time>2026-04-12T09:57:44.928Z</time></trkpt><trkpt lat="41.1924833" lon="15.1346583"><ele>633.0</ele><time>2026-04-12T09:57:45.928Z</time></trkpt><trkpt lat="41.1923417" lon="15.1346483"><ele>633.0</ele><time>2026-04-12T09:57:46.929Z</time></trkpt><trkpt lat="41.19221" lon="15.13464"><ele>633.0</ele><time>2026-04-12T09:57:47.929Z</time></trkpt><trkpt lat="41.1920783" lon="15.1346267"><ele>633.0</ele><time>2026-04-12T09:57:48.929Z</time></trkpt><trkpt lat="41.19195" lon="15.1346167"><ele>633.1999999999999</ele><time>2026-04-12T09:57:49.929Z</time></trkpt><trkpt lat="41.191835" lon="15.1346017"><ele>633.4</ele><time>2026-04-12T09:57:50.929Z</time></trkpt><trkpt lat="41.1917183" lon="15.1345867"><ele>633.5999999999999</ele><time>2026-04-12T09:57:51.929Z</time></trkpt><trkpt lat="41.1916133" lon="15.1345733"><ele>633.8</ele><time>2026-04-12T09:57:52.929Z</time></trkpt><trkpt lat="41.1915117" lon="15.134565"><ele>634.0</ele><time>2026-04-12T09:57:53.929Z</time></trkpt><trkpt lat="41.1914033" lon="15.1345583"><ele>634.5</ele><time>2026-04-12T09:57:54.929Z</time></trkpt><trkpt lat="41.1912883" lon="15.1345383"><ele>635.0</ele><time>2026-04-12T09:57:55.928Z</time></trkpt><trkpt lat="41.191165" lon="15.13452"><ele>635.5</ele><time>2026-04-12T09:57:56.928Z</time></trkpt><trkpt lat="41.1910367" lon="15.1344967"><ele>636.0</ele><time>2026-04-12T09:57:57.928Z</time></trkpt><trkpt lat="41.190925" lon="15.1344783"><ele>636.0</ele><time>2026-04-12T09:57:58.929Z</time></trkpt><trkpt lat="41.1908133" lon="15.13446"><ele>636.0</ele><time>2026-04-12T09:57:59.929Z</time></trkpt><trkpt lat="41.1907" lon="15.1344467"><ele>636.0</ele><time>2026-04-12T09:58:00.929Z</time></trkpt><trkpt lat="41.19058" lon="15.134435"><ele>636.0</ele><time>2026-04-12T09:58:01.929Z</time></trkpt><trkpt lat="41.19046" lon="15.134425"><ele>635.5</ele><time>2026-04-12T09:58:02.929Z</time></trkpt><trkpt lat="41.19034" lon="15.1344183"><ele>635.0</ele><time>2026-04-12T09:58:03.929Z</time></trkpt><trkpt lat="41.1902267" lon="15.1344067"><ele>634.5</ele><time>2026-04-12T09:58:04.928Z</time></trkpt><trkpt lat="41.19011" lon="15.1343933"><ele>634.0</ele><time>2026-04-12T09:58:05.928Z</time></trkpt><trkpt lat="41.1900067" lon="15.134385"><ele>634.0</ele><time>2026-04-12T09:58:06.928Z</time></trkpt><trkpt lat="41.189905" lon="15.1343733"><ele>634.0</ele><time>2026-04-12T09:58:07.929Z</time></trkpt><trkpt lat="41.1898017" lon="15.1343733"><ele>634.0</ele><time>2026-04-12T09:58:08.929Z</time></trkpt><trkpt lat="41.1896967" lon="15.1343583"><ele>634.0</ele><time>2026-04-12T09:58:09.929Z</time></trkpt><trkpt lat="41.189585" lon="15.1343467"><ele>634.0</ele><time>2026-04-12T09:58:10.929Z</time></trkpt><trkpt lat="41.1894767" lon="15.1343417"><ele>633.5</ele><time>2026-04-12T09:58:11.929Z</time></trkpt><trkpt lat="41.1893633" lon="15.13434"><ele>633.0</ele><time>2026-04-12T09:58:12.929Z</time></trkpt><trkpt lat="41.1892467" lon="15.13434"><ele>632.5</ele><time>2026-04-12T09:58:13.928Z</time></trkpt><trkpt lat="41.1891283" lon="15.13434"><ele>632.0</ele><time>2026-04-12T09:58:14.928Z</time></trkpt><trkpt lat="41.188995" lon="15.134335"><ele>631.6</ele><time>2026-04-12T09:58:15.929Z</time></trkpt><trkpt lat="41.18888" lon="15.1343233"><ele>631.2</ele><time>2026-04-12T09:58:16.929Z</time></trkpt><trkpt lat="41.188775" lon="15.134325"><ele>630.8</ele><time>2026-04-12T09:58:17.929Z</time></trkpt><trkpt lat="41.1886733" lon="15.1343167"><ele>630.4</ele><time>2026-04-12T09:58:18.929Z</time></trkpt><trkpt lat="41.1885783" lon="15.1342967"><ele>630.0</ele><time>2026-04-12T09:58:19.929Z</time></trkpt><trkpt lat="41.1884883" lon="15.1342767"><ele>630.0</ele><time>2026-04-12T09:58:20.929Z</time></trkpt><trkpt lat="41.18841" lon="15.13426"><ele>630.0</ele><time>2026-04-12T09:58:21.928Z</time></trkpt><trkpt lat="41.1883317" lon="15.1342633"><ele>630.0</ele><time>2026-04-12T09:58:22.928Z</time></trkpt><trkpt lat="41.188265" lon="15.13427"><ele>630.0</ele><time>2026-04-12T09:58:23.929Z</time></trkpt><trkpt lat="41.1881617" lon="15.1343433"><ele>630.0</ele><time>2026-04-12T09:58:25.929Z</time></trkpt><trkpt lat="41.188115" lon="15.1344"><ele>630.0</ele><time>2026-04-12T09:58:26.929Z</time></trkpt><trkpt lat="41.1880367" lon="15.1345067"><ele>630.8</ele><time>2026-04-12T09:58:28.929Z</time></trkpt><trkpt lat="41.187965" lon="15.1345883"><ele>631.6</ele><time>2026-04-12T09:58:30.928Z</time></trkpt><trkpt lat="41.187905" lon="15.13467"><ele>632.4</ele><time>2026-04-12T09:58:32.929Z</time></trkpt><trkpt lat="41.18781" lon="15.1348083"><ele>633.2</ele><time>2026-04-12T09:59:23.929Z</time></trkpt><trkpt lat="41.1877467" lon="15.1348083"><ele>634.0</ele><time>2026-04-12T09:59:24.929Z</time></trkpt><trkpt lat="41.18768" lon="15.1348017"><ele>634.0</ele><time>2026-04-12T09:59:25.929Z</time></trkpt><trkpt lat="41.1875883" lon="15.13478"><ele>634.0</ele><time>2026-04-12T09:59:26.929Z</time></trkpt><trkpt lat="41.1874467" lon="15.1347183"><ele>634.0</ele><time>2026-04-12T09:59:27.929Z</time></trkpt><trkpt lat="41.18729" lon="15.1346633"><ele>634.0</ele><time>2026-04-12T09:59:28.928Z</time></trkpt><trkpt lat="41.1871367" lon="15.13461"><ele>636.0</ele><time>2026-04-12T09:59:29.929Z</time></trkpt><trkpt lat="41.1869967" lon="15.134555"><ele>638.0</ele><time>2026-04-12T09:59:30.929Z</time></trkpt><trkpt lat="41.18687" lon="15.1345183"><ele>640.0</ele><time>2026-04-12T09:59:31.928Z</time></trkpt><trkpt lat="41.18676" lon="15.134485"><ele>642.0</ele><time>2026-04-12T09:59:32.929Z</time></trkpt><trkpt lat="41.18666" lon="15.134465"><ele>642.0</ele><time>2026-04-12T09:59:33.929Z</time></trkpt><trkpt lat="41.1865767" lon="15.134445"><ele>642.0</ele><time>2026-04-12T09:59:34.929Z</time></trkpt><trkpt lat="41.1865033" lon="15.13443"><ele>642.0</ele><time>2026-04-12T09:59:35.929Z</time></trkpt><trkpt lat="41.1864033" lon="15.1343783"><ele>642.0</ele><time>2026-04-12T09:59:37.929Z</time></trkpt><trkpt lat="41.186375" lon="15.13429"><ele>642.0</ele><time>2026-04-12T09:59:39.929Z</time></trkpt><trkpt lat="41.1864067" lon="15.134145"><ele>641.3333333333334</ele><time>2026-04-12T09:59:41.929Z</time></trkpt><trkpt lat="41.1864383" lon="15.134055"><ele>640.6666666666666</ele><time>2026-04-12T09:59:42.928Z</time></trkpt><trkpt lat="41.18647" lon="15.133955"><ele>640.0</ele><time>2026-04-12T09:59:43.929Z</time></trkpt><trkpt lat="41.1865017" lon="15.13385"><ele>639.3333333333333</ele><time>2026-04-12T09:59:44.928Z</time></trkpt><trkpt lat="41.1865217" lon="15.1337483"><ele>638.6666666666666</ele><time>2026-04-12T09:59:45.929Z</time></trkpt><trkpt lat="41.1865333" lon="15.133645"><ele>638.0</ele><time>2026-04-12T09:59:46.928Z</time></trkpt><trkpt lat="41.18652" lon="15.1335467"><ele>638.5999999999999</ele><time>2026-04-12T09:59:47.929Z</time></trkpt><trkpt lat="41.186495" lon="15.1334367"><ele>639.1999999999999</ele><time>2026-04-12T09:59:48.929Z</time></trkpt><trkpt lat="41.186445" lon="15.13334"><ele>639.8</ele><time>2026-04-12T09:59:49.929Z</time></trkpt><trkpt lat="41.186375" lon="15.1332483"><ele>640.4</ele><time>2026-04-12T09:59:50.929Z</time></trkpt><trkpt lat="41.186295" lon="15.1331567"><ele>641.0</ele><time>2026-04-12T09:59:51.928Z</time></trkpt><trkpt lat="41.1862133" lon="15.1330617"><ele>641.0</ele><time>2026-04-12T09:59:52.928Z</time></trkpt><trkpt lat="41.1861317" lon="15.1329433"><ele>641.0</ele><time>2026-04-12T09:59:53.929Z</time></trkpt><trkpt lat="41.1860567" lon="15.1328317"><ele>641.0</ele><time>2026-04-12T09:59:54.929Z</time></trkpt><trkpt lat="41.1860033" lon="15.1327283"><ele>641.0</ele><time>2026-04-12T09:59:55.929Z</time></trkpt><trkpt lat="41.18596" lon="15.132655"><ele>641.0</ele><time>2026-04-12T09:59:56.929Z</time></trkpt><trkpt lat="41.1859017" lon="15.1325667"><ele>641.0</ele><time>2026-04-12T09:59:58.929Z</time></trkpt><trkpt lat="41.18582" lon="15.1325133"><ele>641.0</ele><time>2026-04-12T10:00:00.928Z</time></trkpt><trkpt lat="41.1857633" lon="15.1324767"><ele>641.0</ele><time>2026-04-12T10:00:01.928Z</time></trkpt><trkpt lat="41.1856967" lon="15.1324267"><ele>641.0</ele><time>2026-04-12T10:00:02.928Z</time></trkpt><trkpt lat="41.185615" lon="15.13236"><ele>641.0</ele><time>2026-04-12T10:00:03.929Z</time></trkpt><trkpt lat="41.1855233" lon="15.1322717"><ele>641.0</ele><time>2026-04-12T10:00:04.928Z</time></trkpt><trkpt lat="41.18543" lon="15.132185"><ele>640.5999999999999</ele><time>2026-04-12T10:00:05.928Z</time></trkpt><trkpt lat="41.1853383" lon="15.1321067"><ele>640.1999999999999</ele><time>2026-04-12T10:00:06.929Z</time></trkpt><trkpt lat="41.1852417" lon="15.1320333"><ele>639.8</ele><time>2026-04-12T10:00:07.929Z</time></trkpt><trkpt lat="41.1851517" lon="15.1319617"><ele>639.4</ele><time>2026-04-12T10:00:08.929Z</time></trkpt><trkpt lat="41.18506" lon="15.1318967"><ele>639.0</ele><time>2026-04-12T10:00:09.929Z</time></trkpt><trkpt lat="41.184985" lon="15.13183"><ele>639.0</ele><time>2026-04-12T10:00:10.929Z</time></trkpt><trkpt lat="41.1849067" lon="15.1317583"><ele>639.0</ele><time>2026-04-12T10:00:11.929Z</time></trkpt><trkpt lat="41.184835" lon="15.13167"><ele>639.0</ele><time>2026-04-12T10:00:12.929Z</time></trkpt><trkpt lat="41.1847683" lon="15.1315783"><ele>639.0</ele><time>2026-04-12T10:00:13.929Z</time></trkpt><trkpt lat="41.1847183" lon="15.13148"><ele>639.0</ele><time>2026-04-12T10:00:14.929Z</time></trkpt><trkpt lat="41.1846767" lon="15.1313767"><ele>639.0</ele><time>2026-04-12T10:00:15.928Z</time></trkpt><trkpt lat="41.1846383" lon="15.1312583"><ele>639.0</ele><time>2026-04-12T10:00:16.929Z</time></trkpt><trkpt lat="41.1845933" lon="15.1311317"><ele>639.0</ele><time>2026-04-12T10:00:17.928Z</time></trkpt><trkpt lat="41.1845517" lon="15.131025"><ele>639.0</ele><time>2026-04-12T10:00:18.929Z</time></trkpt><trkpt lat="41.1845033" lon="15.1309183"><ele>639.0</ele><time>2026-04-12T10:00:19.929Z</time></trkpt><trkpt lat="41.18445" lon="15.1308267"><ele>639.0000000000001</ele><time>2026-04-12T10:00:20.929Z</time></trkpt><trkpt lat="41.1843967" lon="15.130755"><ele>639.0</ele><time>2026-04-12T10:00:21.928Z</time></trkpt><trkpt lat="41.1843433" lon="15.1306933"><ele>639.0</ele><time>2026-04-12T10:00:22.929Z</time></trkpt><trkpt lat="41.1842867" lon="15.1306383"><ele>639.0</ele><time>2026-04-12T10:00:23.929Z</time></trkpt><trkpt lat="41.1842183" lon="15.1306"><ele>639.0</ele><time>2026-04-12T10:00:24.929Z</time></trkpt><trkpt lat="41.1841433" lon="15.1305883"><ele>639.0000000000001</ele><time>2026-04-12T10:00:25.928Z</time></trkpt><trkpt lat="41.18407" lon="15.1305833"><ele>639.0</ele><time>2026-04-12T10:00:26.928Z</time></trkpt><trkpt lat="41.1840067" lon="15.130565"><ele>638.6666666666666</ele><time>2026-04-12T10:00:27.929Z</time></trkpt><trkpt lat="41.1839467" lon="15.1305283"><ele>638.3333333333334</ele><time>2026-04-12T10:00:28.929Z</time></trkpt><trkpt lat="41.18389" lon="15.1304733"><ele>638.0</ele><time>2026-04-12T10:00:29.928Z</time></trkpt><trkpt lat="41.1838283" lon="15.130395"><ele>637.6666666666667</ele><time>2026-04-12T10:00:30.929Z</time></trkpt><trkpt lat="41.1837767" lon="15.1302967"><ele>637.3333333333334</ele><time>2026-04-12T10:00:31.929Z</time></trkpt><trkpt lat="41.1837183" lon="15.1301867"><ele>637.0</ele><time>2026-04-12T10:00:32.929Z</time></trkpt><trkpt lat="41.1836617" lon="15.130085"><ele>637.0</ele><time>2026-04-12T10:00:33.928Z</time></trkpt><trkpt lat="41.18361" lon="15.12998"><ele>637.0</ele><time>2026-04-12T10:00:34.929Z</time></trkpt><trkpt lat="41.1835617" lon="15.1298717"><ele>637.0</ele><time>2026-04-12T10:00:35.929Z</time></trkpt><trkpt lat="41.1835383" lon="15.129765"><ele>637.0</ele><time>2026-04-12T10:00:36.929Z</time></trkpt><trkpt lat="41.1835217" lon="15.1296533"><ele>637.0</ele><time>2026-04-12T10:00:37.928Z</time></trkpt><trkpt lat="41.1835183" lon="15.1295483"><ele>637.0</ele><time>2026-04-12T10:00:38.928Z</time></trkpt><trkpt lat="41.1835217" lon="15.1294283"><ele>634.8333333333334</ele><time>2026-04-12T10:00:39.929Z</time></trkpt><trkpt lat="41.18353" lon="15.129315"><ele>632.6666666666667</ele><time>2026-04-12T10:00:40.929Z</time></trkpt><trkpt lat="41.1835433" lon="15.1292083"><ele>630.5</ele><time>2026-04-12T10:00:41.929Z</time></trkpt><trkpt lat="41.1835517" lon="15.1291167"><ele>628.3333333333334</ele><time>2026-04-12T10:00:42.929Z</time></trkpt><trkpt lat="41.1835367" lon="15.1289633"><ele>626.1666666666666</ele><time>2026-04-12T10:00:44.928Z</time></trkpt><trkpt lat="41.1835" lon="15.1288917"><ele>624.0</ele><time>2026-04-12T10:00:45.928Z</time></trkpt><trkpt lat="41.1834483" lon="15.1288233"><ele>622.8</ele><time>2026-04-12T10:00:46.929Z</time></trkpt><trkpt lat="41.1833683" lon="15.1287567"><ele>621.5999999999999</ele><time>2026-04-12T10:00:47.929Z</time></trkpt><trkpt lat="41.1832767" lon="15.1286917"><ele>620.4</ele><time>2026-04-12T10:00:48.929Z</time></trkpt><trkpt lat="41.18319" lon="15.12861"><ele>619.1999999999999</ele><time>2026-04-12T10:00:49.929Z</time></trkpt><trkpt lat="41.1831017" lon="15.1285417"><ele>618.0</ele><time>2026-04-12T10:00:50.928Z</time></trkpt><trkpt lat="41.1830267" lon="15.1284633"><ele>617.4</ele><time>2026-04-12T10:00:51.928Z</time></trkpt><trkpt lat="41.1829583" lon="15.1283717"><ele>616.8</ele><time>2026-04-12T10:00:52.929Z</time></trkpt><trkpt lat="41.1828933" lon="15.1282783"><ele>616.2</ele><time>2026-04-12T10:00:53.929Z</time></trkpt><trkpt lat="41.1828317" lon="15.1281817"><ele>615.6</ele><time>2026-04-12T10:00:54.929Z</time></trkpt><trkpt lat="41.1827633" lon="15.1280767"><ele>615.0</ele><time>2026-04-12T10:00:55.929Z</time></trkpt><trkpt lat="41.1827033" lon="15.127975"><ele>613.4</ele><time>2026-04-12T10:00:56.928Z</time></trkpt><trkpt lat="41.1826383" lon="15.1278767"><ele>611.8</ele><time>2026-04-12T10:00:57.929Z</time></trkpt><trkpt lat="41.1825583" lon="15.1277933"><ele>610.2</ele><time>2026-04-12T10:00:58.929Z</time></trkpt><trkpt lat="41.18248" lon="15.1277117"><ele>608.6</ele><time>2026-04-12T10:00:59.929Z</time></trkpt><trkpt lat="41.1823983" lon="15.1276383"><ele>607.0</ele><time>2026-04-12T10:01:00.929Z</time></trkpt><trkpt lat="41.18232" lon="15.12756"><ele>607.0</ele><time>2026-04-12T10:01:01.929Z</time></trkpt><trkpt lat="41.182245" lon="15.1274767"><ele>607.0</ele><time>2026-04-12T10:01:02.928Z</time></trkpt><trkpt lat="41.18217" lon="15.1273833"><ele>607.0</ele><time>2026-04-12T10:01:03.929Z</time></trkpt><trkpt lat="41.1821067" lon="15.1272867"><ele>607.0</ele><time>2026-04-12T10:01:04.929Z</time></trkpt><trkpt lat="41.1820483" lon="15.1272017"><ele>607.0</ele><time>2026-04-12T10:01:05.929Z</time></trkpt><trkpt lat="41.18199" lon="15.12712"><ele>604.5</ele><time>2026-04-12T10:01:06.929Z</time></trkpt><trkpt lat="41.1819267" lon="15.1270467"><ele>602.0</ele><time>2026-04-12T10:01:07.929Z</time></trkpt><trkpt lat="41.18186" lon="15.126965"><ele>599.5</ele><time>2026-04-12T10:01:08.929Z</time></trkpt><trkpt lat="41.181795" lon="15.1268883"><ele>597.0</ele><time>2026-04-12T10:01:09.929Z</time></trkpt><trkpt lat="41.1817333" lon="15.1268167"><ele>594.5</ele><time>2026-04-12T10:01:10.929Z</time></trkpt><trkpt lat="41.1816683" lon="15.1267517"><ele>592.0</ele><time>2026-04-12T10:01:11.928Z</time></trkpt><trkpt lat="41.181605" lon="15.1267017"><ele>592.0</ele><time>2026-04-12T10:01:12.929Z</time></trkpt><trkpt lat="41.1815333" lon="15.1266517"><ele>592.0</ele><time>2026-04-12T10:01:13.929Z</time></trkpt><trkpt lat="41.181455" lon="15.12661"><ele>592.0</ele><time>2026-04-12T10:01:14.929Z</time></trkpt><trkpt lat="41.18137" lon="15.1265667"><ele>592.0</ele><time>2026-04-12T10:01:15.929Z</time></trkpt><trkpt lat="41.1812867" lon="15.1265217"><ele>592.0</ele><time>2026-04-12T10:01:16.929Z</time></trkpt><trkpt lat="41.1812083" lon="15.12648"><ele>592.0</ele><time>2026-04-12T10:01:17.928Z</time></trkpt><trkpt lat="41.1811317" lon="15.12644"><ele>589.5</ele><time>2026-04-12T10:01:18.929Z</time></trkpt><trkpt lat="41.1810533" lon="15.1263917"><ele>587.0</ele><time>2026-04-12T10:01:19.929Z</time></trkpt><trkpt lat="41.1809833" lon="15.1263383"><ele>584.5</ele><time>2026-04-12T10:01:20.929Z</time></trkpt><trkpt lat="41.180915" lon="15.1262817"><ele>582.0</ele><time>2026-04-12T10:01:21.929Z</time></trkpt><trkpt lat="41.1808467" lon="15.1262233"><ele>579.5</ele><time>2026-04-12T10:01:22.929Z</time></trkpt><trkpt lat="41.1807767" lon="15.12617"><ele>577.0</ele><time>2026-04-12T10:01:23.929Z</time></trkpt><trkpt lat="41.1807067" lon="15.1261333"><ele>574.1666666666667</ele><time>2026-04-12T10:01:24.929Z</time></trkpt><trkpt lat="41.1806283" lon="15.1261067"><ele>571.3333333333334</ele><time>2026-04-12T10:01:25.929Z</time></trkpt><trkpt lat="41.1805483" lon="15.126085"><ele>568.5</ele><time>2026-04-12T10:01:26.929Z</time></trkpt><trkpt lat="41.18046" lon="15.126065"><ele>565.6666666666666</ele><time>2026-04-12T10:01:27.929Z</time></trkpt><trkpt lat="41.1803667" lon="15.126035"><ele>562.8333333333333</ele><time>2026-04-12T10:01:28.929Z</time></trkpt><trkpt lat="41.1802783" lon="15.125985"><ele>560.0</ele><time>2026-04-12T10:01:29.928Z</time></trkpt><trkpt lat="41.1801867" lon="15.12592"><ele>560.0</ele><time>2026-04-12T10:01:30.929Z</time></trkpt><trkpt lat="41.1800933" lon="15.1258417"><ele>560.0</ele><time>2026-04-12T10:01:31.928Z</time></trkpt><trkpt lat="41.1799967" lon="15.1257617"><ele>560.0</ele><time>2026-04-12T10:01:32.928Z</time></trkpt><trkpt lat="41.1799017" lon="15.12568"><ele>560.0</ele><time>2026-04-12T10:01:33.928Z</time></trkpt><trkpt lat="41.17981" lon="15.1256083"><ele>560.0</ele><time>2026-04-12T10:01:34.929Z</time></trkpt><trkpt lat="41.1797283" lon="15.1255317"><ele>557.0</ele><time>2026-04-12T10:01:35.929Z</time></trkpt><trkpt lat="41.1796517" lon="15.125455"><ele>554.0</ele><time>2026-04-12T10:01:36.928Z</time></trkpt><trkpt lat="41.17958" lon="15.125365"><ele>551.0</ele><time>2026-04-12T10:01:37.929Z</time></trkpt><trkpt lat="41.1795133" lon="15.1252717"><ele>548.0</ele><time>2026-04-12T10:01:38.929Z</time></trkpt><trkpt lat="41.1794383" lon="15.1251783"><ele>545.0</ele><time>2026-04-12T10:01:39.928Z</time></trkpt><trkpt lat="41.17936" lon="15.1250983"><ele>545.0</ele><time>2026-04-12T10:01:40.929Z</time></trkpt><trkpt lat="41.179285" lon="15.12501"><ele>545.0</ele><time>2026-04-12T10:01:41.929Z</time></trkpt><trkpt lat="41.1792117" lon="15.1249283"><ele>545.0</ele><time>2026-04-12T10:01:42.929Z</time></trkpt><trkpt lat="41.179135" lon="15.1248517"><ele>545.0</ele><time>2026-04-12T10:01:43.928Z</time></trkpt><trkpt lat="41.179065" lon="15.1247783"><ele>545.0</ele><time>2026-04-12T10:01:44.929Z</time></trkpt><trkpt lat="41.1789917" lon="15.124695"><ele>542.4</ele><time>2026-04-12T10:01:45.929Z</time></trkpt><trkpt lat="41.178915" lon="15.12462"><ele>539.8</ele><time>2026-04-12T10:01:46.929Z</time></trkpt><trkpt lat="41.1788367" lon="15.124545"><ele>537.2</ele><time>2026-04-12T10:01:47.929Z</time></trkpt><trkpt lat="41.1787533" lon="15.1244767"><ele>534.6</ele><time>2026-04-12T10:01:48.929Z</time></trkpt><trkpt lat="41.1786717" lon="15.12441"><ele>532.0</ele><time>2026-04-12T10:01:49.928Z</time></trkpt><trkpt lat="41.1785833" lon="15.1243483"><ele>532.0</ele><time>2026-04-12T10:01:50.928Z</time></trkpt><trkpt lat="41.1784967" lon="15.1242917"><ele>532.0</ele><time>2026-04-12T10:01:51.929Z</time></trkpt><trkpt lat="41.1784067" lon="15.1242283"><ele>532.0</ele><time>2026-04-12T10:01:52.929Z</time></trkpt><trkpt lat="41.1783217" lon="15.1241617"><ele>532.0</ele><time>2026-04-12T10:01:53.929Z</time></trkpt><trkpt lat="41.178245" lon="15.12409"><ele>532.0</ele><time>2026-04-12T10:01:54.929Z</time></trkpt><trkpt lat="41.1781733" lon="15.1240067"><ele>529.4</ele><time>2026-04-12T10:01:55.929Z</time></trkpt><trkpt lat="41.1780967" lon="15.1239167"><ele>526.8000000000001</ele><time>2026-04-12T10:01:56.929Z</time></trkpt><trkpt lat="41.178025" lon="15.12383"><ele>524.2</ele><time>2026-04-12T10:01:57.929Z</time></trkpt><trkpt lat="41.17796" lon="15.1237383"><ele>521.6</ele><time>2026-04-12T10:01:58.928Z</time></trkpt><trkpt lat="41.1778883" lon="15.1236467"><ele>519.0</ele><time>2026-04-12T10:01:59.929Z</time></trkpt><trkpt lat="41.1778223" lon="15.1235629"><ele>519.0</ele><time>2026-04-12T10:02:00.929Z</time></trkpt><trkpt lat="41.1777643" lon="15.1234731"><ele>519.0</ele><time>2026-04-12T10:02:01.929Z</time></trkpt><trkpt lat="41.1777017" lon="15.1233826"><ele>519.0</ele><time>2026-04-12T10:02:02.929Z</time></trkpt><trkpt lat="41.1776331" lon="15.1232936"><ele>519.0</ele><time>2026-04-12T10:02:03.928Z</time></trkpt><trkpt lat="41.1775602" lon="15.123199"><ele>519.0</ele><time>2026-04-12T10:02:04.929Z</time></trkpt><trkpt lat="41.1774951" lon="15.1231082"><ele>519.2</ele><time>2026-04-12T10:02:05.928Z</time></trkpt><trkpt lat="41.1774293" lon="15.1230136"><ele>519.4</ele><time>2026-04-12T10:02:06.928Z</time></trkpt><trkpt lat="41.1773693" lon="15.1229177"><ele>519.6</ele><time>2026-04-12T10:02:07.928Z</time></trkpt><trkpt lat="41.1773122" lon="15.1228241"><ele>519.8</ele><time>2026-04-12T10:02:08.928Z</time></trkpt><trkpt lat="41.1772645" lon="15.1227195"><ele>520.0</ele><time>2026-04-12T10:02:09.928Z</time></trkpt><trkpt lat="41.1772157" lon="15.1226133"><ele>517.4</ele><time>2026-04-12T10:02:10.928Z</time></trkpt><trkpt lat="41.1771643" lon="15.1225053"><ele>514.8</ele><time>2026-04-12T10:02:11.929Z</time></trkpt><trkpt lat="41.1771039" lon="15.1224026"><ele>512.2</ele><time>2026-04-12T10:02:12.929Z</time></trkpt><trkpt lat="41.1770423" lon="15.1223029"><ele>509.6</ele><time>2026-04-12T10:02:13.928Z</time></trkpt><trkpt lat="41.1769848" lon="15.1221957"><ele>507.0</ele><time>2026-04-12T10:02:14.929Z</time></trkpt><trkpt lat="41.1769296" lon="15.1220814"><ele>506.6</ele><time>2026-04-12T10:02:15.929Z</time></trkpt><trkpt lat="41.1768736" lon="15.1219607"><ele>506.20000000000005</ele><time>2026-04-12T10:02:16.929Z</time></trkpt><trkpt lat="41.1768174" lon="15.1218412"><ele>505.8</ele><time>2026-04-12T10:02:17.929Z</time></trkpt><trkpt lat="41.1767653" lon="15.12172"><ele>505.4</ele><time>2026-04-12T10:02:18.929Z</time></trkpt><trkpt lat="41.1767206" lon="15.1215917"><ele>505.0</ele><time>2026-04-12T10:02:19.928Z</time></trkpt><trkpt lat="41.1766793" lon="15.1214609"><ele>504.5</ele><time>2026-04-12T10:02:20.928Z</time></trkpt><trkpt lat="41.1766403" lon="15.1213194"><ele>504.0</ele><time>2026-04-12T10:02:21.929Z</time></trkpt><trkpt lat="41.1766108" lon="15.1211621"><ele>503.5</ele><time>2026-04-12T10:02:22.929Z</time></trkpt><trkpt lat="41.1765711" lon="15.121002"><ele>503.0</ele><time>2026-04-12T10:02:23.929Z</time></trkpt><trkpt lat="41.176524" lon="15.1208517"><ele>500.59999999999997</ele><time>2026-04-12T10:02:24.929Z</time></trkpt><trkpt lat="41.1764808" lon="15.1207018"><ele>498.19999999999993</ele><time>2026-04-12T10:02:25.929Z</time></trkpt><trkpt lat="41.1764412" lon="15.1205659"><ele>495.8</ele><time>2026-04-12T10:02:26.929Z</time></trkpt><trkpt lat="41.176399" lon="15.1204327"><ele>493.4</ele><time>2026-04-12T10:02:27.929Z</time></trkpt><trkpt lat="41.1763602" lon="15.1203109"><ele>491.0</ele><time>2026-04-12T10:02:28.929Z</time></trkpt><trkpt lat="41.17633" lon="15.1201885"><ele>491.0</ele><time>2026-04-12T10:02:29.929Z</time></trkpt><trkpt lat="41.1763045" lon="15.1200607"><ele>491.0</ele><time>2026-04-12T10:02:30.928Z</time></trkpt><trkpt lat="41.1762822" lon="15.1199219"><ele>491.0</ele><time>2026-04-12T10:02:31.929Z</time></trkpt><trkpt lat="41.1762641" lon="15.1197678"><ele>491.0</ele><time>2026-04-12T10:02:32.929Z</time></trkpt><trkpt lat="41.17625" lon="15.1195933"><ele>490.4</ele><time>2026-04-12T10:02:33.928Z</time></trkpt><trkpt lat="41.1762433" lon="15.1194383"><ele>489.8</ele><time>2026-04-12T10:02:34.929Z</time></trkpt><trkpt lat="41.1762417" lon="15.1192767"><ele>489.19999999999993</ele><time>2026-04-12T10:02:35.929Z</time></trkpt><trkpt lat="41.176245" lon="15.1191267"><ele>488.59999999999997</ele><time>2026-04-12T10:02:36.929Z</time></trkpt><trkpt lat="41.17625" lon="15.1190033"><ele>488.0</ele><time>2026-04-12T10:02:37.929Z</time></trkpt><trkpt lat="41.17625" lon="15.1188933"><ele>488.0</ele><time>2026-04-12T10:02:38.928Z</time></trkpt><trkpt lat="41.1762533" lon="15.1187967"><ele>487.99999999999994</ele><time>2026-04-12T10:02:39.929Z</time></trkpt><trkpt lat="41.1762517" lon="15.11866"><ele>487.99999999999994</ele><time>2026-04-12T10:02:41.929Z</time></trkpt><trkpt lat="41.176285" lon="15.11856"><ele>488.0</ele><time>2026-04-12T10:02:44.929Z</time></trkpt><trkpt lat="41.1763567" lon="15.1185467"><ele>488.0</ele><time>2026-04-12T10:02:46.929Z</time></trkpt><trkpt lat="41.1764867" lon="15.11853"><ele>487.8333333333333</ele><time>2026-04-12T10:02:48.928Z</time></trkpt><trkpt lat="41.176575" lon="15.118515"><ele>487.66666666666663</ele><time>2026-04-12T10:02:49.928Z</time></trkpt><trkpt lat="41.1766633" lon="15.1185"><ele>487.5</ele><time>2026-04-12T10:02:50.929Z</time></trkpt><trkpt lat="41.1767483" lon="15.1184833"><ele>487.33333333333337</ele><time>2026-04-12T10:02:51.929Z</time></trkpt><trkpt lat="41.17683" lon="15.118475"><ele>487.1666666666667</ele><time>2026-04-12T10:02:52.929Z</time></trkpt><trkpt lat="41.1769217" lon="15.1184817"><ele>487.0</ele><time>2026-04-12T10:02:53.929Z</time></trkpt><trkpt lat="41.1770117" lon="15.1184967"><ele>487.0</ele><time>2026-04-12T10:02:54.929Z</time></trkpt><trkpt lat="41.1771067" lon="15.11852"><ele>487.00000000000006</ele><time>2026-04-12T10:02:55.929Z</time></trkpt><trkpt lat="41.1772067" lon="15.1185483"><ele>487.00000000000006</ele><time>2026-04-12T10:02:56.928Z</time></trkpt><trkpt lat="41.177305" lon="15.1185633"><ele>487.0</ele><time>2026-04-12T10:02:57.928Z</time></trkpt><trkpt lat="41.1774067" lon="15.1185633"><ele>487.0</ele><time>2026-04-12T10:02:58.928Z</time></trkpt><trkpt lat="41.1775133" lon="15.118555"><ele>487.20000000000005</ele><time>2026-04-12T10:02:59.928Z</time></trkpt><trkpt lat="41.1776183" lon="15.1185517"><ele>487.40000000000003</ele><time>2026-04-12T10:03:00.929Z</time></trkpt><trkpt lat="41.17773" lon="15.118535"><ele>487.59999999999997</ele><time>2026-04-12T10:03:01.929Z</time></trkpt><trkpt lat="41.1778367" lon="15.11852"><ele>487.79999999999995</ele><time>2026-04-12T10:03:02.928Z</time></trkpt><trkpt lat="41.177955" lon="15.1184967"><ele>488.0</ele><time>2026-04-12T10:03:03.928Z</time></trkpt><trkpt lat="41.1780683" lon="15.1184667"><ele>488.0</ele><time>2026-04-12T10:03:04.929Z</time></trkpt><trkpt lat="41.1781783" lon="15.118435"><ele>487.99999999999994</ele><time>2026-04-12T10:03:05.929Z</time></trkpt><trkpt lat="41.1782833" lon="15.1184017"><ele>487.99999999999994</ele><time>2026-04-12T10:03:06.929Z</time></trkpt><trkpt lat="41.1783967" lon="15.1183783"><ele>488.0</ele><time>2026-04-12T10:03:07.928Z</time></trkpt><trkpt lat="41.1785" lon="15.1183483"><ele>488.0</ele><time>2026-04-12T10:03:08.929Z</time></trkpt><trkpt lat="41.1785917" lon="15.11833"><ele>487.8333333333333</ele><time>2026-04-12T10:03:09.929Z</time></trkpt><trkpt lat="41.1786833" lon="15.11832"><ele>487.66666666666663</ele><time>2026-04-12T10:03:10.929Z</time></trkpt><trkpt lat="41.178755" lon="15.118315"><ele>487.5</ele><time>2026-04-12T10:03:11.928Z</time></trkpt><trkpt lat="41.178855" lon="15.1183083"><ele>487.33333333333337</ele><time>2026-04-12T10:03:13.929Z</time></trkpt><trkpt lat="41.178915" lon="15.1182517"><ele>487.1666666666667</ele><time>2026-04-12T10:03:15.929Z</time></trkpt><trkpt lat="41.1789317" lon="15.1181333"><ele>487.0</ele><time>2026-04-12T10:03:17.929Z</time></trkpt><trkpt lat="41.1789167" lon="15.11804"><ele>487.0</ele><time>2026-04-12T10:03:18.928Z</time></trkpt><trkpt lat="41.1789" lon="15.117935"><ele>487.00000000000006</ele><time>2026-04-12T10:03:19.929Z</time></trkpt><trkpt lat="41.1788883" lon="15.1178417"><ele>487.00000000000006</ele><time>2026-04-12T10:03:20.928Z</time></trkpt><trkpt lat="41.17888" lon="15.11771"><ele>487.0</ele><time>2026-04-12T10:03:22.929Z</time></trkpt><trkpt lat="41.178875" lon="15.117575"><ele>487.0</ele><time>2026-04-12T10:03:24.929Z</time></trkpt><trkpt lat="41.1789033" lon="15.11743"><ele>489.0</ele><time>2026-04-12T10:03:26.929Z</time></trkpt><trkpt lat="41.1790283" lon="15.1173583"><ele>491.00000000000006</ele><time>2026-04-12T10:03:28.929Z</time></trkpt><trkpt lat="41.179125" lon="15.1173617"><ele>493.00000000000006</ele><time>2026-04-12T10:03:29.929Z</time></trkpt><trkpt lat="41.1792133" lon="15.11736"><ele>495.0</ele><time>2026-04-12T10:03:30.929Z</time></trkpt><trkpt lat="41.1792833" lon="15.1173433"><ele>497.0</ele><time>2026-04-12T10:03:31.929Z</time></trkpt><trkpt lat="41.1793617" lon="15.117265"><ele>496.99999999999994</ele><time>2026-04-12T10:03:33.929Z</time></trkpt><trkpt lat="41.1792967" lon="15.11715"><ele>497.0</ele><time>2026-04-12T10:03:35.929Z</time></trkpt><trkpt lat="41.1792283" lon="15.11712"><ele>497.0</ele><time>2026-04-12T10:03:36.928Z</time></trkpt><trkpt lat="41.1791617" lon="15.1171117"><ele>497.0</ele><time>2026-04-12T10:03:37.929Z</time></trkpt><trkpt lat="41.1790767" lon="15.1171217"><ele>496.99999999999994</ele><time>2026-04-12T10:03:38.929Z</time></trkpt><trkpt lat="41.17897" lon="15.117125"><ele>497.0</ele><time>2026-04-12T10:03:39.929Z</time></trkpt><trkpt lat="41.1788567" lon="15.117125"><ele>498.0</ele><time>2026-04-12T10:03:40.928Z</time></trkpt><trkpt lat="41.178735" lon="15.117125"><ele>499.0</ele><time>2026-04-12T10:03:41.929Z</time></trkpt><trkpt lat="41.1786117" lon="15.117125"><ele>500.0</ele><time>2026-04-12T10:03:42.928Z</time></trkpt><trkpt lat="41.1784883" lon="15.1171133"><ele>501.0</ele><time>2026-04-12T10:03:43.929Z</time></trkpt><trkpt lat="41.178355" lon="15.1170967"><ele>501.0</ele><time>2026-04-12T10:03:44.928Z</time></trkpt><trkpt lat="41.1782133" lon="15.1170783"><ele>501.0</ele><time>2026-04-12T10:03:45.928Z</time></trkpt><trkpt lat="41.178065" lon="15.1170617"><ele>501.0</ele><time>2026-04-12T10:03:46.928Z</time></trkpt><trkpt lat="41.17792" lon="15.1170483"><ele>501.0</ele><time>2026-04-12T10:03:47.929Z</time></trkpt><trkpt lat="41.1777833" lon="15.1170333"><ele>501.25</ele><time>2026-04-12T10:03:48.929Z</time></trkpt><trkpt lat="41.17765" lon="15.11702"><ele>501.5</ele><time>2026-04-12T10:03:49.928Z</time></trkpt><trkpt lat="41.177505" lon="15.117005"><ele>501.75</ele><time>2026-04-12T10:03:50.929Z</time></trkpt><trkpt lat="41.1773667" lon="15.1169833"><ele>502.0</ele><time>2026-04-12T10:03:51.929Z</time></trkpt><trkpt lat="41.17724" lon="15.1169583"><ele>502.25</ele><time>2026-04-12T10:03:52.929Z</time></trkpt><trkpt lat="41.1771" lon="15.116945"><ele>502.5</ele><time>2026-04-12T10:03:53.929Z</time></trkpt><trkpt lat="41.17697" lon="15.116935"><ele>502.75</ele><time>2026-04-12T10:03:54.929Z</time></trkpt><trkpt lat="41.1768433" lon="15.116915"><ele>503.0</ele><time>2026-04-12T10:03:55.929Z</time></trkpt><trkpt lat="41.1767217" lon="15.1168867"><ele>503.0</ele><time>2026-04-12T10:03:56.929Z</time></trkpt><trkpt lat="41.1766033" lon="15.1168483"><ele>503.0</ele><time>2026-04-12T10:03:57.929Z</time></trkpt><trkpt lat="41.1764883" lon="15.1167883"><ele>503.0</ele><time>2026-04-12T10:03:58.928Z</time></trkpt><trkpt lat="41.1763883" lon="15.1167217"><ele>503.0</ele><time>2026-04-12T10:03:59.928Z</time></trkpt><trkpt lat="41.1762917" lon="15.1166383"><ele>504.2</ele><time>2026-04-12T10:04:00.928Z</time></trkpt><trkpt lat="41.1762" lon="15.1165467"><ele>505.4</ele><time>2026-04-12T10:04:01.929Z</time></trkpt><trkpt lat="41.17612" lon="15.116465"><ele>506.59999999999997</ele><time>2026-04-12T10:04:02.928Z</time></trkpt><trkpt lat="41.1760417" lon="15.116375"><ele>507.79999999999995</ele><time>2026-04-12T10:04:03.929Z</time></trkpt><trkpt lat="41.17596" lon="15.116275"><ele>509.0</ele><time>2026-04-12T10:04:04.929Z</time></trkpt><trkpt lat="41.1758817" lon="15.116175"><ele>509.0</ele><time>2026-04-12T10:04:05.929Z</time></trkpt><trkpt lat="41.175805" lon="15.11608"><ele>509.0</ele><time>2026-04-12T10:04:06.928Z</time></trkpt><trkpt lat="41.175725" lon="15.11598"><ele>509.0</ele><time>2026-04-12T10:04:07.929Z</time></trkpt><trkpt lat="41.175645" lon="15.1159133"><ele>509.0</ele><time>2026-04-12T10:04:08.928Z</time></trkpt><trkpt lat="41.1755583" lon="15.115875"><ele>509.0</ele><time>2026-04-12T10:04:09.928Z</time></trkpt><trkpt lat="41.175475" lon="15.1158833"><ele>511.2</ele><time>2026-04-12T10:04:10.929Z</time></trkpt><trkpt lat="41.175395" lon="15.1159317"><ele>513.4</ele><time>2026-04-12T10:04:11.929Z</time></trkpt><trkpt lat="41.1753233" lon="15.1160167"><ele>515.6</ele><time>2026-04-12T10:04:12.928Z</time></trkpt><trkpt lat="41.1752717" lon="15.1161333"><ele>517.8</ele><time>2026-04-12T10:04:13.929Z</time></trkpt><trkpt lat="41.1752233" lon="15.1162667"><ele>520.0</ele><time>2026-04-12T10:04:14.929Z</time></trkpt><trkpt lat="41.1751683" lon="15.1164067"><ele>520.0</ele><time>2026-04-12T10:04:15.929Z</time></trkpt><trkpt lat="41.1750967" lon="15.1165333"><ele>520.0</ele><time>2026-04-12T10:04:16.929Z</time></trkpt><trkpt lat="41.17501" lon="15.11665"><ele>520.0</ele><time>2026-04-12T10:04:17.928Z</time></trkpt><trkpt lat="41.174935" lon="15.1167533"><ele>520.0</ele><time>2026-04-12T10:04:18.929Z</time></trkpt><trkpt lat="41.1748583" lon="15.1168333"><ele>520.0</ele><time>2026-04-12T10:04:19.929Z</time></trkpt><trkpt lat="41.1747833" lon="15.11688"><ele>518.8</ele><time>2026-04-12T10:04:20.929Z</time></trkpt><trkpt lat="41.1747" lon="15.1168983"><ele>517.6</ele><time>2026-04-12T10:04:21.929Z</time></trkpt><trkpt lat="41.174615" lon="15.1168733"><ele>516.4</ele><time>2026-04-12T10:04:22.928Z</time></trkpt><trkpt lat="41.1745267" lon="15.116805"><ele>515.2</ele><time>2026-04-12T10:04:23.929Z</time></trkpt><trkpt lat="41.1744333" lon="15.1167217"><ele>514.0</ele><time>2026-04-12T10:04:24.929Z</time></trkpt><trkpt lat="41.174335" lon="15.116615"><ele>514.5</ele><time>2026-04-12T10:04:25.929Z</time></trkpt><trkpt lat="41.1742367" lon="15.1165067"><ele>515.0</ele><time>2026-04-12T10:04:26.929Z</time></trkpt><trkpt lat="41.1741383" lon="15.1163917"><ele>515.5</ele><time>2026-04-12T10:04:27.929Z</time></trkpt><trkpt lat="41.1740317" lon="15.1162867"><ele>516.0</ele><time>2026-04-12T10:04:28.929Z</time></trkpt><trkpt lat="41.173905" lon="15.1161633"><ele>516.0</ele><time>2026-04-12T10:04:29.928Z</time></trkpt><trkpt lat="41.173795" lon="15.1160433"><ele>516.0</ele><time>2026-04-12T10:04:30.929Z</time></trkpt><trkpt lat="41.1736833" lon="15.115915"><ele>516.0</ele><time>2026-04-12T10:04:31.929Z</time></trkpt><trkpt lat="41.1735917" lon="15.115775"><ele>516.0</ele><time>2026-04-12T10:04:32.929Z</time></trkpt><trkpt lat="41.17352" lon="15.1156067"><ele>519.0</ele><time>2026-04-12T10:04:33.929Z</time></trkpt><trkpt lat="41.1734567" lon="15.115435"><ele>522.0</ele><time>2026-04-12T10:04:34.929Z</time></trkpt><trkpt lat="41.1733783" lon="15.11525"><ele>525.0</ele><time>2026-04-12T10:04:35.929Z</time></trkpt><trkpt lat="41.1733217" lon="15.1150817"><ele>528.0</ele><time>2026-04-12T10:04:36.929Z</time></trkpt><trkpt lat="41.1732717" lon="15.1149183"><ele>529.75</ele><time>2026-04-12T10:04:37.929Z</time></trkpt><trkpt lat="41.173245" lon="15.11475"><ele>531.5</ele><time>2026-04-12T10:04:38.928Z</time></trkpt><trkpt lat="41.1732333" lon="15.1145867"><ele>533.25</ele><time>2026-04-12T10:04:39.928Z</time></trkpt><trkpt lat="41.1732417" lon="15.1144067"><ele>535.0</ele><time>2026-04-12T10:04:40.928Z</time></trkpt><trkpt lat="41.1732567" lon="15.1142133"><ele>534.5</ele><time>2026-04-12T10:04:41.929Z</time></trkpt><trkpt lat="41.1732483" lon="15.1140367"><ele>534.0</ele><time>2026-04-12T10:04:42.929Z</time></trkpt><trkpt lat="41.1732283" lon="15.113865"><ele>533.5</ele><time>2026-04-12T10:04:43.928Z</time></trkpt><trkpt lat="41.1731967" lon="15.1136983"><ele>533.0</ele><time>2026-04-12T10:04:44.928Z</time></trkpt><trkpt lat="41.17316" lon="15.113545"><ele>533.0</ele><time>2026-04-12T10:04:45.929Z</time></trkpt><trkpt lat="41.17311" lon="15.1134083"><ele>533.0</ele><time>2026-04-12T10:04:46.929Z</time></trkpt><trkpt lat="41.1730633" lon="15.1132917"><ele>533.0</ele><time>2026-04-12T10:04:47.928Z</time></trkpt><trkpt lat="41.17302" lon="15.1131933"><ele>533.0</ele><time>2026-04-12T10:04:48.929Z</time></trkpt><trkpt lat="41.1729633" lon="15.11311"><ele>533.0</ele><time>2026-04-12T10:04:49.929Z</time></trkpt><trkpt lat="41.1729033" lon="15.113055"><ele>533.0</ele><time>2026-04-12T10:04:50.929Z</time></trkpt><trkpt lat="41.172835" lon="15.1130283"><ele>533.0</ele><time>2026-04-12T10:04:51.929Z</time></trkpt><trkpt lat="41.172755" lon="15.1130717"><ele>533.0</ele><time>2026-04-12T10:04:52.929Z</time></trkpt><trkpt lat="41.17268" lon="15.1131383"><ele>533.0</ele><time>2026-04-12T10:04:53.929Z</time></trkpt><trkpt lat="41.1726133" lon="15.1132183"><ele>533.0</ele><time>2026-04-12T10:04:54.928Z</time></trkpt><trkpt lat="41.1725433" lon="15.1133017"><ele>533.0</ele><time>2026-04-12T10:04:55.929Z</time></trkpt><trkpt lat="41.1724817" lon="15.1133583"><ele>533.0</ele><time>2026-04-12T10:04:56.928Z</time></trkpt><trkpt lat="41.1724167" lon="15.1133867"><ele>533.0</ele><time>2026-04-12T10:04:57.929Z</time></trkpt><trkpt lat="41.1723483" lon="15.1133733"><ele>533.0</ele><time>2026-04-12T10:04:58.928Z</time></trkpt><trkpt lat="41.17229" lon="15.1133233"><ele>533.0</ele><time>2026-04-12T10:04:59.929Z</time></trkpt><trkpt lat="41.1722467" lon="15.113245"><ele>533.0</ele><time>2026-04-12T10:05:00.928Z</time></trkpt><trkpt lat="41.1722133" lon="15.1131483"><ele>533.0</ele><time>2026-04-12T10:05:01.929Z</time></trkpt><trkpt lat="41.172185" lon="15.1130433"><ele>533.0</ele><time>2026-04-12T10:05:02.928Z</time></trkpt><trkpt lat="41.172155" lon="15.112935"><ele>534.1999999999999</ele><time>2026-04-12T10:05:03.929Z</time></trkpt><trkpt lat="41.1721167" lon="15.1128217"><ele>535.4</ele><time>2026-04-12T10:05:04.929Z</time></trkpt><trkpt lat="41.1720667" lon="15.1127133"><ele>536.5999999999999</ele><time>2026-04-12T10:05:05.929Z</time></trkpt><trkpt lat="41.1720067" lon="15.1126117"><ele>537.8</ele><time>2026-04-12T10:05:06.929Z</time></trkpt><trkpt lat="41.1719417" lon="15.1125167"><ele>539.0</ele><time>2026-04-12T10:05:07.928Z</time></trkpt><trkpt lat="41.1718667" lon="15.112435"><ele>541.4</ele><time>2026-04-12T10:05:08.929Z</time></trkpt><trkpt lat="41.1717867" lon="15.11235"><ele>543.8</ele><time>2026-04-12T10:05:09.928Z</time></trkpt><trkpt lat="41.171715" lon="15.1122583"><ele>546.2</ele><time>2026-04-12T10:05:10.929Z</time></trkpt><trkpt lat="41.17165" lon="15.112145"><ele>548.6</ele><time>2026-04-12T10:05:11.929Z</time></trkpt><trkpt lat="41.171595" lon="15.1120267"><ele>551.0</ele><time>2026-04-12T10:05:12.929Z</time></trkpt><trkpt lat="41.1715633" lon="15.111895"><ele>551.0</ele><time>2026-04-12T10:05:13.929Z</time></trkpt><trkpt lat="41.1715267" lon="15.1117633"><ele>551.0</ele><time>2026-04-12T10:05:14.929Z</time></trkpt><trkpt lat="41.1714967" lon="15.11163"><ele>551.0</ele><time>2026-04-12T10:05:15.928Z</time></trkpt><trkpt lat="41.171465" lon="15.1114983"><ele>551.0</ele><time>2026-04-12T10:05:16.929Z</time></trkpt><trkpt lat="41.1714283" lon="15.1113667"><ele>551.0</ele><time>2026-04-12T10:05:17.929Z</time></trkpt><trkpt lat="41.1713817" lon="15.111235"><ele>550.2</ele><time>2026-04-12T10:05:18.929Z</time></trkpt><trkpt lat="41.1713417" lon="15.1111083"><ele>549.4000000000001</ele><time>2026-04-12T10:05:19.928Z</time></trkpt><trkpt lat="41.171285" lon="15.1109817"><ele>548.6</ele><time>2026-04-12T10:05:20.928Z</time></trkpt><trkpt lat="41.171235" lon="15.1108567"><ele>547.8000000000001</ele><time>2026-04-12T10:05:21.928Z</time></trkpt><trkpt lat="41.1711967" lon="15.110735"><ele>547.0</ele><time>2026-04-12T10:05:22.929Z</time></trkpt><trkpt lat="41.17118" lon="15.1106067"><ele>547.0</ele><time>2026-04-12T10:05:23.928Z</time></trkpt><trkpt lat="41.1711817" lon="15.1104717"><ele>547.0</ele><time>2026-04-12T10:05:24.929Z</time></trkpt><trkpt lat="41.1712" lon="15.1103317"><ele>547.0</ele><time>2026-04-12T10:05:25.929Z</time></trkpt><trkpt lat="41.1712267" lon="15.1101917"><ele>547.0</ele><time>2026-04-12T10:05:26.928Z</time></trkpt><trkpt lat="41.1712633" lon="15.1100433"><ele>547.0</ele><time>2026-04-12T10:05:27.929Z</time></trkpt><trkpt lat="41.171305" lon="15.1099"><ele>548.25</ele><time>2026-04-12T10:05:28.929Z</time></trkpt><trkpt lat="41.1713517" lon="15.1097467"><ele>549.5</ele><time>2026-04-12T10:05:29.929Z</time></trkpt><trkpt lat="41.1713917" lon="15.1096017"><ele>550.75</ele><time>2026-04-12T10:05:30.929Z</time></trkpt><trkpt lat="41.1714167" lon="15.1094517"><ele>552.0</ele><time>2026-04-12T10:05:31.929Z</time></trkpt><trkpt lat="41.1714317" lon="15.1092983"><ele>552.0</ele><time>2026-04-12T10:05:32.929Z</time></trkpt><trkpt lat="41.171435" lon="15.109145"><ele>552.0</ele><time>2026-04-12T10:05:33.929Z</time></trkpt><trkpt lat="41.171455" lon="15.1090067"><ele>552.0</ele><time>2026-04-12T10:05:34.929Z</time></trkpt><trkpt lat="41.1714833" lon="15.1088733"><ele>552.0</ele><time>2026-04-12T10:05:35.928Z</time></trkpt><trkpt lat="41.171525" lon="15.1087367"><ele>552.0</ele><time>2026-04-12T10:05:36.929Z</time></trkpt><trkpt lat="41.1715633" lon="15.108595"><ele>554.4</ele><time>2026-04-12T10:05:37.929Z</time></trkpt><trkpt lat="41.171615" lon="15.1084683"><ele>556.8000000000001</ele><time>2026-04-12T10:05:38.929Z</time></trkpt><trkpt lat="41.1716733" lon="15.10835"><ele>559.2</ele><time>2026-04-12T10:05:39.929Z</time></trkpt><trkpt lat="41.1717183" lon="15.1082183"><ele>561.6</ele><time>2026-04-12T10:05:40.929Z</time></trkpt><trkpt lat="41.171755" lon="15.108095"><ele>564.0</ele><time>2026-04-12T10:05:41.928Z</time></trkpt><trkpt lat="41.1717783" lon="15.1079833"><ele>564.8</ele><time>2026-04-12T10:05:42.929Z</time></trkpt><trkpt lat="41.17179" lon="15.1078733"><ele>565.5999999999999</ele><time>2026-04-12T10:05:43.928Z</time></trkpt><trkpt lat="41.1717867" lon="15.1077733"><ele>566.4</ele><time>2026-04-12T10:05:44.929Z</time></trkpt><trkpt lat="41.17181" lon="15.1076317"><ele>567.1999999999999</ele><time>2026-04-12T10:05:46.929Z</time></trkpt><trkpt lat="41.1718883" lon="15.1075667"><ele>568.0</ele><time>2026-04-12T10:05:48.929Z</time></trkpt><trkpt lat="41.171995" lon="15.1074867"><ele>568.0</ele><time>2026-04-12T10:05:50.928Z</time></trkpt><trkpt lat="41.1720983" lon="15.1074333"><ele>568.0</ele><time>2026-04-12T10:05:52.929Z</time></trkpt><trkpt lat="41.1722" lon="15.107485"><ele>568.0</ele><time>2026-04-12T10:05:54.929Z</time></trkpt><trkpt lat="41.17224" lon="15.107585"><ele>568.0</ele><time>2026-04-12T10:05:55.928Z</time></trkpt><trkpt lat="41.172285" lon="15.1077067"><ele>568.0</ele><time>2026-04-12T10:05:56.929Z</time></trkpt><trkpt lat="41.1723217" lon="15.1078983"><ele>569.75</ele><time>2026-04-12T10:05:57.929Z</time></trkpt><trkpt lat="41.172365" lon="15.10812"><ele>571.5</ele><time>2026-04-12T10:05:58.928Z</time></trkpt><trkpt lat="41.17241" lon="15.1082983"><ele>573.25</ele><time>2026-04-12T10:05:59.928Z</time></trkpt><trkpt lat="41.1724517" lon="15.1084333"><ele>575.0</ele><time>2026-04-12T10:06:00.928Z</time></trkpt><trkpt lat="41.1724917" lon="15.1085567"><ele>575.8</ele><time>2026-04-12T10:06:01.929Z</time></trkpt><trkpt lat="41.17253" lon="15.10868"><ele>576.6</ele><time>2026-04-12T10:06:02.929Z</time></trkpt><trkpt lat="41.1725717" lon="15.1087983"><ele>577.4</ele><time>2026-04-12T10:06:03.929Z</time></trkpt><trkpt lat="41.1726217" lon="15.1089167"><ele>578.2</ele><time>2026-04-12T10:06:04.929Z</time></trkpt><trkpt lat="41.172665" lon="15.10902"><ele>579.0</ele><time>2026-04-12T10:06:05.928Z</time></trkpt><trkpt lat="41.1727" lon="15.1091067"><ele>579.0</ele><time>2026-04-12T10:06:06.928Z</time></trkpt><trkpt lat="41.1727483" lon="15.10918"><ele>579.0</ele><time>2026-04-12T10:06:07.928Z</time></trkpt><trkpt lat="41.172795" lon="15.1092633"><ele>579.0</ele><time>2026-04-12T10:06:08.929Z</time></trkpt><trkpt lat="41.17285" lon="15.1093383"><ele>579.0</ele><time>2026-04-12T10:06:09.929Z</time></trkpt><trkpt lat="41.1729183" lon="15.109405"><ele>579.0</ele><time>2026-04-12T10:06:10.928Z</time></trkpt><trkpt lat="41.1729917" lon="15.1094533"><ele>579.0</ele><time>2026-04-12T10:06:11.929Z</time></trkpt><trkpt lat="41.1730683" lon="15.109485"><ele>579.0</ele><time>2026-04-12T10:06:12.929Z</time></trkpt><trkpt lat="41.1731383" lon="15.1095433"><ele>579.0</ele><time>2026-04-12T10:06:13.928Z</time></trkpt><trkpt lat="41.17321" lon="15.1095933"><ele>579.0</ele><time>2026-04-12T10:06:14.929Z</time></trkpt><trkpt lat="41.1732783" lon="15.10965"><ele>579.0</ele><time>2026-04-12T10:06:15.928Z</time></trkpt><trkpt lat="41.1733533" lon="15.1096933"><ele>579.0</ele><time>2026-04-12T10:06:16.929Z</time></trkpt><trkpt lat="41.1734317" lon="15.10972"><ele>579.0</ele><time>2026-04-12T10:06:17.929Z</time></trkpt><trkpt lat="41.173515" lon="15.1097383"><ele>582.2</ele><time>2026-04-12T10:06:18.929Z</time></trkpt><trkpt lat="41.1735983" lon="15.1097367"><ele>585.4</ele><time>2026-04-12T10:06:19.929Z</time></trkpt><trkpt lat="41.1736833" lon="15.1097267"><ele>588.6</ele><time>2026-04-12T10:06:20.928Z</time></trkpt><trkpt lat="41.17377" lon="15.1097083"><ele>591.8</ele><time>2026-04-12T10:06:21.929Z</time></trkpt><trkpt lat="41.17387" lon="15.1096683"><ele>595.0</ele><time>2026-04-12T10:06:22.929Z</time></trkpt><trkpt lat="41.1739683" lon="15.1095983"><ele>594.75</ele><time>2026-04-12T10:06:23.929Z</time></trkpt><trkpt lat="41.174065" lon="15.1095217"><ele>594.5</ele><time>2026-04-12T10:06:24.928Z</time></trkpt><trkpt lat="41.17417" lon="15.1094617"><ele>594.25</ele><time>2026-04-12T10:06:25.929Z</time></trkpt><trkpt lat="41.1742767" lon="15.1094117"><ele>594.0</ele><time>2026-04-12T10:06:26.928Z</time></trkpt><trkpt lat="41.1743833" lon="15.1093767"><ele>594.0</ele><time>2026-04-12T10:06:27.928Z</time></trkpt><trkpt lat="41.1744833" lon="15.1093583"><ele>594.0</ele><time>2026-04-12T10:06:28.928Z</time></trkpt><trkpt lat="41.1745733" lon="15.1093533"><ele>594.0</ele><time>2026-04-12T10:06:29.928Z</time></trkpt><trkpt lat="41.1746633" lon="15.1093667"><ele>594.0</ele><time>2026-04-12T10:06:30.928Z</time></trkpt><trkpt lat="41.1747467" lon="15.10939"><ele>594.0</ele><time>2026-04-12T10:06:31.929Z</time></trkpt><trkpt lat="41.1748333" lon="15.1094117"><ele>591.6</ele><time>2026-04-12T10:06:32.929Z</time></trkpt><trkpt lat="41.174925" lon="15.109425"><ele>589.2</ele><time>2026-04-12T10:06:33.929Z</time></trkpt><trkpt lat="41.1750283" lon="15.10943"><ele>586.8000000000001</ele><time>2026-04-12T10:06:34.929Z</time></trkpt><trkpt lat="41.1751317" lon="15.10943"><ele>584.4</ele><time>2026-04-12T10:06:35.929Z</time></trkpt><trkpt lat="41.1752367" lon="15.1094367"><ele>582.0</ele><time>2026-04-12T10:06:36.929Z</time></trkpt><trkpt lat="41.1753367" lon="15.1094683"><ele>582.0</ele><time>2026-04-12T10:06:37.928Z</time></trkpt><trkpt lat="41.1754333" lon="15.1095017"><ele>582.0</ele><time>2026-04-12T10:06:38.929Z</time></trkpt><trkpt lat="41.1755317" lon="15.1095417"><ele>582.0</ele><time>2026-04-12T10:06:39.929Z</time></trkpt><trkpt lat="41.1756183" lon="15.10959"><ele>582.0</ele><time>2026-04-12T10:06:40.928Z</time></trkpt><trkpt lat="41.1757167" lon="15.1096483"><ele>582.0</ele><time>2026-04-12T10:06:41.929Z</time></trkpt><trkpt lat="41.1758067" lon="15.1097"><ele>581.3333333333334</ele><time>2026-04-12T10:06:42.928Z</time></trkpt><trkpt lat="41.1758967" lon="15.1097433"><ele>580.6666666666666</ele><time>2026-04-12T10:06:43.929Z</time></trkpt><trkpt lat="41.1759767" lon="15.10978"><ele>580.0</ele><time>2026-04-12T10:06:44.929Z</time></trkpt><trkpt lat="41.176045" lon="15.1098067"><ele>579.3333333333333</ele><time>2026-04-12T10:06:45.929Z</time></trkpt><trkpt lat="41.176115" lon="15.1098467"><ele>578.6666666666666</ele><time>2026-04-12T10:06:46.928Z</time></trkpt><trkpt lat="41.1761883" lon="15.1099017"><ele>578.0</ele><time>2026-04-12T10:06:47.929Z</time></trkpt><trkpt lat="41.1762683" lon="15.1099767"><ele>578.0</ele><time>2026-04-12T10:06:48.929Z</time></trkpt><trkpt lat="41.176355" lon="15.1100633"><ele>578.0</ele><time>2026-04-12T10:06:49.929Z</time></trkpt><trkpt lat="41.1764483" lon="15.1101567"><ele>578.0</ele><time>2026-04-12T10:06:50.929Z</time></trkpt><trkpt lat="41.1765433" lon="15.11025"><ele>578.0</ele><time>2026-04-12T10:06:51.929Z</time></trkpt><trkpt lat="41.176635" lon="15.110345"><ele>577.75</ele><time>2026-04-12T10:06:52.928Z</time></trkpt><trkpt lat="41.17673" lon="15.1104633"><ele>577.5</ele><time>2026-04-12T10:06:53.929Z</time></trkpt><trkpt lat="41.1768117" lon="15.1105983"><ele>577.25</ele><time>2026-04-12T10:06:54.929Z</time></trkpt><trkpt lat="41.1768733" lon="15.110715"><ele>577.0</ele><time>2026-04-12T10:06:55.929Z</time></trkpt><trkpt lat="41.17695" lon="15.1107867"><ele>579.6</ele><time>2026-04-12T10:06:56.929Z</time></trkpt><trkpt lat="41.1770317" lon="15.110825"><ele>582.2</ele><time>2026-04-12T10:06:57.928Z</time></trkpt><trkpt lat="41.1771233" lon="15.11085"><ele>584.8</ele><time>2026-04-12T10:06:58.929Z</time></trkpt><trkpt lat="41.177215" lon="15.1108817"><ele>587.4</ele><time>2026-04-12T10:06:59.929Z</time></trkpt><trkpt lat="41.177305" lon="15.11094"><ele>590.0</ele><time>2026-04-12T10:07:00.928Z</time></trkpt><trkpt lat="41.1773967" lon="15.111015"><ele>591.2</ele><time>2026-04-12T10:07:01.928Z</time></trkpt><trkpt lat="41.1774833" lon="15.11108"><ele>592.4</ele><time>2026-04-12T10:07:02.928Z</time></trkpt><trkpt lat="41.177575" lon="15.1111067"><ele>593.6</ele><time>2026-04-12T10:07:03.928Z</time></trkpt><trkpt lat="41.177675" lon="15.1111"><ele>594.8</ele><time>2026-04-12T10:07:04.929Z</time></trkpt><trkpt lat="41.1777817" lon="15.111065"><ele>596.0</ele><time>2026-04-12T10:07:05.929Z</time></trkpt><trkpt lat="41.177885" lon="15.1110317"><ele>596.0</ele><time>2026-04-12T10:07:06.929Z</time></trkpt><trkpt lat="41.1779833" lon="15.111005"><ele>596.0</ele><time>2026-04-12T10:07:07.928Z</time></trkpt><trkpt lat="41.178075" lon="15.1109983"><ele>596.0</ele><time>2026-04-12T10:07:08.929Z</time></trkpt><trkpt lat="41.178165" lon="15.1110083"><ele>596.0</ele><time>2026-04-12T10:07:09.929Z</time></trkpt><trkpt lat="41.178245" lon="15.11102"><ele>596.0</ele><time>2026-04-12T10:07:10.929Z</time></trkpt><trkpt lat="41.1783267" lon="15.1110283"><ele>596.0</ele><time>2026-04-12T10:07:11.928Z</time></trkpt><trkpt lat="41.1783967" lon="15.11101"><ele>595.3333333333333</ele><time>2026-04-12T10:07:12.929Z</time></trkpt><trkpt lat="41.17847" lon="15.1109717"><ele>594.6666666666666</ele><time>2026-04-12T10:07:13.929Z</time></trkpt><trkpt lat="41.178545" lon="15.1109167"><ele>594.0</ele><time>2026-04-12T10:07:14.929Z</time></trkpt><trkpt lat="41.1786183" lon="15.1108517"><ele>593.3333333333334</ele><time>2026-04-12T10:07:15.929Z</time></trkpt><trkpt lat="41.1786917" lon="15.1107817"><ele>592.6666666666667</ele><time>2026-04-12T10:07:16.929Z</time></trkpt><trkpt lat="41.1787633" lon="15.1107033"><ele>592.0</ele><time>2026-04-12T10:07:17.928Z</time></trkpt><trkpt lat="41.17883" lon="15.110635"><ele>592.0</ele><time>2026-04-12T10:07:18.929Z</time></trkpt><trkpt lat="41.1788883" lon="15.1105567"><ele>592.0</ele><time>2026-04-12T10:07:19.929Z</time></trkpt><trkpt lat="41.178935" lon="15.1104867"><ele>592.0</ele><time>2026-04-12T10:07:20.929Z</time></trkpt><trkpt lat="41.1789917" lon="15.1104183"><ele>592.0</ele><time>2026-04-12T10:07:21.929Z</time></trkpt><trkpt lat="41.179055" lon="15.1103533"><ele>592.0</ele><time>2026-04-12T10:07:22.929Z</time></trkpt><trkpt lat="41.17912" lon="15.1103"><ele>592.0</ele><time>2026-04-12T10:07:23.929Z</time></trkpt><trkpt lat="41.1791983" lon="15.11026"><ele>590.8000000000001</ele><time>2026-04-12T10:07:24.929Z</time></trkpt><trkpt lat="41.1792817" lon="15.1102117"><ele>589.6</ele><time>2026-04-12T10:07:25.929Z</time></trkpt><trkpt lat="41.179365" lon="15.110175"><ele>588.4000000000001</ele><time>2026-04-12T10:07:26.929Z</time></trkpt><trkpt lat="41.1794517" lon="15.1101383"><ele>587.2</ele><time>2026-04-12T10:07:27.929Z</time></trkpt><trkpt lat="41.179535" lon="15.1101083"><ele>586.0</ele><time>2026-04-12T10:07:28.928Z</time></trkpt><trkpt lat="41.1796267" lon="15.1100633"><ele>586.0</ele><time>2026-04-12T10:07:29.928Z</time></trkpt><trkpt lat="41.1797117" lon="15.1100483"><ele>586.0</ele><time>2026-04-12T10:07:30.929Z</time></trkpt><trkpt lat="41.1797933" lon="15.1100517"><ele>586.0</ele><time>2026-04-12T10:07:31.928Z</time></trkpt><trkpt lat="41.17988" lon="15.1100733"><ele>586.0</ele><time>2026-04-12T10:07:32.928Z</time></trkpt><trkpt lat="41.1799633" lon="15.1101183"><ele>586.0</ele><time>2026-04-12T10:07:33.929Z</time></trkpt><trkpt lat="41.1800333" lon="15.110165"><ele>586.0</ele><time>2026-04-12T10:07:34.928Z</time></trkpt><trkpt lat="41.1801017" lon="15.1101983"><ele>574.0</ele><time>2026-04-12T10:07:35.929Z</time></trkpt><trkpt lat="41.1801617" lon="15.1102283"><ele>574.0</ele><time>2026-04-12T10:07:36.929Z</time></trkpt><trkpt lat="41.18027" lon="15.1102717"><ele>574.0</ele><time>2026-04-12T10:07:38.929Z</time></trkpt><trkpt lat="41.180355" lon="15.110285"><ele>574.0</ele><time>2026-04-12T10:07:40.928Z</time></trkpt><trkpt lat="41.18042" lon="15.110305"><ele>574.0</ele><time>2026-04-12T10:07:44.929Z</time></trkpt></trkseg></trk></gpx>